<?xml version="1.0" encoding="UTF-8" standalone="no" ?>
<gpx xmlns="http://www.topografix.com/GPX/1/1" xmlns:xsi="http://www.w3.org/2001/XMLSchema-instance" xsi:schemaLocation="http://www.topografix.com/GPX/1/1 http://www.topografix.com/GPX/1/1/gpx.xsd" version="1.1" creator="VisuGPX - https://www.visugpx.com">
  <metadata>
    <name>valberg</name>
    <desc><![CDATA[Dimanche Valberg]]></desc>
  </metadata>
  <trk>
    <name><![CDATA[Track 017]]></name>
    <desc><![CDATA[10 oct. 2010  9:03 am]]></desc>
    <trkseg>
      <trkpt lat="44.09048" lon="6.96996">
        <ele>1544.560559</ele>
        <time>2010-10-10T07:05:50Z</time>
      </trkpt>
      <trkpt lat="44.09039" lon="6.96998">
        <ele>1544.59706</ele>
        <time>2010-10-10T07:05:56Z</time>
      </trkpt>
      <trkpt lat="44.09029" lon="6.96995">
        <ele>1544.76227</ele>
        <time>2010-10-10T07:06:00Z</time>
      </trkpt>
      <trkpt lat="44.09022" lon="6.96989">
        <ele>1546.513875</ele>
        <time>2010-10-10T07:06:04Z</time>
      </trkpt>
      <trkpt lat="44.09026" lon="6.96973">
        <ele>1550.48201</ele>
        <time>2010-10-10T07:06:13Z</time>
      </trkpt>
      <trkpt lat="44.09032" lon="6.96965">
        <ele>1554.348627</ele>
        <time>2010-10-10T07:06:17Z</time>
      </trkpt>
      <trkpt lat="44.09035" lon="6.96964">
        <ele>1556.125582</ele>
        <time>2010-10-10T07:06:20Z</time>
      </trkpt>
      <trkpt lat="44.09041" lon="6.9697">
        <ele>1556.221924</ele>
        <time>2010-10-10T07:06:26Z</time>
      </trkpt>
      <trkpt lat="44.09047" lon="6.9698">
        <ele>1555.393902</ele>
        <time>2010-10-10T07:06:31Z</time>
      </trkpt>
      <trkpt lat="44.09049" lon="6.96988">
        <ele>1554.211459</ele>
        <time>2010-10-10T07:06:34Z</time>
      </trkpt>
      <trkpt lat="44.09054" lon="6.97001">
        <ele>1553.025894</ele>
        <time>2010-10-10T07:06:39Z</time>
      </trkpt>
      <trkpt lat="44.09056" lon="6.97007">
        <ele>1552.077154</ele>
        <time>2010-10-10T07:06:42Z</time>
      </trkpt>
      <trkpt lat="44.09058" lon="6.97015">
        <ele>1551.563365</ele>
        <time>2010-10-10T07:06:45Z</time>
      </trkpt>
      <trkpt lat="44.0906" lon="6.97022">
        <ele>1551.447329</ele>
        <time>2010-10-10T07:06:48Z</time>
      </trkpt>
      <trkpt lat="44.09062" lon="6.97028">
        <ele>1551.506467</ele>
        <time>2010-10-10T07:06:51Z</time>
      </trkpt>
      <trkpt lat="44.09065" lon="6.97036">
        <ele>1551.722181</ele>
        <time>2010-10-10T07:06:53Z</time>
      </trkpt>
      <trkpt lat="44.09067" lon="6.97041">
        <ele>1552.123538</ele>
        <time>2010-10-10T07:06:55Z</time>
      </trkpt>
      <trkpt lat="44.09069" lon="6.97051">
        <ele>1552.502071</ele>
        <time>2010-10-10T07:06:58Z</time>
      </trkpt>
      <trkpt lat="44.09071" lon="6.97057">
        <ele>1552.672368</ele>
        <time>2010-10-10T07:07:01Z</time>
      </trkpt>
      <trkpt lat="44.09071" lon="6.97066">
        <ele>1552.692582</ele>
        <time>2010-10-10T07:07:03Z</time>
      </trkpt>
      <trkpt lat="44.09068" lon="6.97072">
        <ele>1552.65927</ele>
        <time>2010-10-10T07:07:10Z</time>
      </trkpt>
      <trkpt lat="44.09061" lon="6.97077">
        <ele>1552.766648</ele>
        <time>2010-10-10T07:07:17Z</time>
      </trkpt>
      <trkpt lat="44.09058" lon="6.97078">
        <ele>1553.25106</ele>
        <time>2010-10-10T07:07:19Z</time>
      </trkpt>
      <trkpt lat="44.09047" lon="6.97081">
        <ele>1554.255255</ele>
        <time>2010-10-10T07:07:26Z</time>
      </trkpt>
      <trkpt lat="44.09041" lon="6.97082">
        <ele>1555.66069</ele>
        <time>2010-10-10T07:07:28Z</time>
      </trkpt>
      <trkpt lat="44.09032" lon="6.97082">
        <ele>1556.963755</ele>
        <time>2010-10-10T07:07:31Z</time>
      </trkpt>
      <trkpt lat="44.09024" lon="6.97083">
        <ele>1558.095886</ele>
        <time>2010-10-10T07:07:34Z</time>
      </trkpt>
      <trkpt lat="44.09013" lon="6.97083">
        <ele>1559.482073</ele>
        <time>2010-10-10T07:07:38Z</time>
      </trkpt>
      <trkpt lat="44.09007" lon="6.97082">
        <ele>1561.010557</ele>
        <time>2010-10-10T07:07:42Z</time>
      </trkpt>
      <trkpt lat="44.08996" lon="6.97081">
        <ele>1562.159123</ele>
        <time>2010-10-10T07:07:49Z</time>
      </trkpt>
      <trkpt lat="44.08992" lon="6.97081">
        <ele>1562.72548</ele>
        <time>2010-10-10T07:07:51Z</time>
      </trkpt>
      <trkpt lat="44.08987" lon="6.9708">
        <ele>1562.824118</ele>
        <time>2010-10-10T07:07:54Z</time>
      </trkpt>
      <trkpt lat="44.08977" lon="6.9708">
        <ele>1562.875097</ele>
        <time>2010-10-10T07:07:57Z</time>
      </trkpt>
      <trkpt lat="44.08965" lon="6.97077">
        <ele>1563.279479</ele>
        <time>2010-10-10T07:08:04Z</time>
      </trkpt>
      <trkpt lat="44.08954" lon="6.97075">
        <ele>1564.101365</ele>
        <time>2010-10-10T07:08:09Z</time>
      </trkpt>
      <trkpt lat="44.08942" lon="6.97072">
        <ele>1564.998338</ele>
        <time>2010-10-10T07:08:15Z</time>
      </trkpt>
      <trkpt lat="44.08935" lon="6.9707">
        <ele>1565.853178</ele>
        <time>2010-10-10T07:08:18Z</time>
      </trkpt>
      <trkpt lat="44.08926" lon="6.97067">
        <ele>1566.752373</ele>
        <time>2010-10-10T07:08:21Z</time>
      </trkpt>
      <trkpt lat="44.0892" lon="6.97065">
        <ele>1567.461324</ele>
        <time>2010-10-10T07:08:24Z</time>
      </trkpt>
      <trkpt lat="44.08914" lon="6.97063">
        <ele>1567.87641</ele>
        <time>2010-10-10T07:08:27Z</time>
      </trkpt>
      <trkpt lat="44.0891" lon="6.97062">
        <ele>1568.242513</ele>
        <time>2010-10-10T07:08:30Z</time>
      </trkpt>
      <trkpt lat="44.08904" lon="6.97059">
        <ele>1568.537706</ele>
        <time>2010-10-10T07:08:33Z</time>
      </trkpt>
      <trkpt lat="44.08894" lon="6.97053">
        <ele>1568.655367</ele>
        <time>2010-10-10T07:08:36Z</time>
      </trkpt>
      <trkpt lat="44.08892" lon="6.97051">
        <ele>1568.659737</ele>
        <time>2010-10-10T07:08:39Z</time>
      </trkpt>
      <trkpt lat="44.08881" lon="6.97043">
        <ele>1568.629503</ele>
        <time>2010-10-10T07:08:41Z</time>
      </trkpt>
      <trkpt lat="44.08872" lon="6.97039">
        <ele>1568.743696</ele>
        <time>2010-10-10T07:08:43Z</time>
      </trkpt>
      <trkpt lat="44.08869" lon="6.97038">
        <ele>1569.232322</ele>
        <time>2010-10-10T07:08:46Z</time>
      </trkpt>
      <trkpt lat="44.08861" lon="6.97034">
        <ele>1569.961355</ele>
        <time>2010-10-10T07:08:49Z</time>
      </trkpt>
      <trkpt lat="44.08851" lon="6.97031">
        <ele>1570.508516</ele>
        <time>2010-10-10T07:08:54Z</time>
      </trkpt>
      <trkpt lat="44.08847" lon="6.9703">
        <ele>1570.712257</ele>
        <time>2010-10-10T07:08:57Z</time>
      </trkpt>
      <trkpt lat="44.08839" lon="6.97029">
        <ele>1570.985921</ele>
        <time>2010-10-10T07:08:59Z</time>
      </trkpt>
      <trkpt lat="44.08832" lon="6.97027">
        <ele>1571.921967</ele>
        <time>2010-10-10T07:09:02Z</time>
      </trkpt>
      <trkpt lat="44.08824" lon="6.97024">
        <ele>1573.336181</ele>
        <time>2010-10-10T07:09:05Z</time>
      </trkpt>
      <trkpt lat="44.08819" lon="6.97022">
        <ele>1574.54745</ele>
        <time>2010-10-10T07:09:07Z</time>
      </trkpt>
      <trkpt lat="44.08814" lon="6.97021">
        <ele>1575.449501</ele>
        <time>2010-10-10T07:09:10Z</time>
      </trkpt>
      <trkpt lat="44.08809" lon="6.97017">
        <ele>1576.453206</ele>
        <time>2010-10-10T07:09:13Z</time>
      </trkpt>
      <trkpt lat="44.08803" lon="6.97008">
        <ele>1577.739262</ele>
        <time>2010-10-10T07:09:20Z</time>
      </trkpt>
      <trkpt lat="44.08809" lon="6.97006">
        <ele>1578.95269</ele>
        <time>2010-10-10T07:09:29Z</time>
      </trkpt>
      <trkpt lat="44.08835" lon="6.97018">
        <ele>1579.636903</ele>
        <time>2010-10-10T07:09:39Z</time>
      </trkpt>
      <trkpt lat="44.08842" lon="6.97023">
        <ele>1579.94385</ele>
        <time>2010-10-10T07:09:42Z</time>
      </trkpt>
      <trkpt lat="44.08848" lon="6.97028">
        <ele>1580.235694</ele>
        <time>2010-10-10T07:09:45Z</time>
      </trkpt>
      <trkpt lat="44.08855" lon="6.97033">
        <ele>1580.505881</ele>
        <time>2010-10-10T07:09:51Z</time>
      </trkpt>
      <trkpt lat="44.08857" lon="6.97036">
        <ele>1580.764098</ele>
        <time>2010-10-10T07:09:54Z</time>
      </trkpt>
      <trkpt lat="44.08864" lon="6.97043">
        <ele>1581.275446</ele>
        <time>2010-10-10T07:09:57Z</time>
      </trkpt>
      <trkpt lat="44.08866" lon="6.97046">
        <ele>1582.118728</ele>
        <time>2010-10-10T07:10:00Z</time>
      </trkpt>
      <trkpt lat="44.08869" lon="6.97051">
        <ele>1583.139514</ele>
        <time>2010-10-10T07:10:03Z</time>
      </trkpt>
      <trkpt lat="44.08879" lon="6.97063">
        <ele>1584.337384</ele>
        <time>2010-10-10T07:10:08Z</time>
      </trkpt>
      <trkpt lat="44.08885" lon="6.97072">
        <ele>1585.597459</ele>
        <time>2010-10-10T07:10:11Z</time>
      </trkpt>
      <trkpt lat="44.08888" lon="6.97079">
        <ele>1586.480056</ele>
        <time>2010-10-10T07:10:13Z</time>
      </trkpt>
      <trkpt lat="44.08895" lon="6.97092">
        <ele>1587.061081</ele>
        <time>2010-10-10T07:10:17Z</time>
      </trkpt>
      <trkpt lat="44.08902" lon="6.97103">
        <ele>1587.75851</ele>
        <time>2010-10-10T07:10:20Z</time>
      </trkpt>
      <trkpt lat="44.08906" lon="6.9711">
        <ele>1588.393777</ele>
        <time>2010-10-10T07:10:22Z</time>
      </trkpt>
      <trkpt lat="44.08911" lon="6.97118">
        <ele>1588.810955</ele>
        <time>2010-10-10T07:10:25Z</time>
      </trkpt>
      <trkpt lat="44.08915" lon="6.97127">
        <ele>1589.337838</ele>
        <time>2010-10-10T07:10:28Z</time>
      </trkpt>
      <trkpt lat="44.08922" lon="6.9714">
        <ele>1590.147533</ele>
        <time>2010-10-10T07:10:35Z</time>
      </trkpt>
      <trkpt lat="44.08925" lon="6.97143">
        <ele>1591.138631</ele>
        <time>2010-10-10T07:10:37Z</time>
      </trkpt>
      <trkpt lat="44.08928" lon="6.97149">
        <ele>1592.185558</ele>
        <time>2010-10-10T07:10:40Z</time>
      </trkpt>
      <trkpt lat="44.08933" lon="6.97157">
        <ele>1593.222782</ele>
        <time>2010-10-10T07:10:45Z</time>
      </trkpt>
      <trkpt lat="44.0894" lon="6.9717">
        <ele>1594.098628</ele>
        <time>2010-10-10T07:10:56Z</time>
      </trkpt>
      <trkpt lat="44.08937" lon="6.97173">
        <ele>1594.738072</ele>
        <time>2010-10-10T07:10:59Z</time>
      </trkpt>
      <trkpt lat="44.08934" lon="6.97174">
        <ele>1595.225355</ele>
        <time>2010-10-10T07:11:02Z</time>
      </trkpt>
      <trkpt lat="44.08931" lon="6.97174">
        <ele>1595.82413</ele>
        <time>2010-10-10T07:11:07Z</time>
      </trkpt>
      <trkpt lat="44.08931" lon="6.97174">
        <ele>1596.647539</ele>
        <time>2010-10-10T07:11:16Z</time>
      </trkpt>
      <trkpt lat="44.08931" lon="6.97174">
        <ele>1597.372471</ele>
        <time>2010-10-10T07:11:38Z</time>
      </trkpt>
      <trkpt lat="44.08923" lon="6.97213">
        <ele>1597.682989</ele>
        <time>2010-10-10T07:12:38Z</time>
      </trkpt>
      <trkpt lat="44.08926" lon="6.97228">
        <ele>1597.32852</ele>
        <time>2010-10-10T07:12:40Z</time>
      </trkpt>
      <trkpt lat="44.08932" lon="6.97251">
        <ele>1596.233791</ele>
        <time>2010-10-10T07:12:43Z</time>
      </trkpt>
      <trkpt lat="44.08932" lon="6.97276">
        <ele>1595.068857</ele>
        <time>2010-10-10T07:12:46Z</time>
      </trkpt>
      <trkpt lat="44.0893" lon="6.97291">
        <ele>1594.471682</ele>
        <time>2010-10-10T07:12:48Z</time>
      </trkpt>
      <trkpt lat="44.0892" lon="6.97314">
        <ele>1594.387639</ele>
        <time>2010-10-10T07:12:51Z</time>
      </trkpt>
      <trkpt lat="44.08913" lon="6.97327">
        <ele>1594.660993</ele>
        <time>2010-10-10T07:12:53Z</time>
      </trkpt>
      <trkpt lat="44.08907" lon="6.97338">
        <ele>1595.118278</ele>
        <time>2010-10-10T07:12:55Z</time>
      </trkpt>
      <trkpt lat="44.08893" lon="6.97355">
        <ele>1595.627534</ele>
        <time>2010-10-10T07:12:58Z</time>
      </trkpt>
      <trkpt lat="44.08887" lon="6.97367">
        <ele>1596.274364</ele>
        <time>2010-10-10T07:13:00Z</time>
      </trkpt>
      <trkpt lat="44.08881" lon="6.97385">
        <ele>1597.009833</ele>
        <time>2010-10-10T07:13:03Z</time>
      </trkpt>
      <trkpt lat="44.08877" lon="6.97401">
        <ele>1597.516765</ele>
        <time>2010-10-10T07:13:06Z</time>
      </trkpt>
      <trkpt lat="44.08876" lon="6.97405">
        <ele>1597.688409</ele>
        <time>2010-10-10T07:13:08Z</time>
      </trkpt>
      <trkpt lat="44.08865" lon="6.97449">
        <ele>1597.673045</ele>
        <time>2010-10-10T07:13:27Z</time>
      </trkpt>
      <trkpt lat="44.08865" lon="6.97449">
        <ele>1597.47442</ele>
        <time>2010-10-10T07:13:30Z</time>
      </trkpt>
      <trkpt lat="44.08856" lon="6.97491">
        <ele>1597.073467</ele>
        <time>2010-10-10T07:13:46Z</time>
      </trkpt>
      <trkpt lat="44.08856" lon="6.97491">
        <ele>1596.588802</ele>
        <time>2010-10-10T07:14:01Z</time>
      </trkpt>
      <trkpt lat="44.08842" lon="6.97526">
        <ele>1596.150398</ele>
        <time>2010-10-10T07:14:06Z</time>
      </trkpt>
      <trkpt lat="44.08825" lon="6.97544">
        <ele>1595.958855</ele>
        <time>2010-10-10T07:14:11Z</time>
      </trkpt>
      <trkpt lat="44.08818" lon="6.97556">
        <ele>1596.127981</ele>
        <time>2010-10-10T07:14:14Z</time>
      </trkpt>
      <trkpt lat="44.08814" lon="6.97564">
        <ele>1596.411348</ele>
        <time>2010-10-10T07:14:16Z</time>
      </trkpt>
      <trkpt lat="44.08812" lon="6.97569">
        <ele>1596.576246</ele>
        <time>2010-10-10T07:14:19Z</time>
      </trkpt>
      <trkpt lat="44.08811" lon="6.97587">
        <ele>1596.619509</ele>
        <time>2010-10-10T07:14:23Z</time>
      </trkpt>
      <trkpt lat="44.08801" lon="6.97609">
        <ele>1596.605063</ele>
        <time>2010-10-10T07:14:32Z</time>
      </trkpt>
      <trkpt lat="44.08793" lon="6.97624">
        <ele>1596.720055</ele>
        <time>2010-10-10T07:14:37Z</time>
      </trkpt>
      <trkpt lat="44.08785" lon="6.97641">
        <ele>1597.204813</ele>
        <time>2010-10-10T07:14:40Z</time>
      </trkpt>
      <trkpt lat="44.08769" lon="6.97655">
        <ele>1598.207103</ele>
        <time>2010-10-10T07:14:43Z</time>
      </trkpt>
      <trkpt lat="44.08749" lon="6.97668">
        <ele>1599.749196</ele>
        <time>2010-10-10T07:14:46Z</time>
      </trkpt>
      <trkpt lat="44.08732" lon="6.97679">
        <ele>1601.549743</ele>
        <time>2010-10-10T07:14:49Z</time>
      </trkpt>
      <trkpt lat="44.08722" lon="6.97686">
        <ele>1602.996667</ele>
        <time>2010-10-10T07:14:51Z</time>
      </trkpt>
      <trkpt lat="44.0871" lon="6.97696">
        <ele>1603.70987</ele>
        <time>2010-10-10T07:14:54Z</time>
      </trkpt>
      <trkpt lat="44.08703" lon="6.97705">
        <ele>1603.833912</ele>
        <time>2010-10-10T07:14:57Z</time>
      </trkpt>
      <trkpt lat="44.08697" lon="6.97711">
        <ele>1603.723981</ele>
        <time>2010-10-10T07:15:00Z</time>
      </trkpt>
      <trkpt lat="44.0869" lon="6.97716">
        <ele>1603.605973</ele>
        <time>2010-10-10T07:15:03Z</time>
      </trkpt>
      <trkpt lat="44.0869" lon="6.97716">
        <ele>1603.548557</ele>
        <time>2010-10-10T07:15:04Z</time>
      </trkpt>
      <trkpt lat="44.08668" lon="6.97722">
        <ele>1603.539006</ele>
        <time>2010-10-10T07:15:12Z</time>
      </trkpt>
      <trkpt lat="44.08665" lon="6.97722">
        <ele>1603.686361</ele>
        <time>2010-10-10T07:15:14Z</time>
      </trkpt>
      <trkpt lat="44.08665" lon="6.97722">
        <ele>1604.055878</ele>
        <time>2010-10-10T07:15:15Z</time>
      </trkpt>
      <trkpt lat="44.08646" lon="6.97715">
        <ele>1604.84447</ele>
        <time>2010-10-10T07:15:20Z</time>
      </trkpt>
      <trkpt lat="44.08641" lon="6.97712">
        <ele>1606.100143</ele>
        <time>2010-10-10T07:15:22Z</time>
      </trkpt>
      <trkpt lat="44.08638" lon="6.97711">
        <ele>1607.096023</ele>
        <time>2010-10-10T07:15:23Z</time>
      </trkpt>
      <trkpt lat="44.08614" lon="6.97688">
        <ele>1607.231114</ele>
        <time>2010-10-10T07:15:34Z</time>
      </trkpt>
      <trkpt lat="44.08614" lon="6.97688">
        <ele>1606.910758</ele>
        <time>2010-10-10T07:15:37Z</time>
      </trkpt>
      <trkpt lat="44.08573" lon="6.97688">
        <ele>1606.631368</ele>
        <time>2010-10-10T07:15:58Z</time>
      </trkpt>
      <trkpt lat="44.08564" lon="6.97688">
        <ele>1606.512553</ele>
        <time>2010-10-10T07:16:05Z</time>
      </trkpt>
      <trkpt lat="44.08555" lon="6.97691">
        <ele>1606.502815</ele>
        <time>2010-10-10T07:16:10Z</time>
      </trkpt>
      <trkpt lat="44.08545" lon="6.97693">
        <ele>1607.358393</ele>
        <time>2010-10-10T07:16:15Z</time>
      </trkpt>
      <trkpt lat="44.08536" lon="6.97695">
        <ele>1610.231305</ele>
        <time>2010-10-10T07:16:20Z</time>
      </trkpt>
      <trkpt lat="44.08526" lon="6.97698">
        <ele>1614.533199</ele>
        <time>2010-10-10T07:16:26Z</time>
      </trkpt>
      <trkpt lat="44.08515" lon="6.97705">
        <ele>1618.428737</ele>
        <time>2010-10-10T07:16:32Z</time>
      </trkpt>
      <trkpt lat="44.08506" lon="6.97711">
        <ele>1621.058845</ele>
        <time>2010-10-10T07:16:37Z</time>
      </trkpt>
      <trkpt lat="44.08497" lon="6.97719">
        <ele>1622.45901</ele>
        <time>2010-10-10T07:16:46Z</time>
      </trkpt>
      <trkpt lat="44.0849" lon="6.97728">
        <ele>1622.900685</ele>
        <time>2010-10-10T07:16:52Z</time>
      </trkpt>
      <trkpt lat="44.08484" lon="6.9774">
        <ele>1622.833872</ele>
        <time>2010-10-10T07:16:58Z</time>
      </trkpt>
      <trkpt lat="44.08479" lon="6.97753">
        <ele>1622.657785</ele>
        <time>2010-10-10T07:17:04Z</time>
      </trkpt>
      <trkpt lat="44.08476" lon="6.97766">
        <ele>1622.406235</ele>
        <time>2010-10-10T07:17:09Z</time>
      </trkpt>
      <trkpt lat="44.08473" lon="6.9778">
        <ele>1622.011268</ele>
        <time>2010-10-10T07:17:13Z</time>
      </trkpt>
      <trkpt lat="44.08471" lon="6.97795">
        <ele>1621.647762</ele>
        <time>2010-10-10T07:17:17Z</time>
      </trkpt>
      <trkpt lat="44.08471" lon="6.97815">
        <ele>1621.48695</ele>
        <time>2010-10-10T07:17:23Z</time>
      </trkpt>
      <trkpt lat="44.08474" lon="6.97828">
        <ele>1621.469598</ele>
        <time>2010-10-10T07:17:29Z</time>
      </trkpt>
      <trkpt lat="44.08475" lon="6.97833">
        <ele>1621.640561</ele>
        <time>2010-10-10T07:17:31Z</time>
      </trkpt>
      <trkpt lat="44.08478" lon="6.97842">
        <ele>1622.030076</ele>
        <time>2010-10-10T07:17:34Z</time>
      </trkpt>
      <trkpt lat="44.08485" lon="6.97856">
        <ele>1622.688826</ele>
        <time>2010-10-10T07:17:39Z</time>
      </trkpt>
      <trkpt lat="44.08491" lon="6.97867">
        <ele>1623.585192</ele>
        <time>2010-10-10T07:17:43Z</time>
      </trkpt>
      <trkpt lat="44.08498" lon="6.97875">
        <ele>1624.486081</ele>
        <time>2010-10-10T07:17:47Z</time>
      </trkpt>
      <trkpt lat="44.08507" lon="6.97883">
        <ele>1625.3023</ele>
        <time>2010-10-10T07:17:52Z</time>
      </trkpt>
      <trkpt lat="44.08514" lon="6.97893">
        <ele>1626.191746</ele>
        <time>2010-10-10T07:17:56Z</time>
      </trkpt>
      <trkpt lat="44.08521" lon="6.97902">
        <ele>1627.160379</ele>
        <time>2010-10-10T07:18:02Z</time>
      </trkpt>
      <trkpt lat="44.08526" lon="6.9791">
        <ele>1628.167693</ele>
        <time>2010-10-10T07:18:06Z</time>
      </trkpt>
      <trkpt lat="44.08527" lon="6.97914">
        <ele>1629.319709</ele>
        <time>2010-10-10T07:18:10Z</time>
      </trkpt>
      <trkpt lat="44.08525" lon="6.97916">
        <ele>1630.825505</ele>
        <time>2010-10-10T07:18:13Z</time>
      </trkpt>
      <trkpt lat="44.08519" lon="6.97918">
        <ele>1632.5561</ele>
        <time>2010-10-10T07:18:16Z</time>
      </trkpt>
      <trkpt lat="44.08512" lon="6.97918">
        <ele>1634.098945</ele>
        <time>2010-10-10T07:18:19Z</time>
      </trkpt>
      <trkpt lat="44.08502" lon="6.97917">
        <ele>1635.160194</ele>
        <time>2010-10-10T07:18:23Z</time>
      </trkpt>
      <trkpt lat="44.08499" lon="6.97916">
        <ele>1635.656805</ele>
        <time>2010-10-10T07:18:25Z</time>
      </trkpt>
      <trkpt lat="44.08488" lon="6.97908">
        <ele>1635.866042</ele>
        <time>2010-10-10T07:18:32Z</time>
      </trkpt>
      <trkpt lat="44.08483" lon="6.97906">
        <ele>1636.137864</ele>
        <time>2010-10-10T07:18:34Z</time>
      </trkpt>
      <trkpt lat="44.08475" lon="6.97905">
        <ele>1636.420827</ele>
        <time>2010-10-10T07:18:37Z</time>
      </trkpt>
      <trkpt lat="44.0847" lon="6.97904">
        <ele>1636.694333</ele>
        <time>2010-10-10T07:18:40Z</time>
      </trkpt>
      <trkpt lat="44.08461" lon="6.97902">
        <ele>1637.075352</ele>
        <time>2010-10-10T07:18:43Z</time>
      </trkpt>
      <trkpt lat="44.08455" lon="6.979">
        <ele>1637.560282</ele>
        <time>2010-10-10T07:18:46Z</time>
      </trkpt>
      <trkpt lat="44.08451" lon="6.97899">
        <ele>1638.210527</ele>
        <time>2010-10-10T07:18:49Z</time>
      </trkpt>
      <trkpt lat="44.08441" lon="6.97893">
        <ele>1638.955479</ele>
        <time>2010-10-10T07:18:52Z</time>
      </trkpt>
      <trkpt lat="44.08433" lon="6.97885">
        <ele>1639.74491</ele>
        <time>2010-10-10T07:18:55Z</time>
      </trkpt>
      <trkpt lat="44.08424" lon="6.97877">
        <ele>1640.638235</ele>
        <time>2010-10-10T07:18:58Z</time>
      </trkpt>
      <trkpt lat="44.08416" lon="6.97869">
        <ele>1641.361409</ele>
        <time>2010-10-10T07:19:01Z</time>
      </trkpt>
      <trkpt lat="44.08409" lon="6.9786">
        <ele>1641.650698</ele>
        <time>2010-10-10T07:19:04Z</time>
      </trkpt>
      <trkpt lat="44.08404" lon="6.97852">
        <ele>1641.800353</ele>
        <time>2010-10-10T07:19:07Z</time>
      </trkpt>
      <trkpt lat="44.084" lon="6.97843">
        <ele>1642.086418</ele>
        <time>2010-10-10T07:19:10Z</time>
      </trkpt>
      <trkpt lat="44.08397" lon="6.97836">
        <ele>1642.397053</ele>
        <time>2010-10-10T07:19:12Z</time>
      </trkpt>
      <trkpt lat="44.08393" lon="6.97823">
        <ele>1642.687309</ele>
        <time>2010-10-10T07:19:15Z</time>
      </trkpt>
      <trkpt lat="44.08391" lon="6.9781">
        <ele>1643.211213</ele>
        <time>2010-10-10T07:19:18Z</time>
      </trkpt>
      <trkpt lat="44.0839" lon="6.97797">
        <ele>1644.192977</ele>
        <time>2010-10-10T07:19:21Z</time>
      </trkpt>
      <trkpt lat="44.0839" lon="6.97788">
        <ele>1645.84663</ele>
        <time>2010-10-10T07:19:23Z</time>
      </trkpt>
      <trkpt lat="44.0839" lon="6.97773">
        <ele>1648.131044</ele>
        <time>2010-10-10T07:19:26Z</time>
      </trkpt>
      <trkpt lat="44.08391" lon="6.97762">
        <ele>1650.304161</ele>
        <time>2010-10-10T07:19:28Z</time>
      </trkpt>
      <trkpt lat="44.08392" lon="6.97754">
        <ele>1651.563734</ele>
        <time>2010-10-10T07:19:31Z</time>
      </trkpt>
      <trkpt lat="44.08393" lon="6.9775">
        <ele>1651.89172</ele>
        <time>2010-10-10T07:19:34Z</time>
      </trkpt>
      <trkpt lat="44.08396" lon="6.97728">
        <ele>1651.641293</ele>
        <time>2010-10-10T07:19:36Z</time>
      </trkpt>
      <trkpt lat="44.08399" lon="6.97706">
        <ele>1651.103536</ele>
        <time>2010-10-10T07:19:39Z</time>
      </trkpt>
      <trkpt lat="44.08404" lon="6.97686">
        <ele>1650.632332</ele>
        <time>2010-10-10T07:19:42Z</time>
      </trkpt>
      <trkpt lat="44.0841" lon="6.97669">
        <ele>1650.43122</ele>
        <time>2010-10-10T07:19:45Z</time>
      </trkpt>
      <trkpt lat="44.08413" lon="6.97659">
        <ele>1650.414243</ele>
        <time>2010-10-10T07:19:47Z</time>
      </trkpt>
      <trkpt lat="44.08418" lon="6.97646">
        <ele>1650.458768</ele>
        <time>2010-10-10T07:19:50Z</time>
      </trkpt>
      <trkpt lat="44.0842" lon="6.97638">
        <ele>1650.497075</ele>
        <time>2010-10-10T07:19:52Z</time>
      </trkpt>
      <trkpt lat="44.08424" lon="6.97627">
        <ele>1650.651347</ele>
        <time>2010-10-10T07:19:55Z</time>
      </trkpt>
      <trkpt lat="44.08428" lon="6.97616">
        <ele>1651.012388</ele>
        <time>2010-10-10T07:19:58Z</time>
      </trkpt>
      <trkpt lat="44.08431" lon="6.97603">
        <ele>1651.378081</ele>
        <time>2010-10-10T07:20:01Z</time>
      </trkpt>
      <trkpt lat="44.08432" lon="6.9759">
        <ele>1651.550203</ele>
        <time>2010-10-10T07:20:04Z</time>
      </trkpt>
      <trkpt lat="44.08431" lon="6.97578">
        <ele>1651.713606</ele>
        <time>2010-10-10T07:20:07Z</time>
      </trkpt>
      <trkpt lat="44.08427" lon="6.97566">
        <ele>1652.04341</ele>
        <time>2010-10-10T07:20:10Z</time>
      </trkpt>
      <trkpt lat="44.08424" lon="6.97559">
        <ele>1652.521199</ele>
        <time>2010-10-10T07:20:12Z</time>
      </trkpt>
      <trkpt lat="44.08418" lon="6.97549">
        <ele>1653.042479</ele>
        <time>2010-10-10T07:20:15Z</time>
      </trkpt>
      <trkpt lat="44.08412" lon="6.9754">
        <ele>1653.436493</ele>
        <time>2010-10-10T07:20:18Z</time>
      </trkpt>
      <trkpt lat="44.08406" lon="6.97531">
        <ele>1653.584246</ele>
        <time>2010-10-10T07:20:21Z</time>
      </trkpt>
      <trkpt lat="44.08402" lon="6.97524">
        <ele>1653.583068</ele>
        <time>2010-10-10T07:20:23Z</time>
      </trkpt>
      <trkpt lat="44.08399" lon="6.97517">
        <ele>1653.540071</ele>
        <time>2010-10-10T07:20:25Z</time>
      </trkpt>
      <trkpt lat="44.08394" lon="6.97506">
        <ele>1653.50807</ele>
        <time>2010-10-10T07:20:28Z</time>
      </trkpt>
      <trkpt lat="44.08389" lon="6.97495">
        <ele>1653.496254</ele>
        <time>2010-10-10T07:20:31Z</time>
      </trkpt>
      <trkpt lat="44.08387" lon="6.97488">
        <ele>1653.496485</ele>
        <time>2010-10-10T07:20:33Z</time>
      </trkpt>
      <trkpt lat="44.08384" lon="6.97477">
        <ele>1653.500027</ele>
        <time>2010-10-10T07:20:36Z</time>
      </trkpt>
      <trkpt lat="44.08381" lon="6.97467">
        <ele>1653.640787</ele>
        <time>2010-10-10T07:20:39Z</time>
      </trkpt>
      <trkpt lat="44.08379" lon="6.97461">
        <ele>1654.00158</ele>
        <time>2010-10-10T07:20:41Z</time>
      </trkpt>
      <trkpt lat="44.08376" lon="6.97456">
        <ele>1654.370949</ele>
        <time>2010-10-10T07:20:43Z</time>
      </trkpt>
      <trkpt lat="44.08373" lon="6.97448">
        <ele>1654.684078</ele>
        <time>2010-10-10T07:20:46Z</time>
      </trkpt>
      <trkpt lat="44.0837" lon="6.97443">
        <ele>1655.070254</ele>
        <time>2010-10-10T07:20:48Z</time>
      </trkpt>
      <trkpt lat="44.08366" lon="6.97436">
        <ele>1655.409586</ele>
        <time>2010-10-10T07:20:51Z</time>
      </trkpt>
      <trkpt lat="44.08361" lon="6.97427">
        <ele>1655.554722</ele>
        <time>2010-10-10T07:20:54Z</time>
      </trkpt>
      <trkpt lat="44.08357" lon="6.97416">
        <ele>1655.428996</ele>
        <time>2010-10-10T07:20:57Z</time>
      </trkpt>
      <trkpt lat="44.08351" lon="6.97404">
        <ele>1655.037108</ele>
        <time>2010-10-10T07:21:00Z</time>
      </trkpt>
      <trkpt lat="44.08346" lon="6.97393">
        <ele>1654.501877</ele>
        <time>2010-10-10T07:21:03Z</time>
      </trkpt>
      <trkpt lat="44.0834" lon="6.97382">
        <ele>1653.955056</ele>
        <time>2010-10-10T07:21:06Z</time>
      </trkpt>
      <trkpt lat="44.08334" lon="6.97372">
        <ele>1653.558169</ele>
        <time>2010-10-10T07:21:09Z</time>
      </trkpt>
      <trkpt lat="44.08329" lon="6.97365">
        <ele>1653.415517</ele>
        <time>2010-10-10T07:21:11Z</time>
      </trkpt>
      <trkpt lat="44.08323" lon="6.97357">
        <ele>1653.42133</ele>
        <time>2010-10-10T07:21:14Z</time>
      </trkpt>
      <trkpt lat="44.08316" lon="6.97352">
        <ele>1653.742685</ele>
        <time>2010-10-10T07:21:17Z</time>
      </trkpt>
      <trkpt lat="44.08312" lon="6.9735">
        <ele>1654.494626</ele>
        <time>2010-10-10T07:21:18Z</time>
      </trkpt>
      <trkpt lat="44.08296" lon="6.9734">
        <ele>1655.521189</ele>
        <time>2010-10-10T07:21:25Z</time>
      </trkpt>
      <trkpt lat="44.08287" lon="6.97334">
        <ele>1656.590844</ele>
        <time>2010-10-10T07:21:28Z</time>
      </trkpt>
      <trkpt lat="44.08278" lon="6.97326">
        <ele>1657.379048</ele>
        <time>2010-10-10T07:21:31Z</time>
      </trkpt>
      <trkpt lat="44.08273" lon="6.97318">
        <ele>1658.081513</ele>
        <time>2010-10-10T07:21:34Z</time>
      </trkpt>
      <trkpt lat="44.0827" lon="6.97315">
        <ele>1659.291281</ele>
        <time>2010-10-10T07:21:36Z</time>
      </trkpt>
      <trkpt lat="44.08244" lon="6.97288">
        <ele>1660.671337</ele>
        <time>2010-10-10T07:21:48Z</time>
      </trkpt>
      <trkpt lat="44.08238" lon="6.97279">
        <ele>1661.778929</ele>
        <time>2010-10-10T07:21:51Z</time>
      </trkpt>
      <trkpt lat="44.08238" lon="6.97279">
        <ele>1662.730554</ele>
        <time>2010-10-10T07:21:52Z</time>
      </trkpt>
      <trkpt lat="44.0822" lon="6.97246">
        <ele>1663.406915</ele>
        <time>2010-10-10T07:22:01Z</time>
      </trkpt>
      <trkpt lat="44.08209" lon="6.97238">
        <ele>1663.782543</ele>
        <time>2010-10-10T07:22:04Z</time>
      </trkpt>
      <trkpt lat="44.08194" lon="6.97225">
        <ele>1664.266427</ele>
        <time>2010-10-10T07:22:08Z</time>
      </trkpt>
      <trkpt lat="44.08184" lon="6.97213">
        <ele>1665.74645</ele>
        <time>2010-10-10T07:22:11Z</time>
      </trkpt>
      <trkpt lat="44.08178" lon="6.97204">
        <ele>1668.39555</ele>
        <time>2010-10-10T07:22:13Z</time>
      </trkpt>
      <trkpt lat="44.0817" lon="6.9719">
        <ele>1670.794931</ele>
        <time>2010-10-10T07:22:16Z</time>
      </trkpt>
      <trkpt lat="44.08163" lon="6.97174">
        <ele>1671.844402</ele>
        <time>2010-10-10T07:22:19Z</time>
      </trkpt>
      <trkpt lat="44.0816" lon="6.97158">
        <ele>1671.949935</ele>
        <time>2010-10-10T07:22:22Z</time>
      </trkpt>
      <trkpt lat="44.08155" lon="6.97142">
        <ele>1671.730267</ele>
        <time>2010-10-10T07:22:25Z</time>
      </trkpt>
      <trkpt lat="44.08151" lon="6.97129">
        <ele>1671.534997</ele>
        <time>2010-10-10T07:22:27Z</time>
      </trkpt>
      <trkpt lat="44.08142" lon="6.97112">
        <ele>1671.450724</ele>
        <time>2010-10-10T07:22:30Z</time>
      </trkpt>
      <trkpt lat="44.08133" lon="6.97102">
        <ele>1671.442964</ele>
        <time>2010-10-10T07:22:32Z</time>
      </trkpt>
      <trkpt lat="44.08124" lon="6.97091">
        <ele>1671.461114</ele>
        <time>2010-10-10T07:22:34Z</time>
      </trkpt>
      <trkpt lat="44.08112" lon="6.9708">
        <ele>1671.476935</ele>
        <time>2010-10-10T07:22:37Z</time>
      </trkpt>
      <trkpt lat="44.08097" lon="6.97073">
        <ele>1671.345468</ele>
        <time>2010-10-10T07:22:40Z</time>
      </trkpt>
      <trkpt lat="44.08078" lon="6.97065">
        <ele>1670.986139</ele>
        <time>2010-10-10T07:22:43Z</time>
      </trkpt>
      <trkpt lat="44.08064" lon="6.97055">
        <ele>1670.338851</ele>
        <time>2010-10-10T07:22:45Z</time>
      </trkpt>
      <trkpt lat="44.08043" lon="6.97036">
        <ele>1669.166115</ele>
        <time>2010-10-10T07:22:48Z</time>
      </trkpt>
      <trkpt lat="44.08021" lon="6.9702">
        <ele>1667.265781</ele>
        <time>2010-10-10T07:22:51Z</time>
      </trkpt>
      <trkpt lat="44.08007" lon="6.97012">
        <ele>1664.850238</ele>
        <time>2010-10-10T07:22:53Z</time>
      </trkpt>
      <trkpt lat="44.07994" lon="6.97007">
        <ele>1661.957855</ele>
        <time>2010-10-10T07:22:55Z</time>
      </trkpt>
      <trkpt lat="44.07977" lon="6.96998">
        <ele>1658.500266</ele>
        <time>2010-10-10T07:22:58Z</time>
      </trkpt>
      <trkpt lat="44.07967" lon="6.96988">
        <ele>1654.850965</ele>
        <time>2010-10-10T07:23:01Z</time>
      </trkpt>
      <trkpt lat="44.07962" lon="6.96983">
        <ele>1651.771263</ele>
        <time>2010-10-10T07:23:03Z</time>
      </trkpt>
      <trkpt lat="44.07956" lon="6.96977">
        <ele>1649.686481</ele>
        <time>2010-10-10T07:23:06Z</time>
      </trkpt>
      <trkpt lat="44.07952" lon="6.96974">
        <ele>1648.463908</ele>
        <time>2010-10-10T07:23:08Z</time>
      </trkpt>
      <trkpt lat="44.07948" lon="6.96972">
        <ele>1647.744393</ele>
        <time>2010-10-10T07:23:10Z</time>
      </trkpt>
      <trkpt lat="44.07924" lon="6.96952">
        <ele>1647.413494</ele>
        <time>2010-10-10T07:23:25Z</time>
      </trkpt>
      <trkpt lat="44.07918" lon="6.96947">
        <ele>1647.369673</ele>
        <time>2010-10-10T07:23:28Z</time>
      </trkpt>
      <trkpt lat="44.07918" lon="6.96947">
        <ele>1647.430997</ele>
        <time>2010-10-10T07:23:29Z</time>
      </trkpt>
      <trkpt lat="44.07892" lon="6.96935">
        <ele>1647.489587</ele>
        <time>2010-10-10T07:23:42Z</time>
      </trkpt>
      <trkpt lat="44.07886" lon="6.96933">
        <ele>1648.207046</ele>
        <time>2010-10-10T07:23:45Z</time>
      </trkpt>
      <trkpt lat="44.0788" lon="6.96931">
        <ele>1650.286125</ele>
        <time>2010-10-10T07:23:48Z</time>
      </trkpt>
      <trkpt lat="44.07873" lon="6.9693">
        <ele>1653.538831</ele>
        <time>2010-10-10T07:23:51Z</time>
      </trkpt>
      <trkpt lat="44.07867" lon="6.96929">
        <ele>1657.086828</ele>
        <time>2010-10-10T07:23:54Z</time>
      </trkpt>
      <trkpt lat="44.07863" lon="6.96929">
        <ele>1659.913075</ele>
        <time>2010-10-10T07:23:56Z</time>
      </trkpt>
      <trkpt lat="44.07855" lon="6.9693">
        <ele>1661.559747</ele>
        <time>2010-10-10T07:24:00Z</time>
      </trkpt>
      <trkpt lat="44.07843" lon="6.96933">
        <ele>1662.386886</ele>
        <time>2010-10-10T07:24:06Z</time>
      </trkpt>
      <trkpt lat="44.07837" lon="6.96936">
        <ele>1662.816047</ele>
        <time>2010-10-10T07:24:09Z</time>
      </trkpt>
      <trkpt lat="44.07831" lon="6.96941">
        <ele>1663.297251</ele>
        <time>2010-10-10T07:24:12Z</time>
      </trkpt>
      <trkpt lat="44.07822" lon="6.96948">
        <ele>1664.069158</ele>
        <time>2010-10-10T07:24:17Z</time>
      </trkpt>
      <trkpt lat="44.07814" lon="6.96956">
        <ele>1664.906659</ele>
        <time>2010-10-10T07:24:22Z</time>
      </trkpt>
      <trkpt lat="44.07807" lon="6.96962">
        <ele>1665.454675</ele>
        <time>2010-10-10T07:24:26Z</time>
      </trkpt>
      <trkpt lat="44.07802" lon="6.96966">
        <ele>1665.628142</ele>
        <time>2010-10-10T07:24:29Z</time>
      </trkpt>
      <trkpt lat="44.07799" lon="6.96968">
        <ele>1665.878798</ele>
        <time>2010-10-10T07:24:31Z</time>
      </trkpt>
      <trkpt lat="44.07793" lon="6.96971">
        <ele>1666.668012</ele>
        <time>2010-10-10T07:24:34Z</time>
      </trkpt>
      <trkpt lat="44.07782" lon="6.96977">
        <ele>1667.722399</ele>
        <time>2010-10-10T07:24:40Z</time>
      </trkpt>
      <trkpt lat="44.07772" lon="6.96981">
        <ele>1668.566755</ele>
        <time>2010-10-10T07:24:46Z</time>
      </trkpt>
      <trkpt lat="44.07764" lon="6.96986">
        <ele>1669.295428</ele>
        <time>2010-10-10T07:24:52Z</time>
      </trkpt>
      <trkpt lat="44.07753" lon="6.96987">
        <ele>1670.135127</ele>
        <time>2010-10-10T07:24:58Z</time>
      </trkpt>
      <trkpt lat="44.07745" lon="6.96985">
        <ele>1670.953093</ele>
        <time>2010-10-10T07:25:01Z</time>
      </trkpt>
      <trkpt lat="44.07738" lon="6.96982">
        <ele>1671.743451</ele>
        <time>2010-10-10T07:25:04Z</time>
      </trkpt>
      <trkpt lat="44.0773" lon="6.9698">
        <ele>1672.61669</ele>
        <time>2010-10-10T07:25:07Z</time>
      </trkpt>
      <trkpt lat="44.07725" lon="6.96978">
        <ele>1673.324509</ele>
        <time>2010-10-10T07:25:09Z</time>
      </trkpt>
      <trkpt lat="44.07717" lon="6.96973">
        <ele>1673.607965</ele>
        <time>2010-10-10T07:25:12Z</time>
      </trkpt>
      <trkpt lat="44.07708" lon="6.96971">
        <ele>1673.895788</ele>
        <time>2010-10-10T07:25:15Z</time>
      </trkpt>
      <trkpt lat="44.07703" lon="6.96969">
        <ele>1674.681593</ele>
        <time>2010-10-10T07:25:17Z</time>
      </trkpt>
      <trkpt lat="44.07695" lon="6.96967">
        <ele>1675.999171</ele>
        <time>2010-10-10T07:25:20Z</time>
      </trkpt>
      <trkpt lat="44.0769" lon="6.96965">
        <ele>1677.69255</ele>
        <time>2010-10-10T07:25:22Z</time>
      </trkpt>
      <trkpt lat="44.0769" lon="6.96965">
        <ele>1679.378828</ele>
        <time>2010-10-10T07:25:24Z</time>
      </trkpt>
      <trkpt lat="44.07665" lon="6.96965">
        <ele>1680.578901</ele>
        <time>2010-10-10T07:25:34Z</time>
      </trkpt>
      <trkpt lat="44.07659" lon="6.96966">
        <ele>1681.395017</ele>
        <time>2010-10-10T07:25:37Z</time>
      </trkpt>
      <trkpt lat="44.07653" lon="6.96968">
        <ele>1682.199117</ele>
        <time>2010-10-10T07:25:40Z</time>
      </trkpt>
      <trkpt lat="44.07647" lon="6.96968">
        <ele>1683.656287</ele>
        <time>2010-10-10T07:25:43Z</time>
      </trkpt>
      <trkpt lat="44.07641" lon="6.96969">
        <ele>1685.941024</ele>
        <time>2010-10-10T07:25:46Z</time>
      </trkpt>
      <trkpt lat="44.07637" lon="6.96969">
        <ele>1688.211127</ele>
        <time>2010-10-10T07:25:48Z</time>
      </trkpt>
      <trkpt lat="44.0763" lon="6.96971">
        <ele>1689.917343</ele>
        <time>2010-10-10T07:25:51Z</time>
      </trkpt>
      <trkpt lat="44.07625" lon="6.96973">
        <ele>1691.085892</ele>
        <time>2010-10-10T07:25:53Z</time>
      </trkpt>
      <trkpt lat="44.07618" lon="6.96975">
        <ele>1691.61664</ele>
        <time>2010-10-10T07:25:56Z</time>
      </trkpt>
      <trkpt lat="44.07613" lon="6.96977">
        <ele>1691.820975</ele>
        <time>2010-10-10T07:25:58Z</time>
      </trkpt>
      <trkpt lat="44.07606" lon="6.9698">
        <ele>1692.217567</ele>
        <time>2010-10-10T07:26:01Z</time>
      </trkpt>
      <trkpt lat="44.07602" lon="6.96982">
        <ele>1693.266264</ele>
        <time>2010-10-10T07:26:03Z</time>
      </trkpt>
      <trkpt lat="44.07596" lon="6.96985">
        <ele>1694.847985</ele>
        <time>2010-10-10T07:26:06Z</time>
      </trkpt>
      <trkpt lat="44.0759" lon="6.96989">
        <ele>1696.153122</ele>
        <time>2010-10-10T07:26:09Z</time>
      </trkpt>
      <trkpt lat="44.0758" lon="6.96995">
        <ele>1696.683875</ele>
        <time>2010-10-10T07:26:14Z</time>
      </trkpt>
      <trkpt lat="44.07576" lon="6.96998">
        <ele>1696.849299</ele>
        <time>2010-10-10T07:26:16Z</time>
      </trkpt>
      <trkpt lat="44.07566" lon="6.97003">
        <ele>1697.216631</ele>
        <time>2010-10-10T07:26:23Z</time>
      </trkpt>
      <trkpt lat="44.07563" lon="6.97005">
        <ele>1697.978059</ele>
        <time>2010-10-10T07:26:25Z</time>
      </trkpt>
      <trkpt lat="44.07558" lon="6.97011">
        <ele>1699.116485</ele>
        <time>2010-10-10T07:26:28Z</time>
      </trkpt>
      <trkpt lat="44.0755" lon="6.97022">
        <ele>1700.682101</ele>
        <time>2010-10-10T07:26:35Z</time>
      </trkpt>
      <trkpt lat="44.07547" lon="6.97026">
        <ele>1702.323357</ele>
        <time>2010-10-10T07:26:37Z</time>
      </trkpt>
      <trkpt lat="44.07544" lon="6.97031">
        <ele>1703.387803</ele>
        <time>2010-10-10T07:26:41Z</time>
      </trkpt>
      <trkpt lat="44.07541" lon="6.97034">
        <ele>1703.858781</ele>
        <time>2010-10-10T07:26:43Z</time>
      </trkpt>
      <trkpt lat="44.07533" lon="6.97046">
        <ele>1704.303823</ele>
        <time>2010-10-10T07:26:49Z</time>
      </trkpt>
      <trkpt lat="44.0753" lon="6.9705">
        <ele>1705.036633</ele>
        <time>2010-10-10T07:26:52Z</time>
      </trkpt>
      <trkpt lat="44.07527" lon="6.97058">
        <ele>1705.855046</ele>
        <time>2010-10-10T07:26:55Z</time>
      </trkpt>
      <trkpt lat="44.07522" lon="6.9707">
        <ele>1706.399854</ele>
        <time>2010-10-10T07:26:58Z</time>
      </trkpt>
      <trkpt lat="44.0752" lon="6.97074">
        <ele>1706.714531</ele>
        <time>2010-10-10T07:27:00Z</time>
      </trkpt>
      <trkpt lat="44.07516" lon="6.97083">
        <ele>1707.051915</ele>
        <time>2010-10-10T07:27:03Z</time>
      </trkpt>
      <trkpt lat="44.07513" lon="6.97089">
        <ele>1707.354139</ele>
        <time>2010-10-10T07:27:05Z</time>
      </trkpt>
      <trkpt lat="44.07505" lon="6.97103">
        <ele>1707.485281</ele>
        <time>2010-10-10T07:27:10Z</time>
      </trkpt>
      <trkpt lat="44.07501" lon="6.97109">
        <ele>1707.497793</ele>
        <time>2010-10-10T07:27:12Z</time>
      </trkpt>
      <trkpt lat="44.07495" lon="6.97117">
        <ele>1707.46984</ele>
        <time>2010-10-10T07:27:15Z</time>
      </trkpt>
      <trkpt lat="44.0749" lon="6.97123">
        <ele>1707.445261</ele>
        <time>2010-10-10T07:27:17Z</time>
      </trkpt>
      <trkpt lat="44.0748" lon="6.97135">
        <ele>1707.434749</ele>
        <time>2010-10-10T07:27:21Z</time>
      </trkpt>
      <trkpt lat="44.07475" lon="6.97141">
        <ele>1707.433851</ele>
        <time>2010-10-10T07:27:24Z</time>
      </trkpt>
      <trkpt lat="44.07469" lon="6.97148">
        <ele>1707.436172</ele>
        <time>2010-10-10T07:27:27Z</time>
      </trkpt>
      <trkpt lat="44.07463" lon="6.97155">
        <ele>1707.438172</ele>
        <time>2010-10-10T07:27:30Z</time>
      </trkpt>
      <trkpt lat="44.07455" lon="6.97161">
        <ele>1707.300841</ele>
        <time>2010-10-10T07:27:33Z</time>
      </trkpt>
      <trkpt lat="44.07448" lon="6.97165">
        <ele>1706.802843</ele>
        <time>2010-10-10T07:27:36Z</time>
      </trkpt>
      <trkpt lat="44.07442" lon="6.97168">
        <ele>1705.935156</ele>
        <time>2010-10-10T07:27:39Z</time>
      </trkpt>
      <trkpt lat="44.07436" lon="6.9717">
        <ele>1705.030411</ele>
        <time>2010-10-10T07:27:42Z</time>
      </trkpt>
      <trkpt lat="44.07431" lon="6.97172">
        <ele>1704.320943</ele>
        <time>2010-10-10T07:27:45Z</time>
      </trkpt>
      <trkpt lat="44.07421" lon="6.97175">
        <ele>1703.789242</ele>
        <time>2010-10-10T07:27:51Z</time>
      </trkpt>
      <trkpt lat="44.07412" lon="6.97178">
        <ele>1703.453386</ele>
        <time>2010-10-10T07:27:54Z</time>
      </trkpt>
      <trkpt lat="44.07401" lon="6.9718">
        <ele>1703.490501</ele>
        <time>2010-10-10T07:27:57Z</time>
      </trkpt>
      <trkpt lat="44.07394" lon="6.97182">
        <ele>1703.870082</ele>
        <time>2010-10-10T07:27:59Z</time>
      </trkpt>
      <trkpt lat="44.07387" lon="6.97183">
        <ele>1704.283115</ele>
        <time>2010-10-10T07:28:01Z</time>
      </trkpt>
      <trkpt lat="44.07381" lon="6.97184">
        <ele>1704.623724</ele>
        <time>2010-10-10T07:28:03Z</time>
      </trkpt>
      <trkpt lat="44.07372" lon="6.97186">
        <ele>1705.018144</ele>
        <time>2010-10-10T07:28:06Z</time>
      </trkpt>
      <trkpt lat="44.07366" lon="6.97187">
        <ele>1705.35586</ele>
        <time>2010-10-10T07:28:08Z</time>
      </trkpt>
      <trkpt lat="44.07361" lon="6.97187">
        <ele>1705.497431</ele>
        <time>2010-10-10T07:28:10Z</time>
      </trkpt>
      <trkpt lat="44.07352" lon="6.97189">
        <ele>1705.507665</ele>
        <time>2010-10-10T07:28:13Z</time>
      </trkpt>
      <trkpt lat="44.07343" lon="6.9719">
        <ele>1705.475024</ele>
        <time>2010-10-10T07:28:16Z</time>
      </trkpt>
      <trkpt lat="44.07333" lon="6.97191">
        <ele>1705.447563</ele>
        <time>2010-10-10T07:28:19Z</time>
      </trkpt>
      <trkpt lat="44.07325" lon="6.97194">
        <ele>1705.574385</ele>
        <time>2010-10-10T07:28:22Z</time>
      </trkpt>
      <trkpt lat="44.07317" lon="6.97198">
        <ele>1705.933553</ele>
        <time>2010-10-10T07:28:25Z</time>
      </trkpt>
      <trkpt lat="44.07312" lon="6.972">
        <ele>1706.443849</ele>
        <time>2010-10-10T07:28:27Z</time>
      </trkpt>
      <trkpt lat="44.07307" lon="6.97203">
        <ele>1706.981223</ele>
        <time>2010-10-10T07:28:29Z</time>
      </trkpt>
      <trkpt lat="44.07299" lon="6.97207">
        <ele>1707.516266</ele>
        <time>2010-10-10T07:28:32Z</time>
      </trkpt>
      <trkpt lat="44.07295" lon="6.97209">
        <ele>1708.021474</ele>
        <time>2010-10-10T07:28:34Z</time>
      </trkpt>
      <trkpt lat="44.07288" lon="6.97214">
        <ele>1708.387104</ele>
        <time>2010-10-10T07:28:37Z</time>
      </trkpt>
      <trkpt lat="44.07281" lon="6.97218">
        <ele>1708.518101</ele>
        <time>2010-10-10T07:28:40Z</time>
      </trkpt>
      <trkpt lat="44.07277" lon="6.97221">
        <ele>1708.51243</ele>
        <time>2010-10-10T07:28:42Z</time>
      </trkpt>
      <trkpt lat="44.0727" lon="6.97225">
        <ele>1708.470841</ele>
        <time>2010-10-10T07:28:45Z</time>
      </trkpt>
      <trkpt lat="44.07263" lon="6.97229">
        <ele>1708.44118</ele>
        <time>2010-10-10T07:28:48Z</time>
      </trkpt>
      <trkpt lat="44.07256" lon="6.97233">
        <ele>1708.292545</ele>
        <time>2010-10-10T07:28:51Z</time>
      </trkpt>
      <trkpt lat="44.07251" lon="6.97236">
        <ele>1707.933237</ele>
        <time>2010-10-10T07:28:53Z</time>
      </trkpt>
      <trkpt lat="44.07251" lon="6.97236">
        <ele>1707.429042</ele>
        <time>2010-10-10T07:28:55Z</time>
      </trkpt>
      <trkpt lat="44.07222" lon="6.97253">
        <ele>1706.896293</ele>
        <time>2010-10-10T07:29:10Z</time>
      </trkpt>
      <trkpt lat="44.07216" lon="6.97253">
        <ele>1706.501164</ele>
        <time>2010-10-10T07:29:13Z</time>
      </trkpt>
      <trkpt lat="44.0721" lon="6.97253">
        <ele>1706.494009</ele>
        <time>2010-10-10T07:29:16Z</time>
      </trkpt>
      <trkpt lat="44.07203" lon="6.9725">
        <ele>1707.133549</ele>
        <time>2010-10-10T07:29:19Z</time>
      </trkpt>
      <trkpt lat="44.07196" lon="6.97246">
        <ele>1708.543004</ele>
        <time>2010-10-10T07:29:22Z</time>
      </trkpt>
      <trkpt lat="44.07192" lon="6.97242">
        <ele>1710.347149</ele>
        <time>2010-10-10T07:29:24Z</time>
      </trkpt>
      <trkpt lat="44.07185" lon="6.97235">
        <ele>1711.834558</ele>
        <time>2010-10-10T07:29:27Z</time>
      </trkpt>
      <trkpt lat="44.07179" lon="6.97226">
        <ele>1712.715349</ele>
        <time>2010-10-10T07:29:30Z</time>
      </trkpt>
      <trkpt lat="44.07176" lon="6.9722">
        <ele>1713.348024</ele>
        <time>2010-10-10T07:29:32Z</time>
      </trkpt>
      <trkpt lat="44.07173" lon="6.97215">
        <ele>1713.966957</ele>
        <time>2010-10-10T07:29:34Z</time>
      </trkpt>
      <trkpt lat="44.07169" lon="6.97208">
        <ele>1714.390279</ele>
        <time>2010-10-10T07:29:37Z</time>
      </trkpt>
      <trkpt lat="44.07163" lon="6.97204">
        <ele>1714.532263</ele>
        <time>2010-10-10T07:29:40Z</time>
      </trkpt>
      <trkpt lat="44.07157" lon="6.97203">
        <ele>1714.518426</ele>
        <time>2010-10-10T07:29:43Z</time>
      </trkpt>
      <trkpt lat="44.07154" lon="6.97204">
        <ele>1714.605735</ele>
        <time>2010-10-10T07:29:45Z</time>
      </trkpt>
      <trkpt lat="44.07149" lon="6.97208">
        <ele>1714.931296</ele>
        <time>2010-10-10T07:29:48Z</time>
      </trkpt>
      <trkpt lat="44.07146" lon="6.9721">
        <ele>1715.427574</ele>
        <time>2010-10-10T07:29:50Z</time>
      </trkpt>
      <trkpt lat="44.07142" lon="6.97213">
        <ele>1716.102158</ele>
        <time>2010-10-10T07:29:52Z</time>
      </trkpt>
      <trkpt lat="44.07139" lon="6.97214">
        <ele>1716.862183</ele>
        <time>2010-10-10T07:29:54Z</time>
      </trkpt>
      <trkpt lat="44.07134" lon="6.97217">
        <ele>1717.517847</ele>
        <time>2010-10-10T07:29:57Z</time>
      </trkpt>
      <trkpt lat="44.07129" lon="6.97219">
        <ele>1718.050322</ele>
        <time>2010-10-10T07:30:00Z</time>
      </trkpt>
      <trkpt lat="44.07124" lon="6.9722">
        <ele>1718.402088</ele>
        <time>2010-10-10T07:30:03Z</time>
      </trkpt>
      <trkpt lat="44.07119" lon="6.97221">
        <ele>1718.514891</ele>
        <time>2010-10-10T07:30:06Z</time>
      </trkpt>
      <trkpt lat="44.07113" lon="6.97221">
        <ele>1718.637666</ele>
        <time>2010-10-10T07:30:09Z</time>
      </trkpt>
      <trkpt lat="44.07108" lon="6.9722">
        <ele>1718.953833</ele>
        <time>2010-10-10T07:30:12Z</time>
      </trkpt>
      <trkpt lat="44.07103" lon="6.97219">
        <ele>1719.571131</ele>
        <time>2010-10-10T07:30:15Z</time>
      </trkpt>
      <trkpt lat="44.07098" lon="6.97216">
        <ele>1720.595384</ele>
        <time>2010-10-10T07:30:18Z</time>
      </trkpt>
      <trkpt lat="44.07093" lon="6.97213">
        <ele>1721.860216</ele>
        <time>2010-10-10T07:30:21Z</time>
      </trkpt>
      <trkpt lat="44.07086" lon="6.97209">
        <ele>1722.91365</ele>
        <time>2010-10-10T07:30:24Z</time>
      </trkpt>
      <trkpt lat="44.07083" lon="6.97205">
        <ele>1723.483595</ele>
        <time>2010-10-10T07:30:33Z</time>
      </trkpt>
      <trkpt lat="44.07083" lon="6.97205">
        <ele>1723.612032</ele>
        <time>2010-10-10T07:30:37Z</time>
      </trkpt>
      <trkpt lat="44.07034" lon="6.97182">
        <ele>1723.546218</ele>
        <time>2010-10-10T07:30:45Z</time>
      </trkpt>
      <trkpt lat="44.07028" lon="6.9718">
        <ele>1723.194608</ele>
        <time>2010-10-10T07:30:47Z</time>
      </trkpt>
      <trkpt lat="44.07019" lon="6.97175">
        <ele>1722.031664</ele>
        <time>2010-10-10T07:30:50Z</time>
      </trkpt>
      <trkpt lat="44.07013" lon="6.97172">
        <ele>1720.203746</ele>
        <time>2010-10-10T07:30:52Z</time>
      </trkpt>
      <trkpt lat="44.07006" lon="6.97166">
        <ele>1718.735164</ele>
        <time>2010-10-10T07:30:55Z</time>
      </trkpt>
      <trkpt lat="44.07" lon="6.97157">
        <ele>1718.289828</ele>
        <time>2010-10-10T07:30:58Z</time>
      </trkpt>
      <trkpt lat="44.06998" lon="6.97147">
        <ele>1718.629361</ele>
        <time>2010-10-10T07:31:01Z</time>
      </trkpt>
      <trkpt lat="44.06999" lon="6.97141">
        <ele>1719.149741</ele>
        <time>2010-10-10T07:31:03Z</time>
      </trkpt>
      <trkpt lat="44.06998" lon="6.97133">
        <ele>1719.582486</ele>
        <time>2010-10-10T07:31:06Z</time>
      </trkpt>
      <trkpt lat="44.06996" lon="6.97126">
        <ele>1720.153779</ele>
        <time>2010-10-10T07:31:09Z</time>
      </trkpt>
      <trkpt lat="44.06992" lon="6.97121">
        <ele>1720.854224</ele>
        <time>2010-10-10T07:31:12Z</time>
      </trkpt>
      <trkpt lat="44.06988" lon="6.97122">
        <ele>1721.632685</ele>
        <time>2010-10-10T07:31:15Z</time>
      </trkpt>
      <trkpt lat="44.06984" lon="6.97131">
        <ele>1722.530448</ele>
        <time>2010-10-10T07:31:18Z</time>
      </trkpt>
      <trkpt lat="44.06984" lon="6.97131">
        <ele>1723.260082</ele>
        <time>2010-10-10T07:31:20Z</time>
      </trkpt>
      <trkpt lat="44.06954" lon="6.97126">
        <ele>1723.552954</ele>
        <time>2010-10-10T07:31:44Z</time>
      </trkpt>
      <trkpt lat="44.06951" lon="6.97124">
        <ele>1723.703479</ele>
        <time>2010-10-10T07:31:47Z</time>
      </trkpt>
      <trkpt lat="44.06951" lon="6.97124">
        <ele>1723.851028</ele>
        <time>2010-10-10T07:31:58Z</time>
      </trkpt>
      <trkpt lat="44.06951" lon="6.97124">
        <ele>1723.801277</ele>
        <time>2010-10-10T07:32:13Z</time>
      </trkpt>
      <trkpt lat="44.06943" lon="6.9714">
        <ele>1723.721825</ele>
        <time>2010-10-10T07:38:50Z</time>
      </trkpt>
      <trkpt lat="44.0693" lon="6.97146">
        <ele>1724.761306</ele>
        <time>2010-10-10T07:38:53Z</time>
      </trkpt>
      <trkpt lat="44.06918" lon="6.9716">
        <ele>1727.377864</ele>
        <time>2010-10-10T07:38:56Z</time>
      </trkpt>
      <trkpt lat="44.06908" lon="6.97176">
        <ele>1730.134304</ele>
        <time>2010-10-10T07:38:59Z</time>
      </trkpt>
      <trkpt lat="44.06892" lon="6.97188">
        <ele>1731.46154</ele>
        <time>2010-10-10T07:39:02Z</time>
      </trkpt>
      <trkpt lat="44.0687" lon="6.972">
        <ele>1731.418223</ele>
        <time>2010-10-10T07:39:05Z</time>
      </trkpt>
      <trkpt lat="44.06851" lon="6.97217">
        <ele>1730.869316</ele>
        <time>2010-10-10T07:39:08Z</time>
      </trkpt>
      <trkpt lat="44.06842" lon="6.97227">
        <ele>1730.468898</ele>
        <time>2010-10-10T07:39:10Z</time>
      </trkpt>
      <trkpt lat="44.06835" lon="6.97233">
        <ele>1730.324192</ele>
        <time>2010-10-10T07:39:13Z</time>
      </trkpt>
      <trkpt lat="44.06833" lon="6.97235">
        <ele>1730.191287</ele>
        <time>2010-10-10T07:39:15Z</time>
      </trkpt>
      <trkpt lat="44.0683" lon="6.97235">
        <ele>1729.738413</ele>
        <time>2010-10-10T07:39:17Z</time>
      </trkpt>
      <trkpt lat="44.06806" lon="6.97264">
        <ele>1729.041571</ele>
        <time>2010-10-10T07:39:38Z</time>
      </trkpt>
      <trkpt lat="44.06806" lon="6.97264">
        <ele>1728.370248</ele>
        <time>2010-10-10T07:39:41Z</time>
      </trkpt>
      <trkpt lat="44.06786" lon="6.97291">
        <ele>1727.757804</ele>
        <time>2010-10-10T07:39:53Z</time>
      </trkpt>
      <trkpt lat="44.06781" lon="6.97306">
        <ele>1727.169402</ele>
        <time>2010-10-10T07:39:57Z</time>
      </trkpt>
      <trkpt lat="44.06777" lon="6.97328">
        <ele>1726.688265</ele>
        <time>2010-10-10T07:40:00Z</time>
      </trkpt>
      <trkpt lat="44.06773" lon="6.97359">
        <ele>1726.406143</ele>
        <time>2010-10-10T07:40:03Z</time>
      </trkpt>
      <trkpt lat="44.0677" lon="6.9739">
        <ele>1726.419065</ele>
        <time>2010-10-10T07:40:06Z</time>
      </trkpt>
      <trkpt lat="44.06765" lon="6.97425">
        <ele>1726.584198</ele>
        <time>2010-10-10T07:40:09Z</time>
      </trkpt>
      <trkpt lat="44.0676" lon="6.97461">
        <ele>1726.629729</ele>
        <time>2010-10-10T07:40:12Z</time>
      </trkpt>
      <trkpt lat="44.06755" lon="6.97495">
        <ele>1726.528969</ele>
        <time>2010-10-10T07:40:15Z</time>
      </trkpt>
      <trkpt lat="44.06747" lon="6.97526">
        <ele>1726.440227</ele>
        <time>2010-10-10T07:40:18Z</time>
      </trkpt>
      <trkpt lat="44.06741" lon="6.9755">
        <ele>1726.402205</ele>
        <time>2010-10-10T07:40:21Z</time>
      </trkpt>
      <trkpt lat="44.06735" lon="6.97562">
        <ele>1726.260738</ele>
        <time>2010-10-10T07:40:23Z</time>
      </trkpt>
      <trkpt lat="44.06727" lon="6.97574">
        <ele>1725.771065</ele>
        <time>2010-10-10T07:40:26Z</time>
      </trkpt>
      <trkpt lat="44.06715" lon="6.97575">
        <ele>1724.77267</ele>
        <time>2010-10-10T07:40:29Z</time>
      </trkpt>
      <trkpt lat="44.06708" lon="6.97578">
        <ele>1723.37312</ele>
        <time>2010-10-10T07:40:31Z</time>
      </trkpt>
      <trkpt lat="44.06702" lon="6.9758">
        <ele>1722.072838</ele>
        <time>2010-10-10T07:40:33Z</time>
      </trkpt>
      <trkpt lat="44.06675" lon="6.97564">
        <ele>1721.079297</ele>
        <time>2010-10-10T07:41:21Z</time>
      </trkpt>
      <trkpt lat="44.06675" lon="6.97564">
        <ele>1720.145645</ele>
        <time>2010-10-10T07:41:33Z</time>
      </trkpt>
      <trkpt lat="44.06661" lon="6.97573">
        <ele>1719.27371</ele>
        <time>2010-10-10T07:41:37Z</time>
      </trkpt>
      <trkpt lat="44.0666" lon="6.97578">
        <ele>1718.390126</ele>
        <time>2010-10-10T07:41:40Z</time>
      </trkpt>
      <trkpt lat="44.06654" lon="6.97597">
        <ele>1714.605458</ele>
        <time>2010-10-10T07:41:42Z</time>
      </trkpt>
      <trkpt lat="44.0665" lon="6.97618">
        <ele>1706.476983</ele>
        <time>2010-10-10T07:41:45Z</time>
      </trkpt>
      <trkpt lat="44.06645" lon="6.97637">
        <ele>1698.423435</ele>
        <time>2010-10-10T07:41:48Z</time>
      </trkpt>
      <trkpt lat="44.0664" lon="6.97641">
        <ele>1694.407065</ele>
        <time>2010-10-10T07:41:50Z</time>
      </trkpt>
      <trkpt lat="44.0664" lon="6.97641">
        <ele>1693.425528</ele>
        <time>2010-10-10T07:41:51Z</time>
      </trkpt>
      <trkpt lat="44.06593" lon="6.97642">
        <ele>1693.555452</ele>
        <time>2010-10-10T07:42:20Z</time>
      </trkpt>
      <trkpt lat="44.06583" lon="6.97647">
        <ele>1693.538915</ele>
        <time>2010-10-10T07:42:24Z</time>
      </trkpt>
      <trkpt lat="44.06572" lon="6.97656">
        <ele>1693.095515</ele>
        <time>2010-10-10T07:42:32Z</time>
      </trkpt>
      <trkpt lat="44.0655" lon="6.97661">
        <ele>1691.661167</ele>
        <time>2010-10-10T07:42:40Z</time>
      </trkpt>
      <trkpt lat="44.06534" lon="6.97656">
        <ele>1688.916751</ele>
        <time>2010-10-10T07:42:49Z</time>
      </trkpt>
      <trkpt lat="44.06534" lon="6.97656">
        <ele>1686.294464</ele>
        <time>2010-10-10T07:43:04Z</time>
      </trkpt>
      <trkpt lat="44.06534" lon="6.97656">
        <ele>1685.104538</ele>
        <time>2010-10-10T07:43:20Z</time>
      </trkpt>
      <trkpt lat="44.06516" lon="6.97686">
        <ele>1684.81872</ele>
        <time>2010-10-10T07:43:22Z</time>
      </trkpt>
      <trkpt lat="44.06516" lon="6.97686">
        <ele>1684.686833</ele>
        <time>2010-10-10T07:43:34Z</time>
      </trkpt>
      <trkpt lat="44.06489" lon="6.97695">
        <ele>1684.515605</ele>
        <time>2010-10-10T07:43:39Z</time>
      </trkpt>
      <trkpt lat="44.06461" lon="6.97694">
        <ele>1684.192161</ele>
        <time>2010-10-10T07:43:49Z</time>
      </trkpt>
      <trkpt lat="44.06431" lon="6.97695">
        <ele>1680.645785</ele>
        <time>2010-10-10T07:43:58Z</time>
      </trkpt>
      <trkpt lat="44.06403" lon="6.97699">
        <ele>1671.556621</ele>
        <time>2010-10-10T07:44:04Z</time>
      </trkpt>
      <trkpt lat="44.06383" lon="6.97695">
        <ele>1660.546619</ele>
        <time>2010-10-10T07:44:07Z</time>
      </trkpt>
      <trkpt lat="44.06379" lon="6.97687">
        <ele>1652.471796</ele>
        <time>2010-10-10T07:44:09Z</time>
      </trkpt>
      <trkpt lat="44.06375" lon="6.97679">
        <ele>1647.919379</ele>
        <time>2010-10-10T07:44:12Z</time>
      </trkpt>
      <trkpt lat="44.06353" lon="6.97655">
        <ele>1645.476121</ele>
        <time>2010-10-10T07:44:42Z</time>
      </trkpt>
      <trkpt lat="44.06345" lon="6.9765">
        <ele>1644.009434</ele>
        <time>2010-10-10T07:44:49Z</time>
      </trkpt>
      <trkpt lat="44.06341" lon="6.97651">
        <ele>1643.188128</ele>
        <time>2010-10-10T07:44:52Z</time>
      </trkpt>
      <trkpt lat="44.06332" lon="6.97649">
        <ele>1641.903351</ele>
        <time>2010-10-10T07:44:58Z</time>
      </trkpt>
      <trkpt lat="44.06324" lon="6.97642">
        <ele>1639.220768</ele>
        <time>2010-10-10T07:45:02Z</time>
      </trkpt>
      <trkpt lat="44.06324" lon="6.97629">
        <ele>1636.090379</ele>
        <time>2010-10-10T07:45:06Z</time>
      </trkpt>
      <trkpt lat="44.06326" lon="6.97612">
        <ele>1633.692055</ele>
        <time>2010-10-10T07:45:11Z</time>
      </trkpt>
      <trkpt lat="44.06328" lon="6.97606">
        <ele>1631.853998</ele>
        <time>2010-10-10T07:45:14Z</time>
      </trkpt>
      <trkpt lat="44.06335" lon="6.97596">
        <ele>1629.814124</ele>
        <time>2010-10-10T07:45:17Z</time>
      </trkpt>
      <trkpt lat="44.0634" lon="6.97586">
        <ele>1627.503591</ele>
        <time>2010-10-10T07:45:21Z</time>
      </trkpt>
      <trkpt lat="44.06347" lon="6.97581">
        <ele>1625.656451</ele>
        <time>2010-10-10T07:45:24Z</time>
      </trkpt>
      <trkpt lat="44.06349" lon="6.97579">
        <ele>1623.978904</ele>
        <time>2010-10-10T07:45:27Z</time>
      </trkpt>
      <trkpt lat="44.06358" lon="6.97573">
        <ele>1621.134728</ele>
        <time>2010-10-10T07:45:30Z</time>
      </trkpt>
      <trkpt lat="44.06365" lon="6.97565">
        <ele>1616.812256</ele>
        <time>2010-10-10T07:45:35Z</time>
      </trkpt>
      <trkpt lat="44.06373" lon="6.97556">
        <ele>1612.263266</ele>
        <time>2010-10-10T07:45:43Z</time>
      </trkpt>
      <trkpt lat="44.0638" lon="6.97532">
        <ele>1608.436382</ele>
        <time>2010-10-10T07:45:56Z</time>
      </trkpt>
      <trkpt lat="44.06384" lon="6.97512">
        <ele>1604.88398</ele>
        <time>2010-10-10T07:45:59Z</time>
      </trkpt>
      <trkpt lat="44.06389" lon="6.97492">
        <ele>1600.759152</ele>
        <time>2010-10-10T07:46:02Z</time>
      </trkpt>
      <trkpt lat="44.06393" lon="6.97474">
        <ele>1596.166405</ele>
        <time>2010-10-10T07:46:05Z</time>
      </trkpt>
      <trkpt lat="44.06395" lon="6.97457">
        <ele>1592.291026</ele>
        <time>2010-10-10T07:46:08Z</time>
      </trkpt>
      <trkpt lat="44.06395" lon="6.97446">
        <ele>1590.270896</ele>
        <time>2010-10-10T07:46:10Z</time>
      </trkpt>
      <trkpt lat="44.06395" lon="6.97436">
        <ele>1589.717814</ele>
        <time>2010-10-10T07:46:12Z</time>
      </trkpt>
      <trkpt lat="44.06396" lon="6.9743">
        <ele>1589.345137</ele>
        <time>2010-10-10T07:46:15Z</time>
      </trkpt>
      <trkpt lat="44.06398" lon="6.97392">
        <ele>1588.572318</ele>
        <time>2010-10-10T07:46:28Z</time>
      </trkpt>
      <trkpt lat="44.06398" lon="6.97392">
        <ele>1587.706007</ele>
        <time>2010-10-10T07:46:31Z</time>
      </trkpt>
      <trkpt lat="44.06381" lon="6.97361">
        <ele>1587.061713</ele>
        <time>2010-10-10T07:46:48Z</time>
      </trkpt>
      <trkpt lat="44.0638" lon="6.97357">
        <ele>1586.709057</ele>
        <time>2010-10-10T07:46:51Z</time>
      </trkpt>
      <trkpt lat="44.0638" lon="6.97357">
        <ele>1586.627445</ele>
        <time>2010-10-10T07:46:52Z</time>
      </trkpt>
      <trkpt lat="44.0638" lon="6.97357">
        <ele>1586.666555</ele>
        <time>2010-10-10T07:47:31Z</time>
      </trkpt>
      <trkpt lat="44.06343" lon="6.97354">
        <ele>1587.110558</ele>
        <time>2010-10-10T07:47:37Z</time>
      </trkpt>
      <trkpt lat="44.06343" lon="6.97354">
        <ele>1587.766943</ele>
        <time>2010-10-10T07:47:55Z</time>
      </trkpt>
      <trkpt lat="44.06343" lon="6.97354">
        <ele>1587.689078</ele>
        <time>2010-10-10T07:48:08Z</time>
      </trkpt>
      <trkpt lat="44.06325" lon="6.97311">
        <ele>1586.846001</ele>
        <time>2010-10-10T07:48:14Z</time>
      </trkpt>
      <trkpt lat="44.06324" lon="6.97307">
        <ele>1586.122936</ele>
        <time>2010-10-10T07:48:17Z</time>
      </trkpt>
      <trkpt lat="44.06324" lon="6.97303">
        <ele>1586.598386</ele>
        <time>2010-10-10T07:48:21Z</time>
      </trkpt>
      <trkpt lat="44.06325" lon="6.97295">
        <ele>1588.881358</ele>
        <time>2010-10-10T07:48:26Z</time>
      </trkpt>
      <trkpt lat="44.06325" lon="6.97287">
        <ele>1591.891692</ele>
        <time>2010-10-10T07:48:30Z</time>
      </trkpt>
      <trkpt lat="44.06325" lon="6.97283">
        <ele>1594.313569</ele>
        <time>2010-10-10T07:48:33Z</time>
      </trkpt>
      <trkpt lat="44.06324" lon="6.97267">
        <ele>1595.927169</ele>
        <time>2010-10-10T07:48:40Z</time>
      </trkpt>
      <trkpt lat="44.06324" lon="6.97259">
        <ele>1596.726846</ele>
        <time>2010-10-10T07:48:42Z</time>
      </trkpt>
      <trkpt lat="44.06324" lon="6.97251">
        <ele>1596.868425</ele>
        <time>2010-10-10T07:48:45Z</time>
      </trkpt>
      <trkpt lat="44.06325" lon="6.97243">
        <ele>1596.747035</ele>
        <time>2010-10-10T07:48:48Z</time>
      </trkpt>
      <trkpt lat="44.06325" lon="6.97239">
        <ele>1596.615396</ele>
        <time>2010-10-10T07:48:50Z</time>
      </trkpt>
      <trkpt lat="44.06325" lon="6.97229">
        <ele>1596.550976</ele>
        <time>2010-10-10T07:49:01Z</time>
      </trkpt>
      <trkpt lat="44.06325" lon="6.97213">
        <ele>1596.401861</ele>
        <time>2010-10-10T07:49:09Z</time>
      </trkpt>
      <trkpt lat="44.06326" lon="6.97208">
        <ele>1596.052105</ele>
        <time>2010-10-10T07:49:11Z</time>
      </trkpt>
      <trkpt lat="44.06326" lon="6.97198">
        <ele>1595.693405</ele>
        <time>2010-10-10T07:49:14Z</time>
      </trkpt>
      <trkpt lat="44.06326" lon="6.9719">
        <ele>1595.523316</ele>
        <time>2010-10-10T07:49:16Z</time>
      </trkpt>
      <trkpt lat="44.06326" lon="6.97182">
        <ele>1595.497611</ele>
        <time>2010-10-10T07:49:18Z</time>
      </trkpt>
      <trkpt lat="44.06326" lon="6.97174">
        <ele>1595.526744</ele>
        <time>2010-10-10T07:49:20Z</time>
      </trkpt>
      <trkpt lat="44.06327" lon="6.97158">
        <ele>1595.694142</ele>
        <time>2010-10-10T07:49:23Z</time>
      </trkpt>
      <trkpt lat="44.06328" lon="6.97146">
        <ele>1596.20585</ele>
        <time>2010-10-10T07:49:25Z</time>
      </trkpt>
      <trkpt lat="44.06328" lon="6.97146">
        <ele>1596.937074</ele>
        <time>2010-10-10T07:49:27Z</time>
      </trkpt>
      <trkpt lat="44.06328" lon="6.97146">
        <ele>1597.479299</ele>
        <time>2010-10-10T07:50:14Z</time>
      </trkpt>
      <trkpt lat="44.06336" lon="6.97091">
        <ele>1597.678692</ele>
        <time>2010-10-10T07:50:20Z</time>
      </trkpt>
      <trkpt lat="44.06336" lon="6.97091">
        <ele>1597.435755</ele>
        <time>2010-10-10T07:50:37Z</time>
      </trkpt>
      <trkpt lat="44.06365" lon="6.97105">
        <ele>1596.652165</ele>
        <time>2010-10-10T07:50:41Z</time>
      </trkpt>
      <trkpt lat="44.06371" lon="6.97111">
        <ele>1595.602884</ele>
        <time>2010-10-10T07:50:44Z</time>
      </trkpt>
      <trkpt lat="44.06379" lon="6.97116">
        <ele>1591.044009</ele>
        <time>2010-10-10T07:50:49Z</time>
      </trkpt>
      <trkpt lat="44.06382" lon="6.97118">
        <ele>1575.702078</ele>
        <time>2010-10-10T07:50:53Z</time>
      </trkpt>
      <trkpt lat="44.06382" lon="6.97118">
        <ele>1552.033442</ele>
        <time>2010-10-10T07:51:04Z</time>
      </trkpt>
      <trkpt lat="44.06418" lon="6.97119">
        <ele>1531.697797</ele>
        <time>2010-10-10T07:51:41Z</time>
      </trkpt>
      <trkpt lat="44.06421" lon="6.97119">
        <ele>1518.005298</ele>
        <time>2010-10-10T07:51:44Z</time>
      </trkpt>
      <trkpt lat="44.06425" lon="6.9712">
        <ele>1507.037908</ele>
        <time>2010-10-10T07:51:49Z</time>
      </trkpt>
      <trkpt lat="44.06432" lon="6.97121">
        <ele>1497.44576</ele>
        <time>2010-10-10T07:51:58Z</time>
      </trkpt>
      <trkpt lat="44.06435" lon="6.97119">
        <ele>1489.830551</ele>
        <time>2010-10-10T07:52:03Z</time>
      </trkpt>
      <trkpt lat="44.06438" lon="6.97115">
        <ele>1485.45542</ele>
        <time>2010-10-10T07:52:09Z</time>
      </trkpt>
      <trkpt lat="44.06439" lon="6.97112">
        <ele>1484.335212</ele>
        <time>2010-10-10T07:52:14Z</time>
      </trkpt>
      <trkpt lat="44.06441" lon="6.97106">
        <ele>1484.739428</ele>
        <time>2010-10-10T07:52:20Z</time>
      </trkpt>
      <trkpt lat="44.06442" lon="6.97102">
        <ele>1485.362559</ele>
        <time>2010-10-10T07:52:23Z</time>
      </trkpt>
      <trkpt lat="44.06444" lon="6.97096">
        <ele>1485.854141</ele>
        <time>2010-10-10T07:52:28Z</time>
      </trkpt>
      <trkpt lat="44.06445" lon="6.97093">
        <ele>1486.440412</ele>
        <time>2010-10-10T07:52:31Z</time>
      </trkpt>
      <trkpt lat="44.06447" lon="6.97085">
        <ele>1487.273544</ele>
        <time>2010-10-10T07:52:37Z</time>
      </trkpt>
      <trkpt lat="44.06448" lon="6.9708">
        <ele>1488.403506</ele>
        <time>2010-10-10T07:52:40Z</time>
      </trkpt>
      <trkpt lat="44.06449" lon="6.97076">
        <ele>1489.804148</ele>
        <time>2010-10-10T07:52:43Z</time>
      </trkpt>
      <trkpt lat="44.06448" lon="6.97069">
        <ele>1491.205945</ele>
        <time>2010-10-10T07:52:50Z</time>
      </trkpt>
      <trkpt lat="44.06447" lon="6.97065">
        <ele>1492.255127</ele>
        <time>2010-10-10T07:52:57Z</time>
      </trkpt>
      <trkpt lat="44.06447" lon="6.97065">
        <ele>1492.782846</ele>
        <time>2010-10-10T07:53:01Z</time>
      </trkpt>
      <trkpt lat="44.06451" lon="6.97028">
        <ele>1492.88074</ele>
        <time>2010-10-10T07:53:39Z</time>
      </trkpt>
      <trkpt lat="44.06452" lon="6.97023">
        <ele>1492.942177</ele>
        <time>2010-10-10T07:53:44Z</time>
      </trkpt>
      <trkpt lat="44.06452" lon="6.9702">
        <ele>1493.21647</ele>
        <time>2010-10-10T07:53:48Z</time>
      </trkpt>
      <trkpt lat="44.06452" lon="6.9702">
        <ele>1493.405221</ele>
        <time>2010-10-10T07:53:54Z</time>
      </trkpt>
      <trkpt lat="44.06449" lon="6.9698">
        <ele>1494.318425</ele>
        <time>2010-10-10T07:54:43Z</time>
      </trkpt>
      <trkpt lat="44.06449" lon="6.9698">
        <ele>1496.861041</ele>
        <time>2010-10-10T07:54:47Z</time>
      </trkpt>
      <trkpt lat="44.06455" lon="6.96941">
        <ele>1499.756401</ele>
        <time>2010-10-10T07:55:40Z</time>
      </trkpt>
      <trkpt lat="44.06459" lon="6.96936">
        <ele>1501.741508</ele>
        <time>2010-10-10T07:55:48Z</time>
      </trkpt>
      <trkpt lat="44.06459" lon="6.96936">
        <ele>1503.059436</ele>
        <time>2010-10-10T07:55:57Z</time>
      </trkpt>
      <trkpt lat="44.06459" lon="6.96936">
        <ele>1503.437286</ele>
        <time>2010-10-10T07:56:19Z</time>
      </trkpt>
      <trkpt lat="44.06475" lon="6.96901">
        <ele>1503.760598</ele>
        <time>2010-10-10T07:59:20Z</time>
      </trkpt>
      <trkpt lat="44.06476" lon="6.96897">
        <ele>1505.866688</ele>
        <time>2010-10-10T07:59:22Z</time>
      </trkpt>
      <trkpt lat="44.06478" lon="6.96892">
        <ele>1509.279213</ele>
        <time>2010-10-10T07:59:25Z</time>
      </trkpt>
      <trkpt lat="44.06481" lon="6.96891">
        <ele>1511.91575</ele>
        <time>2010-10-10T07:59:30Z</time>
      </trkpt>
      <trkpt lat="44.06486" lon="6.9689">
        <ele>1513.202386</ele>
        <time>2010-10-10T07:59:34Z</time>
      </trkpt>
      <trkpt lat="44.06489" lon="6.96889">
        <ele>1513.674664</ele>
        <time>2010-10-10T07:59:36Z</time>
      </trkpt>
      <trkpt lat="44.06496" lon="6.96888">
        <ele>1513.801382</ele>
        <time>2010-10-10T07:59:39Z</time>
      </trkpt>
      <trkpt lat="44.06503" lon="6.96888">
        <ele>1513.762107</ele>
        <time>2010-10-10T07:59:42Z</time>
      </trkpt>
      <trkpt lat="44.06519" lon="6.96886">
        <ele>1513.696474</ele>
        <time>2010-10-10T07:59:45Z</time>
      </trkpt>
      <trkpt lat="44.06533" lon="6.96885">
        <ele>1513.65832</ele>
        <time>2010-10-10T07:59:48Z</time>
      </trkpt>
      <trkpt lat="44.06549" lon="6.96882">
        <ele>1513.648336</ele>
        <time>2010-10-10T07:59:51Z</time>
      </trkpt>
      <trkpt lat="44.06565" lon="6.96879">
        <ele>1513.651698</ele>
        <time>2010-10-10T07:59:54Z</time>
      </trkpt>
      <trkpt lat="44.06574" lon="6.96877">
        <ele>1513.657075</ele>
        <time>2010-10-10T07:59:56Z</time>
      </trkpt>
      <trkpt lat="44.06586" lon="6.96872">
        <ele>1513.798345</ele>
        <time>2010-10-10T07:59:59Z</time>
      </trkpt>
      <trkpt lat="44.06594" lon="6.96866">
        <ele>1514.297218</ele>
        <time>2010-10-10T08:00:01Z</time>
      </trkpt>
      <trkpt lat="44.06603" lon="6.96855">
        <ele>1515.026277</ele>
        <time>2010-10-10T08:00:04Z</time>
      </trkpt>
      <trkpt lat="44.06608" lon="6.96847">
        <ele>1515.708726</ele>
        <time>2010-10-10T08:00:07Z</time>
      </trkpt>
      <trkpt lat="44.06609" lon="6.96841">
        <ele>1516.408344</ele>
        <time>2010-10-10T08:00:09Z</time>
      </trkpt>
      <trkpt lat="44.06611" lon="6.96828">
        <ele>1517.134153</ele>
        <time>2010-10-10T08:00:11Z</time>
      </trkpt>
      <trkpt lat="44.06615" lon="6.96814">
        <ele>1517.618781</ele>
        <time>2010-10-10T08:00:13Z</time>
      </trkpt>
      <trkpt lat="44.06618" lon="6.96798">
        <ele>1517.914579</ele>
        <time>2010-10-10T08:00:16Z</time>
      </trkpt>
      <trkpt lat="44.0662" lon="6.9679">
        <ele>1518.254906</ele>
        <time>2010-10-10T08:00:18Z</time>
      </trkpt>
      <trkpt lat="44.06622" lon="6.96778">
        <ele>1518.702891</ele>
        <time>2010-10-10T08:00:21Z</time>
      </trkpt>
      <trkpt lat="44.06625" lon="6.96765">
        <ele>1519.475124</ele>
        <time>2010-10-10T08:00:24Z</time>
      </trkpt>
      <trkpt lat="44.06627" lon="6.96757">
        <ele>1520.716491</ele>
        <time>2010-10-10T08:00:26Z</time>
      </trkpt>
      <trkpt lat="44.06636" lon="6.96741">
        <ele>1522.23862</ele>
        <time>2010-10-10T08:00:29Z</time>
      </trkpt>
      <trkpt lat="44.06641" lon="6.96731">
        <ele>1523.956008</ele>
        <time>2010-10-10T08:00:31Z</time>
      </trkpt>
      <trkpt lat="44.06643" lon="6.96726">
        <ele>1525.602049</ele>
        <time>2010-10-10T08:00:33Z</time>
      </trkpt>
      <trkpt lat="44.06643" lon="6.96726">
        <ele>1526.626841</ele>
        <time>2010-10-10T08:01:07Z</time>
      </trkpt>
      <trkpt lat="44.06655" lon="6.96712">
        <ele>1526.928456</ele>
        <time>2010-10-10T08:01:12Z</time>
      </trkpt>
      <trkpt lat="44.06656" lon="6.96705">
        <ele>1526.586917</ele>
        <time>2010-10-10T08:01:15Z</time>
      </trkpt>
      <trkpt lat="44.06658" lon="6.96682">
        <ele>1525.621431</ele>
        <time>2010-10-10T08:01:18Z</time>
      </trkpt>
      <trkpt lat="44.0666" lon="6.96666">
        <ele>1524.207418</ele>
        <time>2010-10-10T08:01:20Z</time>
      </trkpt>
      <trkpt lat="44.06661" lon="6.96644">
        <ele>1522.745671</ele>
        <time>2010-10-10T08:01:23Z</time>
      </trkpt>
      <trkpt lat="44.06664" lon="6.96626">
        <ele>1521.745573</ele>
        <time>2010-10-10T08:01:26Z</time>
      </trkpt>
      <trkpt lat="44.06669" lon="6.96607">
        <ele>1521.409999</ele>
        <time>2010-10-10T08:01:29Z</time>
      </trkpt>
      <trkpt lat="44.06676" lon="6.9658">
        <ele>1521.304412</ele>
        <time>2010-10-10T08:01:32Z</time>
      </trkpt>
      <trkpt lat="44.06683" lon="6.96566">
        <ele>1520.926445</ele>
        <time>2010-10-10T08:01:34Z</time>
      </trkpt>
      <trkpt lat="44.06694" lon="6.96546">
        <ele>1520.278123</ele>
        <time>2010-10-10T08:01:37Z</time>
      </trkpt>
      <trkpt lat="44.06701" lon="6.96536">
        <ele>1519.760094</ele>
        <time>2010-10-10T08:01:39Z</time>
      </trkpt>
      <trkpt lat="44.0671" lon="6.96518">
        <ele>1519.417091</ele>
        <time>2010-10-10T08:01:42Z</time>
      </trkpt>
      <trkpt lat="44.06717" lon="6.96506">
        <ele>1519.050777</ele>
        <time>2010-10-10T08:01:45Z</time>
      </trkpt>
      <trkpt lat="44.06725" lon="6.96489">
        <ele>1518.596682</ele>
        <time>2010-10-10T08:01:48Z</time>
      </trkpt>
      <trkpt lat="44.06731" lon="6.96478">
        <ele>1517.827228</ele>
        <time>2010-10-10T08:01:50Z</time>
      </trkpt>
      <trkpt lat="44.06746" lon="6.96472">
        <ele>1516.45149</ele>
        <time>2010-10-10T08:01:53Z</time>
      </trkpt>
      <trkpt lat="44.06754" lon="6.9647">
        <ele>1514.709699</ele>
        <time>2010-10-10T08:01:55Z</time>
      </trkpt>
      <trkpt lat="44.06754" lon="6.9647">
        <ele>1513.259558</ele>
        <time>2010-10-10T08:02:23Z</time>
      </trkpt>
      <trkpt lat="44.06781" lon="6.96473">
        <ele>1512.389016</ele>
        <time>2010-10-10T08:02:30Z</time>
      </trkpt>
      <trkpt lat="44.06781" lon="6.96473">
        <ele>1511.753416</ele>
        <time>2010-10-10T08:02:46Z</time>
      </trkpt>
      <trkpt lat="44.06781" lon="6.96473">
        <ele>1511.129347</ele>
        <time>2010-10-10T08:03:01Z</time>
      </trkpt>
      <trkpt lat="44.06809" lon="6.9648">
        <ele>1510.702982</ele>
        <time>2010-10-10T08:03:29Z</time>
      </trkpt>
      <trkpt lat="44.06809" lon="6.9648">
        <ele>1510.558217</ele>
        <time>2010-10-10T08:03:36Z</time>
      </trkpt>
      <trkpt lat="44.06837" lon="6.96477">
        <ele>1510.567213</ele>
        <time>2010-10-10T08:03:54Z</time>
      </trkpt>
      <trkpt lat="44.06865" lon="6.96482">
        <ele>1510.525441</ele>
        <time>2010-10-10T08:04:06Z</time>
      </trkpt>
      <trkpt lat="44.06877" lon="6.96448">
        <ele>1510.280388</ele>
        <time>2010-10-10T08:04:24Z</time>
      </trkpt>
      <trkpt lat="44.069" lon="6.96425">
        <ele>1509.833801</ele>
        <time>2010-10-10T08:04:41Z</time>
      </trkpt>
      <trkpt lat="44.06925" lon="6.96411">
        <ele>1508.193329</ele>
        <time>2010-10-10T08:04:49Z</time>
      </trkpt>
      <trkpt lat="44.06933" lon="6.96404">
        <ele>1504.31291</ele>
        <time>2010-10-10T08:04:53Z</time>
      </trkpt>
      <trkpt lat="44.0694" lon="6.96394">
        <ele>1499.277055</ele>
        <time>2010-10-10T08:05:00Z</time>
      </trkpt>
      <trkpt lat="44.06941" lon="6.9639">
        <ele>1494.307952</ele>
        <time>2010-10-10T08:05:03Z</time>
      </trkpt>
      <trkpt lat="44.06941" lon="6.96386">
        <ele>1489.108851</ele>
        <time>2010-10-10T08:05:07Z</time>
      </trkpt>
      <trkpt lat="44.06941" lon="6.96382">
        <ele>1483.538862</ele>
        <time>2010-10-10T08:05:10Z</time>
      </trkpt>
      <trkpt lat="44.06939" lon="6.96376">
        <ele>1478.466765</ele>
        <time>2010-10-10T08:05:14Z</time>
      </trkpt>
      <trkpt lat="44.06938" lon="6.96372">
        <ele>1475.016494</ele>
        <time>2010-10-10T08:05:17Z</time>
      </trkpt>
      <trkpt lat="44.06935" lon="6.96365">
        <ele>1473.472986</ele>
        <time>2010-10-10T08:05:21Z</time>
      </trkpt>
      <trkpt lat="44.06933" lon="6.9636">
        <ele>1473.157197</ele>
        <time>2010-10-10T08:05:24Z</time>
      </trkpt>
      <trkpt lat="44.0693" lon="6.96355">
        <ele>1473.359515</ele>
        <time>2010-10-10T08:05:27Z</time>
      </trkpt>
      <trkpt lat="44.06928" lon="6.96351">
        <ele>1473.877975</ele>
        <time>2010-10-10T08:05:30Z</time>
      </trkpt>
      <trkpt lat="44.06926" lon="6.96345">
        <ele>1474.722156</ele>
        <time>2010-10-10T08:05:33Z</time>
      </trkpt>
      <trkpt lat="44.06924" lon="6.96341">
        <ele>1475.485584</ele>
        <time>2010-10-10T08:05:36Z</time>
      </trkpt>
      <trkpt lat="44.0692" lon="6.96333">
        <ele>1475.819136</ele>
        <time>2010-10-10T08:05:39Z</time>
      </trkpt>
      <trkpt lat="44.06914" lon="6.96324">
        <ele>1475.990612</ele>
        <time>2010-10-10T08:05:51Z</time>
      </trkpt>
      <trkpt lat="44.06914" lon="6.96324">
        <ele>1476.280492</ele>
        <time>2010-10-10T08:06:04Z</time>
      </trkpt>
      <trkpt lat="44.06914" lon="6.96324">
        <ele>1476.587784</ele>
        <time>2010-10-10T08:06:22Z</time>
      </trkpt>
      <trkpt lat="44.06923" lon="6.96283">
        <ele>1476.736265</ele>
        <time>2010-10-10T08:06:43Z</time>
      </trkpt>
      <trkpt lat="44.06925" lon="6.96271">
        <ele>1476.89854</ele>
        <time>2010-10-10T08:06:47Z</time>
      </trkpt>
      <trkpt lat="44.06928" lon="6.96261">
        <ele>1477.786948</ele>
        <time>2010-10-10T08:06:51Z</time>
      </trkpt>
      <trkpt lat="44.0693" lon="6.96253">
        <ele>1480.538111</ele>
        <time>2010-10-10T08:06:54Z</time>
      </trkpt>
      <trkpt lat="44.06934" lon="6.96234">
        <ele>1484.698358</ele>
        <time>2010-10-10T08:07:00Z</time>
      </trkpt>
      <trkpt lat="44.06935" lon="6.96225">
        <ele>1488.010096</ele>
        <time>2010-10-10T08:07:03Z</time>
      </trkpt>
      <trkpt lat="44.06937" lon="6.96217">
        <ele>1489.453241</ele>
        <time>2010-10-10T08:07:06Z</time>
      </trkpt>
      <trkpt lat="44.06944" lon="6.96212">
        <ele>1490.127177</ele>
        <time>2010-10-10T08:07:09Z</time>
      </trkpt>
      <trkpt lat="44.06953" lon="6.96207">
        <ele>1491.149261</ele>
        <time>2010-10-10T08:07:12Z</time>
      </trkpt>
      <trkpt lat="44.06963" lon="6.96204">
        <ele>1492.514137</ele>
        <time>2010-10-10T08:07:15Z</time>
      </trkpt>
      <trkpt lat="44.06975" lon="6.96202">
        <ele>1493.525618</ele>
        <time>2010-10-10T08:07:18Z</time>
      </trkpt>
      <trkpt lat="44.06986" lon="6.96201">
        <ele>1493.897338</ele>
        <time>2010-10-10T08:07:21Z</time>
      </trkpt>
      <trkpt lat="44.06998" lon="6.96201">
        <ele>1493.888668</ele>
        <time>2010-10-10T08:07:24Z</time>
      </trkpt>
      <trkpt lat="44.07005" lon="6.962">
        <ele>1493.776234</ele>
        <time>2010-10-10T08:07:27Z</time>
      </trkpt>
      <trkpt lat="44.07016" lon="6.96198">
        <ele>1493.417802</ele>
        <time>2010-10-10T08:07:30Z</time>
      </trkpt>
      <trkpt lat="44.07025" lon="6.96193">
        <ele>1492.39199</ele>
        <time>2010-10-10T08:07:34Z</time>
      </trkpt>
      <trkpt lat="44.07028" lon="6.9619">
        <ele>1490.93442</ele>
        <time>2010-10-10T08:07:36Z</time>
      </trkpt>
      <trkpt lat="44.07033" lon="6.96186">
        <ele>1489.71612</ele>
        <time>2010-10-10T08:07:39Z</time>
      </trkpt>
      <trkpt lat="44.07044" lon="6.9618">
        <ele>1488.959303</ele>
        <time>2010-10-10T08:07:44Z</time>
      </trkpt>
      <trkpt lat="44.0705" lon="6.96177">
        <ele>1488.599148</ele>
        <time>2010-10-10T08:07:46Z</time>
      </trkpt>
      <trkpt lat="44.07061" lon="6.96174">
        <ele>1488.543966</ele>
        <time>2010-10-10T08:07:49Z</time>
      </trkpt>
      <trkpt lat="44.07068" lon="6.96172">
        <ele>1488.605092</ele>
        <time>2010-10-10T08:07:51Z</time>
      </trkpt>
      <trkpt lat="44.07078" lon="6.96167">
        <ele>1488.666779</ele>
        <time>2010-10-10T08:07:54Z</time>
      </trkpt>
      <trkpt lat="44.07084" lon="6.96164">
        <ele>1488.695752</ele>
        <time>2010-10-10T08:07:56Z</time>
      </trkpt>
      <trkpt lat="44.07091" lon="6.96159">
        <ele>1488.699967</ele>
        <time>2010-10-10T08:07:59Z</time>
      </trkpt>
      <trkpt lat="44.07097" lon="6.96154">
        <ele>1488.694885</ele>
        <time>2010-10-10T08:08:02Z</time>
      </trkpt>
      <trkpt lat="44.07101" lon="6.96152">
        <ele>1488.689862</ele>
        <time>2010-10-10T08:08:04Z</time>
      </trkpt>
      <trkpt lat="44.07106" lon="6.96149">
        <ele>1488.549357</ele>
        <time>2010-10-10T08:08:06Z</time>
      </trkpt>
      <trkpt lat="44.07112" lon="6.96145">
        <ele>1488.189148</ele>
        <time>2010-10-10T08:08:09Z</time>
      </trkpt>
      <trkpt lat="44.07117" lon="6.96141">
        <ele>1487.681963</ele>
        <time>2010-10-10T08:08:12Z</time>
      </trkpt>
      <trkpt lat="44.0712" lon="6.96138">
        <ele>1487.14722</ele>
        <time>2010-10-10T08:08:15Z</time>
      </trkpt>
      <trkpt lat="44.07124" lon="6.96131">
        <ele>1486.751443</ele>
        <time>2010-10-10T08:08:18Z</time>
      </trkpt>
      <trkpt lat="44.07125" lon="6.96124">
        <ele>1486.606191</ele>
        <time>2010-10-10T08:08:21Z</time>
      </trkpt>
      <trkpt lat="44.07127" lon="6.96119">
        <ele>1486.609728</ele>
        <time>2010-10-10T08:08:23Z</time>
      </trkpt>
      <trkpt lat="44.0713" lon="6.96113">
        <ele>1486.653772</ele>
        <time>2010-10-10T08:08:26Z</time>
      </trkpt>
      <trkpt lat="44.07137" lon="6.96102">
        <ele>1486.685885</ele>
        <time>2010-10-10T08:08:31Z</time>
      </trkpt>
      <trkpt lat="44.07142" lon="6.96095">
        <ele>1486.697489</ele>
        <time>2010-10-10T08:08:34Z</time>
      </trkpt>
      <trkpt lat="44.07146" lon="6.9609">
        <ele>1486.835236</ele>
        <time>2010-10-10T08:08:36Z</time>
      </trkpt>
      <trkpt lat="44.07148" lon="6.96084">
        <ele>1487.191485</ele>
        <time>2010-10-10T08:08:39Z</time>
      </trkpt>
      <trkpt lat="44.07151" lon="6.96068">
        <ele>1487.558294</ele>
        <time>2010-10-10T08:08:45Z</time>
      </trkpt>
      <trkpt lat="44.07154" lon="6.96065">
        <ele>1487.73262</ele>
        <time>2010-10-10T08:08:48Z</time>
      </trkpt>
      <trkpt lat="44.07157" lon="6.96062">
        <ele>1487.621015</ele>
        <time>2010-10-10T08:08:50Z</time>
      </trkpt>
      <trkpt lat="44.0716" lon="6.96061">
        <ele>1487.23143</ele>
        <time>2010-10-10T08:08:53Z</time>
      </trkpt>
      <trkpt lat="44.07163" lon="6.96068">
        <ele>1486.417553</ele>
        <time>2010-10-10T08:08:57Z</time>
      </trkpt>
      <trkpt lat="44.07163" lon="6.96072">
        <ele>1484.872225</ele>
        <time>2010-10-10T08:09:06Z</time>
      </trkpt>
      <trkpt lat="44.07163" lon="6.96072">
        <ele>1483.015574</ele>
        <time>2010-10-10T08:09:08Z</time>
      </trkpt>
      <trkpt lat="44.07163" lon="6.96072">
        <ele>1481.729844</ele>
        <time>2010-10-10T08:10:10Z</time>
      </trkpt>
      <trkpt lat="44.07188" lon="6.96055">
        <ele>1480.970023</ele>
        <time>2010-10-10T08:16:04Z</time>
      </trkpt>
      <trkpt lat="44.07194" lon="6.9605">
        <ele>1480.022312</ele>
        <time>2010-10-10T08:16:07Z</time>
      </trkpt>
      <trkpt lat="44.07203" lon="6.96043">
        <ele>1478.376832</ele>
        <time>2010-10-10T08:16:12Z</time>
      </trkpt>
      <trkpt lat="44.07208" lon="6.96036">
        <ele>1473.048927</ele>
        <time>2010-10-10T08:16:15Z</time>
      </trkpt>
      <trkpt lat="44.07213" lon="6.96031">
        <ele>1462.953134</ele>
        <time>2010-10-10T08:16:18Z</time>
      </trkpt>
      <trkpt lat="44.07213" lon="6.96031">
        <ele>1453.563206</ele>
        <time>2010-10-10T08:16:32Z</time>
      </trkpt>
      <trkpt lat="44.07238" lon="6.96009">
        <ele>1449.378813</ele>
        <time>2010-10-10T08:16:46Z</time>
      </trkpt>
      <trkpt lat="44.07238" lon="6.96009">
        <ele>1448.907694</ele>
        <time>2010-10-10T08:16:59Z</time>
      </trkpt>
      <trkpt lat="44.07263" lon="6.9599">
        <ele>1450.022012</ele>
        <time>2010-10-10T08:17:03Z</time>
      </trkpt>
      <trkpt lat="44.07282" lon="6.95978">
        <ele>1452.473392</ele>
        <time>2010-10-10T08:17:08Z</time>
      </trkpt>
      <trkpt lat="44.07312" lon="6.95965">
        <ele>1456.281707</ele>
        <time>2010-10-10T08:17:20Z</time>
      </trkpt>
      <trkpt lat="44.0734" lon="6.95951">
        <ele>1460.149554</ele>
        <time>2010-10-10T08:17:35Z</time>
      </trkpt>
      <trkpt lat="44.07367" lon="6.95942">
        <ele>1463.090658</ele>
        <time>2010-10-10T08:17:47Z</time>
      </trkpt>
      <trkpt lat="44.07378" lon="6.95934">
        <ele>1465.879799</ele>
        <time>2010-10-10T08:17:52Z</time>
      </trkpt>
      <trkpt lat="44.07381" lon="6.95932">
        <ele>1469.50415</ele>
        <time>2010-10-10T08:17:54Z</time>
      </trkpt>
      <trkpt lat="44.07387" lon="6.95927">
        <ele>1473.978766</ele>
        <time>2010-10-10T08:17:56Z</time>
      </trkpt>
      <trkpt lat="44.07405" lon="6.95912">
        <ele>1478.281701</ele>
        <time>2010-10-10T08:18:05Z</time>
      </trkpt>
      <trkpt lat="44.07411" lon="6.95909">
        <ele>1481.189325</ele>
        <time>2010-10-10T08:18:08Z</time>
      </trkpt>
      <trkpt lat="44.07421" lon="6.95903">
        <ele>1482.287934</ele>
        <time>2010-10-10T08:18:11Z</time>
      </trkpt>
      <trkpt lat="44.07424" lon="6.95901">
        <ele>1482.285604</ele>
        <time>2010-10-10T08:18:13Z</time>
      </trkpt>
      <trkpt lat="44.07432" lon="6.95895">
        <ele>1481.970833</ele>
        <time>2010-10-10T08:18:16Z</time>
      </trkpt>
      <trkpt lat="44.07439" lon="6.9589">
        <ele>1481.872977</ele>
        <time>2010-10-10T08:18:19Z</time>
      </trkpt>
      <trkpt lat="44.07447" lon="6.95884">
        <ele>1482.145066</ele>
        <time>2010-10-10T08:18:21Z</time>
      </trkpt>
      <trkpt lat="44.07454" lon="6.95879">
        <ele>1482.515728</ele>
        <time>2010-10-10T08:18:23Z</time>
      </trkpt>
      <trkpt lat="44.07465" lon="6.95875">
        <ele>1482.716931</ele>
        <time>2010-10-10T08:18:26Z</time>
      </trkpt>
      <trkpt lat="44.07476" lon="6.9587">
        <ele>1482.900797</ele>
        <time>2010-10-10T08:18:29Z</time>
      </trkpt>
      <trkpt lat="44.07484" lon="6.95865">
        <ele>1483.237718</ele>
        <time>2010-10-10T08:18:32Z</time>
      </trkpt>
      <trkpt lat="44.07492" lon="6.95861">
        <ele>1483.576862</ele>
        <time>2010-10-10T08:18:35Z</time>
      </trkpt>
      <trkpt lat="44.07499" lon="6.95857">
        <ele>1483.73589</ele>
        <time>2010-10-10T08:18:38Z</time>
      </trkpt>
      <trkpt lat="44.07508" lon="6.95854">
        <ele>1483.62067</ele>
        <time>2010-10-10T08:18:42Z</time>
      </trkpt>
      <trkpt lat="44.07514" lon="6.95851">
        <ele>1483.09456</ele>
        <time>2010-10-10T08:18:45Z</time>
      </trkpt>
      <trkpt lat="44.0752" lon="6.95848">
        <ele>1482.337614</ele>
        <time>2010-10-10T08:18:48Z</time>
      </trkpt>
      <trkpt lat="44.07523" lon="6.95847">
        <ele>1481.780141</ele>
        <time>2010-10-10T08:18:51Z</time>
      </trkpt>
      <trkpt lat="44.0753" lon="6.95841">
        <ele>1481.57661</ele>
        <time>2010-10-10T08:18:54Z</time>
      </trkpt>
      <trkpt lat="44.07534" lon="6.95837">
        <ele>1481.5824</ele>
        <time>2010-10-10T08:18:57Z</time>
      </trkpt>
      <trkpt lat="44.07542" lon="6.9583">
        <ele>1481.782923</ele>
        <time>2010-10-10T08:19:00Z</time>
      </trkpt>
      <trkpt lat="44.07549" lon="6.95823">
        <ele>1482.326225</ele>
        <time>2010-10-10T08:19:03Z</time>
      </trkpt>
      <trkpt lat="44.07557" lon="6.95816">
        <ele>1483.0718</ele>
        <time>2010-10-10T08:19:06Z</time>
      </trkpt>
      <trkpt lat="44.0756" lon="6.95813">
        <ele>1483.754005</ele>
        <time>2010-10-10T08:19:08Z</time>
      </trkpt>
      <trkpt lat="44.07564" lon="6.9581">
        <ele>1484.448733</ele>
        <time>2010-10-10T08:19:11Z</time>
      </trkpt>
      <trkpt lat="44.07555" lon="6.95825">
        <ele>1485.170934</ele>
        <time>2010-10-10T08:19:19Z</time>
      </trkpt>
      <trkpt lat="44.07555" lon="6.95825">
        <ele>1485.654239</ele>
        <time>2010-10-10T08:19:20Z</time>
      </trkpt>
      <trkpt lat="44.07532" lon="6.95853">
        <ele>1485.811897</ele>
        <time>2010-10-10T08:19:33Z</time>
      </trkpt>
      <trkpt lat="44.07526" lon="6.95857">
        <ele>1485.792748</ele>
        <time>2010-10-10T08:19:36Z</time>
      </trkpt>
      <trkpt lat="44.07518" lon="6.95863">
        <ele>1485.733429</ele>
        <time>2010-10-10T08:19:40Z</time>
      </trkpt>
      <trkpt lat="44.07492" lon="6.95875">
        <ele>1485.556104</ele>
        <time>2010-10-10T08:19:54Z</time>
      </trkpt>
      <trkpt lat="44.07485" lon="6.95875">
        <ele>1485.18368</ele>
        <time>2010-10-10T08:19:57Z</time>
      </trkpt>
      <trkpt lat="44.07478" lon="6.95874">
        <ele>1484.815976</ele>
        <time>2010-10-10T08:20:00Z</time>
      </trkpt>
      <trkpt lat="44.07447" lon="6.95873">
        <ele>1484.645587</ele>
        <time>2010-10-10T08:20:12Z</time>
      </trkpt>
      <trkpt lat="44.07438" lon="6.95876">
        <ele>1484.760403</ele>
        <time>2010-10-10T08:20:16Z</time>
      </trkpt>
      <trkpt lat="44.07428" lon="6.95879">
        <ele>1485.151266</ele>
        <time>2010-10-10T08:20:20Z</time>
      </trkpt>
      <trkpt lat="44.07408" lon="6.95886">
        <ele>1485.688812</ele>
        <time>2010-10-10T08:20:29Z</time>
      </trkpt>
      <trkpt lat="44.07398" lon="6.9589">
        <ele>1486.513994</ele>
        <time>2010-10-10T08:20:33Z</time>
      </trkpt>
      <trkpt lat="44.07393" lon="6.95892">
        <ele>1487.907842</ele>
        <time>2010-10-10T08:20:35Z</time>
      </trkpt>
      <trkpt lat="44.07384" lon="6.95895">
        <ele>1489.647357</ele>
        <time>2010-10-10T08:20:42Z</time>
      </trkpt>
      <trkpt lat="44.07377" lon="6.95897">
        <ele>1491.090612</ele>
        <time>2010-10-10T08:20:47Z</time>
      </trkpt>
      <trkpt lat="44.07359" lon="6.959">
        <ele>1491.956615</ele>
        <time>2010-10-10T08:20:58Z</time>
      </trkpt>
      <trkpt lat="44.07345" lon="6.95901">
        <ele>1492.452589</ele>
        <time>2010-10-10T08:21:04Z</time>
      </trkpt>
      <trkpt lat="44.07335" lon="6.95904">
        <ele>1492.855156</ele>
        <time>2010-10-10T08:21:09Z</time>
      </trkpt>
      <trkpt lat="44.0733" lon="6.95906">
        <ele>1493.410717</ele>
        <time>2010-10-10T08:21:12Z</time>
      </trkpt>
      <trkpt lat="44.07325" lon="6.95908">
        <ele>1494.246111</ele>
        <time>2010-10-10T08:21:15Z</time>
      </trkpt>
      <trkpt lat="44.07322" lon="6.9591">
        <ele>1495.110159</ele>
        <time>2010-10-10T08:21:18Z</time>
      </trkpt>
      <trkpt lat="44.07322" lon="6.9591">
        <ele>1495.660045</ele>
        <time>2010-10-10T08:21:28Z</time>
      </trkpt>
      <trkpt lat="44.07294" lon="6.95918">
        <ele>1495.827354</ele>
        <time>2010-10-10T08:21:32Z</time>
      </trkpt>
      <trkpt lat="44.0729" lon="6.9592">
        <ele>1495.796486</ele>
        <time>2010-10-10T08:21:34Z</time>
      </trkpt>
      <trkpt lat="44.07286" lon="6.95922">
        <ele>1495.587423</ele>
        <time>2010-10-10T08:21:36Z</time>
      </trkpt>
      <trkpt lat="44.07282" lon="6.95924">
        <ele>1495.183021</ele>
        <time>2010-10-10T08:21:38Z</time>
      </trkpt>
      <trkpt lat="44.07261" lon="6.95932">
        <ele>1494.662132</ele>
        <time>2010-10-10T08:21:51Z</time>
      </trkpt>
      <trkpt lat="44.07254" lon="6.95934">
        <ele>1494.129672</ele>
        <time>2010-10-10T08:21:54Z</time>
      </trkpt>
      <trkpt lat="44.0725" lon="6.95935">
        <ele>1493.739515</ele>
        <time>2010-10-10T08:21:57Z</time>
      </trkpt>
      <trkpt lat="44.07242" lon="6.95936">
        <ele>1493.597841</ele>
        <time>2010-10-10T08:22:00Z</time>
      </trkpt>
      <trkpt lat="44.0723" lon="6.95938">
        <ele>1493.60247</ele>
        <time>2010-10-10T08:22:05Z</time>
      </trkpt>
      <trkpt lat="44.07219" lon="6.95939">
        <ele>1493.784488</ele>
        <time>2010-10-10T08:22:09Z</time>
      </trkpt>
      <trkpt lat="44.07217" lon="6.95938">
        <ele>1494.176015</ele>
        <time>2010-10-10T08:22:12Z</time>
      </trkpt>
      <trkpt lat="44.07204" lon="6.95935">
        <ele>1494.556744</ele>
        <time>2010-10-10T08:22:15Z</time>
      </trkpt>
      <trkpt lat="44.07201" lon="6.95933">
        <ele>1495.007841</ele>
        <time>2010-10-10T08:22:17Z</time>
      </trkpt>
      <trkpt lat="44.0719" lon="6.95925">
        <ele>1495.888715</ele>
        <time>2010-10-10T08:22:20Z</time>
      </trkpt>
      <trkpt lat="44.07182" lon="6.95917">
        <ele>1497.50761</ele>
        <time>2010-10-10T08:22:23Z</time>
      </trkpt>
      <trkpt lat="44.07174" lon="6.95908">
        <ele>1499.636094</ele>
        <time>2010-10-10T08:22:26Z</time>
      </trkpt>
      <trkpt lat="44.07166" lon="6.95898">
        <ele>1501.466263</ele>
        <time>2010-10-10T08:22:29Z</time>
      </trkpt>
      <trkpt lat="44.07159" lon="6.95888">
        <ele>1502.492014</ele>
        <time>2010-10-10T08:22:32Z</time>
      </trkpt>
      <trkpt lat="44.07155" lon="6.95881">
        <ele>1502.880072</ele>
        <time>2010-10-10T08:22:35Z</time>
      </trkpt>
      <trkpt lat="44.07149" lon="6.95869">
        <ele>1503.017796</ele>
        <time>2010-10-10T08:22:38Z</time>
      </trkpt>
      <trkpt lat="44.07144" lon="6.9586">
        <ele>1503.543107</ele>
        <time>2010-10-10T08:22:41Z</time>
      </trkpt>
      <trkpt lat="44.07138" lon="6.95852">
        <ele>1504.825363</ele>
        <time>2010-10-10T08:22:44Z</time>
      </trkpt>
      <trkpt lat="44.07131" lon="6.95849">
        <ele>1506.566397</ele>
        <time>2010-10-10T08:22:47Z</time>
      </trkpt>
      <trkpt lat="44.07126" lon="6.95851">
        <ele>1508.180759</ele>
        <time>2010-10-10T08:22:51Z</time>
      </trkpt>
      <trkpt lat="44.07123" lon="6.95854">
        <ele>1509.707329</ele>
        <time>2010-10-10T08:22:54Z</time>
      </trkpt>
      <trkpt lat="44.07121" lon="6.95857">
        <ele>1511.577773</ele>
        <time>2010-10-10T08:22:57Z</time>
      </trkpt>
      <trkpt lat="44.07119" lon="6.9586">
        <ele>1513.752185</ele>
        <time>2010-10-10T08:23:01Z</time>
      </trkpt>
      <trkpt lat="44.07116" lon="6.95863">
        <ele>1515.780843</ele>
        <time>2010-10-10T08:23:04Z</time>
      </trkpt>
      <trkpt lat="44.07112" lon="6.95867">
        <ele>1517.357308</ele>
        <time>2010-10-10T08:23:06Z</time>
      </trkpt>
      <trkpt lat="44.07106" lon="6.95872">
        <ele>1518.497091</ele>
        <time>2010-10-10T08:23:09Z</time>
      </trkpt>
      <trkpt lat="44.07103" lon="6.95875">
        <ele>1519.437342</ele>
        <time>2010-10-10T08:23:12Z</time>
      </trkpt>
      <trkpt lat="44.07097" lon="6.95882">
        <ele>1520.351973</ele>
        <time>2010-10-10T08:23:15Z</time>
      </trkpt>
      <trkpt lat="44.07093" lon="6.95885">
        <ele>1521.304191</ele>
        <time>2010-10-10T08:23:18Z</time>
      </trkpt>
      <trkpt lat="44.07091" lon="6.95887">
        <ele>1522.153794</ele>
        <time>2010-10-10T08:23:20Z</time>
      </trkpt>
      <trkpt lat="44.07087" lon="6.9589">
        <ele>1522.935892</ele>
        <time>2010-10-10T08:23:24Z</time>
      </trkpt>
      <trkpt lat="44.07085" lon="6.959">
        <ele>1523.793908</ele>
        <time>2010-10-10T08:23:31Z</time>
      </trkpt>
      <trkpt lat="44.07083" lon="6.95903">
        <ele>1524.492626</ele>
        <time>2010-10-10T08:23:33Z</time>
      </trkpt>
      <trkpt lat="44.07081" lon="6.95907">
        <ele>1524.773575</ele>
        <time>2010-10-10T08:23:35Z</time>
      </trkpt>
      <trkpt lat="44.07077" lon="6.95912">
        <ele>1524.923939</ele>
        <time>2010-10-10T08:23:38Z</time>
      </trkpt>
      <trkpt lat="44.07075" lon="6.95916">
        <ele>1525.212943</ele>
        <time>2010-10-10T08:23:41Z</time>
      </trkpt>
      <trkpt lat="44.07071" lon="6.95921">
        <ele>1525.525601</ele>
        <time>2010-10-10T08:23:44Z</time>
      </trkpt>
      <trkpt lat="44.07068" lon="6.95926">
        <ele>1525.678373</ele>
        <time>2010-10-10T08:23:47Z</time>
      </trkpt>
      <trkpt lat="44.07064" lon="6.9593">
        <ele>1525.704178</ele>
        <time>2010-10-10T08:23:49Z</time>
      </trkpt>
      <trkpt lat="44.07061" lon="6.95933">
        <ele>1525.680059</ele>
        <time>2010-10-10T08:23:53Z</time>
      </trkpt>
      <trkpt lat="44.07058" lon="6.95937">
        <ele>1525.65457</ele>
        <time>2010-10-10T08:23:56Z</time>
      </trkpt>
      <trkpt lat="44.07053" lon="6.95942">
        <ele>1525.642275</ele>
        <time>2010-10-10T08:23:59Z</time>
      </trkpt>
      <trkpt lat="44.07047" lon="6.9595">
        <ele>1525.640293</ele>
        <time>2010-10-10T08:24:02Z</time>
      </trkpt>
      <trkpt lat="44.07044" lon="6.95956">
        <ele>1525.642305</ele>
        <time>2010-10-10T08:24:05Z</time>
      </trkpt>
      <trkpt lat="44.07039" lon="6.95962">
        <ele>1525.644383</ele>
        <time>2010-10-10T08:24:08Z</time>
      </trkpt>
      <trkpt lat="44.07034" lon="6.95966">
        <ele>1525.645375</ele>
        <time>2010-10-10T08:24:11Z</time>
      </trkpt>
      <trkpt lat="44.07029" lon="6.95974">
        <ele>1525.645531</ele>
        <time>2010-10-10T08:24:14Z</time>
      </trkpt>
      <trkpt lat="44.07024" lon="6.9598">
        <ele>1525.783547</ele>
        <time>2010-10-10T08:24:17Z</time>
      </trkpt>
      <trkpt lat="44.0702" lon="6.95984">
        <ele>1526.143274</ele>
        <time>2010-10-10T08:24:20Z</time>
      </trkpt>
      <trkpt lat="44.07011" lon="6.95989">
        <ele>1526.650812</ele>
        <time>2010-10-10T08:24:23Z</time>
      </trkpt>
      <trkpt lat="44.07009" lon="6.9599">
        <ele>1527.185959</ele>
        <time>2010-10-10T08:24:26Z</time>
      </trkpt>
      <trkpt lat="44.06998" lon="6.95997">
        <ele>1527.720121</ele>
        <time>2010-10-10T08:24:29Z</time>
      </trkpt>
      <trkpt lat="44.06993" lon="6.96002">
        <ele>1528.363483</ele>
        <time>2010-10-10T08:24:32Z</time>
      </trkpt>
      <trkpt lat="44.06989" lon="6.96006">
        <ele>1529.227416</ele>
        <time>2010-10-10T08:24:34Z</time>
      </trkpt>
      <trkpt lat="44.06983" lon="6.9601">
        <ele>1530.226097</ele>
        <time>2010-10-10T08:24:37Z</time>
      </trkpt>
      <trkpt lat="44.0698" lon="6.96013">
        <ele>1531.125082</ele>
        <time>2010-10-10T08:24:39Z</time>
      </trkpt>
      <trkpt lat="44.06978" lon="6.96015">
        <ele>1531.7929</ele>
        <time>2010-10-10T08:24:42Z</time>
      </trkpt>
      <trkpt lat="44.06966" lon="6.96022">
        <ele>1532.294922</ele>
        <time>2010-10-10T08:24:50Z</time>
      </trkpt>
      <trkpt lat="44.06953" lon="6.96028">
        <ele>1532.620327</ele>
        <time>2010-10-10T08:24:56Z</time>
      </trkpt>
      <trkpt lat="44.06948" lon="6.96031">
        <ele>1532.721985</ele>
        <time>2010-10-10T08:24:59Z</time>
      </trkpt>
      <trkpt lat="44.0694" lon="6.96035">
        <ele>1532.705713</ele>
        <time>2010-10-10T08:25:02Z</time>
      </trkpt>
      <trkpt lat="44.06935" lon="6.96036">
        <ele>1532.802689</ele>
        <time>2010-10-10T08:25:05Z</time>
      </trkpt>
      <trkpt lat="44.06926" lon="6.9604">
        <ele>1533.27441</ele>
        <time>2010-10-10T08:25:08Z</time>
      </trkpt>
      <trkpt lat="44.0692" lon="6.96043">
        <ele>1533.995659</ele>
        <time>2010-10-10T08:25:11Z</time>
      </trkpt>
      <trkpt lat="44.06916" lon="6.96044">
        <ele>1534.679965</ele>
        <time>2010-10-10T08:25:14Z</time>
      </trkpt>
      <trkpt lat="44.06898" lon="6.96049">
        <ele>1535.383202</ele>
        <time>2010-10-10T08:25:24Z</time>
      </trkpt>
      <trkpt lat="44.06885" lon="6.96055">
        <ele>1536.111199</ele>
        <time>2010-10-10T08:25:32Z</time>
      </trkpt>
      <trkpt lat="44.06879" lon="6.96059">
        <ele>1536.734614</ele>
        <time>2010-10-10T08:25:37Z</time>
      </trkpt>
      <trkpt lat="44.06876" lon="6.96061">
        <ele>1538.081029</ele>
        <time>2010-10-10T08:25:39Z</time>
      </trkpt>
      <trkpt lat="44.06873" lon="6.96062">
        <ele>1541.00449</ele>
        <time>2010-10-10T08:25:42Z</time>
      </trkpt>
      <trkpt lat="44.06847" lon="6.96073">
        <ele>1544.416235</ele>
        <time>2010-10-10T08:25:53Z</time>
      </trkpt>
      <trkpt lat="44.06836" lon="6.96079">
        <ele>1546.563325</ele>
        <time>2010-10-10T08:25:58Z</time>
      </trkpt>
      <trkpt lat="44.06833" lon="6.96081">
        <ele>1547.205783</ele>
        <time>2010-10-10T08:26:01Z</time>
      </trkpt>
      <trkpt lat="44.06822" lon="6.9609">
        <ele>1547.491666</ele>
        <time>2010-10-10T08:26:04Z</time>
      </trkpt>
      <trkpt lat="44.06818" lon="6.96093">
        <ele>1548.291544</ele>
        <time>2010-10-10T08:26:06Z</time>
      </trkpt>
      <trkpt lat="44.06793" lon="6.96107">
        <ele>1549.36428</ele>
        <time>2010-10-10T08:26:14Z</time>
      </trkpt>
      <trkpt lat="44.06788" lon="6.9611">
        <ele>1550.475379</ele>
        <time>2010-10-10T08:26:17Z</time>
      </trkpt>
      <trkpt lat="44.06781" lon="6.96113">
        <ele>1551.793571</ele>
        <time>2010-10-10T08:26:20Z</time>
      </trkpt>
      <trkpt lat="44.06774" lon="6.96116">
        <ele>1553.415105</ele>
        <time>2010-10-10T08:26:23Z</time>
      </trkpt>
      <trkpt lat="44.06769" lon="6.96121">
        <ele>1555.303178</ele>
        <time>2010-10-10T08:26:26Z</time>
      </trkpt>
      <trkpt lat="44.06766" lon="6.96127">
        <ele>1557.207807</ele>
        <time>2010-10-10T08:26:29Z</time>
      </trkpt>
      <trkpt lat="44.06763" lon="6.96132">
        <ele>1558.75222</ele>
        <time>2010-10-10T08:26:32Z</time>
      </trkpt>
      <trkpt lat="44.06763" lon="6.96132">
        <ele>1559.647251</ele>
        <time>2010-10-10T08:26:44Z</time>
      </trkpt>
      <trkpt lat="44.0674" lon="6.96161">
        <ele>1559.880248</ele>
        <time>2010-10-10T08:26:52Z</time>
      </trkpt>
      <trkpt lat="44.06738" lon="6.96165">
        <ele>1559.800439</ele>
        <time>2010-10-10T08:26:54Z</time>
      </trkpt>
      <trkpt lat="44.06733" lon="6.96171">
        <ele>1559.535866</ele>
        <time>2010-10-10T08:26:58Z</time>
      </trkpt>
      <trkpt lat="44.06731" lon="6.96174">
        <ele>1559.103679</ele>
        <time>2010-10-10T08:27:00Z</time>
      </trkpt>
      <trkpt lat="44.06728" lon="6.9618">
        <ele>1558.715898</ele>
        <time>2010-10-10T08:27:03Z</time>
      </trkpt>
      <trkpt lat="44.06725" lon="6.96184">
        <ele>1558.54744</ele>
        <time>2010-10-10T08:27:06Z</time>
      </trkpt>
      <trkpt lat="44.06722" lon="6.96189">
        <ele>1558.531253</ele>
        <time>2010-10-10T08:27:09Z</time>
      </trkpt>
      <trkpt lat="44.06719" lon="6.96194">
        <ele>1558.567079</ele>
        <time>2010-10-10T08:27:12Z</time>
      </trkpt>
      <trkpt lat="44.06716" lon="6.96198">
        <ele>1558.598634</ele>
        <time>2010-10-10T08:27:15Z</time>
      </trkpt>
      <trkpt lat="44.06713" lon="6.96201">
        <ele>1558.612157</ele>
        <time>2010-10-10T08:27:18Z</time>
      </trkpt>
      <trkpt lat="44.06708" lon="6.96206">
        <ele>1558.613338</ele>
        <time>2010-10-10T08:27:21Z</time>
      </trkpt>
      <trkpt lat="44.06706" lon="6.96209">
        <ele>1558.748553</ele>
        <time>2010-10-10T08:27:24Z</time>
      </trkpt>
      <trkpt lat="44.06703" lon="6.96213">
        <ele>1559.105882</ele>
        <time>2010-10-10T08:27:27Z</time>
      </trkpt>
      <trkpt lat="44.06699" lon="6.96218">
        <ele>1559.75059</ele>
        <time>2010-10-10T08:27:30Z</time>
      </trkpt>
      <trkpt lat="44.06694" lon="6.96229">
        <ele>1560.783732</ele>
        <time>2010-10-10T08:27:33Z</time>
      </trkpt>
      <trkpt lat="44.06691" lon="6.96234">
        <ele>1562.04745</ele>
        <time>2010-10-10T08:27:35Z</time>
      </trkpt>
      <trkpt lat="44.06686" lon="6.9624">
        <ele>1563.097525</ele>
        <time>2010-10-10T08:27:38Z</time>
      </trkpt>
      <trkpt lat="44.0668" lon="6.96246">
        <ele>1563.665265</ele>
        <time>2010-10-10T08:27:41Z</time>
      </trkpt>
      <trkpt lat="44.06675" lon="6.96251">
        <ele>1563.93118</ele>
        <time>2010-10-10T08:27:43Z</time>
      </trkpt>
      <trkpt lat="44.0667" lon="6.96255">
        <ele>1564.225369</ele>
        <time>2010-10-10T08:27:45Z</time>
      </trkpt>
      <trkpt lat="44.06663" lon="6.9626">
        <ele>1564.647181</ele>
        <time>2010-10-10T08:27:48Z</time>
      </trkpt>
      <trkpt lat="44.06655" lon="6.96268">
        <ele>1565.136537</ele>
        <time>2010-10-10T08:27:55Z</time>
      </trkpt>
      <trkpt lat="44.0665" lon="6.9627">
        <ele>1565.66069</ele>
        <time>2010-10-10T08:27:57Z</time>
      </trkpt>
      <trkpt lat="44.0664" lon="6.96275">
        <ele>1566.309573</ele>
        <time>2010-10-10T08:28:03Z</time>
      </trkpt>
      <trkpt lat="44.06636" lon="6.96278">
        <ele>1567.042333</ele>
        <time>2010-10-10T08:28:07Z</time>
      </trkpt>
      <trkpt lat="44.0663" lon="6.96281">
        <ele>1567.546641</ele>
        <time>2010-10-10T08:28:09Z</time>
      </trkpt>
      <trkpt lat="44.06625" lon="6.96284">
        <ele>1567.85526</ele>
        <time>2010-10-10T08:28:11Z</time>
      </trkpt>
      <trkpt lat="44.06617" lon="6.96289">
        <ele>1568.199628</ele>
        <time>2010-10-10T08:28:14Z</time>
      </trkpt>
      <trkpt lat="44.06613" lon="6.96291">
        <ele>1568.647002</ele>
        <time>2010-10-10T08:28:17Z</time>
      </trkpt>
      <trkpt lat="44.06596" lon="6.96299">
        <ele>1569.141279</ele>
        <time>2010-10-10T08:28:21Z</time>
      </trkpt>
      <trkpt lat="44.0659" lon="6.96303">
        <ele>1569.52367</ele>
        <time>2010-10-10T08:28:24Z</time>
      </trkpt>
      <trkpt lat="44.06582" lon="6.96309">
        <ele>1569.808563</ele>
        <time>2010-10-10T08:28:29Z</time>
      </trkpt>
      <trkpt lat="44.06577" lon="6.96314">
        <ele>1570.308004</ele>
        <time>2010-10-10T08:28:32Z</time>
      </trkpt>
      <trkpt lat="44.06574" lon="6.96318">
        <ele>1570.996554</ele>
        <time>2010-10-10T08:28:35Z</time>
      </trkpt>
      <trkpt lat="44.0657" lon="6.96323">
        <ele>1571.648373</ele>
        <time>2010-10-10T08:28:38Z</time>
      </trkpt>
      <trkpt lat="44.06565" lon="6.96329">
        <ele>1572.336501</ele>
        <time>2010-10-10T08:28:41Z</time>
      </trkpt>
      <trkpt lat="44.0656" lon="6.96334">
        <ele>1573.062398</ele>
        <time>2010-10-10T08:28:44Z</time>
      </trkpt>
      <trkpt lat="44.06557" lon="6.96338">
        <ele>1573.688543</ele>
        <time>2010-10-10T08:28:46Z</time>
      </trkpt>
      <trkpt lat="44.06549" lon="6.96345">
        <ele>1574.346725</ele>
        <time>2010-10-10T08:28:51Z</time>
      </trkpt>
      <trkpt lat="44.06544" lon="6.96349">
        <ele>1575.05742</ele>
        <time>2010-10-10T08:28:54Z</time>
      </trkpt>
      <trkpt lat="44.06538" lon="6.96353">
        <ele>1575.542486</ele>
        <time>2010-10-10T08:28:57Z</time>
      </trkpt>
      <trkpt lat="44.06534" lon="6.96355">
        <ele>1575.704746</ele>
        <time>2010-10-10T08:28:59Z</time>
      </trkpt>
      <trkpt lat="44.06527" lon="6.96358">
        <ele>1575.688554</ele>
        <time>2010-10-10T08:29:02Z</time>
      </trkpt>
      <trkpt lat="44.06517" lon="6.96361">
        <ele>1575.49197</ele>
        <time>2010-10-10T08:29:07Z</time>
      </trkpt>
      <trkpt lat="44.06514" lon="6.96361">
        <ele>1575.092773</ele>
        <time>2010-10-10T08:29:09Z</time>
      </trkpt>
      <trkpt lat="44.06509" lon="6.96361">
        <ele>1574.710424</ele>
        <time>2010-10-10T08:29:12Z</time>
      </trkpt>
      <trkpt lat="44.06505" lon="6.9636">
        <ele>1574.536649</ele>
        <time>2010-10-10T08:29:15Z</time>
      </trkpt>
      <trkpt lat="44.06496" lon="6.96358">
        <ele>1574.514918</ele>
        <time>2010-10-10T08:29:19Z</time>
      </trkpt>
      <trkpt lat="44.0649" lon="6.96357">
        <ele>1574.686263</ele>
        <time>2010-10-10T08:29:22Z</time>
      </trkpt>
      <trkpt lat="44.06487" lon="6.96355">
        <ele>1575.215457</ele>
        <time>2010-10-10T08:29:24Z</time>
      </trkpt>
      <trkpt lat="44.06475" lon="6.96354">
        <ele>1576.373264</ele>
        <time>2010-10-10T08:29:30Z</time>
      </trkpt>
      <trkpt lat="44.06468" lon="6.96354">
        <ele>1578.137425</ele>
        <time>2010-10-10T08:29:33Z</time>
      </trkpt>
      <trkpt lat="44.06458" lon="6.96356">
        <ele>1579.942823</ele>
        <time>2010-10-10T08:29:36Z</time>
      </trkpt>
      <trkpt lat="44.06449" lon="6.96359">
        <ele>1581.744644</ele>
        <time>2010-10-10T08:29:38Z</time>
      </trkpt>
      <trkpt lat="44.06438" lon="6.96362">
        <ele>1583.885449</ele>
        <time>2010-10-10T08:29:40Z</time>
      </trkpt>
      <trkpt lat="44.06427" lon="6.96367">
        <ele>1586.066931</ele>
        <time>2010-10-10T08:29:42Z</time>
      </trkpt>
      <trkpt lat="44.06405" lon="6.96377">
        <ele>1587.885692</ele>
        <time>2010-10-10T08:29:45Z</time>
      </trkpt>
      <trkpt lat="44.06384" lon="6.96381">
        <ele>1589.302303</ele>
        <time>2010-10-10T08:29:48Z</time>
      </trkpt>
      <trkpt lat="44.06371" lon="6.96379">
        <ele>1590.381679</ele>
        <time>2010-10-10T08:29:50Z</time>
      </trkpt>
      <trkpt lat="44.06356" lon="6.96367">
        <ele>1591.322047</ele>
        <time>2010-10-10T08:29:53Z</time>
      </trkpt>
      <trkpt lat="44.06344" lon="6.9635">
        <ele>1592.253958</ele>
        <time>2010-10-10T08:29:56Z</time>
      </trkpt>
      <trkpt lat="44.06334" lon="6.96326">
        <ele>1593.080937</ele>
        <time>2010-10-10T08:29:59Z</time>
      </trkpt>
      <trkpt lat="44.06329" lon="6.96304">
        <ele>1593.575455</ele>
        <time>2010-10-10T08:30:01Z</time>
      </trkpt>
      <trkpt lat="44.06321" lon="6.96285">
        <ele>1593.849841</ele>
        <time>2010-10-10T08:30:03Z</time>
      </trkpt>
      <trkpt lat="44.06308" lon="6.96272">
        <ele>1594.171189</ele>
        <time>2010-10-10T08:30:05Z</time>
      </trkpt>
      <trkpt lat="44.06286" lon="6.96256">
        <ele>1594.472792</ele>
        <time>2010-10-10T08:30:08Z</time>
      </trkpt>
      <trkpt lat="44.06256" lon="6.96247">
        <ele>1594.608052</ele>
        <time>2010-10-10T08:30:11Z</time>
      </trkpt>
      <trkpt lat="44.06241" lon="6.96244">
        <ele>1594.762003</ele>
        <time>2010-10-10T08:30:13Z</time>
      </trkpt>
      <trkpt lat="44.06223" lon="6.96227">
        <ele>1595.095153</ele>
        <time>2010-10-10T08:30:16Z</time>
      </trkpt>
      <trkpt lat="44.06211" lon="6.96214">
        <ele>1595.439938</ele>
        <time>2010-10-10T08:30:18Z</time>
      </trkpt>
      <trkpt lat="44.06199" lon="6.96203">
        <ele>1595.742456</ele>
        <time>2010-10-10T08:30:20Z</time>
      </trkpt>
      <trkpt lat="44.06182" lon="6.96188">
        <ele>1596.542206</ele>
        <time>2010-10-10T08:30:23Z</time>
      </trkpt>
      <trkpt lat="44.06174" lon="6.96175">
        <ele>1598.101688</ele>
        <time>2010-10-10T08:30:25Z</time>
      </trkpt>
      <trkpt lat="44.06169" lon="6.96151">
        <ele>1599.855175</ele>
        <time>2010-10-10T08:30:28Z</time>
      </trkpt>
      <trkpt lat="44.06166" lon="6.96133">
        <ele>1601.399903</ele>
        <time>2010-10-10T08:30:30Z</time>
      </trkpt>
      <trkpt lat="44.06158" lon="6.9612">
        <ele>1602.712011</ele>
        <time>2010-10-10T08:30:32Z</time>
      </trkpt>
      <trkpt lat="44.06148" lon="6.96113">
        <ele>1603.534891</ele>
        <time>2010-10-10T08:30:34Z</time>
      </trkpt>
      <trkpt lat="44.06134" lon="6.96099">
        <ele>1603.779821</ele>
        <time>2010-10-10T08:30:37Z</time>
      </trkpt>
      <trkpt lat="44.06123" lon="6.9608">
        <ele>1603.729519</ele>
        <time>2010-10-10T08:30:40Z</time>
      </trkpt>
      <trkpt lat="44.06118" lon="6.96067">
        <ele>1603.62186</ele>
        <time>2010-10-10T08:30:42Z</time>
      </trkpt>
      <trkpt lat="44.06112" lon="6.96047">
        <ele>1603.417023</ele>
        <time>2010-10-10T08:30:45Z</time>
      </trkpt>
      <trkpt lat="44.06106" lon="6.96022">
        <ele>1602.761298</ele>
        <time>2010-10-10T08:30:48Z</time>
      </trkpt>
      <trkpt lat="44.06098" lon="6.95992">
        <ele>1601.538223</ele>
        <time>2010-10-10T08:30:51Z</time>
      </trkpt>
      <trkpt lat="44.0609" lon="6.95972">
        <ele>1600.134799</ele>
        <time>2010-10-10T08:30:53Z</time>
      </trkpt>
      <trkpt lat="44.06076" lon="6.95951">
        <ele>1598.895584</ele>
        <time>2010-10-10T08:30:56Z</time>
      </trkpt>
      <trkpt lat="44.06067" lon="6.95946">
        <ele>1597.693051</ele>
        <time>2010-10-10T08:30:58Z</time>
      </trkpt>
      <trkpt lat="44.06058" lon="6.95945">
        <ele>1596.353504</ele>
        <time>2010-10-10T08:31:00Z</time>
      </trkpt>
      <trkpt lat="44.06048" lon="6.95935">
        <ele>1595.156461</ele>
        <time>2010-10-10T08:31:03Z</time>
      </trkpt>
      <trkpt lat="44.06055" lon="6.95938">
        <ele>1594.499783</ele>
        <time>2010-10-10T08:31:06Z</time>
      </trkpt>
      <trkpt lat="44.06059" lon="6.95946">
        <ele>1594.208859</ele>
        <time>2010-10-10T08:31:09Z</time>
      </trkpt>
      <trkpt lat="44.06062" lon="6.95958">
        <ele>1593.230318</ele>
        <time>2010-10-10T08:31:12Z</time>
      </trkpt>
      <trkpt lat="44.06064" lon="6.95971">
        <ele>1590.053831</ele>
        <time>2010-10-10T08:31:15Z</time>
      </trkpt>
      <trkpt lat="44.06068" lon="6.95983">
        <ele>1584.237993</ele>
        <time>2010-10-10T08:31:18Z</time>
      </trkpt>
      <trkpt lat="44.06071" lon="6.95994">
        <ele>1577.319696</ele>
        <time>2010-10-10T08:31:21Z</time>
      </trkpt>
      <trkpt lat="44.06071" lon="6.95994">
        <ele>1571.78325</ele>
        <time>2010-10-10T08:31:22Z</time>
      </trkpt>
      <trkpt lat="44.06063" lon="6.96043">
        <ele>1568.762148</ele>
        <time>2010-10-10T08:31:44Z</time>
      </trkpt>
      <trkpt lat="44.06063" lon="6.96043">
        <ele>1567.467574</ele>
        <time>2010-10-10T08:31:47Z</time>
      </trkpt>
      <trkpt lat="44.06064" lon="6.96093">
        <ele>1566.914948</ele>
        <time>2010-10-10T08:32:07Z</time>
      </trkpt>
      <trkpt lat="44.06067" lon="6.96106">
        <ele>1566.779948</ele>
        <time>2010-10-10T08:32:12Z</time>
      </trkpt>
      <trkpt lat="44.0607" lon="6.96114">
        <ele>1568.018353</ele>
        <time>2010-10-10T08:32:15Z</time>
      </trkpt>
      <trkpt lat="44.06072" lon="6.96123">
        <ele>1571.189967</ele>
        <time>2010-10-10T08:32:18Z</time>
      </trkpt>
      <trkpt lat="44.06074" lon="6.96131">
        <ele>1574.701805</ele>
        <time>2010-10-10T08:32:21Z</time>
      </trkpt>
      <trkpt lat="44.06076" lon="6.9614">
        <ele>1577.238556</ele>
        <time>2010-10-10T08:32:24Z</time>
      </trkpt>
      <trkpt lat="44.06076" lon="6.96149">
        <ele>1579.210203</ele>
        <time>2010-10-10T08:32:27Z</time>
      </trkpt>
      <trkpt lat="44.06074" lon="6.96163">
        <ele>1580.896556</ele>
        <time>2010-10-10T08:32:31Z</time>
      </trkpt>
      <trkpt lat="44.06063" lon="6.962">
        <ele>1582.135221</ele>
        <time>2010-10-10T08:32:41Z</time>
      </trkpt>
      <trkpt lat="44.06051" lon="6.96221">
        <ele>1582.724356</ele>
        <time>2010-10-10T08:32:48Z</time>
      </trkpt>
      <trkpt lat="44.06048" lon="6.96229">
        <ele>1582.814441</ele>
        <time>2010-10-10T08:32:51Z</time>
      </trkpt>
      <trkpt lat="44.06046" lon="6.96234">
        <ele>1582.16163</ele>
        <time>2010-10-10T08:32:53Z</time>
      </trkpt>
      <trkpt lat="44.06044" lon="6.96239">
        <ele>1580.621153</ele>
        <time>2010-10-10T08:32:56Z</time>
      </trkpt>
      <trkpt lat="44.06043" lon="6.96243">
        <ele>1579.096072</ele>
        <time>2010-10-10T08:32:59Z</time>
      </trkpt>
      <trkpt lat="44.06043" lon="6.96247">
        <ele>1578.388179</ele>
        <time>2010-10-10T08:33:02Z</time>
      </trkpt>
      <trkpt lat="44.06045" lon="6.96251">
        <ele>1578.290403</ele>
        <time>2010-10-10T08:33:05Z</time>
      </trkpt>
      <trkpt lat="44.06051" lon="6.96262">
        <ele>1578.418587</ele>
        <time>2010-10-10T08:33:13Z</time>
      </trkpt>
      <trkpt lat="44.06051" lon="6.96262">
        <ele>1578.542844</ele>
        <time>2010-10-10T08:33:24Z</time>
      </trkpt>
      <trkpt lat="44.06065" lon="6.96304">
        <ele>1578.876116</ele>
        <time>2010-10-10T08:33:34Z</time>
      </trkpt>
      <trkpt lat="44.06067" lon="6.96313">
        <ele>1579.741477</ele>
        <time>2010-10-10T08:33:37Z</time>
      </trkpt>
      <trkpt lat="44.0607" lon="6.96321">
        <ele>1581.10595</ele>
        <time>2010-10-10T08:33:40Z</time>
      </trkpt>
      <trkpt lat="44.06072" lon="6.9633">
        <ele>1583.779204</ele>
        <time>2010-10-10T08:33:43Z</time>
      </trkpt>
      <trkpt lat="44.06072" lon="6.9634">
        <ele>1588.119083</ele>
        <time>2010-10-10T08:33:46Z</time>
      </trkpt>
      <trkpt lat="44.06071" lon="6.96347">
        <ele>1592.120475</ele>
        <time>2010-10-10T08:33:48Z</time>
      </trkpt>
      <trkpt lat="44.06069" lon="6.96358">
        <ele>1594.03106</ele>
        <time>2010-10-10T08:33:51Z</time>
      </trkpt>
      <trkpt lat="44.06066" lon="6.96366">
        <ele>1594.327679</ele>
        <time>2010-10-10T08:33:54Z</time>
      </trkpt>
      <trkpt lat="44.06064" lon="6.96371">
        <ele>1594.006357</ele>
        <time>2010-10-10T08:33:56Z</time>
      </trkpt>
      <trkpt lat="44.06059" lon="6.96384">
        <ele>1593.542044</ele>
        <time>2010-10-10T08:34:01Z</time>
      </trkpt>
      <trkpt lat="44.06056" lon="6.96389">
        <ele>1592.89029</ele>
        <time>2010-10-10T08:34:03Z</time>
      </trkpt>
      <trkpt lat="44.06051" lon="6.96397">
        <ele>1592.138325</ele>
        <time>2010-10-10T08:34:06Z</time>
      </trkpt>
      <trkpt lat="44.06042" lon="6.96412">
        <ele>1591.482221</ele>
        <time>2010-10-10T08:34:12Z</time>
      </trkpt>
      <trkpt lat="44.0604" lon="6.96416">
        <ele>1590.808945</ele>
        <time>2010-10-10T08:34:14Z</time>
      </trkpt>
      <trkpt lat="44.06037" lon="6.96421">
        <ele>1589.81909</ele>
        <time>2010-10-10T08:34:16Z</time>
      </trkpt>
      <trkpt lat="44.06035" lon="6.96424">
        <ele>1588.201903</ele>
        <time>2010-10-10T08:34:18Z</time>
      </trkpt>
      <trkpt lat="44.06033" lon="6.96428">
        <ele>1586.085378</ele>
        <time>2010-10-10T08:34:21Z</time>
      </trkpt>
      <trkpt lat="44.06028" lon="6.96437">
        <ele>1584.284079</ele>
        <time>2010-10-10T08:34:26Z</time>
      </trkpt>
      <trkpt lat="44.06026" lon="6.96441">
        <ele>1583.394431</ele>
        <time>2010-10-10T08:34:29Z</time>
      </trkpt>
      <trkpt lat="44.06022" lon="6.96444">
        <ele>1583.238674</ele>
        <time>2010-10-10T08:34:32Z</time>
      </trkpt>
      <trkpt lat="44.06016" lon="6.96447">
        <ele>1583.375032</ele>
        <time>2010-10-10T08:34:35Z</time>
      </trkpt>
      <trkpt lat="44.06009" lon="6.96448">
        <ele>1583.521948</ele>
        <time>2010-10-10T08:34:38Z</time>
      </trkpt>
      <trkpt lat="44.06002" lon="6.96447">
        <ele>1583.731755</ele>
        <time>2010-10-10T08:34:41Z</time>
      </trkpt>
      <trkpt lat="44.05996" lon="6.96446">
        <ele>1584.241831</ele>
        <time>2010-10-10T08:34:44Z</time>
      </trkpt>
      <trkpt lat="44.05991" lon="6.96445">
        <ele>1585.236133</ele>
        <time>2010-10-10T08:34:47Z</time>
      </trkpt>
      <trkpt lat="44.05987" lon="6.96445">
        <ele>1586.764987</ele>
        <time>2010-10-10T08:34:50Z</time>
      </trkpt>
      <trkpt lat="44.0598" lon="6.96441">
        <ele>1588.557837</ele>
        <time>2010-10-10T08:34:56Z</time>
      </trkpt>
      <trkpt lat="44.05976" lon="6.96438">
        <ele>1590.002733</ele>
        <time>2010-10-10T08:34:59Z</time>
      </trkpt>
      <trkpt lat="44.05972" lon="6.96436">
        <ele>1590.854774</ele>
        <time>2010-10-10T08:35:02Z</time>
      </trkpt>
      <trkpt lat="44.05969" lon="6.96434">
        <ele>1591.754312</ele>
        <time>2010-10-10T08:35:06Z</time>
      </trkpt>
      <trkpt lat="44.05965" lon="6.96433">
        <ele>1593.370455</ele>
        <time>2010-10-10T08:35:09Z</time>
      </trkpt>
      <trkpt lat="44.05961" lon="6.96433">
        <ele>1595.394121</ele>
        <time>2010-10-10T08:35:12Z</time>
      </trkpt>
      <trkpt lat="44.05954" lon="6.96433">
        <ele>1597.264068</ele>
        <time>2010-10-10T08:35:17Z</time>
      </trkpt>
      <trkpt lat="44.05949" lon="6.96433">
        <ele>1599.02012</ele>
        <time>2010-10-10T08:35:20Z</time>
      </trkpt>
      <trkpt lat="44.05944" lon="6.96434">
        <ele>1600.734325</ele>
        <time>2010-10-10T08:35:23Z</time>
      </trkpt>
      <trkpt lat="44.05937" lon="6.96437">
        <ele>1602.74624</ele>
        <time>2010-10-10T08:35:26Z</time>
      </trkpt>
      <trkpt lat="44.0593" lon="6.96441">
        <ele>1605.46518</ele>
        <time>2010-10-10T08:35:29Z</time>
      </trkpt>
      <trkpt lat="44.05922" lon="6.96445">
        <ele>1608.415708</ele>
        <time>2010-10-10T08:35:32Z</time>
      </trkpt>
      <trkpt lat="44.05914" lon="6.96449">
        <ele>1610.786222</ele>
        <time>2010-10-10T08:35:35Z</time>
      </trkpt>
      <trkpt lat="44.05908" lon="6.96453">
        <ele>1612.260436</ele>
        <time>2010-10-10T08:35:39Z</time>
      </trkpt>
      <trkpt lat="44.05896" lon="6.96467">
        <ele>1612.831758</ele>
        <time>2010-10-10T08:35:50Z</time>
      </trkpt>
      <trkpt lat="44.05889" lon="6.96476">
        <ele>1612.841335</ele>
        <time>2010-10-10T08:35:53Z</time>
      </trkpt>
      <trkpt lat="44.05885" lon="6.9648">
        <ele>1612.685755</ele>
        <time>2010-10-10T08:35:57Z</time>
      </trkpt>
      <trkpt lat="44.05882" lon="6.96491">
        <ele>1612.566035</ele>
        <time>2010-10-10T08:36:02Z</time>
      </trkpt>
      <trkpt lat="44.05879" lon="6.96501">
        <ele>1612.520337</ele>
        <time>2010-10-10T08:36:07Z</time>
      </trkpt>
      <trkpt lat="44.05878" lon="6.96506">
        <ele>1612.520086</ele>
        <time>2010-10-10T08:36:09Z</time>
      </trkpt>
      <trkpt lat="44.05875" lon="6.96513">
        <ele>1612.532921</ele>
        <time>2010-10-10T08:36:12Z</time>
      </trkpt>
      <trkpt lat="44.05872" lon="6.96519">
        <ele>1612.680834</ele>
        <time>2010-10-10T08:36:14Z</time>
      </trkpt>
      <trkpt lat="44.05871" lon="6.96522">
        <ele>1613.044399</ele>
        <time>2010-10-10T08:36:17Z</time>
      </trkpt>
      <trkpt lat="44.05862" lon="6.96533">
        <ele>1613.413828</ele>
        <time>2010-10-10T08:36:21Z</time>
      </trkpt>
      <trkpt lat="44.05854" lon="6.96539">
        <ele>1613.588041</ele>
        <time>2010-10-10T08:36:24Z</time>
      </trkpt>
      <trkpt lat="44.05843" lon="6.96549">
        <ele>1613.613785</ele>
        <time>2010-10-10T08:36:29Z</time>
      </trkpt>
      <trkpt lat="44.05835" lon="6.96556">
        <ele>1613.583506</ele>
        <time>2010-10-10T08:36:32Z</time>
      </trkpt>
      <trkpt lat="44.0583" lon="6.96561">
        <ele>1613.27705</ele>
        <time>2010-10-10T08:36:35Z</time>
      </trkpt>
      <trkpt lat="44.05826" lon="6.96566">
        <ele>1612.405087</ele>
        <time>2010-10-10T08:36:37Z</time>
      </trkpt>
      <trkpt lat="44.05824" lon="6.96576">
        <ele>1611.304376</ele>
        <time>2010-10-10T08:36:39Z</time>
      </trkpt>
      <trkpt lat="44.05821" lon="6.96584">
        <ele>1610.44877</ele>
        <time>2010-10-10T08:36:42Z</time>
      </trkpt>
      <trkpt lat="44.05822" lon="6.96593">
        <ele>1609.863022</ele>
        <time>2010-10-10T08:36:46Z</time>
      </trkpt>
      <trkpt lat="44.05822" lon="6.96601">
        <ele>1609.528169</ele>
        <time>2010-10-10T08:36:49Z</time>
      </trkpt>
      <trkpt lat="44.05822" lon="6.96607">
        <ele>1609.443263</ele>
        <time>2010-10-10T08:36:51Z</time>
      </trkpt>
      <trkpt lat="44.0582" lon="6.96616">
        <ele>1609.613005</ele>
        <time>2010-10-10T08:36:54Z</time>
      </trkpt>
      <trkpt lat="44.05819" lon="6.96622">
        <ele>1610.159009</ele>
        <time>2010-10-10T08:36:57Z</time>
      </trkpt>
      <trkpt lat="44.05815" lon="6.96634">
        <ele>1611.053573</ele>
        <time>2010-10-10T08:37:00Z</time>
      </trkpt>
      <trkpt lat="44.05812" lon="6.96643">
        <ele>1612.103036</ele>
        <time>2010-10-10T08:37:03Z</time>
      </trkpt>
      <trkpt lat="44.0581" lon="6.96652">
        <ele>1613.031487</ele>
        <time>2010-10-10T08:37:06Z</time>
      </trkpt>
      <trkpt lat="44.05806" lon="6.96661">
        <ele>1613.706999</ele>
        <time>2010-10-10T08:37:09Z</time>
      </trkpt>
      <trkpt lat="44.05801" lon="6.96671">
        <ele>1614.206421</ele>
        <time>2010-10-10T08:37:12Z</time>
      </trkpt>
      <trkpt lat="44.05795" lon="6.96681">
        <ele>1614.665864</ele>
        <time>2010-10-10T08:37:15Z</time>
      </trkpt>
      <trkpt lat="44.05787" lon="6.96689">
        <ele>1615.125046</ele>
        <time>2010-10-10T08:37:18Z</time>
      </trkpt>
      <trkpt lat="44.05782" lon="6.96694">
        <ele>1615.47762</ele>
        <time>2010-10-10T08:37:20Z</time>
      </trkpt>
      <trkpt lat="44.05773" lon="6.967">
        <ele>1615.611921</ele>
        <time>2010-10-10T08:37:23Z</time>
      </trkpt>
      <trkpt lat="44.05767" lon="6.96704">
        <ele>1615.750629</ele>
        <time>2010-10-10T08:37:25Z</time>
      </trkpt>
      <trkpt lat="44.0576" lon="6.96708">
        <ele>1616.07265</ele>
        <time>2010-10-10T08:37:27Z</time>
      </trkpt>
      <trkpt lat="44.05749" lon="6.96713">
        <ele>1616.413454</ele>
        <time>2010-10-10T08:37:30Z</time>
      </trkpt>
      <trkpt lat="44.05739" lon="6.96718">
        <ele>1616.57798</ele>
        <time>2010-10-10T08:37:33Z</time>
      </trkpt>
      <trkpt lat="44.05728" lon="6.9672">
        <ele>1616.604598</ele>
        <time>2010-10-10T08:37:36Z</time>
      </trkpt>
      <trkpt lat="44.05721" lon="6.96721">
        <ele>1616.577739</ele>
        <time>2010-10-10T08:37:38Z</time>
      </trkpt>
      <trkpt lat="44.05711" lon="6.96721">
        <ele>1616.688133</ele>
        <time>2010-10-10T08:37:41Z</time>
      </trkpt>
      <trkpt lat="44.05705" lon="6.9672">
        <ele>1617.172958</ele>
        <time>2010-10-10T08:37:43Z</time>
      </trkpt>
      <trkpt lat="44.05697" lon="6.96718">
        <ele>1618.038413</ele>
        <time>2010-10-10T08:37:46Z</time>
      </trkpt>
      <trkpt lat="44.0569" lon="6.96716">
        <ele>1619.083405</ele>
        <time>2010-10-10T08:37:49Z</time>
      </trkpt>
      <trkpt lat="44.05683" lon="6.96713">
        <ele>1620.154952</ele>
        <time>2010-10-10T08:37:52Z</time>
      </trkpt>
      <trkpt lat="44.05677" lon="6.9671">
        <ele>1621.333493</ele>
        <time>2010-10-10T08:37:55Z</time>
      </trkpt>
      <trkpt lat="44.05672" lon="6.96708">
        <ele>1622.702731</ele>
        <time>2010-10-10T08:37:57Z</time>
      </trkpt>
      <trkpt lat="44.05668" lon="6.96707">
        <ele>1624.067072</ele>
        <time>2010-10-10T08:37:59Z</time>
      </trkpt>
      <trkpt lat="44.05661" lon="6.96706">
        <ele>1625.235218</ele>
        <time>2010-10-10T08:38:02Z</time>
      </trkpt>
      <trkpt lat="44.05657" lon="6.96705">
        <ele>1626.257227</ele>
        <time>2010-10-10T08:38:04Z</time>
      </trkpt>
      <trkpt lat="44.05651" lon="6.96704">
        <ele>1627.087071</ele>
        <time>2010-10-10T08:38:07Z</time>
      </trkpt>
      <trkpt lat="44.05647" lon="6.96704">
        <ele>1627.834423</ele>
        <time>2010-10-10T08:38:09Z</time>
      </trkpt>
      <trkpt lat="44.0564" lon="6.96704">
        <ele>1628.810108</ele>
        <time>2010-10-10T08:38:12Z</time>
      </trkpt>
      <trkpt lat="44.05636" lon="6.96705">
        <ele>1629.863184</ele>
        <time>2010-10-10T08:38:14Z</time>
      </trkpt>
      <trkpt lat="44.0563" lon="6.96705">
        <ele>1630.51524</ele>
        <time>2010-10-10T08:38:17Z</time>
      </trkpt>
      <trkpt lat="44.05624" lon="6.96705">
        <ele>1630.705519</ele>
        <time>2010-10-10T08:38:20Z</time>
      </trkpt>
      <trkpt lat="44.05619" lon="6.96706">
        <ele>1630.662814</ele>
        <time>2010-10-10T08:38:23Z</time>
      </trkpt>
      <trkpt lat="44.05616" lon="6.96707">
        <ele>1630.576479</ele>
        <time>2010-10-10T08:38:25Z</time>
      </trkpt>
      <trkpt lat="44.05612" lon="6.96707">
        <ele>1630.523722</ele>
        <time>2010-10-10T08:38:28Z</time>
      </trkpt>
      <trkpt lat="44.05608" lon="6.96707">
        <ele>1630.508649</ele>
        <time>2010-10-10T08:38:30Z</time>
      </trkpt>
      <trkpt lat="44.05602" lon="6.96708">
        <ele>1630.650524</ele>
        <time>2010-10-10T08:38:33Z</time>
      </trkpt>
      <trkpt lat="44.05595" lon="6.96707">
        <ele>1631.155666</ele>
        <time>2010-10-10T08:38:36Z</time>
      </trkpt>
      <trkpt lat="44.0559" lon="6.96705">
        <ele>1631.889253</ele>
        <time>2010-10-10T08:38:38Z</time>
      </trkpt>
      <trkpt lat="44.05584" lon="6.96703">
        <ele>1632.573314</ele>
        <time>2010-10-10T08:38:41Z</time>
      </trkpt>
      <trkpt lat="44.05578" lon="6.96701">
        <ele>1633.411028</ele>
        <time>2010-10-10T08:38:44Z</time>
      </trkpt>
      <trkpt lat="44.05572" lon="6.967">
        <ele>1634.634379</ele>
        <time>2010-10-10T08:38:47Z</time>
      </trkpt>
      <trkpt lat="44.05566" lon="6.96701">
        <ele>1635.98613</ele>
        <time>2010-10-10T08:38:50Z</time>
      </trkpt>
      <trkpt lat="44.05553" lon="6.96704">
        <ele>1637.324555</ele>
        <time>2010-10-10T08:38:59Z</time>
      </trkpt>
      <trkpt lat="44.05549" lon="6.96706">
        <ele>1638.872362</ele>
        <time>2010-10-10T08:39:02Z</time>
      </trkpt>
      <trkpt lat="44.05546" lon="6.96707">
        <ele>1640.719594</ele>
        <time>2010-10-10T08:39:05Z</time>
      </trkpt>
      <trkpt lat="44.05537" lon="6.96709">
        <ele>1643.14686</ele>
        <time>2010-10-10T08:39:12Z</time>
      </trkpt>
      <trkpt lat="44.05533" lon="6.9671">
        <ele>1646.140229</ele>
        <time>2010-10-10T08:39:15Z</time>
      </trkpt>
      <trkpt lat="44.0553" lon="6.96711">
        <ele>1648.784611</ele>
        <time>2010-10-10T08:39:18Z</time>
      </trkpt>
      <trkpt lat="44.05525" lon="6.9671">
        <ele>1650.314378</ele>
        <time>2010-10-10T08:39:21Z</time>
      </trkpt>
      <trkpt lat="44.0552" lon="6.96707">
        <ele>1650.849442</ele>
        <time>2010-10-10T08:39:24Z</time>
      </trkpt>
      <trkpt lat="44.05514" lon="6.96704">
        <ele>1650.815928</ele>
        <time>2010-10-10T08:39:26Z</time>
      </trkpt>
      <trkpt lat="44.05506" lon="6.96697">
        <ele>1650.638276</ele>
        <time>2010-10-10T08:39:29Z</time>
      </trkpt>
      <trkpt lat="44.05498" lon="6.9669">
        <ele>1650.652405</ele>
        <time>2010-10-10T08:39:32Z</time>
      </trkpt>
      <trkpt lat="44.0549" lon="6.96682">
        <ele>1650.969618</ele>
        <time>2010-10-10T08:39:35Z</time>
      </trkpt>
      <trkpt lat="44.05484" lon="6.96676">
        <ele>1651.3423</ele>
        <time>2010-10-10T08:39:37Z</time>
      </trkpt>
      <trkpt lat="44.05477" lon="6.96667">
        <ele>1651.532167</ele>
        <time>2010-10-10T08:39:39Z</time>
      </trkpt>
      <trkpt lat="44.05465" lon="6.96655">
        <ele>1651.568755</ele>
        <time>2010-10-10T08:39:42Z</time>
      </trkpt>
      <trkpt lat="44.05446" lon="6.96648">
        <ele>1651.68032</ele>
        <time>2010-10-10T08:39:45Z</time>
      </trkpt>
      <trkpt lat="44.05426" lon="6.96643">
        <ele>1652.009737</ele>
        <time>2010-10-10T08:39:48Z</time>
      </trkpt>
      <trkpt lat="44.05407" lon="6.96647">
        <ele>1652.363839</ele>
        <time>2010-10-10T08:39:51Z</time>
      </trkpt>
      <trkpt lat="44.05397" lon="6.96654">
        <ele>1652.536269</ele>
        <time>2010-10-10T08:39:53Z</time>
      </trkpt>
      <trkpt lat="44.05383" lon="6.9666">
        <ele>1652.703195</ele>
        <time>2010-10-10T08:39:56Z</time>
      </trkpt>
      <trkpt lat="44.0537" lon="6.96667">
        <ele>1653.450067</ele>
        <time>2010-10-10T08:39:59Z</time>
      </trkpt>
      <trkpt lat="44.05358" lon="6.96676">
        <ele>1655.008418</ele>
        <time>2010-10-10T08:40:02Z</time>
      </trkpt>
      <trkpt lat="44.05345" lon="6.96682">
        <ele>1657.052496</ele>
        <time>2010-10-10T08:40:05Z</time>
      </trkpt>
      <trkpt lat="44.05335" lon="6.96685">
        <ele>1659.328056</ele>
        <time>2010-10-10T08:40:07Z</time>
      </trkpt>
      <trkpt lat="44.05322" lon="6.9669">
        <ele>1661.659657</ele>
        <time>2010-10-10T08:40:10Z</time>
      </trkpt>
      <trkpt lat="44.0531" lon="6.9669">
        <ele>1663.552912</ele>
        <time>2010-10-10T08:40:13Z</time>
      </trkpt>
      <trkpt lat="44.05297" lon="6.96686">
        <ele>1664.726775</ele>
        <time>2010-10-10T08:40:16Z</time>
      </trkpt>
      <trkpt lat="44.0529" lon="6.96682">
        <ele>1665.326023</ele>
        <time>2010-10-10T08:40:18Z</time>
      </trkpt>
      <trkpt lat="44.05285" lon="6.96677">
        <ele>1665.580354</ele>
        <time>2010-10-10T08:40:20Z</time>
      </trkpt>
      <trkpt lat="44.05277" lon="6.96669">
        <ele>1665.600871</ele>
        <time>2010-10-10T08:40:23Z</time>
      </trkpt>
      <trkpt lat="44.05273" lon="6.96665">
        <ele>1665.543835</ele>
        <time>2010-10-10T08:40:25Z</time>
      </trkpt>
      <trkpt lat="44.05266" lon="6.96658">
        <ele>1665.495091</ele>
        <time>2010-10-10T08:40:28Z</time>
      </trkpt>
      <trkpt lat="44.05259" lon="6.9665">
        <ele>1665.47467</ele>
        <time>2010-10-10T08:40:31Z</time>
      </trkpt>
      <trkpt lat="44.05254" lon="6.96645">
        <ele>1665.335002</ele>
        <time>2010-10-10T08:40:34Z</time>
      </trkpt>
      <trkpt lat="44.05254" lon="6.96645">
        <ele>1664.979791</ele>
        <time>2010-10-10T08:40:35Z</time>
      </trkpt>
      <trkpt lat="44.05246" lon="6.96623">
        <ele>1664.476111</ele>
        <time>2010-10-10T08:40:55Z</time>
      </trkpt>
      <trkpt lat="44.0524" lon="6.96614">
        <ele>1663.942569</ele>
        <time>2010-10-10T08:40:57Z</time>
      </trkpt>
      <trkpt lat="44.05228" lon="6.96601">
        <ele>1663.537532</ele>
        <time>2010-10-10T08:41:00Z</time>
      </trkpt>
      <trkpt lat="44.05218" lon="6.96595">
        <ele>1661.580838</ele>
        <time>2010-10-10T08:41:02Z</time>
      </trkpt>
      <trkpt lat="44.05206" lon="6.96592">
        <ele>1656.904817</ele>
        <time>2010-10-10T08:41:04Z</time>
      </trkpt>
      <trkpt lat="44.05187" lon="6.96597">
        <ele>1652.158936</ele>
        <time>2010-10-10T08:41:07Z</time>
      </trkpt>
      <trkpt lat="44.05168" lon="6.96609">
        <ele>1649.922496</ele>
        <time>2010-10-10T08:41:10Z</time>
      </trkpt>
      <trkpt lat="44.05154" lon="6.96615">
        <ele>1649.731149</ele>
        <time>2010-10-10T08:41:12Z</time>
      </trkpt>
      <trkpt lat="44.05128" lon="6.96621">
        <ele>1650.618623</ele>
        <time>2010-10-10T08:41:15Z</time>
      </trkpt>
      <trkpt lat="44.05106" lon="6.9663">
        <ele>1652.011002</ele>
        <time>2010-10-10T08:41:18Z</time>
      </trkpt>
      <trkpt lat="44.05084" lon="6.96637">
        <ele>1653.593488</ele>
        <time>2010-10-10T08:41:21Z</time>
      </trkpt>
      <trkpt lat="44.05063" lon="6.9664">
        <ele>1655.195428</ele>
        <time>2010-10-10T08:41:24Z</time>
      </trkpt>
      <trkpt lat="44.05043" lon="6.96641">
        <ele>1656.599278</ele>
        <time>2010-10-10T08:41:27Z</time>
      </trkpt>
      <trkpt lat="44.05034" lon="6.9664">
        <ele>1657.474846</ele>
        <time>2010-10-10T08:41:29Z</time>
      </trkpt>
      <trkpt lat="44.05024" lon="6.96636">
        <ele>1657.733258</ele>
        <time>2010-10-10T08:41:32Z</time>
      </trkpt>
      <trkpt lat="44.05014" lon="6.96633">
        <ele>1657.678103</ele>
        <time>2010-10-10T08:41:35Z</time>
      </trkpt>
      <trkpt lat="44.05009" lon="6.96631">
        <ele>1657.56299</ele>
        <time>2010-10-10T08:41:37Z</time>
      </trkpt>
      <trkpt lat="44.05005" lon="6.96626">
        <ele>1657.21577</ele>
        <time>2010-10-10T08:41:40Z</time>
      </trkpt>
      <trkpt lat="44.05001" lon="6.9662">
        <ele>1656.337303</ele>
        <time>2010-10-10T08:41:43Z</time>
      </trkpt>
      <trkpt lat="44.05001" lon="6.9662">
        <ele>1655.234521</ele>
        <time>2010-10-10T08:42:31Z</time>
      </trkpt>
      <trkpt lat="44.05001" lon="6.96588">
        <ele>1654.233533</ele>
        <time>2010-10-10T08:48:30Z</time>
      </trkpt>
      <trkpt lat="44.04999" lon="6.96579">
        <ele>1653.014186</ele>
        <time>2010-10-10T08:48:32Z</time>
      </trkpt>
      <trkpt lat="44.04997" lon="6.96566">
        <ele>1651.326572</ele>
        <time>2010-10-10T08:48:34Z</time>
      </trkpt>
      <trkpt lat="44.04994" lon="6.96543">
        <ele>1645.333088</ele>
        <time>2010-10-10T08:48:37Z</time>
      </trkpt>
      <trkpt lat="44.04987" lon="6.96515">
        <ele>1633.095021</ele>
        <time>2010-10-10T08:48:40Z</time>
      </trkpt>
      <trkpt lat="44.04982" lon="6.96483">
        <ele>1621.316515</ele>
        <time>2010-10-10T08:48:43Z</time>
      </trkpt>
      <trkpt lat="44.04976" lon="6.96449">
        <ele>1615.946338</ele>
        <time>2010-10-10T08:48:46Z</time>
      </trkpt>
      <trkpt lat="44.04963" lon="6.96414">
        <ele>1615.264079</ele>
        <time>2010-10-10T08:48:49Z</time>
      </trkpt>
      <trkpt lat="44.04951" lon="6.96377">
        <ele>1616.28112</ele>
        <time>2010-10-10T08:48:52Z</time>
      </trkpt>
      <trkpt lat="44.04939" lon="6.96342">
        <ele>1617.240291</ele>
        <time>2010-10-10T08:48:55Z</time>
      </trkpt>
      <trkpt lat="44.04934" lon="6.96319">
        <ele>1617.671766</ele>
        <time>2010-10-10T08:48:57Z</time>
      </trkpt>
      <trkpt lat="44.04929" lon="6.96291">
        <ele>1617.584717</ele>
        <time>2010-10-10T08:49:00Z</time>
      </trkpt>
      <trkpt lat="44.04926" lon="6.96272">
        <ele>1617.140288</ele>
        <time>2010-10-10T08:49:02Z</time>
      </trkpt>
      <trkpt lat="44.04921" lon="6.96243">
        <ele>1616.692673</ele>
        <time>2010-10-10T08:49:05Z</time>
      </trkpt>
      <trkpt lat="44.04922" lon="6.96208">
        <ele>1616.344498</ele>
        <time>2010-10-10T08:49:08Z</time>
      </trkpt>
      <trkpt lat="44.0492" lon="6.9619">
        <ele>1615.954201</ele>
        <time>2010-10-10T08:49:10Z</time>
      </trkpt>
      <trkpt lat="44.04908" lon="6.96171">
        <ele>1615.621707</ele>
        <time>2010-10-10T08:49:13Z</time>
      </trkpt>
      <trkpt lat="44.049" lon="6.96161">
        <ele>1615.344678</ele>
        <time>2010-10-10T08:49:15Z</time>
      </trkpt>
      <trkpt lat="44.0489" lon="6.96147">
        <ele>1614.975078</ele>
        <time>2010-10-10T08:49:18Z</time>
      </trkpt>
      <trkpt lat="44.04883" lon="6.96128">
        <ele>1614.637876</ele>
        <time>2010-10-10T08:49:21Z</time>
      </trkpt>
      <trkpt lat="44.04878" lon="6.96113">
        <ele>1614.489596</ele>
        <time>2010-10-10T08:49:23Z</time>
      </trkpt>
      <trkpt lat="44.04868" lon="6.96087">
        <ele>1614.474154</ele>
        <time>2010-10-10T08:49:26Z</time>
      </trkpt>
      <trkpt lat="44.04859" lon="6.96067">
        <ele>1614.504787</ele>
        <time>2010-10-10T08:49:28Z</time>
      </trkpt>
      <trkpt lat="44.0484" lon="6.96047">
        <ele>1614.532216</ele>
        <time>2010-10-10T08:49:31Z</time>
      </trkpt>
      <trkpt lat="44.04825" lon="6.96046">
        <ele>1614.544095</ele>
        <time>2010-10-10T08:49:33Z</time>
      </trkpt>
      <trkpt lat="44.04806" lon="6.96055">
        <ele>1614.545189</ele>
        <time>2010-10-10T08:49:36Z</time>
      </trkpt>
      <trkpt lat="44.04797" lon="6.96039">
        <ele>1614.542587</ele>
        <time>2010-10-10T08:49:39Z</time>
      </trkpt>
      <trkpt lat="44.04794" lon="6.9602">
        <ele>1614.402084</ele>
        <time>2010-10-10T08:49:41Z</time>
      </trkpt>
      <trkpt lat="44.04792" lon="6.95986">
        <ele>1613.902972</ele>
        <time>2010-10-10T08:49:44Z</time>
      </trkpt>
      <trkpt lat="44.04791" lon="6.95956">
        <ele>1613.035333</ele>
        <time>2010-10-10T08:49:47Z</time>
      </trkpt>
      <trkpt lat="44.04776" lon="6.95946">
        <ele>1611.992745</ele>
        <time>2010-10-10T08:49:50Z</time>
      </trkpt>
      <trkpt lat="44.04755" lon="6.95938">
        <ele>1610.923593</ele>
        <time>2010-10-10T08:49:53Z</time>
      </trkpt>
      <trkpt lat="44.04736" lon="6.95931">
        <ele>1609.746131</ele>
        <time>2010-10-10T08:49:56Z</time>
      </trkpt>
      <trkpt lat="44.04723" lon="6.95913">
        <ele>1608.238804</ele>
        <time>2010-10-10T08:49:59Z</time>
      </trkpt>
      <trkpt lat="44.04717" lon="6.95886">
        <ele>1606.514298</ele>
        <time>2010-10-10T08:50:02Z</time>
      </trkpt>
      <trkpt lat="44.04715" lon="6.95866">
        <ele>1604.976454</ele>
        <time>2010-10-10T08:50:05Z</time>
      </trkpt>
      <trkpt lat="44.04715" lon="6.95866">
        <ele>1603.85882</ele>
        <time>2010-10-10T08:50:06Z</time>
      </trkpt>
      <trkpt lat="44.04715" lon="6.95829">
        <ele>1602.992229</ele>
        <time>2010-10-10T08:50:32Z</time>
      </trkpt>
      <trkpt lat="44.04715" lon="6.95816">
        <ele>1602.196811</ele>
        <time>2010-10-10T08:50:35Z</time>
      </trkpt>
      <trkpt lat="44.04718" lon="6.95802">
        <ele>1601.627606</ele>
        <time>2010-10-10T08:50:38Z</time>
      </trkpt>
      <trkpt lat="44.04721" lon="6.95786">
        <ele>1600.873473</ele>
        <time>2010-10-10T08:50:41Z</time>
      </trkpt>
      <trkpt lat="44.04721" lon="6.95771">
        <ele>1599.306405</ele>
        <time>2010-10-10T08:50:43Z</time>
      </trkpt>
      <trkpt lat="44.04721" lon="6.95744">
        <ele>1597.534146</ele>
        <time>2010-10-10T08:50:46Z</time>
      </trkpt>
      <trkpt lat="44.0472" lon="6.95725">
        <ele>1596.371594</ele>
        <time>2010-10-10T08:50:48Z</time>
      </trkpt>
      <trkpt lat="44.04714" lon="6.95697">
        <ele>1595.746389</ele>
        <time>2010-10-10T08:50:51Z</time>
      </trkpt>
      <trkpt lat="44.04711" lon="6.95679">
        <ele>1595.469323</ele>
        <time>2010-10-10T08:50:53Z</time>
      </trkpt>
      <trkpt lat="44.04709" lon="6.95663">
        <ele>1595.439087</ele>
        <time>2010-10-10T08:50:55Z</time>
      </trkpt>
      <trkpt lat="44.04704" lon="6.95648">
        <ele>1595.080714</ele>
        <time>2010-10-10T08:50:58Z</time>
      </trkpt>
      <trkpt lat="44.04699" lon="6.95643">
        <ele>1594.051846</ele>
        <time>2010-10-10T08:51:00Z</time>
      </trkpt>
      <trkpt lat="44.04696" lon="6.95642">
        <ele>1592.965723</ele>
        <time>2010-10-10T08:51:04Z</time>
      </trkpt>
      <trkpt lat="44.0468" lon="6.95611">
        <ele>1592.442124</ele>
        <time>2010-10-10T08:51:20Z</time>
      </trkpt>
      <trkpt lat="44.04677" lon="6.95607">
        <ele>1592.35784</ele>
        <time>2010-10-10T08:51:22Z</time>
      </trkpt>
      <trkpt lat="44.04677" lon="6.95607">
        <ele>1592.443639</ele>
        <time>2010-10-10T08:51:23Z</time>
      </trkpt>
      <trkpt lat="44.04653" lon="6.95582">
        <ele>1592.532165</ele>
        <time>2010-10-10T08:51:40Z</time>
      </trkpt>
      <trkpt lat="44.0465" lon="6.95579">
        <ele>1592.574273</ele>
        <time>2010-10-10T08:51:42Z</time>
      </trkpt>
      <trkpt lat="44.04647" lon="6.95575">
        <ele>1592.298737</ele>
        <time>2010-10-10T08:51:44Z</time>
      </trkpt>
      <trkpt lat="44.04644" lon="6.95568">
        <ele>1591.28642</ele>
        <time>2010-10-10T08:51:47Z</time>
      </trkpt>
      <trkpt lat="44.0464" lon="6.95554">
        <ele>1589.820114</ele>
        <time>2010-10-10T08:51:53Z</time>
      </trkpt>
      <trkpt lat="44.04639" lon="6.95542">
        <ele>1588.735158</ele>
        <time>2010-10-10T08:51:58Z</time>
      </trkpt>
      <trkpt lat="44.04639" lon="6.95536">
        <ele>1588.33709</ele>
        <time>2010-10-10T08:52:00Z</time>
      </trkpt>
      <trkpt lat="44.04639" lon="6.95529">
        <ele>1588.346885</ele>
        <time>2010-10-10T08:52:03Z</time>
      </trkpt>
      <trkpt lat="44.04639" lon="6.95523">
        <ele>1588.605834</ele>
        <time>2010-10-10T08:52:06Z</time>
      </trkpt>
      <trkpt lat="44.04639" lon="6.95515">
        <ele>1589.191898</ele>
        <time>2010-10-10T08:52:10Z</time>
      </trkpt>
      <trkpt lat="44.04639" lon="6.95505">
        <ele>1589.952957</ele>
        <time>2010-10-10T08:52:15Z</time>
      </trkpt>
      <trkpt lat="44.04639" lon="6.95495">
        <ele>1590.496436</ele>
        <time>2010-10-10T08:52:20Z</time>
      </trkpt>
      <trkpt lat="44.04637" lon="6.95489">
        <ele>1590.688271</ele>
        <time>2010-10-10T08:52:23Z</time>
      </trkpt>
      <trkpt lat="44.04635" lon="6.95478">
        <ele>1590.401316</ele>
        <time>2010-10-10T08:52:28Z</time>
      </trkpt>
      <trkpt lat="44.04635" lon="6.95472">
        <ele>1589.204361</ele>
        <time>2010-10-10T08:52:31Z</time>
      </trkpt>
      <trkpt lat="44.04633" lon="6.95465">
        <ele>1587.341724</ele>
        <time>2010-10-10T08:52:35Z</time>
      </trkpt>
      <trkpt lat="44.04626" lon="6.95463">
        <ele>1585.867586</ele>
        <time>2010-10-10T08:52:41Z</time>
      </trkpt>
      <trkpt lat="44.04619" lon="6.95462">
        <ele>1585.289791</ele>
        <time>2010-10-10T08:52:47Z</time>
      </trkpt>
      <trkpt lat="44.04616" lon="6.9546">
        <ele>1585.551671</ele>
        <time>2010-10-10T08:52:50Z</time>
      </trkpt>
      <trkpt lat="44.04613" lon="6.95455">
        <ele>1586.563357</ele>
        <time>2010-10-10T08:52:53Z</time>
      </trkpt>
      <trkpt lat="44.04611" lon="6.95449">
        <ele>1588.058179</ele>
        <time>2010-10-10T08:52:56Z</time>
      </trkpt>
      <trkpt lat="44.04609" lon="6.95442">
        <ele>1589.544129</ele>
        <time>2010-10-10T08:52:59Z</time>
      </trkpt>
      <trkpt lat="44.04608" lon="6.95435">
        <ele>1590.788312</ele>
        <time>2010-10-10T08:53:02Z</time>
      </trkpt>
      <trkpt lat="44.04607" lon="6.95428">
        <ele>1591.95066</ele>
        <time>2010-10-10T08:53:05Z</time>
      </trkpt>
      <trkpt lat="44.04606" lon="6.95423">
        <ele>1593.140723</ele>
        <time>2010-10-10T08:53:08Z</time>
      </trkpt>
      <trkpt lat="44.04605" lon="6.95414">
        <ele>1594.236766</ele>
        <time>2010-10-10T08:53:11Z</time>
      </trkpt>
      <trkpt lat="44.04603" lon="6.95404">
        <ele>1595.25421</ele>
        <time>2010-10-10T08:53:16Z</time>
      </trkpt>
      <trkpt lat="44.04603" lon="6.95393">
        <ele>1596.101164</ele>
        <time>2010-10-10T08:53:21Z</time>
      </trkpt>
      <trkpt lat="44.04607" lon="6.9538">
        <ele>1596.7245</ele>
        <time>2010-10-10T08:53:27Z</time>
      </trkpt>
      <trkpt lat="44.04609" lon="6.95373">
        <ele>1597.20789</ele>
        <time>2010-10-10T08:53:30Z</time>
      </trkpt>
      <trkpt lat="44.04611" lon="6.95364">
        <ele>1597.8083</ele>
        <time>2010-10-10T08:53:34Z</time>
      </trkpt>
      <trkpt lat="44.04612" lon="6.95354">
        <ele>1598.634016</ele>
        <time>2010-10-10T08:53:38Z</time>
      </trkpt>
      <trkpt lat="44.04611" lon="6.95347">
        <ele>1599.360207</ele>
        <time>2010-10-10T08:53:41Z</time>
      </trkpt>
      <trkpt lat="44.0461" lon="6.95339">
        <ele>1599.809193</ele>
        <time>2010-10-10T08:53:45Z</time>
      </trkpt>
      <trkpt lat="44.04609" lon="6.95326">
        <ele>1600.195888</ele>
        <time>2010-10-10T08:53:51Z</time>
      </trkpt>
      <trkpt lat="44.04603" lon="6.95314">
        <ele>1600.635092</ele>
        <time>2010-10-10T08:53:58Z</time>
      </trkpt>
      <trkpt lat="44.04599" lon="6.9531">
        <ele>1601.111155</ele>
        <time>2010-10-10T08:54:01Z</time>
      </trkpt>
      <trkpt lat="44.04596" lon="6.95308">
        <ele>1601.620336</ele>
        <time>2010-10-10T08:54:03Z</time>
      </trkpt>
      <trkpt lat="44.04593" lon="6.95306">
        <ele>1602.123546</ele>
        <time>2010-10-10T08:54:05Z</time>
      </trkpt>
      <trkpt lat="44.04588" lon="6.95304">
        <ele>1602.495031</ele>
        <time>2010-10-10T08:54:08Z</time>
      </trkpt>
      <trkpt lat="44.04584" lon="6.95302">
        <ele>1602.630999</ele>
        <time>2010-10-10T08:54:11Z</time>
      </trkpt>
      <trkpt lat="44.04579" lon="6.953">
        <ele>1602.627392</ele>
        <time>2010-10-10T08:54:14Z</time>
      </trkpt>
      <trkpt lat="44.04574" lon="6.95299">
        <ele>1602.585926</ele>
        <time>2010-10-10T08:54:17Z</time>
      </trkpt>
      <trkpt lat="44.04569" lon="6.95299">
        <ele>1602.555764</ele>
        <time>2010-10-10T08:54:20Z</time>
      </trkpt>
      <trkpt lat="44.04563" lon="6.95301">
        <ele>1602.544894</ele>
        <time>2010-10-10T08:54:23Z</time>
      </trkpt>
      <trkpt lat="44.04558" lon="6.95304">
        <ele>1602.545315</ele>
        <time>2010-10-10T08:54:26Z</time>
      </trkpt>
      <trkpt lat="44.04553" lon="6.95308">
        <ele>1602.548731</ele>
        <time>2010-10-10T08:54:29Z</time>
      </trkpt>
      <trkpt lat="44.04548" lon="6.95312">
        <ele>1602.689358</ele>
        <time>2010-10-10T08:54:32Z</time>
      </trkpt>
      <trkpt lat="44.04544" lon="6.95314">
        <ele>1603.050113</ele>
        <time>2010-10-10T08:54:34Z</time>
      </trkpt>
      <trkpt lat="44.04538" lon="6.95318">
        <ele>1603.419497</ele>
        <time>2010-10-10T08:54:37Z</time>
      </trkpt>
      <trkpt lat="44.04532" lon="6.9532">
        <ele>1603.732651</ele>
        <time>2010-10-10T08:54:40Z</time>
      </trkpt>
      <trkpt lat="44.04526" lon="6.9532">
        <ele>1604.118871</ele>
        <time>2010-10-10T08:54:43Z</time>
      </trkpt>
      <trkpt lat="44.04522" lon="6.95318">
        <ele>1604.458248</ele>
        <time>2010-10-10T08:54:45Z</time>
      </trkpt>
      <trkpt lat="44.04519" lon="6.95314">
        <ele>1604.603408</ele>
        <time>2010-10-10T08:54:47Z</time>
      </trkpt>
      <trkpt lat="44.04514" lon="6.95305">
        <ele>1604.754043</ele>
        <time>2010-10-10T08:54:50Z</time>
      </trkpt>
      <trkpt lat="44.04512" lon="6.95299">
        <ele>1605.08194</ele>
        <time>2010-10-10T08:54:52Z</time>
      </trkpt>
      <trkpt lat="44.04509" lon="6.95289">
        <ele>1605.561942</ele>
        <time>2010-10-10T08:54:55Z</time>
      </trkpt>
      <trkpt lat="44.04507" lon="6.95282">
        <ele>1606.223616</ele>
        <time>2010-10-10T08:54:57Z</time>
      </trkpt>
      <trkpt lat="44.04505" lon="6.95276">
        <ele>1607.116734</ele>
        <time>2010-10-10T08:54:59Z</time>
      </trkpt>
      <trkpt lat="44.04504" lon="6.95265">
        <ele>1607.993958</ele>
        <time>2010-10-10T08:55:02Z</time>
      </trkpt>
      <trkpt lat="44.04504" lon="6.95256">
        <ele>1608.53731</ele>
        <time>2010-10-10T08:55:05Z</time>
      </trkpt>
      <trkpt lat="44.04505" lon="6.95245">
        <ele>1608.695953</ele>
        <time>2010-10-10T08:55:08Z</time>
      </trkpt>
      <trkpt lat="44.04506" lon="6.95234">
        <ele>1608.798594</ele>
        <time>2010-10-10T08:55:11Z</time>
      </trkpt>
      <trkpt lat="44.04506" lon="6.95224">
        <ele>1609.086529</ele>
        <time>2010-10-10T08:55:14Z</time>
      </trkpt>
      <trkpt lat="44.04507" lon="6.95218">
        <ele>1609.273787</ele>
        <time>2010-10-10T08:55:16Z</time>
      </trkpt>
      <trkpt lat="44.04507" lon="6.95211">
        <ele>1609.07658</ele>
        <time>2010-10-10T08:55:18Z</time>
      </trkpt>
      <trkpt lat="44.04506" lon="6.95201">
        <ele>1608.598572</ele>
        <time>2010-10-10T08:55:21Z</time>
      </trkpt>
      <trkpt lat="44.04506" lon="6.95193">
        <ele>1607.62478</ele>
        <time>2010-10-10T08:55:23Z</time>
      </trkpt>
      <trkpt lat="44.04504" lon="6.95182">
        <ele>1605.984389</ele>
        <time>2010-10-10T08:55:26Z</time>
      </trkpt>
      <trkpt lat="44.04501" lon="6.95172">
        <ele>1604.219618</ele>
        <time>2010-10-10T08:55:29Z</time>
      </trkpt>
      <trkpt lat="44.04496" lon="6.95164">
        <ele>1602.965779</ele>
        <time>2010-10-10T08:55:32Z</time>
      </trkpt>
      <trkpt lat="44.04491" lon="6.95155">
        <ele>1602.387561</ele>
        <time>2010-10-10T08:55:35Z</time>
      </trkpt>
      <trkpt lat="44.04487" lon="6.95147">
        <ele>1602.309976</ele>
        <time>2010-10-10T08:55:38Z</time>
      </trkpt>
      <trkpt lat="44.04482" lon="6.9514">
        <ele>1602.416361</ele>
        <time>2010-10-10T08:55:41Z</time>
      </trkpt>
      <trkpt lat="44.04476" lon="6.95134">
        <ele>1602.518457</ele>
        <time>2010-10-10T08:55:44Z</time>
      </trkpt>
      <trkpt lat="44.0447" lon="6.95127">
        <ele>1602.564917</ele>
        <time>2010-10-10T08:55:47Z</time>
      </trkpt>
      <trkpt lat="44.04465" lon="6.95119">
        <ele>1602.570773</ele>
        <time>2010-10-10T08:55:50Z</time>
      </trkpt>
      <trkpt lat="44.04462" lon="6.95113">
        <ele>1602.700113</ele>
        <time>2010-10-10T08:55:52Z</time>
      </trkpt>
      <trkpt lat="44.04459" lon="6.95104">
        <ele>1603.051676</ele>
        <time>2010-10-10T08:55:55Z</time>
      </trkpt>
      <trkpt lat="44.04456" lon="6.95094">
        <ele>1603.555529</ele>
        <time>2010-10-10T08:55:58Z</time>
      </trkpt>
      <trkpt lat="44.04454" lon="6.95083">
        <ele>1604.228395</ele>
        <time>2010-10-10T08:56:01Z</time>
      </trkpt>
      <trkpt lat="44.04453" lon="6.95072">
        <ele>1605.123135</ele>
        <time>2010-10-10T08:56:04Z</time>
      </trkpt>
      <trkpt lat="44.04451" lon="6.95061">
        <ele>1605.998388</ele>
        <time>2010-10-10T08:56:07Z</time>
      </trkpt>
      <trkpt lat="44.04448" lon="6.95052">
        <ele>1606.677961</ele>
        <time>2010-10-10T08:56:10Z</time>
      </trkpt>
      <trkpt lat="44.04442" lon="6.95045">
        <ele>1607.195567</ele>
        <time>2010-10-10T08:56:13Z</time>
      </trkpt>
      <trkpt lat="44.04436" lon="6.9504">
        <ele>1607.529338</ele>
        <time>2010-10-10T08:56:16Z</time>
      </trkpt>
      <trkpt lat="44.0443" lon="6.95035">
        <ele>1607.9092</ele>
        <time>2010-10-10T08:56:19Z</time>
      </trkpt>
      <trkpt lat="44.04425" lon="6.95029">
        <ele>1608.749875</ele>
        <time>2010-10-10T08:56:22Z</time>
      </trkpt>
      <trkpt lat="44.04422" lon="6.95025">
        <ele>1609.806128</ele>
        <time>2010-10-10T08:56:24Z</time>
      </trkpt>
      <trkpt lat="44.04418" lon="6.9502">
        <ele>1610.637218</ele>
        <time>2010-10-10T08:56:26Z</time>
      </trkpt>
      <trkpt lat="44.04413" lon="6.95013">
        <ele>1611.355371</ele>
        <time>2010-10-10T08:56:29Z</time>
      </trkpt>
      <trkpt lat="44.04409" lon="6.95007">
        <ele>1612.052751</ele>
        <time>2010-10-10T08:56:32Z</time>
      </trkpt>
      <trkpt lat="44.04406" lon="6.95003">
        <ele>1612.510716</ele>
        <time>2010-10-10T08:56:34Z</time>
      </trkpt>
      <trkpt lat="44.04402" lon="6.94996">
        <ele>1612.794567</ele>
        <time>2010-10-10T08:56:37Z</time>
      </trkpt>
      <trkpt lat="44.04399" lon="6.94992">
        <ele>1613.27168</ele>
        <time>2010-10-10T08:56:39Z</time>
      </trkpt>
      <trkpt lat="44.04394" lon="6.94986">
        <ele>1613.943729</ele>
        <time>2010-10-10T08:56:42Z</time>
      </trkpt>
      <trkpt lat="44.04392" lon="6.94981">
        <ele>1614.589491</ele>
        <time>2010-10-10T08:56:44Z</time>
      </trkpt>
      <trkpt lat="44.04389" lon="6.94977">
        <ele>1615.139569</ele>
        <time>2010-10-10T08:56:46Z</time>
      </trkpt>
      <trkpt lat="44.04386" lon="6.9497">
        <ele>1615.507384</ele>
        <time>2010-10-10T08:56:49Z</time>
      </trkpt>
      <trkpt lat="44.04384" lon="6.94966">
        <ele>1615.62724</ele>
        <time>2010-10-10T08:56:51Z</time>
      </trkpt>
      <trkpt lat="44.04381" lon="6.94958">
        <ele>1615.612566</ele>
        <time>2010-10-10T08:56:54Z</time>
      </trkpt>
      <trkpt lat="44.04378" lon="6.94952">
        <ele>1615.567375</ele>
        <time>2010-10-10T08:56:56Z</time>
      </trkpt>
      <trkpt lat="44.04375" lon="6.94943">
        <ele>1615.399388</ele>
        <time>2010-10-10T08:56:59Z</time>
      </trkpt>
      <trkpt lat="44.04371" lon="6.94935">
        <ele>1615.029954</ele>
        <time>2010-10-10T08:57:02Z</time>
      </trkpt>
      <trkpt lat="44.04368" lon="6.94926">
        <ele>1614.661838</ele>
        <time>2010-10-10T08:57:05Z</time>
      </trkpt>
      <trkpt lat="44.04366" lon="6.94917">
        <ele>1614.628448</ele>
        <time>2010-10-10T08:57:08Z</time>
      </trkpt>
      <trkpt lat="44.04362" lon="6.94909">
        <ele>1614.964175</ele>
        <time>2010-10-10T08:57:11Z</time>
      </trkpt>
      <trkpt lat="44.04357" lon="6.94905">
        <ele>1615.364302</ele>
        <time>2010-10-10T08:57:14Z</time>
      </trkpt>
      <trkpt lat="44.04352" lon="6.94906">
        <ele>1615.569533</ele>
        <time>2010-10-10T08:57:17Z</time>
      </trkpt>
      <trkpt lat="44.0435" lon="6.94908">
        <ele>1615.609865</ele>
        <time>2010-10-10T08:57:19Z</time>
      </trkpt>
      <trkpt lat="44.04347" lon="6.94911">
        <ele>1615.719894</ele>
        <time>2010-10-10T08:57:21Z</time>
      </trkpt>
      <trkpt lat="44.04343" lon="6.94913">
        <ele>1616.185289</ele>
        <time>2010-10-10T08:57:24Z</time>
      </trkpt>
      <trkpt lat="44.0434" lon="6.94914">
        <ele>1616.898052</ele>
        <time>2010-10-10T08:57:26Z</time>
      </trkpt>
      <trkpt lat="44.04337" lon="6.94913">
        <ele>1617.439602</ele>
        <time>2010-10-10T08:57:28Z</time>
      </trkpt>
      <trkpt lat="44.04332" lon="6.94911">
        <ele>1617.781925</ele>
        <time>2010-10-10T08:57:31Z</time>
      </trkpt>
      <trkpt lat="44.04329" lon="6.94909">
        <ele>1618.279205</ele>
        <time>2010-10-10T08:57:33Z</time>
      </trkpt>
      <trkpt lat="44.04326" lon="6.94907">
        <ele>1619.087949</ele>
        <time>2010-10-10T08:57:35Z</time>
      </trkpt>
      <trkpt lat="44.04324" lon="6.94905">
        <ele>1620.224928</ele>
        <time>2010-10-10T08:57:37Z</time>
      </trkpt>
      <trkpt lat="44.04321" lon="6.94901">
        <ele>1621.637792</ele>
        <time>2010-10-10T08:57:39Z</time>
      </trkpt>
      <trkpt lat="44.04318" lon="6.94896">
        <ele>1622.908602</ele>
        <time>2010-10-10T08:57:42Z</time>
      </trkpt>
      <trkpt lat="44.04314" lon="6.9489">
        <ele>1623.599829</ele>
        <time>2010-10-10T08:57:45Z</time>
      </trkpt>
      <trkpt lat="44.04311" lon="6.94885">
        <ele>1623.895702</ele>
        <time>2010-10-10T08:57:48Z</time>
      </trkpt>
      <trkpt lat="44.04309" lon="6.94882">
        <ele>1624.17722</ele>
        <time>2010-10-10T08:57:50Z</time>
      </trkpt>
      <trkpt lat="44.04306" lon="6.94877">
        <ele>1624.580957</ele>
        <time>2010-10-10T08:57:53Z</time>
      </trkpt>
      <trkpt lat="44.04305" lon="6.94873">
        <ele>1625.06032</ele>
        <time>2010-10-10T08:57:56Z</time>
      </trkpt>
      <trkpt lat="44.04301" lon="6.94866">
        <ele>1625.443925</ele>
        <time>2010-10-10T08:57:59Z</time>
      </trkpt>
      <trkpt lat="44.04298" lon="6.94861">
        <ele>1625.733974</ele>
        <time>2010-10-10T08:58:02Z</time>
      </trkpt>
      <trkpt lat="44.04296" lon="6.94857">
        <ele>1626.098756</ele>
        <time>2010-10-10T08:58:05Z</time>
      </trkpt>
      <trkpt lat="44.04294" lon="6.94854">
        <ele>1626.428595</ele>
        <time>2010-10-10T08:58:07Z</time>
      </trkpt>
      <trkpt lat="44.04291" lon="6.9485">
        <ele>1626.572696</ele>
        <time>2010-10-10T08:58:10Z</time>
      </trkpt>
      <trkpt lat="44.04288" lon="6.94846">
        <ele>1626.725244</ele>
        <time>2010-10-10T08:58:13Z</time>
      </trkpt>
      <trkpt lat="44.04286" lon="6.94842">
        <ele>1627.054865</ele>
        <time>2010-10-10T08:58:16Z</time>
      </trkpt>
      <trkpt lat="44.04284" lon="6.94838">
        <ele>1627.397438</ele>
        <time>2010-10-10T08:58:19Z</time>
      </trkpt>
      <trkpt lat="44.04283" lon="6.94832">
        <ele>1627.561127</ele>
        <time>2010-10-10T08:58:22Z</time>
      </trkpt>
      <trkpt lat="44.04282" lon="6.94828">
        <ele>1627.72478</ele>
        <time>2010-10-10T08:58:25Z</time>
      </trkpt>
      <trkpt lat="44.04281" lon="6.9482">
        <ele>1628.057176</ele>
        <time>2010-10-10T08:58:28Z</time>
      </trkpt>
      <trkpt lat="44.04282" lon="6.94814">
        <ele>1628.398669</ele>
        <time>2010-10-10T08:58:31Z</time>
      </trkpt>
      <trkpt lat="44.04283" lon="6.94808">
        <ele>1628.560753</ele>
        <time>2010-10-10T08:58:34Z</time>
      </trkpt>
      <trkpt lat="44.04285" lon="6.94803">
        <ele>1628.585331</ele>
        <time>2010-10-10T08:58:36Z</time>
      </trkpt>
      <trkpt lat="44.04287" lon="6.94798">
        <ele>1628.281264</ele>
        <time>2010-10-10T08:58:38Z</time>
      </trkpt>
      <trkpt lat="44.0429" lon="6.9479">
        <ele>1627.395452</ele>
        <time>2010-10-10T08:58:41Z</time>
      </trkpt>
      <trkpt lat="44.04292" lon="6.94782">
        <ele>1626.14546</ele>
        <time>2010-10-10T08:58:44Z</time>
      </trkpt>
      <trkpt lat="44.04298" lon="6.94768">
        <ele>1624.925549</ele>
        <time>2010-10-10T08:58:48Z</time>
      </trkpt>
      <trkpt lat="44.04307" lon="6.9475">
        <ele>1623.970198</ele>
        <time>2010-10-10T08:58:51Z</time>
      </trkpt>
      <trkpt lat="44.04316" lon="6.94738">
        <ele>1623.323026</ele>
        <time>2010-10-10T08:58:53Z</time>
      </trkpt>
      <trkpt lat="44.04323" lon="6.94729">
        <ele>1622.576225</ele>
        <time>2010-10-10T08:58:55Z</time>
      </trkpt>
      <trkpt lat="44.04332" lon="6.94716">
        <ele>1621.548888</ele>
        <time>2010-10-10T08:58:58Z</time>
      </trkpt>
      <trkpt lat="44.0434" lon="6.94703">
        <ele>1620.574601</ele>
        <time>2010-10-10T08:59:01Z</time>
      </trkpt>
      <trkpt lat="44.04344" lon="6.94696">
        <ele>1619.878689</ele>
        <time>2010-10-10T08:59:03Z</time>
      </trkpt>
      <trkpt lat="44.04349" lon="6.94689">
        <ele>1619.356622</ele>
        <time>2010-10-10T08:59:05Z</time>
      </trkpt>
      <trkpt lat="44.04354" lon="6.9468">
        <ele>1618.906332</ele>
        <time>2010-10-10T08:59:08Z</time>
      </trkpt>
      <trkpt lat="44.04357" lon="6.94673">
        <ele>1618.578294</ele>
        <time>2010-10-10T08:59:10Z</time>
      </trkpt>
      <trkpt lat="44.04361" lon="6.94663">
        <ele>1618.459916</ele>
        <time>2010-10-10T08:59:13Z</time>
      </trkpt>
      <trkpt lat="44.04365" lon="6.94652">
        <ele>1618.464365</ele>
        <time>2010-10-10T08:59:16Z</time>
      </trkpt>
      <trkpt lat="44.04367" lon="6.94645">
        <ele>1618.639613</ele>
        <time>2010-10-10T08:59:18Z</time>
      </trkpt>
      <trkpt lat="44.0437" lon="6.94635">
        <ele>1619.164281</ele>
        <time>2010-10-10T08:59:21Z</time>
      </trkpt>
      <trkpt lat="44.04371" lon="6.94629">
        <ele>1620.041215</ele>
        <time>2010-10-10T08:59:23Z</time>
      </trkpt>
      <trkpt lat="44.04374" lon="6.9462">
        <ele>1621.083485</ele>
        <time>2010-10-10T08:59:26Z</time>
      </trkpt>
      <trkpt lat="44.04378" lon="6.94612">
        <ele>1622.011537</ele>
        <time>2010-10-10T08:59:29Z</time>
      </trkpt>
      <trkpt lat="44.04382" lon="6.94605">
        <ele>1622.688785</ele>
        <time>2010-10-10T08:59:32Z</time>
      </trkpt>
      <trkpt lat="44.04387" lon="6.94601">
        <ele>1623.189611</ele>
        <time>2010-10-10T08:59:35Z</time>
      </trkpt>
      <trkpt lat="44.04393" lon="6.94596">
        <ele>1623.649602</ele>
        <time>2010-10-10T08:59:38Z</time>
      </trkpt>
      <trkpt lat="44.04397" lon="6.9459">
        <ele>1624.246964</ele>
        <time>2010-10-10T08:59:41Z</time>
      </trkpt>
      <trkpt lat="44.044" lon="6.94585">
        <ele>1625.097436</ele>
        <time>2010-10-10T08:59:44Z</time>
      </trkpt>
      <trkpt lat="44.04413" lon="6.94548">
        <ele>1625.960924</ele>
        <time>2010-10-10T09:00:03Z</time>
      </trkpt>
      <trkpt lat="44.04411" lon="6.94542">
        <ele>1626.644274</ele>
        <time>2010-10-10T09:00:06Z</time>
      </trkpt>
      <trkpt lat="44.04409" lon="6.9454">
        <ele>1627.168088</ele>
        <time>2010-10-10T09:00:08Z</time>
      </trkpt>
      <trkpt lat="44.04385" lon="6.94511">
        <ele>1628.058158</ele>
        <time>2010-10-10T09:00:35Z</time>
      </trkpt>
      <trkpt lat="44.04383" lon="6.94504">
        <ele>1629.740323</ele>
        <time>2010-10-10T09:00:39Z</time>
      </trkpt>
      <trkpt lat="44.04381" lon="6.94498">
        <ele>1631.560339</ele>
        <time>2010-10-10T09:00:42Z</time>
      </trkpt>
      <trkpt lat="44.04378" lon="6.94491">
        <ele>1633.416874</ele>
        <time>2010-10-10T09:00:46Z</time>
      </trkpt>
      <trkpt lat="44.04376" lon="6.94484">
        <ele>1636.244791</ele>
        <time>2010-10-10T09:00:50Z</time>
      </trkpt>
      <trkpt lat="44.04374" lon="6.94479">
        <ele>1639.577508</ele>
        <time>2010-10-10T09:00:54Z</time>
      </trkpt>
      <trkpt lat="44.04373" lon="6.94471">
        <ele>1642.22473</ele>
        <time>2010-10-10T09:01:05Z</time>
      </trkpt>
      <trkpt lat="44.04373" lon="6.94471">
        <ele>1643.91593</ele>
        <time>2010-10-10T09:01:11Z</time>
      </trkpt>
      <trkpt lat="44.04365" lon="6.94435">
        <ele>1644.986108</ele>
        <time>2010-10-10T09:01:47Z</time>
      </trkpt>
      <trkpt lat="44.04366" lon="6.94431">
        <ele>1646.235486</ele>
        <time>2010-10-10T09:01:52Z</time>
      </trkpt>
      <trkpt lat="44.04366" lon="6.94431">
        <ele>1647.914371</ele>
        <time>2010-10-10T09:01:59Z</time>
      </trkpt>
      <trkpt lat="44.04364" lon="6.94394">
        <ele>1649.511736</ele>
        <time>2010-10-10T09:02:12Z</time>
      </trkpt>
      <trkpt lat="44.04364" lon="6.94383">
        <ele>1650.746507</ele>
        <time>2010-10-10T09:02:15Z</time>
      </trkpt>
      <trkpt lat="44.04364" lon="6.94372">
        <ele>1651.634417</ele>
        <time>2010-10-10T09:02:18Z</time>
      </trkpt>
      <trkpt lat="44.04364" lon="6.94364">
        <ele>1652.897129</ele>
        <time>2010-10-10T09:02:20Z</time>
      </trkpt>
      <trkpt lat="44.04363" lon="6.94357">
        <ele>1655.011727</ele>
        <time>2010-10-10T09:02:22Z</time>
      </trkpt>
      <trkpt lat="44.04362" lon="6.94346">
        <ele>1656.93293</ele>
        <time>2010-10-10T09:02:25Z</time>
      </trkpt>
      <trkpt lat="44.04362" lon="6.94336">
        <ele>1657.775114</ele>
        <time>2010-10-10T09:02:28Z</time>
      </trkpt>
      <trkpt lat="44.04361" lon="6.94329">
        <ele>1657.861011</ele>
        <time>2010-10-10T09:02:30Z</time>
      </trkpt>
      <trkpt lat="44.04361" lon="6.94322">
        <ele>1657.547459</ele>
        <time>2010-10-10T09:02:32Z</time>
      </trkpt>
      <trkpt lat="44.04361" lon="6.94313">
        <ele>1657.031211</ele>
        <time>2010-10-10T09:02:35Z</time>
      </trkpt>
      <trkpt lat="44.04361" lon="6.94303">
        <ele>1656.594166</ele>
        <time>2010-10-10T09:02:38Z</time>
      </trkpt>
      <trkpt lat="44.04361" lon="6.94293">
        <ele>1656.412614</ele>
        <time>2010-10-10T09:02:41Z</time>
      </trkpt>
      <trkpt lat="44.0436" lon="6.94282">
        <ele>1656.538783</ele>
        <time>2010-10-10T09:02:44Z</time>
      </trkpt>
      <trkpt lat="44.0436" lon="6.94273">
        <ele>1656.941352</ele>
        <time>2010-10-10T09:02:47Z</time>
      </trkpt>
      <trkpt lat="44.04359" lon="6.94265">
        <ele>1657.48446</ele>
        <time>2010-10-10T09:02:50Z</time>
      </trkpt>
      <trkpt lat="44.04358" lon="6.94256">
        <ele>1658.034129</ele>
        <time>2010-10-10T09:02:53Z</time>
      </trkpt>
      <trkpt lat="44.04357" lon="6.9425">
        <ele>1658.430892</ele>
        <time>2010-10-10T09:02:55Z</time>
      </trkpt>
      <trkpt lat="44.04357" lon="6.94243">
        <ele>1658.71081</ele>
        <time>2010-10-10T09:02:57Z</time>
      </trkpt>
      <trkpt lat="44.04356" lon="6.94233">
        <ele>1659.202399</ele>
        <time>2010-10-10T09:03:00Z</time>
      </trkpt>
      <trkpt lat="44.04357" lon="6.94223">
        <ele>1659.886451</ele>
        <time>2010-10-10T09:03:03Z</time>
      </trkpt>
      <trkpt lat="44.04358" lon="6.94214">
        <ele>1660.398947</ele>
        <time>2010-10-10T09:03:06Z</time>
      </trkpt>
      <trkpt lat="44.04358" lon="6.94208">
        <ele>1660.7276</ele>
        <time>2010-10-10T09:03:08Z</time>
      </trkpt>
      <trkpt lat="44.0436" lon="6.942">
        <ele>1661.084691</ele>
        <time>2010-10-10T09:03:11Z</time>
      </trkpt>
      <trkpt lat="44.04361" lon="6.94192">
        <ele>1661.397742</ele>
        <time>2010-10-10T09:03:14Z</time>
      </trkpt>
      <trkpt lat="44.04363" lon="6.94184">
        <ele>1661.669569</ele>
        <time>2010-10-10T09:03:17Z</time>
      </trkpt>
      <trkpt lat="44.04366" lon="6.94175">
        <ele>1662.040741</ele>
        <time>2010-10-10T09:03:20Z</time>
      </trkpt>
      <trkpt lat="44.04369" lon="6.94167">
        <ele>1662.380566</ele>
        <time>2010-10-10T09:03:23Z</time>
      </trkpt>
      <trkpt lat="44.04371" lon="6.94162">
        <ele>1662.530347</ele>
        <time>2010-10-10T09:03:25Z</time>
      </trkpt>
      <trkpt lat="44.04375" lon="6.94155">
        <ele>1662.546154</ele>
        <time>2010-10-10T09:03:28Z</time>
      </trkpt>
      <trkpt lat="44.04379" lon="6.94148">
        <ele>1662.653536</ele>
        <time>2010-10-10T09:03:31Z</time>
      </trkpt>
      <trkpt lat="44.04384" lon="6.94142">
        <ele>1662.985755</ele>
        <time>2010-10-10T09:03:34Z</time>
      </trkpt>
      <trkpt lat="44.0439" lon="6.94135">
        <ele>1663.343151</ele>
        <time>2010-10-10T09:03:37Z</time>
      </trkpt>
      <trkpt lat="44.04396" lon="6.94129">
        <ele>1663.517248</ele>
        <time>2010-10-10T09:03:40Z</time>
      </trkpt>
      <trkpt lat="44.04402" lon="6.94122">
        <ele>1663.546333</ele>
        <time>2010-10-10T09:03:43Z</time>
      </trkpt>
      <trkpt lat="44.04407" lon="6.94114">
        <ele>1663.518595</ele>
        <time>2010-10-10T09:03:46Z</time>
      </trkpt>
      <trkpt lat="44.04408" lon="6.94106">
        <ele>1663.489448</ele>
        <time>2010-10-10T09:03:49Z</time>
      </trkpt>
      <trkpt lat="44.04405" lon="6.94102">
        <ele>1663.47543</ele>
        <time>2010-10-10T09:03:51Z</time>
      </trkpt>
      <trkpt lat="44.04402" lon="6.94098">
        <ele>1663.473186</ele>
        <time>2010-10-10T09:03:53Z</time>
      </trkpt>
      <trkpt lat="44.04399" lon="6.9409">
        <ele>1663.475482</ele>
        <time>2010-10-10T09:03:56Z</time>
      </trkpt>
      <trkpt lat="44.04399" lon="6.94082">
        <ele>1663.477844</ele>
        <time>2010-10-10T09:03:59Z</time>
      </trkpt>
      <trkpt lat="44.04399" lon="6.94077">
        <ele>1663.478966</ele>
        <time>2010-10-10T09:04:01Z</time>
      </trkpt>
      <trkpt lat="44.04397" lon="6.94069">
        <ele>1663.617307</ele>
        <time>2010-10-10T09:04:04Z</time>
      </trkpt>
      <trkpt lat="44.04396" lon="6.94063">
        <ele>1663.976993</ele>
        <time>2010-10-10T09:04:06Z</time>
      </trkpt>
      <trkpt lat="44.04395" lon="6.94057">
        <ele>1664.484398</ele>
        <time>2010-10-10T09:04:08Z</time>
      </trkpt>
      <trkpt lat="44.04395" lon="6.94048">
        <ele>1665.157624</ele>
        <time>2010-10-10T09:04:11Z</time>
      </trkpt>
      <trkpt lat="44.04395" lon="6.94038">
        <ele>1665.913451</ele>
        <time>2010-10-10T09:04:14Z</time>
      </trkpt>
      <trkpt lat="44.04396" lon="6.94028">
        <ele>1666.566336</ele>
        <time>2010-10-10T09:04:17Z</time>
      </trkpt>
      <trkpt lat="44.04399" lon="6.94015">
        <ele>1667.097908</ele>
        <time>2010-10-10T09:04:20Z</time>
      </trkpt>
      <trkpt lat="44.04402" lon="6.94002">
        <ele>1667.58796</ele>
        <time>2010-10-10T09:04:23Z</time>
      </trkpt>
      <trkpt lat="44.04405" lon="6.93989">
        <ele>1668.060989</ele>
        <time>2010-10-10T09:04:26Z</time>
      </trkpt>
      <trkpt lat="44.04406" lon="6.93982">
        <ele>1668.553407</ele>
        <time>2010-10-10T09:04:28Z</time>
      </trkpt>
      <trkpt lat="44.04409" lon="6.9397">
        <ele>1669.044876</ele>
        <time>2010-10-10T09:04:31Z</time>
      </trkpt>
      <trkpt lat="44.04412" lon="6.93959">
        <ele>1669.412305</ele>
        <time>2010-10-10T09:04:34Z</time>
      </trkpt>
      <trkpt lat="44.04416" lon="6.93947">
        <ele>1669.548569</ele>
        <time>2010-10-10T09:04:37Z</time>
      </trkpt>
      <trkpt lat="44.04421" lon="6.93935">
        <ele>1669.408165</ele>
        <time>2010-10-10T09:04:40Z</time>
      </trkpt>
      <trkpt lat="44.04427" lon="6.93925">
        <ele>1669.007766</ele>
        <time>2010-10-10T09:04:43Z</time>
      </trkpt>
      <trkpt lat="44.04434" lon="6.93914">
        <ele>1668.608496</ele>
        <time>2010-10-10T09:04:46Z</time>
      </trkpt>
      <trkpt lat="44.04438" lon="6.93906">
        <ele>1668.422334</ele>
        <time>2010-10-10T09:04:48Z</time>
      </trkpt>
      <trkpt lat="44.04441" lon="6.93893">
        <ele>1668.396099</ele>
        <time>2010-10-10T09:04:51Z</time>
      </trkpt>
      <trkpt lat="44.04441" lon="6.93884">
        <ele>1668.429408</ele>
        <time>2010-10-10T09:04:53Z</time>
      </trkpt>
      <trkpt lat="44.04441" lon="6.9387">
        <ele>1668.323745</ele>
        <time>2010-10-10T09:04:56Z</time>
      </trkpt>
      <trkpt lat="44.04441" lon="6.9386">
        <ele>1667.978805</ele>
        <time>2010-10-10T09:04:58Z</time>
      </trkpt>
      <trkpt lat="44.04441" lon="6.93846">
        <ele>1667.611341</ele>
        <time>2010-10-10T09:05:01Z</time>
      </trkpt>
      <trkpt lat="44.04445" lon="6.93831">
        <ele>1667.433287</ele>
        <time>2010-10-10T09:05:04Z</time>
      </trkpt>
      <trkpt lat="44.04449" lon="6.93821">
        <ele>1667.404077</ele>
        <time>2010-10-10T09:05:06Z</time>
      </trkpt>
      <trkpt lat="44.04457" lon="6.93807">
        <ele>1667.432826</ele>
        <time>2010-10-10T09:05:09Z</time>
      </trkpt>
      <trkpt lat="44.04464" lon="6.93796">
        <ele>1667.462754</ele>
        <time>2010-10-10T09:05:12Z</time>
      </trkpt>
      <trkpt lat="44.04469" lon="6.93787">
        <ele>1667.477061</ele>
        <time>2010-10-10T09:05:14Z</time>
      </trkpt>
      <trkpt lat="44.04474" lon="6.93779">
        <ele>1667.479289</ele>
        <time>2010-10-10T09:05:16Z</time>
      </trkpt>
      <trkpt lat="44.04485" lon="6.93766">
        <ele>1667.476883</ele>
        <time>2010-10-10T09:05:19Z</time>
      </trkpt>
      <trkpt lat="44.04499" lon="6.93749">
        <ele>1667.474432</ele>
        <time>2010-10-10T09:05:22Z</time>
      </trkpt>
      <trkpt lat="44.04515" lon="6.93727">
        <ele>1667.47327</ele>
        <time>2010-10-10T09:05:25Z</time>
      </trkpt>
      <trkpt lat="44.04529" lon="6.93704">
        <ele>1667.473088</ele>
        <time>2010-10-10T09:05:28Z</time>
      </trkpt>
      <trkpt lat="44.04543" lon="6.93683">
        <ele>1667.473273</ele>
        <time>2010-10-10T09:05:31Z</time>
      </trkpt>
      <trkpt lat="44.04557" lon="6.9366">
        <ele>1667.473454</ele>
        <time>2010-10-10T09:05:34Z</time>
      </trkpt>
      <trkpt lat="44.04566" lon="6.93636">
        <ele>1667.473526</ele>
        <time>2010-10-10T09:05:37Z</time>
      </trkpt>
      <trkpt lat="44.04565" lon="6.93623">
        <ele>1667.473518</ele>
        <time>2010-10-10T09:05:39Z</time>
      </trkpt>
      <trkpt lat="44.04558" lon="6.93618">
        <ele>1667.473486</ele>
        <time>2010-10-10T09:05:41Z</time>
      </trkpt>
      <trkpt lat="44.04552" lon="6.93621">
        <ele>1667.473453</ele>
        <time>2010-10-10T09:05:43Z</time>
      </trkpt>
      <trkpt lat="44.04545" lon="6.93628">
        <ele>1667.335245</ele>
        <time>2010-10-10T09:05:46Z</time>
      </trkpt>
      <trkpt lat="44.04541" lon="6.93628">
        <ele>1666.698968</ele>
        <time>2010-10-10T09:05:48Z</time>
      </trkpt>
      <trkpt lat="44.04535" lon="6.9363">
        <ele>1665.47155</ele>
        <time>2010-10-10T09:05:51Z</time>
      </trkpt>
      <trkpt lat="44.04535" lon="6.9363">
        <ele>1664.197515</ele>
        <time>2010-10-10T09:05:52Z</time>
      </trkpt>
      <trkpt lat="44.04502" lon="6.93644">
        <ele>1663.451026</ele>
        <time>2010-10-10T09:06:06Z</time>
      </trkpt>
      <trkpt lat="44.04496" lon="6.93639">
        <ele>1663.252691</ele>
        <time>2010-10-10T09:06:08Z</time>
      </trkpt>
      <trkpt lat="44.0449" lon="6.93632">
        <ele>1663.326928</ele>
        <time>2010-10-10T09:06:10Z</time>
      </trkpt>
      <trkpt lat="44.04487" lon="6.93628">
        <ele>1665.521037</ele>
        <time>2010-10-10T09:06:11Z</time>
      </trkpt>
      <trkpt lat="44.04479" lon="6.93607">
        <ele>1671.118642</ele>
        <time>2010-10-10T09:06:15Z</time>
      </trkpt>
      <trkpt lat="44.04475" lon="6.93592">
        <ele>1677.158839</ele>
        <time>2010-10-10T09:06:18Z</time>
      </trkpt>
      <trkpt lat="44.04473" lon="6.93582">
        <ele>1680.638315</ele>
        <time>2010-10-10T09:06:20Z</time>
      </trkpt>
      <trkpt lat="44.04471" lon="6.93568">
        <ele>1682.204282</ele>
        <time>2010-10-10T09:06:23Z</time>
      </trkpt>
      <trkpt lat="44.0447" lon="6.93556">
        <ele>1683.04059</ele>
        <time>2010-10-10T09:06:26Z</time>
      </trkpt>
      <trkpt lat="44.04469" lon="6.93545">
        <ele>1683.499633</ele>
        <time>2010-10-10T09:06:29Z</time>
      </trkpt>
      <trkpt lat="44.04468" lon="6.93534">
        <ele>1683.606536</ele>
        <time>2010-10-10T09:06:32Z</time>
      </trkpt>
      <trkpt lat="44.04466" lon="6.93525">
        <ele>1683.417937</ele>
        <time>2010-10-10T09:06:35Z</time>
      </trkpt>
      <trkpt lat="44.04464" lon="6.9352">
        <ele>1682.851461</ele>
        <time>2010-10-10T09:06:37Z</time>
      </trkpt>
      <trkpt lat="44.04461" lon="6.93513">
        <ele>1682.085036</ele>
        <time>2010-10-10T09:06:40Z</time>
      </trkpt>
      <trkpt lat="44.04458" lon="6.93504">
        <ele>1681.393744</ele>
        <time>2010-10-10T09:06:43Z</time>
      </trkpt>
      <trkpt lat="44.04456" lon="6.93496">
        <ele>1680.836292</ele>
        <time>2010-10-10T09:06:46Z</time>
      </trkpt>
      <trkpt lat="44.04454" lon="6.93488">
        <ele>1680.337706</ele>
        <time>2010-10-10T09:06:49Z</time>
      </trkpt>
      <trkpt lat="44.04452" lon="6.9348">
        <ele>1679.86562</ele>
        <time>2010-10-10T09:06:52Z</time>
      </trkpt>
      <trkpt lat="44.04449" lon="6.93472">
        <ele>1679.51449</ele>
        <time>2010-10-10T09:06:55Z</time>
      </trkpt>
      <trkpt lat="44.04447" lon="6.93467">
        <ele>1679.384934</ele>
        <time>2010-10-10T09:06:57Z</time>
      </trkpt>
      <trkpt lat="44.04446" lon="6.93461">
        <ele>1679.387541</ele>
        <time>2010-10-10T09:06:59Z</time>
      </trkpt>
      <trkpt lat="44.04443" lon="6.93452">
        <ele>1679.426406</ele>
        <time>2010-10-10T09:07:02Z</time>
      </trkpt>
      <trkpt lat="44.04441" lon="6.93446">
        <ele>1679.454884</ele>
        <time>2010-10-10T09:07:04Z</time>
      </trkpt>
      <trkpt lat="44.04437" lon="6.93436">
        <ele>1679.465227</ele>
        <time>2010-10-10T09:07:07Z</time>
      </trkpt>
      <trkpt lat="44.04434" lon="6.93427">
        <ele>1679.464894</ele>
        <time>2010-10-10T09:07:10Z</time>
      </trkpt>
      <trkpt lat="44.04431" lon="6.93417">
        <ele>1679.461693</ele>
        <time>2010-10-10T09:07:13Z</time>
      </trkpt>
      <trkpt lat="44.04429" lon="6.93411">
        <ele>1679.45937</ele>
        <time>2010-10-10T09:07:15Z</time>
      </trkpt>
      <trkpt lat="44.04427" lon="6.93402">
        <ele>1679.458518</ele>
        <time>2010-10-10T09:07:18Z</time>
      </trkpt>
      <trkpt lat="44.04425" lon="6.93396">
        <ele>1679.320346</ele>
        <time>2010-10-10T09:07:20Z</time>
      </trkpt>
      <trkpt lat="44.04422" lon="6.93387">
        <ele>1678.684334</ele>
        <time>2010-10-10T09:07:23Z</time>
      </trkpt>
      <trkpt lat="44.0442" lon="6.93377">
        <ele>1677.180747</ele>
        <time>2010-10-10T09:07:26Z</time>
      </trkpt>
      <trkpt lat="44.04418" lon="6.93368">
        <ele>1674.910632</ele>
        <time>2010-10-10T09:07:29Z</time>
      </trkpt>
      <trkpt lat="44.04417" lon="6.93359">
        <ele>1672.290937</ele>
        <time>2010-10-10T09:07:32Z</time>
      </trkpt>
      <trkpt lat="44.04416" lon="6.9335">
        <ele>1669.785315</ele>
        <time>2010-10-10T09:07:35Z</time>
      </trkpt>
      <trkpt lat="44.04416" lon="6.93345">
        <ele>1667.977049</ele>
        <time>2010-10-10T09:07:37Z</time>
      </trkpt>
      <trkpt lat="44.04416" lon="6.93336">
        <ele>1667.193008</ele>
        <time>2010-10-10T09:07:40Z</time>
      </trkpt>
      <trkpt lat="44.04415" lon="6.93327">
        <ele>1667.118632</ele>
        <time>2010-10-10T09:07:43Z</time>
      </trkpt>
      <trkpt lat="44.04415" lon="6.93318">
        <ele>1667.286084</ele>
        <time>2010-10-10T09:07:46Z</time>
      </trkpt>
      <trkpt lat="44.04414" lon="6.93309">
        <ele>1667.433195</ele>
        <time>2010-10-10T09:07:49Z</time>
      </trkpt>
      <trkpt lat="44.04414" lon="6.93303">
        <ele>1667.634273</ele>
        <time>2010-10-10T09:07:51Z</time>
      </trkpt>
      <trkpt lat="44.04415" lon="6.93294">
        <ele>1667.999531</ele>
        <time>2010-10-10T09:07:54Z</time>
      </trkpt>
      <trkpt lat="44.04415" lon="6.93287">
        <ele>1668.355069</ele>
        <time>2010-10-10T09:07:56Z</time>
      </trkpt>
      <trkpt lat="44.04416" lon="6.93277">
        <ele>1668.518352</ele>
        <time>2010-10-10T09:07:59Z</time>
      </trkpt>
      <trkpt lat="44.04416" lon="6.93267">
        <ele>1668.401654</ele>
        <time>2010-10-10T09:08:02Z</time>
      </trkpt>
      <trkpt lat="44.04414" lon="6.93258">
        <ele>1668.011385</ele>
        <time>2010-10-10T09:08:05Z</time>
      </trkpt>
      <trkpt lat="44.04411" lon="6.93249">
        <ele>1667.474803</ele>
        <time>2010-10-10T09:08:08Z</time>
      </trkpt>
      <trkpt lat="44.04407" lon="6.9324">
        <ele>1666.788333</ele>
        <time>2010-10-10T09:08:11Z</time>
      </trkpt>
      <trkpt lat="44.04403" lon="6.93233">
        <ele>1666.030843</ele>
        <time>2010-10-10T09:08:14Z</time>
      </trkpt>
      <trkpt lat="44.044" lon="6.93224">
        <ele>1665.518645</ele>
        <time>2010-10-10T09:08:17Z</time>
      </trkpt>
      <trkpt lat="44.04397" lon="6.93215">
        <ele>1665.349316</ele>
        <time>2010-10-10T09:08:20Z</time>
      </trkpt>
      <trkpt lat="44.04395" lon="6.93209">
        <ele>1665.644267</ele>
        <time>2010-10-10T09:08:22Z</time>
      </trkpt>
      <trkpt lat="44.04392" lon="6.93199">
        <ele>1666.70261</ele>
        <time>2010-10-10T09:08:25Z</time>
      </trkpt>
      <trkpt lat="44.0439" lon="6.93188">
        <ele>1668.617253</ele>
        <time>2010-10-10T09:08:28Z</time>
      </trkpt>
      <trkpt lat="44.04387" lon="6.93179">
        <ele>1670.937939</ele>
        <time>2010-10-10T09:08:31Z</time>
      </trkpt>
      <trkpt lat="44.04382" lon="6.9317">
        <ele>1672.946173</ele>
        <time>2010-10-10T09:08:34Z</time>
      </trkpt>
      <trkpt lat="44.0438" lon="6.93164">
        <ele>1674.18923</ele>
        <time>2010-10-10T09:08:36Z</time>
      </trkpt>
      <trkpt lat="44.04379" lon="6.93158">
        <ele>1674.689953</ele>
        <time>2010-10-10T09:08:38Z</time>
      </trkpt>
      <trkpt lat="44.04376" lon="6.93149">
        <ele>1674.850483</ele>
        <time>2010-10-10T09:08:41Z</time>
      </trkpt>
      <trkpt lat="44.04373" lon="6.93142">
        <ele>1675.222678</ele>
        <time>2010-10-10T09:08:44Z</time>
      </trkpt>
      <trkpt lat="44.04369" lon="6.93134">
        <ele>1676.127321</ele>
        <time>2010-10-10T09:08:47Z</time>
      </trkpt>
      <trkpt lat="44.04367" lon="6.93128">
        <ele>1677.628034</ele>
        <time>2010-10-10T09:08:49Z</time>
      </trkpt>
      <trkpt lat="44.04363" lon="6.9312">
        <ele>1679.70162</ele>
        <time>2010-10-10T09:08:52Z</time>
      </trkpt>
      <trkpt lat="44.04361" lon="6.93115">
        <ele>1682.29214</ele>
        <time>2010-10-10T09:08:54Z</time>
      </trkpt>
      <trkpt lat="44.04359" lon="6.9311">
        <ele>1684.969969</ele>
        <time>2010-10-10T09:08:56Z</time>
      </trkpt>
      <trkpt lat="44.04356" lon="6.93103">
        <ele>1686.916011</ele>
        <time>2010-10-10T09:08:59Z</time>
      </trkpt>
      <trkpt lat="44.04354" lon="6.93095">
        <ele>1687.754564</ele>
        <time>2010-10-10T09:09:02Z</time>
      </trkpt>
      <trkpt lat="44.04354" lon="6.93085">
        <ele>1687.830656</ele>
        <time>2010-10-10T09:09:05Z</time>
      </trkpt>
      <trkpt lat="44.04353" lon="6.93076">
        <ele>1687.648949</ele>
        <time>2010-10-10T09:09:08Z</time>
      </trkpt>
      <trkpt lat="44.04352" lon="6.9307">
        <ele>1687.352446</ele>
        <time>2010-10-10T09:09:10Z</time>
      </trkpt>
      <trkpt lat="44.04351" lon="6.93061">
        <ele>1686.787084</ele>
        <time>2010-10-10T09:09:13Z</time>
      </trkpt>
      <trkpt lat="44.04351" lon="6.93054">
        <ele>1686.052256</ele>
        <time>2010-10-10T09:09:15Z</time>
      </trkpt>
      <trkpt lat="44.04352" lon="6.93046">
        <ele>1685.522586</ele>
        <time>2010-10-10T09:09:17Z</time>
      </trkpt>
      <trkpt lat="44.04355" lon="6.93034">
        <ele>1685.333652</ele>
        <time>2010-10-10T09:09:20Z</time>
      </trkpt>
      <trkpt lat="44.04358" lon="6.93027">
        <ele>1685.066131</ele>
        <time>2010-10-10T09:09:22Z</time>
      </trkpt>
      <trkpt lat="44.04361" lon="6.93016">
        <ele>1683.99228</ele>
        <time>2010-10-10T09:09:25Z</time>
      </trkpt>
      <trkpt lat="44.04362" lon="6.93008">
        <ele>1681.802145</ele>
        <time>2010-10-10T09:09:28Z</time>
      </trkpt>
      <trkpt lat="44.04361" lon="6.93002">
        <ele>1678.864164</ele>
        <time>2010-10-10T09:09:31Z</time>
      </trkpt>
      <trkpt lat="44.04358" lon="6.92996">
        <ele>1676.096421</ele>
        <time>2010-10-10T09:09:34Z</time>
      </trkpt>
      <trkpt lat="44.04355" lon="6.9299">
        <ele>1674.437732</ele>
        <time>2010-10-10T09:09:37Z</time>
      </trkpt>
      <trkpt lat="44.04354" lon="6.92986">
        <ele>1673.979047</ele>
        <time>2010-10-10T09:09:39Z</time>
      </trkpt>
      <trkpt lat="44.04353" lon="6.92981">
        <ele>1674.244895</ele>
        <time>2010-10-10T09:09:41Z</time>
      </trkpt>
      <trkpt lat="44.04353" lon="6.92976">
        <ele>1674.831459</ele>
        <time>2010-10-10T09:09:43Z</time>
      </trkpt>
      <trkpt lat="44.04353" lon="6.92967">
        <ele>1675.334961</ele>
        <time>2010-10-10T09:09:46Z</time>
      </trkpt>
      <trkpt lat="44.04353" lon="6.92957">
        <ele>1675.684629</ele>
        <time>2010-10-10T09:09:49Z</time>
      </trkpt>
      <trkpt lat="44.04352" lon="6.92948">
        <ele>1676.060086</ele>
        <time>2010-10-10T09:09:52Z</time>
      </trkpt>
      <trkpt lat="44.04351" lon="6.92938">
        <ele>1676.519137</ele>
        <time>2010-10-10T09:09:55Z</time>
      </trkpt>
      <trkpt lat="44.0435" lon="6.92932">
        <ele>1677.151508</ele>
        <time>2010-10-10T09:09:57Z</time>
      </trkpt>
      <trkpt lat="44.04349" lon="6.92926">
        <ele>1678.028567</ele>
        <time>2010-10-10T09:09:59Z</time>
      </trkpt>
      <trkpt lat="44.04347" lon="6.92917">
        <ele>1679.040242</ele>
        <time>2010-10-10T09:10:02Z</time>
      </trkpt>
      <trkpt lat="44.04345" lon="6.92908">
        <ele>1680.083424</ele>
        <time>2010-10-10T09:10:05Z</time>
      </trkpt>
      <trkpt lat="44.04344" lon="6.92899">
        <ele>1680.973771</ele>
        <time>2010-10-10T09:10:08Z</time>
      </trkpt>
      <trkpt lat="44.04343" lon="6.92891">
        <ele>1681.622404</ele>
        <time>2010-10-10T09:10:11Z</time>
      </trkpt>
      <trkpt lat="44.04341" lon="6.92884">
        <ele>1682.112451</ele>
        <time>2010-10-10T09:10:14Z</time>
      </trkpt>
      <trkpt lat="44.0434" lon="6.9288">
        <ele>1682.572483</ele>
        <time>2010-10-10T09:10:16Z</time>
      </trkpt>
      <trkpt lat="44.04339" lon="6.9287">
        <ele>1683.034759</ele>
        <time>2010-10-10T09:10:21Z</time>
      </trkpt>
      <trkpt lat="44.04337" lon="6.92866">
        <ele>1683.389477</ele>
        <time>2010-10-10T09:10:24Z</time>
      </trkpt>
      <trkpt lat="44.04334" lon="6.92864">
        <ele>1683.662679</ele>
        <time>2010-10-10T09:10:27Z</time>
      </trkpt>
      <trkpt lat="44.04331" lon="6.92863">
        <ele>1684.29938</ele>
        <time>2010-10-10T09:10:29Z</time>
      </trkpt>
      <trkpt lat="44.04327" lon="6.92865">
        <ele>1685.350456</ele>
        <time>2010-10-10T09:10:32Z</time>
      </trkpt>
      <trkpt lat="44.04322" lon="6.92867">
        <ele>1686.373947</ele>
        <time>2010-10-10T09:10:36Z</time>
      </trkpt>
      <trkpt lat="44.0432" lon="6.92872">
        <ele>1687.238263</ele>
        <time>2010-10-10T09:10:39Z</time>
      </trkpt>
      <trkpt lat="44.04316" lon="6.92886">
        <ele>1688.128923</ele>
        <time>2010-10-10T09:10:48Z</time>
      </trkpt>
      <trkpt lat="44.04312" lon="6.92897">
        <ele>1689.084751</ele>
        <time>2010-10-10T09:10:55Z</time>
      </trkpt>
      <trkpt lat="44.04308" lon="6.92895">
        <ele>1689.943903</ele>
        <time>2010-10-10T09:10:58Z</time>
      </trkpt>
      <trkpt lat="44.04305" lon="6.92888">
        <ele>1690.455803</ele>
        <time>2010-10-10T09:11:01Z</time>
      </trkpt>
      <trkpt lat="44.04302" lon="6.92878">
        <ele>1690.595943</ele>
        <time>2010-10-10T09:11:04Z</time>
      </trkpt>
      <trkpt lat="44.04301" lon="6.92868">
        <ele>1690.555471</ele>
        <time>2010-10-10T09:11:07Z</time>
      </trkpt>
      <trkpt lat="44.04301" lon="6.92861">
        <ele>1690.346928</ele>
        <time>2010-10-10T09:11:09Z</time>
      </trkpt>
      <trkpt lat="44.04301" lon="6.92852">
        <ele>1689.945648</ele>
        <time>2010-10-10T09:11:12Z</time>
      </trkpt>
      <trkpt lat="44.043" lon="6.92847">
        <ele>1689.565124</ele>
        <time>2010-10-10T09:11:14Z</time>
      </trkpt>
      <trkpt lat="44.043" lon="6.92838">
        <ele>1689.393299</ele>
        <time>2010-10-10T09:11:17Z</time>
      </trkpt>
      <trkpt lat="44.043" lon="6.9283">
        <ele>1689.372504</ele>
        <time>2010-10-10T09:11:20Z</time>
      </trkpt>
      <trkpt lat="44.043" lon="6.92825">
        <ele>1689.405824</ele>
        <time>2010-10-10T09:11:23Z</time>
      </trkpt>
      <trkpt lat="44.04301" lon="6.92814">
        <ele>1689.574975</ele>
        <time>2010-10-10T09:11:26Z</time>
      </trkpt>
      <trkpt lat="44.04302" lon="6.92806">
        <ele>1689.948652</ele>
        <time>2010-10-10T09:11:29Z</time>
      </trkpt>
      <trkpt lat="44.04303" lon="6.928">
        <ele>1690.319626</ele>
        <time>2010-10-10T09:11:31Z</time>
      </trkpt>
      <trkpt lat="44.04303" lon="6.92793">
        <ele>1690.63029</ele>
        <time>2010-10-10T09:11:34Z</time>
      </trkpt>
      <trkpt lat="44.04302" lon="6.92786">
        <ele>1691.014173</ele>
        <time>2010-10-10T09:11:37Z</time>
      </trkpt>
      <trkpt lat="44.04301" lon="6.92782">
        <ele>1691.352498</ele>
        <time>2010-10-10T09:11:39Z</time>
      </trkpt>
      <trkpt lat="44.043" lon="6.92775">
        <ele>1691.635707</ele>
        <time>2010-10-10T09:11:42Z</time>
      </trkpt>
      <trkpt lat="44.043" lon="6.92771">
        <ele>1692.146428</ele>
        <time>2010-10-10T09:11:44Z</time>
      </trkpt>
      <trkpt lat="44.04299" lon="6.92767">
        <ele>1692.843935</ele>
        <time>2010-10-10T09:11:47Z</time>
      </trkpt>
      <trkpt lat="44.04298" lon="6.92759">
        <ele>1693.499271</ele>
        <time>2010-10-10T09:11:50Z</time>
      </trkpt>
      <trkpt lat="44.04298" lon="6.92752">
        <ele>1694.049308</ele>
        <time>2010-10-10T09:11:53Z</time>
      </trkpt>
      <trkpt lat="44.04297" lon="6.92748">
        <ele>1694.552549</ele>
        <time>2010-10-10T09:11:55Z</time>
      </trkpt>
      <trkpt lat="44.04297" lon="6.92741">
        <ele>1695.306588</ele>
        <time>2010-10-10T09:11:58Z</time>
      </trkpt>
      <trkpt lat="44.04295" lon="6.92732">
        <ele>1696.656708</ele>
        <time>2010-10-10T09:12:02Z</time>
      </trkpt>
      <trkpt lat="44.04294" lon="6.92726">
        <ele>1698.245425</ele>
        <time>2010-10-10T09:12:05Z</time>
      </trkpt>
      <trkpt lat="44.04292" lon="6.9272">
        <ele>1699.331764</ele>
        <time>2010-10-10T09:12:08Z</time>
      </trkpt>
      <trkpt lat="44.0429" lon="6.92717">
        <ele>1699.834172</ele>
        <time>2010-10-10T09:12:11Z</time>
      </trkpt>
      <trkpt lat="44.04287" lon="6.92712">
        <ele>1700.158426</ele>
        <time>2010-10-10T09:12:13Z</time>
      </trkpt>
      <trkpt lat="44.04285" lon="6.92707">
        <ele>1700.535458</ele>
        <time>2010-10-10T09:12:16Z</time>
      </trkpt>
      <trkpt lat="44.04282" lon="6.92702">
        <ele>1701.120741</ele>
        <time>2010-10-10T09:12:19Z</time>
      </trkpt>
      <trkpt lat="44.04279" lon="6.92697">
        <ele>1702.123938</ele>
        <time>2010-10-10T09:12:22Z</time>
      </trkpt>
      <trkpt lat="44.04278" lon="6.92694">
        <ele>1703.776225</ele>
        <time>2010-10-10T09:12:24Z</time>
      </trkpt>
      <trkpt lat="44.04275" lon="6.9269">
        <ele>1705.915344</ele>
        <time>2010-10-10T09:12:27Z</time>
      </trkpt>
      <trkpt lat="44.04273" lon="6.92687">
        <ele>1707.861806</ele>
        <time>2010-10-10T09:12:29Z</time>
      </trkpt>
      <trkpt lat="44.0427" lon="6.92683">
        <ele>1709.110156</ele>
        <time>2010-10-10T09:12:32Z</time>
      </trkpt>
      <trkpt lat="44.04267" lon="6.9268">
        <ele>1709.770634</ele>
        <time>2010-10-10T09:12:35Z</time>
      </trkpt>
      <trkpt lat="44.04264" lon="6.92676">
        <ele>1710.305767</ele>
        <time>2010-10-10T09:12:38Z</time>
      </trkpt>
      <trkpt lat="44.04262" lon="6.92673">
        <ele>1711.05232</ele>
        <time>2010-10-10T09:12:40Z</time>
      </trkpt>
      <trkpt lat="44.04258" lon="6.92669">
        <ele>1711.855393</ele>
        <time>2010-10-10T09:12:43Z</time>
      </trkpt>
      <trkpt lat="44.04254" lon="6.92662">
        <ele>1712.522913</ele>
        <time>2010-10-10T09:12:47Z</time>
      </trkpt>
      <trkpt lat="44.0425" lon="6.92658">
        <ele>1713.052026</ele>
        <time>2010-10-10T09:12:50Z</time>
      </trkpt>
      <trkpt lat="44.04248" lon="6.92655">
        <ele>1713.39789</ele>
        <time>2010-10-10T09:12:52Z</time>
      </trkpt>
      <trkpt lat="44.04244" lon="6.9265">
        <ele>1713.645387</ele>
        <time>2010-10-10T09:12:55Z</time>
      </trkpt>
      <trkpt lat="44.04239" lon="6.92644">
        <ele>1713.850749</ele>
        <time>2010-10-10T09:12:59Z</time>
      </trkpt>
      <trkpt lat="44.04235" lon="6.9264">
        <ele>1713.81685</ele>
        <time>2010-10-10T09:13:02Z</time>
      </trkpt>
      <trkpt lat="44.04233" lon="6.92637">
        <ele>1713.59467</ele>
        <time>2010-10-10T09:13:04Z</time>
      </trkpt>
      <trkpt lat="44.0423" lon="6.92634">
        <ele>1713.437244</ele>
        <time>2010-10-10T09:13:07Z</time>
      </trkpt>
      <trkpt lat="44.04228" lon="6.92631">
        <ele>1713.243972</ele>
        <time>2010-10-10T09:13:10Z</time>
      </trkpt>
      <trkpt lat="44.04225" lon="6.92628">
        <ele>1712.887492</ele>
        <time>2010-10-10T09:13:14Z</time>
      </trkpt>
      <trkpt lat="44.04222" lon="6.92627">
        <ele>1712.536316</ele>
        <time>2010-10-10T09:13:17Z</time>
      </trkpt>
      <trkpt lat="44.04216" lon="6.92626">
        <ele>1712.373812</ele>
        <time>2010-10-10T09:13:23Z</time>
      </trkpt>
      <trkpt lat="44.04213" lon="6.92627">
        <ele>1712.351672</ele>
        <time>2010-10-10T09:13:26Z</time>
      </trkpt>
      <trkpt lat="44.04208" lon="6.92628">
        <ele>1712.657675</ele>
        <time>2010-10-10T09:13:31Z</time>
      </trkpt>
      <trkpt lat="44.04209" lon="6.92632">
        <ele>1713.820585</ele>
        <time>2010-10-10T09:13:35Z</time>
      </trkpt>
      <trkpt lat="44.04212" lon="6.92633">
        <ele>1715.790354</ele>
        <time>2010-10-10T09:13:38Z</time>
      </trkpt>
      <trkpt lat="44.04219" lon="6.92638">
        <ele>1717.610736</ele>
        <time>2010-10-10T09:13:43Z</time>
      </trkpt>
      <trkpt lat="44.04224" lon="6.92641">
        <ele>1718.556548</ele>
        <time>2010-10-10T09:13:46Z</time>
      </trkpt>
      <trkpt lat="44.0423" lon="6.92645">
        <ele>1718.749098</ele>
        <time>2010-10-10T09:13:49Z</time>
      </trkpt>
      <trkpt lat="44.04234" lon="6.92653">
        <ele>1718.209877</ele>
        <time>2010-10-10T09:13:52Z</time>
      </trkpt>
      <trkpt lat="44.04238" lon="6.92662">
        <ele>1716.567053</ele>
        <time>2010-10-10T09:13:55Z</time>
      </trkpt>
      <trkpt lat="44.0424" lon="6.92667">
        <ele>1714.164678</ele>
        <time>2010-10-10T09:13:57Z</time>
      </trkpt>
      <trkpt lat="44.04244" lon="6.92673">
        <ele>1712.01756</ele>
        <time>2010-10-10T09:14:00Z</time>
      </trkpt>
      <trkpt lat="44.04246" lon="6.9268">
        <ele>1710.555161</ele>
        <time>2010-10-10T09:14:03Z</time>
      </trkpt>
      <trkpt lat="44.04248" lon="6.92686">
        <ele>1709.673094</ele>
        <time>2010-10-10T09:14:05Z</time>
      </trkpt>
      <trkpt lat="44.0425" lon="6.92696">
        <ele>1709.15013</ele>
        <time>2010-10-10T09:14:08Z</time>
      </trkpt>
      <trkpt lat="44.04251" lon="6.92706">
        <ele>1708.47587</ele>
        <time>2010-10-10T09:14:11Z</time>
      </trkpt>
      <trkpt lat="44.04251" lon="6.92717">
        <ele>1707.467715</ele>
        <time>2010-10-10T09:14:14Z</time>
      </trkpt>
      <trkpt lat="44.04249" lon="6.92728">
        <ele>1706.487204</ele>
        <time>2010-10-10T09:14:17Z</time>
      </trkpt>
      <trkpt lat="44.04248" lon="6.92735">
        <ele>1705.78117</ele>
        <time>2010-10-10T09:14:19Z</time>
      </trkpt>
      <trkpt lat="44.04246" lon="6.92744">
        <ele>1705.391454</ele>
        <time>2010-10-10T09:14:22Z</time>
      </trkpt>
      <trkpt lat="44.04244" lon="6.9275">
        <ele>1705.299559</ele>
        <time>2010-10-10T09:14:24Z</time>
      </trkpt>
      <trkpt lat="44.04242" lon="6.92756">
        <ele>1705.203322</ele>
        <time>2010-10-10T09:14:26Z</time>
      </trkpt>
      <trkpt lat="44.04241" lon="6.92762">
        <ele>1704.762991</ele>
        <time>2010-10-10T09:14:28Z</time>
      </trkpt>
      <trkpt lat="44.04239" lon="6.9277">
        <ele>1704.065147</ele>
        <time>2010-10-10T09:14:31Z</time>
      </trkpt>
      <trkpt lat="44.04236" lon="6.92775">
        <ele>1703.527679</ele>
        <time>2010-10-10T09:14:33Z</time>
      </trkpt>
      <trkpt lat="44.04234" lon="6.9278">
        <ele>1703.322352</ele>
        <time>2010-10-10T09:14:35Z</time>
      </trkpt>
      <trkpt lat="44.0423" lon="6.92787">
        <ele>1703.321093</ele>
        <time>2010-10-10T09:14:38Z</time>
      </trkpt>
      <trkpt lat="44.04226" lon="6.92794">
        <ele>1703.378655</ele>
        <time>2010-10-10T09:14:41Z</time>
      </trkpt>
      <trkpt lat="44.04222" lon="6.92801">
        <ele>1703.69866</ele>
        <time>2010-10-10T09:14:44Z</time>
      </trkpt>
      <trkpt lat="44.04219" lon="6.92807">
        <ele>1704.434873</ele>
        <time>2010-10-10T09:14:47Z</time>
      </trkpt>
      <trkpt lat="44.04215" lon="6.92813">
        <ele>1705.311841</ele>
        <time>2010-10-10T09:14:50Z</time>
      </trkpt>
      <trkpt lat="44.04212" lon="6.9282">
        <ele>1706.017514</ele>
        <time>2010-10-10T09:14:53Z</time>
      </trkpt>
      <trkpt lat="44.04208" lon="6.92826">
        <ele>1706.43647</ele>
        <time>2010-10-10T09:14:56Z</time>
      </trkpt>
      <trkpt lat="44.04206" lon="6.9283">
        <ele>1706.688634</ele>
        <time>2010-10-10T09:14:58Z</time>
      </trkpt>
      <trkpt lat="44.04203" lon="6.92837">
        <ele>1707.153052</ele>
        <time>2010-10-10T09:15:01Z</time>
      </trkpt>
      <trkpt lat="44.042" lon="6.92841">
        <ele>1707.824598</ele>
        <time>2010-10-10T09:15:03Z</time>
      </trkpt>
      <trkpt lat="44.04196" lon="6.92846">
        <ele>1708.335439</ele>
        <time>2010-10-10T09:15:06Z</time>
      </trkpt>
      <trkpt lat="44.04193" lon="6.92849">
        <ele>1708.528243</ele>
        <time>2010-10-10T09:15:08Z</time>
      </trkpt>
      <trkpt lat="44.04189" lon="6.92855">
        <ele>1708.527679</ele>
        <time>2010-10-10T09:15:11Z</time>
      </trkpt>
      <trkpt lat="44.04187" lon="6.92859">
        <ele>1708.610498</ele>
        <time>2010-10-10T09:15:13Z</time>
      </trkpt>
      <trkpt lat="44.04185" lon="6.92864">
        <ele>1708.928917</ele>
        <time>2010-10-10T09:15:15Z</time>
      </trkpt>
      <trkpt lat="44.04184" lon="6.92868">
        <ele>1709.282939</ele>
        <time>2010-10-10T09:15:17Z</time>
      </trkpt>
      <trkpt lat="44.04182" lon="6.92875">
        <ele>1709.458431</ele>
        <time>2010-10-10T09:15:20Z</time>
      </trkpt>
      <trkpt lat="44.04179" lon="6.92885">
        <ele>1709.489532</ele>
        <time>2010-10-10T09:15:25Z</time>
      </trkpt>
      <trkpt lat="44.04179" lon="6.92905">
        <ele>1709.462923</ele>
        <time>2010-10-10T09:15:30Z</time>
      </trkpt>
      <trkpt lat="44.0418" lon="6.92914">
        <ele>1709.434067</ele>
        <time>2010-10-10T09:15:32Z</time>
      </trkpt>
      <trkpt lat="44.04183" lon="6.92923">
        <ele>1709.419973</ele>
        <time>2010-10-10T09:15:34Z</time>
      </trkpt>
      <trkpt lat="44.04188" lon="6.92934">
        <ele>1709.417608</ele>
        <time>2010-10-10T09:15:37Z</time>
      </trkpt>
      <trkpt lat="44.04192" lon="6.9294">
        <ele>1709.419855</ele>
        <time>2010-10-10T09:15:40Z</time>
      </trkpt>
      <trkpt lat="44.04193" lon="6.92943">
        <ele>1709.422234</ele>
        <time>2010-10-10T09:15:42Z</time>
      </trkpt>
      <trkpt lat="44.04194" lon="6.92982">
        <ele>1709.423393</ele>
        <time>2010-10-10T09:16:00Z</time>
      </trkpt>
      <trkpt lat="44.04195" lon="6.92988">
        <ele>1709.423586</ele>
        <time>2010-10-10T09:16:03Z</time>
      </trkpt>
      <trkpt lat="44.04195" lon="6.92993">
        <ele>1709.56158</ele>
        <time>2010-10-10T09:16:05Z</time>
      </trkpt>
      <trkpt lat="44.04199" lon="6.93031">
        <ele>1711.579428</ele>
        <time>2010-10-10T09:16:24Z</time>
      </trkpt>
      <trkpt lat="44.04199" lon="6.93035">
        <ele>1716.543865</ele>
        <time>2010-10-10T09:16:27Z</time>
      </trkpt>
      <trkpt lat="44.04198" lon="6.93042">
        <ele>1722.010328</ele>
        <time>2010-10-10T09:16:31Z</time>
      </trkpt>
      <trkpt lat="44.04197" lon="6.9305">
        <ele>1726.482405</ele>
        <time>2010-10-10T09:16:35Z</time>
      </trkpt>
      <trkpt lat="44.04196" lon="6.93054">
        <ele>1730.868002</ele>
        <time>2010-10-10T09:16:37Z</time>
      </trkpt>
      <trkpt lat="44.04195" lon="6.93064">
        <ele>1734.805765</ele>
        <time>2010-10-10T09:16:42Z</time>
      </trkpt>
      <trkpt lat="44.04195" lon="6.93069">
        <ele>1737.699777</ele>
        <time>2010-10-10T09:16:45Z</time>
      </trkpt>
      <trkpt lat="44.04195" lon="6.93074">
        <ele>1739.680532</ele>
        <time>2010-10-10T09:16:48Z</time>
      </trkpt>
      <trkpt lat="44.04195" lon="6.93079">
        <ele>1740.759963</ele>
        <time>2010-10-10T09:16:51Z</time>
      </trkpt>
      <trkpt lat="44.04194" lon="6.93087">
        <ele>1741.401468</ele>
        <time>2010-10-10T09:16:56Z</time>
      </trkpt>
      <trkpt lat="44.04193" lon="6.93091">
        <ele>1741.970475</ele>
        <time>2010-10-10T09:16:58Z</time>
      </trkpt>
      <trkpt lat="44.04192" lon="6.93097">
        <ele>1742.491932</ele>
        <time>2010-10-10T09:17:01Z</time>
      </trkpt>
      <trkpt lat="44.04192" lon="6.93101">
        <ele>1743.254275</ele>
        <time>2010-10-10T09:17:03Z</time>
      </trkpt>
      <trkpt lat="44.04192" lon="6.93106">
        <ele>1744.60547</ele>
        <time>2010-10-10T09:17:06Z</time>
      </trkpt>
      <trkpt lat="44.04191" lon="6.93112">
        <ele>1746.469006</ele>
        <time>2010-10-10T09:17:13Z</time>
      </trkpt>
      <trkpt lat="44.04191" lon="6.93112">
        <ele>1748.273669</ele>
        <time>2010-10-10T09:17:21Z</time>
      </trkpt>
      <trkpt lat="44.04162" lon="6.93108">
        <ele>1749.514288</ele>
        <time>2010-10-10T09:17:41Z</time>
      </trkpt>
      <trkpt lat="44.04159" lon="6.93105">
        <ele>1750.327172</ele>
        <time>2010-10-10T09:17:45Z</time>
      </trkpt>
      <trkpt lat="44.04156" lon="6.93101">
        <ele>1750.979123</ele>
        <time>2010-10-10T09:17:48Z</time>
      </trkpt>
      <trkpt lat="44.04154" lon="6.93097">
        <ele>1752.757711</ele>
        <time>2010-10-10T09:17:51Z</time>
      </trkpt>
      <trkpt lat="44.04152" lon="6.93094">
        <ele>1756.469251</ele>
        <time>2010-10-10T09:17:53Z</time>
      </trkpt>
      <trkpt lat="44.0415" lon="6.9309">
        <ele>1760.273394</ele>
        <time>2010-10-10T09:17:56Z</time>
      </trkpt>
      <trkpt lat="44.04145" lon="6.93082">
        <ele>1762.470641</ele>
        <time>2010-10-10T09:17:59Z</time>
      </trkpt>
      <trkpt lat="44.04143" lon="6.9308">
        <ele>1763.571346</ele>
        <time>2010-10-10T09:18:01Z</time>
      </trkpt>
      <trkpt lat="44.04139" lon="6.9307">
        <ele>1764.443509</ele>
        <time>2010-10-10T09:18:09Z</time>
      </trkpt>
      <trkpt lat="44.04137" lon="6.93064">
        <ele>1765.574048</ele>
        <time>2010-10-10T09:18:14Z</time>
      </trkpt>
      <trkpt lat="44.04135" lon="6.9306">
        <ele>1766.708007</ele>
        <time>2010-10-10T09:18:23Z</time>
      </trkpt>
      <trkpt lat="44.04135" lon="6.9306">
        <ele>1767.376766</ele>
        <time>2010-10-10T09:18:26Z</time>
      </trkpt>
      <trkpt lat="44.04135" lon="6.9306">
        <ele>1767.556564</ele>
        <time>2010-10-10T09:18:42Z</time>
      </trkpt>
      <trkpt lat="44.04147" lon="6.93107">
        <ele>1767.501221</ele>
        <time>2010-10-10T09:18:59Z</time>
      </trkpt>
      <trkpt lat="44.04146" lon="6.93118">
        <ele>1767.546549</ele>
        <time>2010-10-10T09:19:05Z</time>
      </trkpt>
      <trkpt lat="44.04145" lon="6.93124">
        <ele>1768.957801</ele>
        <time>2010-10-10T09:19:08Z</time>
      </trkpt>
      <trkpt lat="44.04145" lon="6.93127">
        <ele>1772.192181</ele>
        <time>2010-10-10T09:19:10Z</time>
      </trkpt>
      <trkpt lat="44.04144" lon="6.93133">
        <ele>1775.604039</ele>
        <time>2010-10-10T09:19:13Z</time>
      </trkpt>
      <trkpt lat="44.04144" lon="6.93138">
        <ele>1777.76009</ele>
        <time>2010-10-10T09:19:15Z</time>
      </trkpt>
      <trkpt lat="44.04144" lon="6.93143">
        <ele>1778.823793</ele>
        <time>2010-10-10T09:19:17Z</time>
      </trkpt>
      <trkpt lat="44.04144" lon="6.93147">
        <ele>1779.403523</ele>
        <time>2010-10-10T09:19:19Z</time>
      </trkpt>
      <trkpt lat="44.04144" lon="6.93153">
        <ele>1779.930557</ele>
        <time>2010-10-10T09:19:22Z</time>
      </trkpt>
      <trkpt lat="44.04145" lon="6.93161">
        <ele>1780.438051</ele>
        <time>2010-10-10T09:19:25Z</time>
      </trkpt>
      <trkpt lat="44.04145" lon="6.93167">
        <ele>1780.925498</ele>
        <time>2010-10-10T09:19:28Z</time>
      </trkpt>
      <trkpt lat="44.04146" lon="6.93174">
        <ele>1781.423807</ele>
        <time>2010-10-10T09:19:31Z</time>
      </trkpt>
      <trkpt lat="44.04146" lon="6.93186">
        <ele>1781.915629</ele>
        <time>2010-10-10T09:19:33Z</time>
      </trkpt>
      <trkpt lat="44.04146" lon="6.93193">
        <ele>1782.281671</ele>
        <time>2010-10-10T09:19:36Z</time>
      </trkpt>
      <trkpt lat="44.04146" lon="6.932">
        <ele>1782.554975</ele>
        <time>2010-10-10T09:19:40Z</time>
      </trkpt>
      <trkpt lat="44.04147" lon="6.93209">
        <ele>1782.912185</ele>
        <time>2010-10-10T09:19:45Z</time>
      </trkpt>
      <trkpt lat="44.04148" lon="6.93214">
        <ele>1783.379291</ele>
        <time>2010-10-10T09:19:47Z</time>
      </trkpt>
      <trkpt lat="44.04152" lon="6.93229">
        <ele>1784.022941</ele>
        <time>2010-10-10T09:19:56Z</time>
      </trkpt>
      <trkpt lat="44.04153" lon="6.93235">
        <ele>1785.044383</ele>
        <time>2010-10-10T09:20:02Z</time>
      </trkpt>
      <trkpt lat="44.04154" lon="6.93239">
        <ele>1786.279243</ele>
        <time>2010-10-10T09:20:05Z</time>
      </trkpt>
      <trkpt lat="44.04154" lon="6.93239">
        <ele>1787.193147</ele>
        <time>2010-10-10T09:20:16Z</time>
      </trkpt>
      <trkpt lat="44.04163" lon="6.93279">
        <ele>1787.804895</ele>
        <time>2010-10-10T09:20:31Z</time>
      </trkpt>
      <trkpt lat="44.04168" lon="6.93296">
        <ele>1788.654679</ele>
        <time>2010-10-10T09:20:38Z</time>
      </trkpt>
      <trkpt lat="44.0417" lon="6.93302">
        <ele>1790.066274</ele>
        <time>2010-10-10T09:20:41Z</time>
      </trkpt>
      <trkpt lat="44.04171" lon="6.93308">
        <ele>1792.897204</ele>
        <time>2010-10-10T09:20:44Z</time>
      </trkpt>
      <trkpt lat="44.04172" lon="6.93317">
        <ele>1797.362591</ele>
        <time>2010-10-10T09:20:47Z</time>
      </trkpt>
      <trkpt lat="44.04173" lon="6.93323">
        <ele>1801.531239</ele>
        <time>2010-10-10T09:20:49Z</time>
      </trkpt>
      <trkpt lat="44.04174" lon="6.9333">
        <ele>1803.67</ele>
        <time>2010-10-10T09:20:52Z</time>
      </trkpt>
      <trkpt lat="44.04175" lon="6.93337">
        <ele>1804.090542</ele>
        <time>2010-10-10T09:20:55Z</time>
      </trkpt>
      <trkpt lat="44.04176" lon="6.93342">
        <ele>1803.797404</ele>
        <time>2010-10-10T09:21:00Z</time>
      </trkpt>
      <trkpt lat="44.04176" lon="6.93346">
        <ele>1803.457158</ele>
        <time>2010-10-10T09:21:04Z</time>
      </trkpt>
      <trkpt lat="44.04176" lon="6.93352">
        <ele>1803.423012</ele>
        <time>2010-10-10T09:21:07Z</time>
      </trkpt>
      <trkpt lat="44.04176" lon="6.93358">
        <ele>1803.750273</ele>
        <time>2010-10-10T09:21:10Z</time>
      </trkpt>
      <trkpt lat="44.04175" lon="6.93363">
        <ele>1804.282454</ele>
        <time>2010-10-10T09:21:13Z</time>
      </trkpt>
      <trkpt lat="44.04175" lon="6.93367">
        <ele>1804.983563</ele>
        <time>2010-10-10T09:21:16Z</time>
      </trkpt>
      <trkpt lat="44.04174" lon="6.93373">
        <ele>1805.891491</ele>
        <time>2010-10-10T09:21:19Z</time>
      </trkpt>
      <trkpt lat="44.04172" lon="6.93377">
        <ele>1806.90681</ele>
        <time>2010-10-10T09:21:21Z</time>
      </trkpt>
      <trkpt lat="44.0417" lon="6.93385">
        <ele>1807.943955</ele>
        <time>2010-10-10T09:21:28Z</time>
      </trkpt>
      <trkpt lat="44.04168" lon="6.9339">
        <ele>1808.828738</ele>
        <time>2010-10-10T09:21:31Z</time>
      </trkpt>
      <trkpt lat="44.04166" lon="6.93394">
        <ele>1809.336748</ele>
        <time>2010-10-10T09:21:34Z</time>
      </trkpt>
      <trkpt lat="44.04164" lon="6.93399">
        <ele>1809.466666</ele>
        <time>2010-10-10T09:21:37Z</time>
      </trkpt>
      <trkpt lat="44.0416" lon="6.93408">
        <ele>1809.557792</ele>
        <time>2010-10-10T09:21:40Z</time>
      </trkpt>
      <trkpt lat="44.04153" lon="6.93416">
        <ele>1809.845278</ele>
        <time>2010-10-10T09:21:45Z</time>
      </trkpt>
      <trkpt lat="44.04153" lon="6.93416">
        <ele>1810.035495</ele>
        <time>2010-10-10T09:21:57Z</time>
      </trkpt>
      <trkpt lat="44.04132" lon="6.93389">
        <ele>1809.840643</ele>
        <time>2010-10-10T09:22:23Z</time>
      </trkpt>
      <trkpt lat="44.04129" lon="6.93387">
        <ele>1809.778107</ele>
        <time>2010-10-10T09:22:26Z</time>
      </trkpt>
      <trkpt lat="44.04126" lon="6.93385">
        <ele>1810.574934</ele>
        <time>2010-10-10T09:22:29Z</time>
      </trkpt>
      <trkpt lat="44.04122" lon="6.93384">
        <ele>1813.085684</ele>
        <time>2010-10-10T09:22:32Z</time>
      </trkpt>
      <trkpt lat="44.04119" lon="6.93383">
        <ele>1817.347235</ele>
        <time>2010-10-10T09:22:36Z</time>
      </trkpt>
      <trkpt lat="44.04115" lon="6.93382">
        <ele>1821.730149</ele>
        <time>2010-10-10T09:22:39Z</time>
      </trkpt>
      <trkpt lat="44.04112" lon="6.93381">
        <ele>1824.738243</ele>
        <time>2010-10-10T09:22:42Z</time>
      </trkpt>
      <trkpt lat="44.04104" lon="6.93382">
        <ele>1826.283776</ele>
        <time>2010-10-10T09:22:48Z</time>
      </trkpt>
      <trkpt lat="44.04095" lon="6.93384">
        <ele>1826.727069</ele>
        <time>2010-10-10T09:22:54Z</time>
      </trkpt>
      <trkpt lat="44.0408" lon="6.93385">
        <ele>1826.620054</ele>
        <time>2010-10-10T09:23:02Z</time>
      </trkpt>
      <trkpt lat="44.04077" lon="6.93384">
        <ele>1826.413277</ele>
        <time>2010-10-10T09:23:05Z</time>
      </trkpt>
      <trkpt lat="44.0407" lon="6.93374">
        <ele>1826.150093</ele>
        <time>2010-10-10T09:23:11Z</time>
      </trkpt>
      <trkpt lat="44.04068" lon="6.93368">
        <ele>1825.064213</ele>
        <time>2010-10-10T09:23:14Z</time>
      </trkpt>
      <trkpt lat="44.04066" lon="6.93358">
        <ele>1822.904533</ele>
        <time>2010-10-10T09:23:19Z</time>
      </trkpt>
      <trkpt lat="44.04066" lon="6.9335">
        <ele>1820.899026</ele>
        <time>2010-10-10T09:23:22Z</time>
      </trkpt>
      <trkpt lat="44.04065" lon="6.93342">
        <ele>1820.006293</ele>
        <time>2010-10-10T09:23:25Z</time>
      </trkpt>
      <trkpt lat="44.04065" lon="6.93335">
        <ele>1820.320925</ele>
        <time>2010-10-10T09:23:28Z</time>
      </trkpt>
      <trkpt lat="44.04065" lon="6.93327">
        <ele>1821.717992</ele>
        <time>2010-10-10T09:23:31Z</time>
      </trkpt>
      <trkpt lat="44.04065" lon="6.9332">
        <ele>1823.349398</ele>
        <time>2010-10-10T09:23:34Z</time>
      </trkpt>
      <trkpt lat="44.04065" lon="6.93313">
        <ele>1824.45445</ele>
        <time>2010-10-10T09:23:37Z</time>
      </trkpt>
      <trkpt lat="44.04064" lon="6.93305">
        <ele>1825.076562</ele>
        <time>2010-10-10T09:23:41Z</time>
      </trkpt>
      <trkpt lat="44.04062" lon="6.93299">
        <ele>1825.367692</ele>
        <time>2010-10-10T09:23:46Z</time>
      </trkpt>
      <trkpt lat="44.04061" lon="6.93295">
        <ele>1825.547536</ele>
        <time>2010-10-10T09:23:49Z</time>
      </trkpt>
      <trkpt lat="44.04059" lon="6.93291">
        <ele>1825.855799</ele>
        <time>2010-10-10T09:23:53Z</time>
      </trkpt>
      <trkpt lat="44.04057" lon="6.93286">
        <ele>1826.312709</ele>
        <time>2010-10-10T09:23:57Z</time>
      </trkpt>
      <trkpt lat="44.04055" lon="6.9328">
        <ele>1826.824437</ele>
        <time>2010-10-10T09:24:01Z</time>
      </trkpt>
      <trkpt lat="44.04054" lon="6.93275">
        <ele>1827.631759</ele>
        <time>2010-10-10T09:24:04Z</time>
      </trkpt>
      <trkpt lat="44.04052" lon="6.93271">
        <ele>1829.137347</ele>
        <time>2010-10-10T09:24:07Z</time>
      </trkpt>
      <trkpt lat="44.04049" lon="6.93266">
        <ele>1831.24233</ele>
        <time>2010-10-10T09:24:10Z</time>
      </trkpt>
      <trkpt lat="44.04047" lon="6.93262">
        <ele>1833.322732</ele>
        <time>2010-10-10T09:24:13Z</time>
      </trkpt>
      <trkpt lat="44.04043" lon="6.93256">
        <ele>1834.957882</ele>
        <time>2010-10-10T09:24:19Z</time>
      </trkpt>
      <trkpt lat="44.0404" lon="6.9325">
        <ele>1836.127039</ele>
        <time>2010-10-10T09:24:24Z</time>
      </trkpt>
      <trkpt lat="44.04038" lon="6.93246">
        <ele>1836.934469</ele>
        <time>2010-10-10T09:24:27Z</time>
      </trkpt>
      <trkpt lat="44.04032" lon="6.93236">
        <ele>1837.346689</ele>
        <time>2010-10-10T09:24:37Z</time>
      </trkpt>
      <trkpt lat="44.04032" lon="6.93236">
        <ele>1837.426612</ele>
        <time>2010-10-10T09:24:48Z</time>
      </trkpt>
      <trkpt lat="44.0402" lon="6.93202">
        <ele>1837.645611</ele>
        <time>2010-10-10T09:25:02Z</time>
      </trkpt>
      <trkpt lat="44.04018" lon="6.93199">
        <ele>1838.29948</ele>
        <time>2010-10-10T09:25:04Z</time>
      </trkpt>
      <trkpt lat="44.04015" lon="6.93196">
        <ele>1839.281473</ele>
        <time>2010-10-10T09:25:07Z</time>
      </trkpt>
      <trkpt lat="44.04013" lon="6.93193">
        <ele>1841.45097</ele>
        <time>2010-10-10T09:25:09Z</time>
      </trkpt>
      <trkpt lat="44.04011" lon="6.93189">
        <ele>1845.126788</ele>
        <time>2010-10-10T09:25:11Z</time>
      </trkpt>
      <trkpt lat="44.04009" lon="6.93186">
        <ele>1848.378155</ele>
        <time>2010-10-10T09:25:13Z</time>
      </trkpt>
      <trkpt lat="44.04007" lon="6.93182">
        <ele>1850.190283</ele>
        <time>2010-10-10T09:25:15Z</time>
      </trkpt>
      <trkpt lat="44.04003" lon="6.93175">
        <ele>1851.394508</ele>
        <time>2010-10-10T09:25:18Z</time>
      </trkpt>
      <trkpt lat="44.04001" lon="6.93169">
        <ele>1852.336432</ele>
        <time>2010-10-10T09:25:20Z</time>
      </trkpt>
      <trkpt lat="44.03998" lon="6.93164">
        <ele>1852.957599</ele>
        <time>2010-10-10T09:25:23Z</time>
      </trkpt>
      <trkpt lat="44.03996" lon="6.93157">
        <ele>1853.432669</ele>
        <time>2010-10-10T09:25:26Z</time>
      </trkpt>
      <trkpt lat="44.03992" lon="6.93148">
        <ele>1854.283434</ele>
        <time>2010-10-10T09:25:29Z</time>
      </trkpt>
      <trkpt lat="44.0399" lon="6.93143">
        <ele>1855.83213</ele>
        <time>2010-10-10T09:25:32Z</time>
      </trkpt>
      <trkpt lat="44.03988" lon="6.93139">
        <ele>1857.562987</ele>
        <time>2010-10-10T09:25:34Z</time>
      </trkpt>
      <trkpt lat="44.03983" lon="6.93132">
        <ele>1858.955608</ele>
        <time>2010-10-10T09:25:39Z</time>
      </trkpt>
      <trkpt lat="44.03981" lon="6.93128">
        <ele>1860.041983</ele>
        <time>2010-10-10T09:25:42Z</time>
      </trkpt>
      <trkpt lat="44.03979" lon="6.93124">
        <ele>1860.994446</ele>
        <time>2010-10-10T09:25:46Z</time>
      </trkpt>
      <trkpt lat="44.03977" lon="6.93121">
        <ele>1861.933466</ele>
        <time>2010-10-10T09:25:49Z</time>
      </trkpt>
      <trkpt lat="44.03975" lon="6.93117">
        <ele>1862.762349</ele>
        <time>2010-10-10T09:25:52Z</time>
      </trkpt>
      <trkpt lat="44.03974" lon="6.93113">
        <ele>1863.25627</ele>
        <time>2010-10-10T09:25:55Z</time>
      </trkpt>
      <trkpt lat="44.03969" lon="6.93105">
        <ele>1863.529695</ele>
        <time>2010-10-10T09:26:01Z</time>
      </trkpt>
      <trkpt lat="44.03965" lon="6.93103">
        <ele>1863.850556</ele>
        <time>2010-10-10T09:26:04Z</time>
      </trkpt>
      <trkpt lat="44.03956" lon="6.93093">
        <ele>1864.428457</ele>
        <time>2010-10-10T09:26:11Z</time>
      </trkpt>
      <trkpt lat="44.03952" lon="6.93088">
        <ele>1865.698095</ele>
        <time>2010-10-10T09:26:14Z</time>
      </trkpt>
      <trkpt lat="44.03948" lon="6.93083">
        <ele>1867.532468</ele>
        <time>2010-10-10T09:26:17Z</time>
      </trkpt>
      <trkpt lat="44.03944" lon="6.93078">
        <ele>1869.379161</ele>
        <time>2010-10-10T09:26:20Z</time>
      </trkpt>
      <trkpt lat="44.03941" lon="6.93072">
        <ele>1871.013097</ele>
        <time>2010-10-10T09:26:24Z</time>
      </trkpt>
      <trkpt lat="44.03939" lon="6.93068">
        <ele>1872.130119</ele>
        <time>2010-10-10T09:26:27Z</time>
      </trkpt>
      <trkpt lat="44.03937" lon="6.93065">
        <ele>1872.504537</ele>
        <time>2010-10-10T09:26:29Z</time>
      </trkpt>
      <trkpt lat="44.03934" lon="6.93061">
        <ele>1872.467818</ele>
        <time>2010-10-10T09:26:32Z</time>
      </trkpt>
      <trkpt lat="44.03931" lon="6.93056">
        <ele>1872.33352</ele>
        <time>2010-10-10T09:26:35Z</time>
      </trkpt>
      <trkpt lat="44.03928" lon="6.93051">
        <ele>1872.10481</ele>
        <time>2010-10-10T09:26:38Z</time>
      </trkpt>
      <trkpt lat="44.03925" lon="6.93047">
        <ele>1871.7151</ele>
        <time>2010-10-10T09:26:41Z</time>
      </trkpt>
      <trkpt lat="44.03922" lon="6.93042">
        <ele>1871.349031</ele>
        <time>2010-10-10T09:26:44Z</time>
      </trkpt>
      <trkpt lat="44.0392" lon="6.93039">
        <ele>1871.18479</ele>
        <time>2010-10-10T09:26:46Z</time>
      </trkpt>
      <trkpt lat="44.03918" lon="6.93035">
        <ele>1871.165583</ele>
        <time>2010-10-10T09:26:49Z</time>
      </trkpt>
      <trkpt lat="44.03915" lon="6.93029">
        <ele>1871.197935</ele>
        <time>2010-10-10T09:26:55Z</time>
      </trkpt>
      <trkpt lat="44.03911" lon="6.93025">
        <ele>1871.227735</ele>
        <time>2010-10-10T09:27:01Z</time>
      </trkpt>
      <trkpt lat="44.03909" lon="6.93023">
        <ele>1871.379097</ele>
        <time>2010-10-10T09:27:06Z</time>
      </trkpt>
      <trkpt lat="44.03906" lon="6.93021">
        <ele>1872.01675</ele>
        <time>2010-10-10T09:27:11Z</time>
      </trkpt>
      <trkpt lat="44.03903" lon="6.9302">
        <ele>1873.103254</ele>
        <time>2010-10-10T09:27:15Z</time>
      </trkpt>
      <trkpt lat="44.039" lon="6.9302">
        <ele>1874.014939</ele>
        <time>2010-10-10T09:27:18Z</time>
      </trkpt>
      <trkpt lat="44.03896" lon="6.93021">
        <ele>1874.390928</ele>
        <time>2010-10-10T09:27:22Z</time>
      </trkpt>
      <trkpt lat="44.03894" lon="6.93023">
        <ele>1874.552075</ele>
        <time>2010-10-10T09:27:26Z</time>
      </trkpt>
      <trkpt lat="44.03895" lon="6.93027">
        <ele>1874.822101</ele>
        <time>2010-10-10T09:27:31Z</time>
      </trkpt>
      <trkpt lat="44.03899" lon="6.93032">
        <ele>1875.117409</ele>
        <time>2010-10-10T09:27:36Z</time>
      </trkpt>
      <trkpt lat="44.03902" lon="6.93035">
        <ele>1875.124358</ele>
        <time>2010-10-10T09:27:39Z</time>
      </trkpt>
      <trkpt lat="44.03904" lon="6.93038">
        <ele>1874.789463</ele>
        <time>2010-10-10T09:27:41Z</time>
      </trkpt>
      <trkpt lat="44.03907" lon="6.93042">
        <ele>1874.535658</ele>
        <time>2010-10-10T09:27:44Z</time>
      </trkpt>
      <trkpt lat="44.0391" lon="6.93047">
        <ele>1874.696204</ele>
        <time>2010-10-10T09:27:47Z</time>
      </trkpt>
      <trkpt lat="44.03911" lon="6.93051">
        <ele>1875.027425</ele>
        <time>2010-10-10T09:27:50Z</time>
      </trkpt>
      <trkpt lat="44.03912" lon="6.93056">
        <ele>1875.230764</ele>
        <time>2010-10-10T09:27:53Z</time>
      </trkpt>
      <trkpt lat="44.03914" lon="6.93063">
        <ele>1875.289306</ele>
        <time>2010-10-10T09:27:58Z</time>
      </trkpt>
      <trkpt lat="44.03915" lon="6.93067">
        <ele>1875.275397</ele>
        <time>2010-10-10T09:28:01Z</time>
      </trkpt>
      <trkpt lat="44.03916" lon="6.93071">
        <ele>1875.248262</ele>
        <time>2010-10-10T09:28:04Z</time>
      </trkpt>
      <trkpt lat="44.03918" lon="6.93075">
        <ele>1875.231833</ele>
        <time>2010-10-10T09:28:07Z</time>
      </trkpt>
      <trkpt lat="44.03919" lon="6.93079">
        <ele>1875.227224</ele>
        <time>2010-10-10T09:28:10Z</time>
      </trkpt>
      <trkpt lat="44.03921" lon="6.93088">
        <ele>1875.228447</ele>
        <time>2010-10-10T09:28:16Z</time>
      </trkpt>
      <trkpt lat="44.03921" lon="6.93093">
        <ele>1875.230685</ele>
        <time>2010-10-10T09:28:19Z</time>
      </trkpt>
      <trkpt lat="44.03922" lon="6.93098">
        <ele>1875.232029</ele>
        <time>2010-10-10T09:28:22Z</time>
      </trkpt>
      <trkpt lat="44.03925" lon="6.93105">
        <ele>1875.232407</ele>
        <time>2010-10-10T09:28:27Z</time>
      </trkpt>
      <trkpt lat="44.03927" lon="6.93108">
        <ele>1875.232309</ele>
        <time>2010-10-10T09:28:30Z</time>
      </trkpt>
      <trkpt lat="44.03927" lon="6.93114">
        <ele>1875.232129</ele>
        <time>2010-10-10T09:28:41Z</time>
      </trkpt>
      <trkpt lat="44.03927" lon="6.93114">
        <ele>1875.232024</ele>
        <time>2010-10-10T09:28:42Z</time>
      </trkpt>
      <trkpt lat="44.039" lon="6.93103">
        <ele>1875.508357</ele>
        <time>2010-10-10T09:29:04Z</time>
      </trkpt>
      <trkpt lat="44.03896" lon="6.93103">
        <ele>1876.366338</ele>
        <time>2010-10-10T09:29:07Z</time>
      </trkpt>
      <trkpt lat="44.03892" lon="6.93102">
        <ele>1877.603304</ele>
        <time>2010-10-10T09:29:10Z</time>
      </trkpt>
      <trkpt lat="44.03888" lon="6.93102">
        <ele>1879.51223</ele>
        <time>2010-10-10T09:29:13Z</time>
      </trkpt>
      <trkpt lat="44.03885" lon="6.93103">
        <ele>1882.407501</ele>
        <time>2010-10-10T09:29:16Z</time>
      </trkpt>
      <trkpt lat="44.03881" lon="6.93104">
        <ele>1885.402151</ele>
        <time>2010-10-10T09:29:19Z</time>
      </trkpt>
      <trkpt lat="44.03878" lon="6.93105">
        <ele>1887.617426</ele>
        <time>2010-10-10T09:29:22Z</time>
      </trkpt>
      <trkpt lat="44.03875" lon="6.93107">
        <ele>1889.238691</ele>
        <time>2010-10-10T09:29:25Z</time>
      </trkpt>
      <trkpt lat="44.03872" lon="6.93109">
        <ele>1890.614972</ele>
        <time>2010-10-10T09:29:29Z</time>
      </trkpt>
      <trkpt lat="44.03871" lon="6.93113">
        <ele>1891.720296</ele>
        <time>2010-10-10T09:29:37Z</time>
      </trkpt>
      <trkpt lat="44.03867" lon="6.93117">
        <ele>1892.573862</ele>
        <time>2010-10-10T09:29:40Z</time>
      </trkpt>
      <trkpt lat="44.0386" lon="6.93123">
        <ele>1893.412758</ele>
        <time>2010-10-10T09:29:44Z</time>
      </trkpt>
      <trkpt lat="44.03855" lon="6.93128">
        <ele>1894.214913</ele>
        <time>2010-10-10T09:29:47Z</time>
      </trkpt>
      <trkpt lat="44.03851" lon="6.93131">
        <ele>1894.973254</ele>
        <time>2010-10-10T09:29:49Z</time>
      </trkpt>
      <trkpt lat="44.03845" lon="6.93136">
        <ele>1895.847291</ele>
        <time>2010-10-10T09:29:52Z</time>
      </trkpt>
      <trkpt lat="44.03838" lon="6.93138">
        <ele>1896.682636</ele>
        <time>2010-10-10T09:29:55Z</time>
      </trkpt>
      <trkpt lat="44.0383" lon="6.93139">
        <ele>1897.199934</ele>
        <time>2010-10-10T09:29:58Z</time>
      </trkpt>
      <trkpt lat="44.03822" lon="6.9314">
        <ele>1897.350917</ele>
        <time>2010-10-10T09:30:01Z</time>
      </trkpt>
      <trkpt lat="44.03817" lon="6.93139">
        <ele>1897.455238</ele>
        <time>2010-10-10T09:30:03Z</time>
      </trkpt>
      <trkpt lat="44.03812" lon="6.93138">
        <ele>1897.884823</ele>
        <time>2010-10-10T09:30:05Z</time>
      </trkpt>
      <trkpt lat="44.03805" lon="6.93135">
        <ele>1898.572286</ele>
        <time>2010-10-10T09:30:08Z</time>
      </trkpt>
      <trkpt lat="44.038" lon="6.93131">
        <ele>1899.105009</ele>
        <time>2010-10-10T09:30:11Z</time>
      </trkpt>
      <trkpt lat="44.03795" lon="6.93128">
        <ele>1899.309725</ele>
        <time>2010-10-10T09:30:14Z</time>
      </trkpt>
      <trkpt lat="44.03791" lon="6.93126">
        <ele>1899.311875</ele>
        <time>2010-10-10T09:30:16Z</time>
      </trkpt>
      <trkpt lat="44.03788" lon="6.93123">
        <ele>1899.255153</ele>
        <time>2010-10-10T09:30:19Z</time>
      </trkpt>
      <trkpt lat="44.03783" lon="6.9312">
        <ele>1899.211878</ele>
        <time>2010-10-10T09:30:21Z</time>
      </trkpt>
      <trkpt lat="44.0378" lon="6.93117">
        <ele>1899.195494</ele>
        <time>2010-10-10T09:30:23Z</time>
      </trkpt>
      <trkpt lat="44.03777" lon="6.93114">
        <ele>1899.195504</ele>
        <time>2010-10-10T09:30:25Z</time>
      </trkpt>
      <trkpt lat="44.03774" lon="6.9311">
        <ele>1899.200182</ele>
        <time>2010-10-10T09:30:28Z</time>
      </trkpt>
      <trkpt lat="44.0377" lon="6.93104">
        <ele>1899.341867</ele>
        <time>2010-10-10T09:30:31Z</time>
      </trkpt>
      <trkpt lat="44.03768" lon="6.93101">
        <ele>1899.703046</ele>
        <time>2010-10-10T09:30:33Z</time>
      </trkpt>
      <trkpt lat="44.03765" lon="6.93098">
        <ele>1900.072446</ele>
        <time>2010-10-10T09:30:35Z</time>
      </trkpt>
      <trkpt lat="44.03761" lon="6.93094">
        <ele>1900.385492</ele>
        <time>2010-10-10T09:30:38Z</time>
      </trkpt>
      <trkpt lat="44.03758" lon="6.9309">
        <ele>1900.909796</ele>
        <time>2010-10-10T09:30:41Z</time>
      </trkpt>
      <trkpt lat="44.03755" lon="6.93088">
        <ele>1901.747192</ele>
        <time>2010-10-10T09:30:43Z</time>
      </trkpt>
      <trkpt lat="44.03751" lon="6.93085">
        <ele>1902.621654</ele>
        <time>2010-10-10T09:30:46Z</time>
      </trkpt>
      <trkpt lat="44.03747" lon="6.93081">
        <ele>1903.178807</ele>
        <time>2010-10-10T09:30:49Z</time>
      </trkpt>
      <trkpt lat="44.03743" lon="6.93078">
        <ele>1903.486791</ele>
        <time>2010-10-10T09:30:52Z</time>
      </trkpt>
      <trkpt lat="44.03739" lon="6.93075">
        <ele>1903.953795</ele>
        <time>2010-10-10T09:30:55Z</time>
      </trkpt>
      <trkpt lat="44.03737" lon="6.93074">
        <ele>1904.749546</ele>
        <time>2010-10-10T09:30:57Z</time>
      </trkpt>
      <trkpt lat="44.03733" lon="6.93072">
        <ele>1905.609022</ele>
        <time>2010-10-10T09:31:00Z</time>
      </trkpt>
      <trkpt lat="44.03729" lon="6.9307">
        <ele>1906.443123</ele>
        <time>2010-10-10T09:31:03Z</time>
      </trkpt>
      <trkpt lat="44.03726" lon="6.93069">
        <ele>1907.613779</ele>
        <time>2010-10-10T09:31:05Z</time>
      </trkpt>
      <trkpt lat="44.03723" lon="6.93067">
        <ele>1909.182917</ele>
        <time>2010-10-10T09:31:07Z</time>
      </trkpt>
      <trkpt lat="44.0372" lon="6.93066">
        <ele>1910.561644</ele>
        <time>2010-10-10T09:31:10Z</time>
      </trkpt>
      <trkpt lat="44.03716" lon="6.93062">
        <ele>1911.289495</ele>
        <time>2010-10-10T09:31:13Z</time>
      </trkpt>
      <trkpt lat="44.03711" lon="6.93057">
        <ele>1911.443987</ele>
        <time>2010-10-10T09:31:16Z</time>
      </trkpt>
      <trkpt lat="44.03707" lon="6.93052">
        <ele>1911.490953</ele>
        <time>2010-10-10T09:31:19Z</time>
      </trkpt>
      <trkpt lat="44.03702" lon="6.93045">
        <ele>1911.738231</ele>
        <time>2010-10-10T09:31:23Z</time>
      </trkpt>
      <trkpt lat="44.03699" lon="6.93039">
        <ele>1912.325314</ele>
        <time>2010-10-10T09:31:26Z</time>
      </trkpt>
      <trkpt lat="44.03695" lon="6.93032">
        <ele>1913.208278</ele>
        <time>2010-10-10T09:31:29Z</time>
      </trkpt>
      <trkpt lat="44.0369" lon="6.93023">
        <ele>1913.981309</ele>
        <time>2010-10-10T09:31:31Z</time>
      </trkpt>
      <trkpt lat="44.03678" lon="6.93006">
        <ele>1914.311025</ele>
        <time>2010-10-10T09:31:34Z</time>
      </trkpt>
      <trkpt lat="44.03666" lon="6.9299">
        <ele>1914.338707</ele>
        <time>2010-10-10T09:31:37Z</time>
      </trkpt>
      <trkpt lat="44.03657" lon="6.92978">
        <ele>1914.265579</ele>
        <time>2010-10-10T09:31:40Z</time>
      </trkpt>
      <trkpt lat="44.03651" lon="6.92969">
        <ele>1914.202702</ele>
        <time>2010-10-10T09:31:43Z</time>
      </trkpt>
      <trkpt lat="44.03647" lon="6.92962">
        <ele>1914.314414</ele>
        <time>2010-10-10T09:31:46Z</time>
      </trkpt>
      <trkpt lat="44.03644" lon="6.92958">
        <ele>1914.810448</ele>
        <time>2010-10-10T09:31:48Z</time>
      </trkpt>
      <trkpt lat="44.03625" lon="6.92929">
        <ele>1915.54574</ele>
        <time>2010-10-10T09:32:09Z</time>
      </trkpt>
      <trkpt lat="44.03624" lon="6.92924">
        <ele>1916.095495</ele>
        <time>2010-10-10T09:32:12Z</time>
      </trkpt>
      <trkpt lat="44.03622" lon="6.9292">
        <ele>1916.299401</ele>
        <time>2010-10-10T09:32:14Z</time>
      </trkpt>
      <trkpt lat="44.03621" lon="6.92915">
        <ele>1916.848793</ele>
        <time>2010-10-10T09:32:17Z</time>
      </trkpt>
      <trkpt lat="44.03607" lon="6.9288">
        <ele>1918.365908</ele>
        <time>2010-10-10T09:32:36Z</time>
      </trkpt>
      <trkpt lat="44.03605" lon="6.92876">
        <ele>1920.158871</ele>
        <time>2010-10-10T09:32:38Z</time>
      </trkpt>
      <trkpt lat="44.03603" lon="6.92871">
        <ele>1921.351215</ele>
        <time>2010-10-10T09:32:41Z</time>
      </trkpt>
      <trkpt lat="44.03599" lon="6.92867">
        <ele>1922.269286</ele>
        <time>2010-10-10T09:32:44Z</time>
      </trkpt>
      <trkpt lat="44.03595" lon="6.92864">
        <ele>1923.408219</ele>
        <time>2010-10-10T09:32:47Z</time>
      </trkpt>
      <trkpt lat="44.03589" lon="6.9286">
        <ele>1924.673583</ele>
        <time>2010-10-10T09:32:51Z</time>
      </trkpt>
      <trkpt lat="44.03584" lon="6.92854">
        <ele>1925.971094</ele>
        <time>2010-10-10T09:32:54Z</time>
      </trkpt>
      <trkpt lat="44.03578" lon="6.92847">
        <ele>1927.236387</ele>
        <time>2010-10-10T09:32:56Z</time>
      </trkpt>
      <trkpt lat="44.03563" lon="6.92835">
        <ele>1928.094512</ele>
        <time>2010-10-10T09:32:59Z</time>
      </trkpt>
      <trkpt lat="44.03548" lon="6.92822">
        <ele>1928.517446</ele>
        <time>2010-10-10T09:33:02Z</time>
      </trkpt>
      <trkpt lat="44.03539" lon="6.92812">
        <ele>1928.846926</ele>
        <time>2010-10-10T09:33:05Z</time>
      </trkpt>
      <trkpt lat="44.03535" lon="6.92807">
        <ele>1929.112342</ele>
        <time>2010-10-10T09:33:08Z</time>
      </trkpt>
      <trkpt lat="44.03533" lon="6.92804">
        <ele>1929.218062</ele>
        <time>2010-10-10T09:33:10Z</time>
      </trkpt>
      <trkpt lat="44.0351" lon="6.92781">
        <ele>1929.221951</ele>
        <time>2010-10-10T09:33:31Z</time>
      </trkpt>
      <trkpt lat="44.03507" lon="6.92778">
        <ele>1929.471098</ele>
        <time>2010-10-10T09:33:34Z</time>
      </trkpt>
      <trkpt lat="44.03507" lon="6.92778">
        <ele>1930.169281</ele>
        <time>2010-10-10T09:33:35Z</time>
      </trkpt>
      <trkpt lat="44.03477" lon="6.92752">
        <ele>1930.899639</ele>
        <time>2010-10-10T09:34:10Z</time>
      </trkpt>
      <trkpt lat="44.03468" lon="6.92746">
        <ele>1931.52626</ele>
        <time>2010-10-10T09:34:20Z</time>
      </trkpt>
      <trkpt lat="44.03465" lon="6.92742">
        <ele>1932.301314</ele>
        <time>2010-10-10T09:34:25Z</time>
      </trkpt>
      <trkpt lat="44.03459" lon="6.92736">
        <ele>1933.672809</ele>
        <time>2010-10-10T09:34:33Z</time>
      </trkpt>
      <trkpt lat="44.03455" lon="6.92732">
        <ele>1935.901382</ele>
        <time>2010-10-10T09:34:37Z</time>
      </trkpt>
      <trkpt lat="44.03453" lon="6.92729">
        <ele>1938.271457</ele>
        <time>2010-10-10T09:34:40Z</time>
      </trkpt>
      <trkpt lat="44.03447" lon="6.92723">
        <ele>1940.227392</ele>
        <time>2010-10-10T09:34:46Z</time>
      </trkpt>
      <trkpt lat="44.0344" lon="6.92717">
        <ele>1942.067208</ele>
        <time>2010-10-10T09:34:53Z</time>
      </trkpt>
      <trkpt lat="44.03432" lon="6.92711">
        <ele>1943.702088</ele>
        <time>2010-10-10T09:35:01Z</time>
      </trkpt>
      <trkpt lat="44.03429" lon="6.92709">
        <ele>1944.939595</ele>
        <time>2010-10-10T09:35:04Z</time>
      </trkpt>
      <trkpt lat="44.03425" lon="6.92706">
        <ele>1946.074855</ele>
        <time>2010-10-10T09:35:07Z</time>
      </trkpt>
      <trkpt lat="44.03422" lon="6.92704">
        <ele>1947.364255</ele>
        <time>2010-10-10T09:35:10Z</time>
      </trkpt>
      <trkpt lat="44.03417" lon="6.92701">
        <ele>1948.68089</ele>
        <time>2010-10-10T09:35:14Z</time>
      </trkpt>
      <trkpt lat="44.03413" lon="6.92699">
        <ele>1949.835913</ele>
        <time>2010-10-10T09:35:17Z</time>
      </trkpt>
      <trkpt lat="44.0341" lon="6.92696">
        <ele>1950.86165</ele>
        <time>2010-10-10T09:35:20Z</time>
      </trkpt>
      <trkpt lat="44.03405" lon="6.92692">
        <ele>1951.836213</ele>
        <time>2010-10-10T09:35:24Z</time>
      </trkpt>
      <trkpt lat="44.03402" lon="6.92691">
        <ele>1952.670954</ele>
        <time>2010-10-10T09:35:26Z</time>
      </trkpt>
      <trkpt lat="44.03396" lon="6.92686">
        <ele>1953.297329</ele>
        <time>2010-10-10T09:35:32Z</time>
      </trkpt>
      <trkpt lat="44.03392" lon="6.92683">
        <ele>1953.924666</ele>
        <time>2010-10-10T09:35:35Z</time>
      </trkpt>
      <trkpt lat="44.03389" lon="6.92681">
        <ele>1954.750268</ele>
        <time>2010-10-10T09:35:38Z</time>
      </trkpt>
      <trkpt lat="44.03386" lon="6.92679">
        <ele>1955.724687</ele>
        <time>2010-10-10T09:35:41Z</time>
      </trkpt>
      <trkpt lat="44.03383" lon="6.92677">
        <ele>1956.75452</ele>
        <time>2010-10-10T09:35:44Z</time>
      </trkpt>
      <trkpt lat="44.0338" lon="6.92676">
        <ele>1957.78362</ele>
        <time>2010-10-10T09:35:47Z</time>
      </trkpt>
      <trkpt lat="44.03377" lon="6.92675">
        <ele>1958.658207</ele>
        <time>2010-10-10T09:35:51Z</time>
      </trkpt>
      <trkpt lat="44.03374" lon="6.92674">
        <ele>1959.299006</ele>
        <time>2010-10-10T09:35:55Z</time>
      </trkpt>
      <trkpt lat="44.03371" lon="6.92673">
        <ele>1959.787657</ele>
        <time>2010-10-10T09:35:58Z</time>
      </trkpt>
      <trkpt lat="44.03368" lon="6.92671">
        <ele>1960.110704</ele>
        <time>2010-10-10T09:36:01Z</time>
      </trkpt>
      <trkpt lat="44.03365" lon="6.92669">
        <ele>1960.352575</ele>
        <time>2010-10-10T09:36:04Z</time>
      </trkpt>
      <trkpt lat="44.03362" lon="6.92668">
        <ele>1960.836565</ele>
        <time>2010-10-10T09:36:07Z</time>
      </trkpt>
      <trkpt lat="44.03356" lon="6.92662">
        <ele>1961.52575</ele>
        <time>2010-10-10T09:36:14Z</time>
      </trkpt>
      <trkpt lat="44.03354" lon="6.9266">
        <ele>1962.044271</ele>
        <time>2010-10-10T09:36:17Z</time>
      </trkpt>
      <trkpt lat="44.03348" lon="6.92654">
        <ele>1962.376</ele>
        <time>2010-10-10T09:36:23Z</time>
      </trkpt>
      <trkpt lat="44.03345" lon="6.92651">
        <ele>1962.871872</ele>
        <time>2010-10-10T09:36:26Z</time>
      </trkpt>
      <trkpt lat="44.03342" lon="6.92649">
        <ele>1963.682566</ele>
        <time>2010-10-10T09:36:29Z</time>
      </trkpt>
      <trkpt lat="44.03337" lon="6.92644">
        <ele>1964.683227</ele>
        <time>2010-10-10T09:36:34Z</time>
      </trkpt>
      <trkpt lat="44.03335" lon="6.92642">
        <ele>1965.73704</ele>
        <time>2010-10-10T09:36:37Z</time>
      </trkpt>
      <trkpt lat="44.03333" lon="6.92639">
        <ele>1966.63852</ele>
        <time>2010-10-10T09:36:40Z</time>
      </trkpt>
      <trkpt lat="44.03328" lon="6.92635">
        <ele>1967.292501</ele>
        <time>2010-10-10T09:36:45Z</time>
      </trkpt>
      <trkpt lat="44.03326" lon="6.92632">
        <ele>1967.921579</ele>
        <time>2010-10-10T09:36:48Z</time>
      </trkpt>
      <trkpt lat="44.03323" lon="6.9263">
        <ele>1968.740625</ele>
        <time>2010-10-10T09:36:51Z</time>
      </trkpt>
      <trkpt lat="44.0332" lon="6.92627">
        <ele>1969.57144</ele>
        <time>2010-10-10T09:36:54Z</time>
      </trkpt>
      <trkpt lat="44.03317" lon="6.92624">
        <ele>1970.377348</ele>
        <time>2010-10-10T09:36:58Z</time>
      </trkpt>
      <trkpt lat="44.03315" lon="6.9262">
        <ele>1971.258613</ele>
        <time>2010-10-10T09:37:01Z</time>
      </trkpt>
      <trkpt lat="44.03313" lon="6.92616">
        <ele>1971.968026</ele>
        <time>2010-10-10T09:37:04Z</time>
      </trkpt>
      <trkpt lat="44.0331" lon="6.92614">
        <ele>1972.388563</ele>
        <time>2010-10-10T09:37:08Z</time>
      </trkpt>
      <trkpt lat="44.03307" lon="6.92613">
        <ele>1972.758638</ele>
        <time>2010-10-10T09:37:13Z</time>
      </trkpt>
      <trkpt lat="44.03304" lon="6.92613">
        <ele>1973.055274</ele>
        <time>2010-10-10T09:37:17Z</time>
      </trkpt>
      <trkpt lat="44.03304" lon="6.92613">
        <ele>1973.172896</ele>
        <time>2010-10-10T09:37:26Z</time>
      </trkpt>
      <trkpt lat="44.03304" lon="6.92613">
        <ele>1973.176826</ele>
        <time>2010-10-10T09:37:47Z</time>
      </trkpt>
      <trkpt lat="44.03298" lon="6.9259">
        <ele>1973.146264</ele>
        <time>2010-10-10T09:47:19Z</time>
      </trkpt>
      <trkpt lat="44.03301" lon="6.92571">
        <ele>1973.398514</ele>
        <time>2010-10-10T09:47:21Z</time>
      </trkpt>
      <trkpt lat="44.03304" lon="6.92552">
        <ele>1974.247053</ele>
        <time>2010-10-10T09:47:23Z</time>
      </trkpt>
      <trkpt lat="44.03309" lon="6.92525">
        <ele>1976.17464</ele>
        <time>2010-10-10T09:47:26Z</time>
      </trkpt>
      <trkpt lat="44.03313" lon="6.92511">
        <ele>1979.05641</ele>
        <time>2010-10-10T09:47:29Z</time>
      </trkpt>
      <trkpt lat="44.03313" lon="6.92511">
        <ele>1981.503236</ele>
        <time>2010-10-10T09:47:30Z</time>
      </trkpt>
      <trkpt lat="44.03313" lon="6.92511">
        <ele>1982.522086</ele>
        <time>2010-10-10T09:47:58Z</time>
      </trkpt>
      <trkpt lat="44.0332" lon="6.92487">
        <ele>1982.591067</ele>
        <time>2010-10-10T10:14:02Z</time>
      </trkpt>
      <trkpt lat="44.03317" lon="6.92469">
        <ele>1981.953737</ele>
        <time>2010-10-10T10:14:05Z</time>
      </trkpt>
      <trkpt lat="44.03315" lon="6.92458">
        <ele>1980.377727</ele>
        <time>2010-10-10T10:14:07Z</time>
      </trkpt>
      <trkpt lat="44.03314" lon="6.92445">
        <ele>1975.078788</ele>
        <time>2010-10-10T10:14:10Z</time>
      </trkpt>
      <trkpt lat="44.03313" lon="6.92439">
        <ele>1965.008649</ele>
        <time>2010-10-10T10:14:13Z</time>
      </trkpt>
      <trkpt lat="44.03313" lon="6.92439">
        <ele>1955.419865</ele>
        <time>2010-10-10T10:14:14Z</time>
      </trkpt>
      <trkpt lat="44.03309" lon="6.92407">
        <ele>1950.940444</ele>
        <time>2010-10-10T10:14:42Z</time>
      </trkpt>
      <trkpt lat="44.03304" lon="6.924">
        <ele>1950.027767</ele>
        <time>2010-10-10T10:14:44Z</time>
      </trkpt>
      <trkpt lat="44.03294" lon="6.92391">
        <ele>1949.691233</ele>
        <time>2010-10-10T10:14:47Z</time>
      </trkpt>
      <trkpt lat="44.03289" lon="6.92387">
        <ele>1946.719387</ele>
        <time>2010-10-10T10:14:49Z</time>
      </trkpt>
      <trkpt lat="44.03281" lon="6.92381">
        <ele>1940.58216</ele>
        <time>2010-10-10T10:14:52Z</time>
      </trkpt>
      <trkpt lat="44.03273" lon="6.92376">
        <ele>1934.879392</ele>
        <time>2010-10-10T10:14:55Z</time>
      </trkpt>
      <trkpt lat="44.03268" lon="6.92374">
        <ele>1932.339723</ele>
        <time>2010-10-10T10:14:57Z</time>
      </trkpt>
      <trkpt lat="44.03261" lon="6.9237">
        <ele>1932.054826</ele>
        <time>2010-10-10T10:14:59Z</time>
      </trkpt>
      <trkpt lat="44.03251" lon="6.92362">
        <ele>1932.702368</ele>
        <time>2010-10-10T10:15:02Z</time>
      </trkpt>
      <trkpt lat="44.0324" lon="6.92351">
        <ele>1933.526442</ele>
        <time>2010-10-10T10:15:05Z</time>
      </trkpt>
      <trkpt lat="44.03232" lon="6.92339">
        <ele>1934.099793</ele>
        <time>2010-10-10T10:15:08Z</time>
      </trkpt>
      <trkpt lat="44.03226" lon="6.92325">
        <ele>1934.296141</ele>
        <time>2010-10-10T10:15:11Z</time>
      </trkpt>
      <trkpt lat="44.03217" lon="6.92311">
        <ele>1934.280422</ele>
        <time>2010-10-10T10:15:14Z</time>
      </trkpt>
      <trkpt lat="44.03211" lon="6.92302">
        <ele>1934.212641</ele>
        <time>2010-10-10T10:15:16Z</time>
      </trkpt>
      <trkpt lat="44.03204" lon="6.92294">
        <ele>1934.027944</ele>
        <time>2010-10-10T10:15:18Z</time>
      </trkpt>
      <trkpt lat="44.03194" lon="6.92284">
        <ele>1933.652357</ele>
        <time>2010-10-10T10:15:21Z</time>
      </trkpt>
      <trkpt lat="44.03182" lon="6.92276">
        <ele>1933.146178</ele>
        <time>2010-10-10T10:15:24Z</time>
      </trkpt>
      <trkpt lat="44.03174" lon="6.9227">
        <ele>1932.340202</ele>
        <time>2010-10-10T10:15:26Z</time>
      </trkpt>
      <trkpt lat="44.03165" lon="6.92258">
        <ele>1931.090012</ele>
        <time>2010-10-10T10:15:29Z</time>
      </trkpt>
      <trkpt lat="44.03157" lon="6.92243">
        <ele>1929.432657</ele>
        <time>2010-10-10T10:15:32Z</time>
      </trkpt>
      <trkpt lat="44.03151" lon="6.92226">
        <ele>1927.360078</ele>
        <time>2010-10-10T10:15:35Z</time>
      </trkpt>
      <trkpt lat="44.03146" lon="6.92214">
        <ele>1925.209084</ele>
        <time>2010-10-10T10:15:37Z</time>
      </trkpt>
      <trkpt lat="44.03142" lon="6.92194">
        <ele>1923.511594</ele>
        <time>2010-10-10T10:15:40Z</time>
      </trkpt>
      <trkpt lat="44.03141" lon="6.92175">
        <ele>1922.453816</ele>
        <time>2010-10-10T10:15:43Z</time>
      </trkpt>
      <trkpt lat="44.03146" lon="6.92157">
        <ele>1922.003856</ele>
        <time>2010-10-10T10:15:46Z</time>
      </trkpt>
      <trkpt lat="44.03149" lon="6.92144">
        <ele>1921.966866</ele>
        <time>2010-10-10T10:15:49Z</time>
      </trkpt>
      <trkpt lat="44.0315" lon="6.92135">
        <ele>1922.067233</ele>
        <time>2010-10-10T10:15:51Z</time>
      </trkpt>
      <trkpt lat="44.03151" lon="6.92126">
        <ele>1922.015048</ele>
        <time>2010-10-10T10:15:53Z</time>
      </trkpt>
      <trkpt lat="44.03157" lon="6.92116">
        <ele>1921.553031</ele>
        <time>2010-10-10T10:15:56Z</time>
      </trkpt>
      <trkpt lat="44.03161" lon="6.92116">
        <ele>1920.826301</ele>
        <time>2010-10-10T10:15:57Z</time>
      </trkpt>
      <trkpt lat="44.03161" lon="6.92116">
        <ele>1920.135097</ele>
        <time>2010-10-10T10:16:43Z</time>
      </trkpt>
      <trkpt lat="44.03188" lon="6.9213">
        <ele>1919.488636</ele>
        <time>2010-10-10T10:16:47Z</time>
      </trkpt>
      <trkpt lat="44.03192" lon="6.92117">
        <ele>1918.718618</ele>
        <time>2010-10-10T10:16:53Z</time>
      </trkpt>
      <trkpt lat="44.03199" lon="6.92106">
        <ele>1917.739932</ele>
        <time>2010-10-10T10:16:59Z</time>
      </trkpt>
      <trkpt lat="44.03205" lon="6.92094">
        <ele>1913.867085</ele>
        <time>2010-10-10T10:17:08Z</time>
      </trkpt>
      <trkpt lat="44.0321" lon="6.92082">
        <ele>1905.719798</ele>
        <time>2010-10-10T10:17:20Z</time>
      </trkpt>
      <trkpt lat="44.0321" lon="6.92082">
        <ele>1897.795043</ele>
        <time>2010-10-10T10:17:32Z</time>
      </trkpt>
      <trkpt lat="44.0321" lon="6.92082">
        <ele>1894.15724</ele>
        <time>2010-10-10T10:17:51Z</time>
      </trkpt>
      <trkpt lat="44.03201" lon="6.92034">
        <ele>1893.67967</ele>
        <time>2010-10-10T10:18:05Z</time>
      </trkpt>
      <trkpt lat="44.03202" lon="6.92013">
        <ele>1894.357035</ele>
        <time>2010-10-10T10:18:14Z</time>
      </trkpt>
      <trkpt lat="44.03205" lon="6.92001">
        <ele>1895.002455</ele>
        <time>2010-10-10T10:18:21Z</time>
      </trkpt>
      <trkpt lat="44.03206" lon="6.91994">
        <ele>1893.912988</ele>
        <time>2010-10-10T10:18:24Z</time>
      </trkpt>
      <trkpt lat="44.03206" lon="6.91984">
        <ele>1890.349931</ele>
        <time>2010-10-10T10:18:27Z</time>
      </trkpt>
      <trkpt lat="44.03206" lon="6.91977">
        <ele>1886.599237</ele>
        <time>2010-10-10T10:18:29Z</time>
      </trkpt>
      <trkpt lat="44.03207" lon="6.91967">
        <ele>1884.794033</ele>
        <time>2010-10-10T10:18:32Z</time>
      </trkpt>
      <trkpt lat="44.03208" lon="6.91961">
        <ele>1884.50524</ele>
        <time>2010-10-10T10:18:34Z</time>
      </trkpt>
      <trkpt lat="44.0321" lon="6.91954">
        <ele>1885.078775</ele>
        <time>2010-10-10T10:18:37Z</time>
      </trkpt>
      <trkpt lat="44.03213" lon="6.91946">
        <ele>1886.380656</ele>
        <time>2010-10-10T10:18:40Z</time>
      </trkpt>
      <trkpt lat="44.03217" lon="6.91933">
        <ele>1888.122702</ele>
        <time>2010-10-10T10:18:45Z</time>
      </trkpt>
      <trkpt lat="44.03219" lon="6.91927">
        <ele>1889.594053</ele>
        <time>2010-10-10T10:18:47Z</time>
      </trkpt>
      <trkpt lat="44.03219" lon="6.91927">
        <ele>1890.342281</ele>
        <time>2010-10-10T10:19:01Z</time>
      </trkpt>
      <trkpt lat="44.03226" lon="6.91887">
        <ele>1890.485703</ele>
        <time>2010-10-10T10:19:05Z</time>
      </trkpt>
      <trkpt lat="44.03227" lon="6.91874">
        <ele>1890.380363</ele>
        <time>2010-10-10T10:19:09Z</time>
      </trkpt>
      <trkpt lat="44.0323" lon="6.91859">
        <ele>1889.874113</ele>
        <time>2010-10-10T10:19:14Z</time>
      </trkpt>
      <trkpt lat="44.0323" lon="6.91851">
        <ele>1888.641473</ele>
        <time>2010-10-10T10:19:17Z</time>
      </trkpt>
      <trkpt lat="44.0323" lon="6.91847">
        <ele>1886.887733</ele>
        <time>2010-10-10T10:19:19Z</time>
      </trkpt>
      <trkpt lat="44.03228" lon="6.9184">
        <ele>1885.103478</ele>
        <time>2010-10-10T10:19:22Z</time>
      </trkpt>
      <trkpt lat="44.03225" lon="6.91834">
        <ele>1883.452747</ele>
        <time>2010-10-10T10:19:25Z</time>
      </trkpt>
      <trkpt lat="44.03221" lon="6.91828">
        <ele>1881.793311</ele>
        <time>2010-10-10T10:19:28Z</time>
      </trkpt>
      <trkpt lat="44.0322" lon="6.91825">
        <ele>1879.95111</ele>
        <time>2010-10-10T10:19:30Z</time>
      </trkpt>
      <trkpt lat="44.03217" lon="6.91823">
        <ele>1877.835774</ele>
        <time>2010-10-10T10:19:33Z</time>
      </trkpt>
      <trkpt lat="44.03213" lon="6.91824">
        <ele>1875.449315</ele>
        <time>2010-10-10T10:19:43Z</time>
      </trkpt>
      <trkpt lat="44.03209" lon="6.91823">
        <ele>1873.192791</ele>
        <time>2010-10-10T10:19:47Z</time>
      </trkpt>
      <trkpt lat="44.03209" lon="6.91823">
        <ele>1871.643569</ele>
        <time>2010-10-10T10:19:53Z</time>
      </trkpt>
      <trkpt lat="44.03189" lon="6.91793">
        <ele>1870.983359</ele>
        <time>2010-10-10T10:20:05Z</time>
      </trkpt>
      <trkpt lat="44.03187" lon="6.91786">
        <ele>1870.901253</ele>
        <time>2010-10-10T10:20:07Z</time>
      </trkpt>
      <trkpt lat="44.03185" lon="6.91777">
        <ele>1870.728195</ele>
        <time>2010-10-10T10:20:10Z</time>
      </trkpt>
      <trkpt lat="44.03183" lon="6.91767">
        <ele>1868.750756</ele>
        <time>2010-10-10T10:20:13Z</time>
      </trkpt>
      <trkpt lat="44.03183" lon="6.9176">
        <ele>1864.5039</ele>
        <time>2010-10-10T10:20:15Z</time>
      </trkpt>
      <trkpt lat="44.03183" lon="6.91749">
        <ele>1860.492024</ele>
        <time>2010-10-10T10:20:18Z</time>
      </trkpt>
      <trkpt lat="44.03182" lon="6.91741">
        <ele>1858.685241</ele>
        <time>2010-10-10T10:20:20Z</time>
      </trkpt>
      <trkpt lat="44.03181" lon="6.91733">
        <ele>1858.469662</ele>
        <time>2010-10-10T10:20:22Z</time>
      </trkpt>
      <trkpt lat="44.03181" lon="6.91723">
        <ele>1858.822332</ele>
        <time>2010-10-10T10:20:25Z</time>
      </trkpt>
      <trkpt lat="44.03181" lon="6.91719">
        <ele>1859.148935</ele>
        <time>2010-10-10T10:20:28Z</time>
      </trkpt>
      <trkpt lat="44.0318" lon="6.91715">
        <ele>1859.294032</ele>
        <time>2010-10-10T10:20:30Z</time>
      </trkpt>
      <trkpt lat="44.03178" lon="6.91706">
        <ele>1859.310076</ele>
        <time>2010-10-10T10:20:33Z</time>
      </trkpt>
      <trkpt lat="44.03175" lon="6.91699">
        <ele>1859.142624</ele>
        <time>2010-10-10T10:20:36Z</time>
      </trkpt>
      <trkpt lat="44.03171" lon="6.91687">
        <ele>1858.756154</ele>
        <time>2010-10-10T10:20:38Z</time>
      </trkpt>
      <trkpt lat="44.03168" lon="6.91679">
        <ele>1858.375069</ele>
        <time>2010-10-10T10:20:40Z</time>
      </trkpt>
      <trkpt lat="44.03165" lon="6.9167">
        <ele>1858.060425</ele>
        <time>2010-10-10T10:20:43Z</time>
      </trkpt>
      <trkpt lat="44.03163" lon="6.91663">
        <ele>1857.538226</ele>
        <time>2010-10-10T10:20:46Z</time>
      </trkpt>
      <trkpt lat="44.03166" lon="6.91659">
        <ele>1856.564665</ele>
        <time>2010-10-10T10:20:51Z</time>
      </trkpt>
      <trkpt lat="44.03166" lon="6.91654">
        <ele>1854.916669</ele>
        <time>2010-10-10T10:20:55Z</time>
      </trkpt>
      <trkpt lat="44.03163" lon="6.91644">
        <ele>1852.772315</ele>
        <time>2010-10-10T10:20:58Z</time>
      </trkpt>
      <trkpt lat="44.0316" lon="6.91635">
        <ele>1850.544322</ele>
        <time>2010-10-10T10:21:00Z</time>
      </trkpt>
      <trkpt lat="44.03154" lon="6.91619">
        <ele>1848.021066</ele>
        <time>2010-10-10T10:21:03Z</time>
      </trkpt>
      <trkpt lat="44.03147" lon="6.91606">
        <ele>1845.181801</ele>
        <time>2010-10-10T10:21:06Z</time>
      </trkpt>
      <trkpt lat="44.03141" lon="6.91598">
        <ele>1842.680636</ele>
        <time>2010-10-10T10:21:08Z</time>
      </trkpt>
      <trkpt lat="44.03132" lon="6.91586">
        <ele>1840.267757</ele>
        <time>2010-10-10T10:21:11Z</time>
      </trkpt>
      <trkpt lat="44.03125" lon="6.91578">
        <ele>1837.195149</ele>
        <time>2010-10-10T10:21:13Z</time>
      </trkpt>
      <trkpt lat="44.03115" lon="6.91568">
        <ele>1833.836908</ele>
        <time>2010-10-10T10:21:16Z</time>
      </trkpt>
      <trkpt lat="44.03109" lon="6.91563">
        <ele>1831.122376</ele>
        <time>2010-10-10T10:21:19Z</time>
      </trkpt>
      <trkpt lat="44.03095" lon="6.91553">
        <ele>1829.505618</ele>
        <time>2010-10-10T10:21:24Z</time>
      </trkpt>
      <trkpt lat="44.03088" lon="6.91544">
        <ele>1828.786929</ele>
        <time>2010-10-10T10:21:27Z</time>
      </trkpt>
      <trkpt lat="44.03083" lon="6.91537">
        <ele>1828.31297</ele>
        <time>2010-10-10T10:21:30Z</time>
      </trkpt>
      <trkpt lat="44.03083" lon="6.91537">
        <ele>1827.628982</ele>
        <time>2010-10-10T10:21:31Z</time>
      </trkpt>
      <trkpt lat="44.03083" lon="6.91537">
        <ele>1826.845158</ele>
        <time>2010-10-10T10:22:00Z</time>
      </trkpt>
      <trkpt lat="44.03055" lon="6.91506">
        <ele>1826.198761</ele>
        <time>2010-10-10T10:22:18Z</time>
      </trkpt>
      <trkpt lat="44.03049" lon="6.915">
        <ele>1825.717259</ele>
        <time>2010-10-10T10:22:21Z</time>
      </trkpt>
      <trkpt lat="44.03046" lon="6.91495">
        <ele>1825.106761</ele>
        <time>2010-10-10T10:22:23Z</time>
      </trkpt>
      <trkpt lat="44.0304" lon="6.91488">
        <ele>1821.476007</ele>
        <time>2010-10-10T10:22:26Z</time>
      </trkpt>
      <trkpt lat="44.03035" lon="6.91482">
        <ele>1813.247262</ele>
        <time>2010-10-10T10:22:28Z</time>
      </trkpt>
      <trkpt lat="44.03028" lon="6.91475">
        <ele>1804.818448</ele>
        <time>2010-10-10T10:22:31Z</time>
      </trkpt>
      <trkpt lat="44.03023" lon="6.91468">
        <ele>1800.548452</ele>
        <time>2010-10-10T10:22:34Z</time>
      </trkpt>
      <trkpt lat="44.03023" lon="6.91468">
        <ele>1799.60093</ele>
        <time>2010-10-10T10:22:35Z</time>
      </trkpt>
      <trkpt lat="44.03023" lon="6.91468">
        <ele>1799.594913</ele>
        <time>2010-10-10T10:23:14Z</time>
      </trkpt>
      <trkpt lat="44.02997" lon="6.9144">
        <ele>1799.120443</ele>
        <time>2010-10-10T10:23:48Z</time>
      </trkpt>
      <trkpt lat="44.02993" lon="6.91437">
        <ele>1797.962851</ele>
        <time>2010-10-10T10:23:51Z</time>
      </trkpt>
      <trkpt lat="44.02991" lon="6.91433">
        <ele>1796.115525</ele>
        <time>2010-10-10T10:23:54Z</time>
      </trkpt>
      <trkpt lat="44.02994" lon="6.91422">
        <ele>1784.033595</ele>
        <time>2010-10-10T10:24:04Z</time>
      </trkpt>
      <trkpt lat="44.02997" lon="6.91424">
        <ele>1756.629095</ele>
        <time>2010-10-10T10:24:07Z</time>
      </trkpt>
      <trkpt lat="44.02999" lon="6.9143">
        <ele>1729.51541</ele>
        <time>2010-10-10T10:24:14Z</time>
      </trkpt>
      <trkpt lat="44.02999" lon="6.9143">
        <ele>1716.934987</ele>
        <time>2010-10-10T10:24:21Z</time>
      </trkpt>
      <trkpt lat="44.02999" lon="6.9143">
        <ele>1715.200236</ele>
        <time>2010-10-10T10:24:27Z</time>
      </trkpt>
      <trkpt lat="44.02985" lon="6.91394">
        <ele>1717.480211</ele>
        <time>2010-10-10T10:24:39Z</time>
      </trkpt>
      <trkpt lat="44.02984" lon="6.91388">
        <ele>1719.688947</ele>
        <time>2010-10-10T10:24:42Z</time>
      </trkpt>
      <trkpt lat="44.02978" lon="6.91371">
        <ele>1720.285675</ele>
        <time>2010-10-10T10:24:44Z</time>
      </trkpt>
      <trkpt lat="44.02975" lon="6.91366">
        <ele>1719.337083</ele>
        <time>2010-10-10T10:24:46Z</time>
      </trkpt>
      <trkpt lat="44.02971" lon="6.91363">
        <ele>1718.039202</ele>
        <time>2010-10-10T10:24:50Z</time>
      </trkpt>
      <trkpt lat="44.02971" lon="6.91363">
        <ele>1717.147231</ele>
        <time>2010-10-10T10:25:03Z</time>
      </trkpt>
      <trkpt lat="44.02971" lon="6.91363">
        <ele>1716.50119</ele>
        <time>2010-10-10T10:25:22Z</time>
      </trkpt>
      <trkpt lat="44.02954" lon="6.91394">
        <ele>1716.269531</ele>
        <time>2010-10-10T10:29:55Z</time>
      </trkpt>
      <trkpt lat="44.02956" lon="6.9139">
        <ele>1717.03904</ele>
        <time>2010-10-10T10:30:05Z</time>
      </trkpt>
      <trkpt lat="44.02956" lon="6.9139">
        <ele>1718.637929</ele>
        <time>2010-10-10T10:30:06Z</time>
      </trkpt>
      <trkpt lat="44.02956" lon="6.9139">
        <ele>1719.517439</ele>
        <time>2010-10-10T10:31:13Z</time>
      </trkpt>
      <trkpt lat="44.02945" lon="6.91403">
        <ele>1718.763445</ele>
        <time>2010-10-10T10:32:29Z</time>
      </trkpt>
      <trkpt lat="44.02937" lon="6.91409">
        <ele>1719.465836</ele>
        <time>2010-10-10T10:32:32Z</time>
      </trkpt>
      <trkpt lat="44.02932" lon="6.91414">
        <ele>1723.984501</ele>
        <time>2010-10-10T10:32:34Z</time>
      </trkpt>
      <trkpt lat="44.02925" lon="6.91423">
        <ele>1728.80577</ele>
        <time>2010-10-10T10:32:37Z</time>
      </trkpt>
      <trkpt lat="44.02921" lon="6.91429">
        <ele>1729.684884</ele>
        <time>2010-10-10T10:32:39Z</time>
      </trkpt>
      <trkpt lat="44.02915" lon="6.91439">
        <ele>1727.277792</ele>
        <time>2010-10-10T10:32:42Z</time>
      </trkpt>
      <trkpt lat="44.02911" lon="6.91446">
        <ele>1724.526371</ele>
        <time>2010-10-10T10:32:44Z</time>
      </trkpt>
      <trkpt lat="44.02907" lon="6.91453">
        <ele>1722.45234</ele>
        <time>2010-10-10T10:32:46Z</time>
      </trkpt>
      <trkpt lat="44.029" lon="6.91462">
        <ele>1719.844036</ele>
        <time>2010-10-10T10:32:49Z</time>
      </trkpt>
      <trkpt lat="44.029" lon="6.91462">
        <ele>1716.758783</ele>
        <time>2010-10-10T10:32:51Z</time>
      </trkpt>
      <trkpt lat="44.02886" lon="6.91502">
        <ele>1714.214698</ele>
        <time>2010-10-10T10:33:10Z</time>
      </trkpt>
      <trkpt lat="44.02884" lon="6.91506">
        <ele>1712.136375</ele>
        <time>2010-10-10T10:33:13Z</time>
      </trkpt>
      <trkpt lat="44.02884" lon="6.91506">
        <ele>1710.371909</ele>
        <time>2010-10-10T10:33:14Z</time>
      </trkpt>
      <trkpt lat="44.02865" lon="6.91529">
        <ele>1708.946363</ele>
        <time>2010-10-10T10:34:20Z</time>
      </trkpt>
      <trkpt lat="44.02862" lon="6.91538">
        <ele>1705.536517</ele>
        <time>2010-10-10T10:34:22Z</time>
      </trkpt>
      <trkpt lat="44.02853" lon="6.9155">
        <ele>1698.986097</ele>
        <time>2010-10-10T10:34:25Z</time>
      </trkpt>
      <trkpt lat="44.02843" lon="6.91566">
        <ele>1688.419782</ele>
        <time>2010-10-10T10:34:28Z</time>
      </trkpt>
      <trkpt lat="44.02829" lon="6.91582">
        <ele>1673.714148</ele>
        <time>2010-10-10T10:34:31Z</time>
      </trkpt>
      <trkpt lat="44.02815" lon="6.916">
        <ele>1659.115526</ele>
        <time>2010-10-10T10:34:34Z</time>
      </trkpt>
      <trkpt lat="44.02801" lon="6.91611">
        <ele>1648.22763</ele>
        <time>2010-10-10T10:34:37Z</time>
      </trkpt>
      <trkpt lat="44.02789" lon="6.91613">
        <ele>1639.546875</ele>
        <time>2010-10-10T10:34:40Z</time>
      </trkpt>
      <trkpt lat="44.02781" lon="6.9161">
        <ele>1632.829951</ele>
        <time>2010-10-10T10:34:43Z</time>
      </trkpt>
      <trkpt lat="44.02781" lon="6.9161">
        <ele>1629.146967</ele>
        <time>2010-10-10T10:34:45Z</time>
      </trkpt>
      <trkpt lat="44.02755" lon="6.9159">
        <ele>1628.291288</ele>
        <time>2010-10-10T10:35:00Z</time>
      </trkpt>
      <trkpt lat="44.02755" lon="6.9159">
        <ele>1628.282681</ele>
        <time>2010-10-10T10:35:03Z</time>
      </trkpt>
      <trkpt lat="44.02722" lon="6.91603">
        <ele>1628.166585</ele>
        <time>2010-10-10T10:35:28Z</time>
      </trkpt>
      <trkpt lat="44.0271" lon="6.91605">
        <ele>1628.634476</ele>
        <time>2010-10-10T10:35:31Z</time>
      </trkpt>
      <trkpt lat="44.02701" lon="6.91605">
        <ele>1631.261981</ele>
        <time>2010-10-10T10:35:33Z</time>
      </trkpt>
      <trkpt lat="44.02692" lon="6.916">
        <ele>1637.111768</ele>
        <time>2010-10-10T10:35:36Z</time>
      </trkpt>
      <trkpt lat="44.02686" lon="6.91594">
        <ele>1644.268666</ele>
        <time>2010-10-10T10:35:38Z</time>
      </trkpt>
      <trkpt lat="44.02678" lon="6.91583">
        <ele>1649.365455</ele>
        <time>2010-10-10T10:35:41Z</time>
      </trkpt>
      <trkpt lat="44.0267" lon="6.91571">
        <ele>1651.809057</ele>
        <time>2010-10-10T10:35:44Z</time>
      </trkpt>
      <trkpt lat="44.02666" lon="6.91561">
        <ele>1652.726706</ele>
        <time>2010-10-10T10:35:46Z</time>
      </trkpt>
      <trkpt lat="44.02662" lon="6.91548">
        <ele>1653.13503</ele>
        <time>2010-10-10T10:35:49Z</time>
      </trkpt>
      <trkpt lat="44.02662" lon="6.91539">
        <ele>1653.968932</ele>
        <time>2010-10-10T10:35:52Z</time>
      </trkpt>
      <trkpt lat="44.02662" lon="6.91539">
        <ele>1655.267973</ele>
        <time>2010-10-10T10:35:53Z</time>
      </trkpt>
      <trkpt lat="44.02623" lon="6.91529">
        <ele>1656.421735</ele>
        <time>2010-10-10T10:36:32Z</time>
      </trkpt>
      <trkpt lat="44.0262" lon="6.91514">
        <ele>1657.45153</ele>
        <time>2010-10-10T10:36:38Z</time>
      </trkpt>
      <trkpt lat="44.02604" lon="6.91508">
        <ele>1658.547308</ele>
        <time>2010-10-10T10:36:51Z</time>
      </trkpt>
      <trkpt lat="44.02598" lon="6.9151">
        <ele>1659.354236</ele>
        <time>2010-10-10T10:36:54Z</time>
      </trkpt>
      <trkpt lat="44.0259" lon="6.91512">
        <ele>1659.510606</ele>
        <time>2010-10-10T10:36:57Z</time>
      </trkpt>
      <trkpt lat="44.0258" lon="6.91517">
        <ele>1659.142248</ele>
        <time>2010-10-10T10:37:00Z</time>
      </trkpt>
      <trkpt lat="44.02574" lon="6.91521">
        <ele>1658.682498</ele>
        <time>2010-10-10T10:37:02Z</time>
      </trkpt>
      <trkpt lat="44.02567" lon="6.91524">
        <ele>1658.441732</ele>
        <time>2010-10-10T10:37:05Z</time>
      </trkpt>
      <trkpt lat="44.02567" lon="6.91524">
        <ele>1658.391674</ele>
        <time>2010-10-10T10:37:06Z</time>
      </trkpt>
      <trkpt lat="44.02553" lon="6.9153">
        <ele>1658.284451</ele>
        <time>2010-10-10T10:37:11Z</time>
      </trkpt>
      <trkpt lat="44.02549" lon="6.91531">
        <ele>1657.831484</ele>
        <time>2010-10-10T10:37:13Z</time>
      </trkpt>
      <trkpt lat="44.02543" lon="6.91534">
        <ele>1657.141261</ele>
        <time>2010-10-10T10:37:16Z</time>
      </trkpt>
      <trkpt lat="44.02536" lon="6.91538">
        <ele>1656.613117</ele>
        <time>2010-10-10T10:37:19Z</time>
      </trkpt>
      <trkpt lat="44.02529" lon="6.91543">
        <ele>1656.122263</ele>
        <time>2010-10-10T10:37:22Z</time>
      </trkpt>
      <trkpt lat="44.0252" lon="6.91549">
        <ele>1655.107744</ele>
        <time>2010-10-10T10:37:25Z</time>
      </trkpt>
      <trkpt lat="44.02509" lon="6.91553">
        <ele>1652.867314</ele>
        <time>2010-10-10T10:37:28Z</time>
      </trkpt>
      <trkpt lat="44.02493" lon="6.91554">
        <ele>1649.244827</ele>
        <time>2010-10-10T10:37:31Z</time>
      </trkpt>
      <trkpt lat="44.02476" lon="6.91551">
        <ele>1645.562144</ele>
        <time>2010-10-10T10:37:34Z</time>
      </trkpt>
      <trkpt lat="44.02466" lon="6.91547">
        <ele>1643.410468</ele>
        <time>2010-10-10T10:37:36Z</time>
      </trkpt>
      <trkpt lat="44.02453" lon="6.91538">
        <ele>1642.703583</ele>
        <time>2010-10-10T10:37:39Z</time>
      </trkpt>
      <trkpt lat="44.02441" lon="6.91525">
        <ele>1642.52912</ele>
        <time>2010-10-10T10:37:42Z</time>
      </trkpt>
      <trkpt lat="44.02427" lon="6.91512">
        <ele>1642.46117</ele>
        <time>2010-10-10T10:37:45Z</time>
      </trkpt>
      <trkpt lat="44.02411" lon="6.91508">
        <ele>1642.459766</ele>
        <time>2010-10-10T10:37:48Z</time>
      </trkpt>
      <trkpt lat="44.024" lon="6.91505">
        <ele>1642.201679</ele>
        <time>2010-10-10T10:37:50Z</time>
      </trkpt>
      <trkpt lat="44.02391" lon="6.91504">
        <ele>1641.35782</ele>
        <time>2010-10-10T10:37:52Z</time>
      </trkpt>
      <trkpt lat="44.02377" lon="6.91501">
        <ele>1640.264436</ele>
        <time>2010-10-10T10:37:55Z</time>
      </trkpt>
      <trkpt lat="44.02365" lon="6.91498">
        <ele>1639.544486</ele>
        <time>2010-10-10T10:37:58Z</time>
      </trkpt>
      <trkpt lat="44.02355" lon="6.91494">
        <ele>1639.314626</ele>
        <time>2010-10-10T10:38:01Z</time>
      </trkpt>
      <trkpt lat="44.02349" lon="6.91493">
        <ele>1639.070542</ele>
        <time>2010-10-10T10:38:03Z</time>
      </trkpt>
      <trkpt lat="44.02344" lon="6.91493">
        <ele>1638.440506</ele>
        <time>2010-10-10T10:38:06Z</time>
      </trkpt>
      <trkpt lat="44.0234" lon="6.91493">
        <ele>1637.483559</ele>
        <time>2010-10-10T10:38:08Z</time>
      </trkpt>
      <trkpt lat="44.02335" lon="6.91494">
        <ele>1636.293314</ele>
        <time>2010-10-10T10:38:10Z</time>
      </trkpt>
      <trkpt lat="44.02328" lon="6.91499">
        <ele>1635.000418</ele>
        <time>2010-10-10T10:38:13Z</time>
      </trkpt>
      <trkpt lat="44.02323" lon="6.91507">
        <ele>1633.834985</ele>
        <time>2010-10-10T10:38:16Z</time>
      </trkpt>
      <trkpt lat="44.02319" lon="6.91513">
        <ele>1632.794648</ele>
        <time>2010-10-10T10:38:19Z</time>
      </trkpt>
      <trkpt lat="44.02311" lon="6.91516">
        <ele>1631.673883</ele>
        <time>2010-10-10T10:38:22Z</time>
      </trkpt>
      <trkpt lat="44.02305" lon="6.91517">
        <ele>1630.062836</ele>
        <time>2010-10-10T10:38:24Z</time>
      </trkpt>
      <trkpt lat="44.02297" lon="6.91513">
        <ele>1627.850043</ele>
        <time>2010-10-10T10:38:27Z</time>
      </trkpt>
      <trkpt lat="44.02288" lon="6.9151">
        <ele>1625.718613</ele>
        <time>2010-10-10T10:38:30Z</time>
      </trkpt>
      <trkpt lat="44.02277" lon="6.91508">
        <ele>1624.33179</ele>
        <time>2010-10-10T10:38:33Z</time>
      </trkpt>
      <trkpt lat="44.02266" lon="6.91505">
        <ele>1623.640249</ele>
        <time>2010-10-10T10:38:36Z</time>
      </trkpt>
      <trkpt lat="44.02259" lon="6.91503">
        <ele>1623.239005</ele>
        <time>2010-10-10T10:38:38Z</time>
      </trkpt>
      <trkpt lat="44.02252" lon="6.91501">
        <ele>1622.878318</ele>
        <time>2010-10-10T10:38:40Z</time>
      </trkpt>
      <trkpt lat="44.02245" lon="6.915">
        <ele>1622.445051</ele>
        <time>2010-10-10T10:38:42Z</time>
      </trkpt>
      <trkpt lat="44.02233" lon="6.91505">
        <ele>1621.827841</ele>
        <time>2010-10-10T10:38:45Z</time>
      </trkpt>
      <trkpt lat="44.0222" lon="6.91514">
        <ele>1620.954815</ele>
        <time>2010-10-10T10:38:48Z</time>
      </trkpt>
      <trkpt lat="44.02199" lon="6.91525">
        <ele>1619.941834</ele>
        <time>2010-10-10T10:38:51Z</time>
      </trkpt>
      <trkpt lat="44.02178" lon="6.91532">
        <ele>1618.620145</ele>
        <time>2010-10-10T10:38:54Z</time>
      </trkpt>
      <trkpt lat="44.02159" lon="6.91532">
        <ele>1616.732403</ele>
        <time>2010-10-10T10:38:57Z</time>
      </trkpt>
      <trkpt lat="44.02156" lon="6.91533">
        <ele>1614.486597</ele>
        <time>2010-10-10T10:38:59Z</time>
      </trkpt>
      <trkpt lat="44.02156" lon="6.91533">
        <ele>1612.547354</ele>
        <time>2010-10-10T10:39:27Z</time>
      </trkpt>
      <trkpt lat="44.02169" lon="6.91544">
        <ele>1611.038095</ele>
        <time>2010-10-10T10:43:51Z</time>
      </trkpt>
      <trkpt lat="44.02166" lon="6.91553">
        <ele>1609.135035</ele>
        <time>2010-10-10T10:43:53Z</time>
      </trkpt>
      <trkpt lat="44.02155" lon="6.91566">
        <ele>1606.142817</ele>
        <time>2010-10-10T10:43:56Z</time>
      </trkpt>
      <trkpt lat="44.02144" lon="6.91572">
        <ele>1601.614736</ele>
        <time>2010-10-10T10:43:58Z</time>
      </trkpt>
      <trkpt lat="44.02134" lon="6.91577">
        <ele>1596.205741</ele>
        <time>2010-10-10T10:44:00Z</time>
      </trkpt>
      <trkpt lat="44.0212" lon="6.91582">
        <ele>1592.184916</ele>
        <time>2010-10-10T10:44:03Z</time>
      </trkpt>
      <trkpt lat="44.0211" lon="6.91584">
        <ele>1590.702532</ele>
        <time>2010-10-10T10:44:06Z</time>
      </trkpt>
      <trkpt lat="44.02105" lon="6.91585">
        <ele>1590.73345</ele>
        <time>2010-10-10T10:44:09Z</time>
      </trkpt>
      <trkpt lat="44.02105" lon="6.91585">
        <ele>1591.179064</ele>
        <time>2010-10-10T10:44:11Z</time>
      </trkpt>
      <trkpt lat="44.02076" lon="6.91575">
        <ele>1591.505341</ele>
        <time>2010-10-10T10:44:44Z</time>
      </trkpt>
      <trkpt lat="44.02073" lon="6.91577">
        <ele>1591.623723</ele>
        <time>2010-10-10T10:44:48Z</time>
      </trkpt>
      <trkpt lat="44.02073" lon="6.91577">
        <ele>1591.619774</ele>
        <time>2010-10-10T10:44:51Z</time>
      </trkpt>
      <trkpt lat="44.02057" lon="6.91591">
        <ele>1591.583064</ele>
        <time>2010-10-10T10:45:14Z</time>
      </trkpt>
      <trkpt lat="44.02049" lon="6.91597">
        <ele>1591.556567</ele>
        <time>2010-10-10T10:45:17Z</time>
      </trkpt>
      <trkpt lat="44.02041" lon="6.91599">
        <ele>1591.547091</ele>
        <time>2010-10-10T10:45:19Z</time>
      </trkpt>
      <trkpt lat="44.02034" lon="6.916">
        <ele>1591.547513</ele>
        <time>2010-10-10T10:45:21Z</time>
      </trkpt>
      <trkpt lat="44.02026" lon="6.91602">
        <ele>1591.550529</ele>
        <time>2010-10-10T10:45:24Z</time>
      </trkpt>
      <trkpt lat="44.02016" lon="6.91606">
        <ele>1591.552676</ele>
        <time>2010-10-10T10:45:27Z</time>
      </trkpt>
      <trkpt lat="44.02006" lon="6.91613">
        <ele>1591.553429</ele>
        <time>2010-10-10T10:45:30Z</time>
      </trkpt>
      <trkpt lat="44.02002" lon="6.91616">
        <ele>1591.55338</ele>
        <time>2010-10-10T10:45:33Z</time>
      </trkpt>
      <trkpt lat="44.01985" lon="6.91585">
        <ele>1591.553125</ele>
        <time>2010-10-10T10:46:09Z</time>
      </trkpt>
      <trkpt lat="44.01982" lon="6.91584">
        <ele>1591.552945</ele>
        <time>2010-10-10T10:46:12Z</time>
      </trkpt>
      <trkpt lat="44.01979" lon="6.91584">
        <ele>1591.414704</ele>
        <time>2010-10-10T10:46:15Z</time>
      </trkpt>
      <trkpt lat="44.01976" lon="6.91586">
        <ele>1590.08756</ele>
        <time>2010-10-10T10:46:19Z</time>
      </trkpt>
      <trkpt lat="44.01972" lon="6.91588">
        <ele>1587.198867</ele>
        <time>2010-10-10T10:46:26Z</time>
      </trkpt>
      <trkpt lat="44.01969" lon="6.9159">
        <ele>1584.299361</ele>
        <time>2010-10-10T10:46:28Z</time>
      </trkpt>
      <trkpt lat="44.01966" lon="6.91593">
        <ele>1582.686094</ele>
        <time>2010-10-10T10:46:31Z</time>
      </trkpt>
      <trkpt lat="44.01964" lon="6.91598">
        <ele>1582.160927</ele>
        <time>2010-10-10T10:46:37Z</time>
      </trkpt>
      <trkpt lat="44.01961" lon="6.91604">
        <ele>1582.225676</ele>
        <time>2010-10-10T10:46:40Z</time>
      </trkpt>
      <trkpt lat="44.01957" lon="6.91613">
        <ele>1582.423996</ele>
        <time>2010-10-10T10:46:43Z</time>
      </trkpt>
      <trkpt lat="44.01949" lon="6.91621">
        <ele>1582.554677</ele>
        <time>2010-10-10T10:46:46Z</time>
      </trkpt>
      <trkpt lat="44.01937" lon="6.91628">
        <ele>1582.458265</ele>
        <time>2010-10-10T10:46:49Z</time>
      </trkpt>
      <trkpt lat="44.01925" lon="6.91628">
        <ele>1582.092552</ele>
        <time>2010-10-10T10:46:52Z</time>
      </trkpt>
      <trkpt lat="44.01914" lon="6.91637">
        <ele>1581.706842</ele>
        <time>2010-10-10T10:46:55Z</time>
      </trkpt>
      <trkpt lat="44.01904" lon="6.91645">
        <ele>1581.520997</ele>
        <time>2010-10-10T10:46:58Z</time>
      </trkpt>
      <trkpt lat="44.01898" lon="6.9165">
        <ele>1581.491144</ele>
        <time>2010-10-10T10:47:01Z</time>
      </trkpt>
      <trkpt lat="44.01894" lon="6.91653">
        <ele>1581.521645</ele>
        <time>2010-10-10T10:47:04Z</time>
      </trkpt>
      <trkpt lat="44.01887" lon="6.91652">
        <ele>1581.414907</ele>
        <time>2010-10-10T10:47:07Z</time>
      </trkpt>
      <trkpt lat="44.01874" lon="6.91649">
        <ele>1580.931789</ele>
        <time>2010-10-10T10:47:13Z</time>
      </trkpt>
      <trkpt lat="44.01868" lon="6.9165">
        <ele>1580.204748</ele>
        <time>2010-10-10T10:47:16Z</time>
      </trkpt>
      <trkpt lat="44.01864" lon="6.91651">
        <ele>1579.657509</ele>
        <time>2010-10-10T10:47:19Z</time>
      </trkpt>
      <trkpt lat="44.01861" lon="6.91652">
        <ele>1579.31497</ele>
        <time>2010-10-10T10:47:23Z</time>
      </trkpt>
      <trkpt lat="44.01859" lon="6.91655">
        <ele>1578.957317</ele>
        <time>2010-10-10T10:47:27Z</time>
      </trkpt>
      <trkpt lat="44.01858" lon="6.9166">
        <ele>1578.647788</ele>
        <time>2010-10-10T10:47:31Z</time>
      </trkpt>
      <trkpt lat="44.01858" lon="6.91667">
        <ele>1578.516937</ele>
        <time>2010-10-10T10:47:34Z</time>
      </trkpt>
      <trkpt lat="44.01857" lon="6.91678">
        <ele>1578.506732</ele>
        <time>2010-10-10T10:47:37Z</time>
      </trkpt>
      <trkpt lat="44.01854" lon="6.91687">
        <ele>1578.536338</ele>
        <time>2010-10-10T10:47:40Z</time>
      </trkpt>
      <trkpt lat="44.01852" lon="6.91694">
        <ele>1578.561508</ele>
        <time>2010-10-10T10:47:43Z</time>
      </trkpt>
      <trkpt lat="44.0185" lon="6.91699">
        <ele>1578.572004</ele>
        <time>2010-10-10T10:47:46Z</time>
      </trkpt>
      <trkpt lat="44.01847" lon="6.91705">
        <ele>1578.572729</ele>
        <time>2010-10-10T10:47:49Z</time>
      </trkpt>
      <trkpt lat="44.01845" lon="6.91708">
        <ele>1578.432114</ele>
        <time>2010-10-10T10:47:51Z</time>
      </trkpt>
      <trkpt lat="44.01832" lon="6.91723">
        <ele>1578.0702</ele>
        <time>2010-10-10T10:48:16Z</time>
      </trkpt>
      <trkpt lat="44.01828" lon="6.91731">
        <ele>1577.838125</ele>
        <time>2010-10-10T10:48:18Z</time>
      </trkpt>
      <trkpt lat="44.01822" lon="6.91738">
        <ele>1578.022712</ele>
        <time>2010-10-10T10:48:21Z</time>
      </trkpt>
      <trkpt lat="44.01814" lon="6.9174">
        <ele>1578.227642</ele>
        <time>2010-10-10T10:48:24Z</time>
      </trkpt>
      <trkpt lat="44.01807" lon="6.9174">
        <ele>1578.07317</ele>
        <time>2010-10-10T10:48:27Z</time>
      </trkpt>
      <trkpt lat="44.01801" lon="6.9174">
        <ele>1577.760445</ele>
        <time>2010-10-10T10:48:30Z</time>
      </trkpt>
      <trkpt lat="44.01794" lon="6.91739">
        <ele>1577.43112</ele>
        <time>2010-10-10T10:48:33Z</time>
      </trkpt>
      <trkpt lat="44.01794" lon="6.91739">
        <ele>1576.884616</ele>
        <time>2010-10-10T10:48:35Z</time>
      </trkpt>
      <trkpt lat="44.01794" lon="6.91774">
        <ele>1576.178615</ele>
        <time>2010-10-10T10:48:59Z</time>
      </trkpt>
      <trkpt lat="44.018" lon="6.91781">
        <ele>1575.659972</ele>
        <time>2010-10-10T10:49:01Z</time>
      </trkpt>
      <trkpt lat="44.01809" lon="6.91797">
        <ele>1575.464924</ele>
        <time>2010-10-10T10:49:04Z</time>
      </trkpt>
      <trkpt lat="44.01812" lon="6.91819">
        <ele>1575.466026</ele>
        <time>2010-10-10T10:49:07Z</time>
      </trkpt>
      <trkpt lat="44.01811" lon="6.91841">
        <ele>1575.522446</ele>
        <time>2010-10-10T10:49:10Z</time>
      </trkpt>
      <trkpt lat="44.01808" lon="6.91858">
        <ele>1575.570772</ele>
        <time>2010-10-10T10:49:13Z</time>
      </trkpt>
      <trkpt lat="44.01803" lon="6.91874">
        <ele>1575.872688</ele>
        <time>2010-10-10T10:49:16Z</time>
      </trkpt>
      <trkpt lat="44.01796" lon="6.91888">
        <ele>1576.59267</ele>
        <time>2010-10-10T10:49:19Z</time>
      </trkpt>
      <trkpt lat="44.01793" lon="6.91894">
        <ele>1577.456425</ele>
        <time>2010-10-10T10:49:21Z</time>
      </trkpt>
      <trkpt lat="44.01789" lon="6.91902">
        <ele>1578.294983</ele>
        <time>2010-10-10T10:49:24Z</time>
      </trkpt>
      <trkpt lat="44.01787" lon="6.91906">
        <ele>1579.073624</ele>
        <time>2010-10-10T10:49:26Z</time>
      </trkpt>
      <trkpt lat="44.01783" lon="6.91914">
        <ele>1579.558398</ele>
        <time>2010-10-10T10:49:29Z</time>
      </trkpt>
      <trkpt lat="44.01778" lon="6.91922">
        <ele>1579.701084</ele>
        <time>2010-10-10T10:49:32Z</time>
      </trkpt>
      <trkpt lat="44.01775" lon="6.91928">
        <ele>1579.670261</ele>
        <time>2010-10-10T10:49:34Z</time>
      </trkpt>
      <trkpt lat="44.01769" lon="6.91936">
        <ele>1579.606431</ele>
        <time>2010-10-10T10:49:36Z</time>
      </trkpt>
      <trkpt lat="44.01759" lon="6.91948">
        <ele>1579.567216</ele>
        <time>2010-10-10T10:49:39Z</time>
      </trkpt>
      <trkpt lat="44.01748" lon="6.91958">
        <ele>1579.555915</ele>
        <time>2010-10-10T10:49:42Z</time>
      </trkpt>
      <trkpt lat="44.0174" lon="6.91966">
        <ele>1579.420418</ele>
        <time>2010-10-10T10:49:45Z</time>
      </trkpt>
      <trkpt lat="44.01734" lon="6.91974">
        <ele>1579.065773</ele>
        <time>2010-10-10T10:49:48Z</time>
      </trkpt>
      <trkpt lat="44.01729" lon="6.91983">
        <ele>1578.699527</ele>
        <time>2010-10-10T10:49:51Z</time>
      </trkpt>
      <trkpt lat="44.01725" lon="6.91989">
        <ele>1578.525169</ele>
        <time>2010-10-10T10:49:53Z</time>
      </trkpt>
      <trkpt lat="44.01721" lon="6.91995">
        <ele>1578.49841</ele>
        <time>2010-10-10T10:49:55Z</time>
      </trkpt>
      <trkpt lat="44.01715" lon="6.92001">
        <ele>1578.527969</ele>
        <time>2010-10-10T10:49:58Z</time>
      </trkpt>
      <trkpt lat="44.0171" lon="6.92005">
        <ele>1578.557826</ele>
        <time>2010-10-10T10:50:01Z</time>
      </trkpt>
      <trkpt lat="44.01705" lon="6.92009">
        <ele>1578.571859</ele>
        <time>2010-10-10T10:50:04Z</time>
      </trkpt>
      <trkpt lat="44.01701" lon="6.92013">
        <ele>1578.573907</ele>
        <time>2010-10-10T10:50:07Z</time>
      </trkpt>
      <trkpt lat="44.01697" lon="6.92017">
        <ele>1578.57145</ele>
        <time>2010-10-10T10:50:10Z</time>
      </trkpt>
      <trkpt lat="44.01693" lon="6.92021">
        <ele>1578.569019</ele>
        <time>2010-10-10T10:50:13Z</time>
      </trkpt>
      <trkpt lat="44.0169" lon="6.92025">
        <ele>1578.706069</ele>
        <time>2010-10-10T10:50:16Z</time>
      </trkpt>
      <trkpt lat="44.01686" lon="6.92029">
        <ele>1579.065806</ele>
        <time>2010-10-10T10:50:19Z</time>
      </trkpt>
      <trkpt lat="44.01681" lon="6.92033">
        <ele>1579.435447</ele>
        <time>2010-10-10T10:50:22Z</time>
      </trkpt>
      <trkpt lat="44.01675" lon="6.92038">
        <ele>1579.610908</ele>
        <time>2010-10-10T10:50:25Z</time>
      </trkpt>
      <trkpt lat="44.0167" lon="6.92044">
        <ele>1579.637533</ele>
        <time>2010-10-10T10:50:28Z</time>
      </trkpt>
      <trkpt lat="44.01666" lon="6.9205">
        <ele>1579.74574</ele>
        <time>2010-10-10T10:50:31Z</time>
      </trkpt>
      <trkpt lat="44.01662" lon="6.92054">
        <ele>1580.075508</ele>
        <time>2010-10-10T10:50:34Z</time>
      </trkpt>
      <trkpt lat="44.01662" lon="6.92054">
        <ele>1580.43083</ele>
        <time>2010-10-10T10:50:43Z</time>
      </trkpt>
      <trkpt lat="44.01652" lon="6.92019">
        <ele>1580.604062</ele>
        <time>2010-10-10T10:51:23Z</time>
      </trkpt>
      <trkpt lat="44.0165" lon="6.92015">
        <ele>1580.633088</ele>
        <time>2010-10-10T10:51:28Z</time>
      </trkpt>
      <trkpt lat="44.0165" lon="6.92015">
        <ele>1580.605558</ele>
        <time>2010-10-10T10:51:39Z</time>
      </trkpt>
      <trkpt lat="44.0165" lon="6.92015">
        <ele>1580.576576</ele>
        <time>2010-10-10T10:51:54Z</time>
      </trkpt>
      <trkpt lat="44.01635" lon="6.92032">
        <ele>1580.562607</ele>
        <time>2010-10-10T10:53:01Z</time>
      </trkpt>
      <trkpt lat="44.01626" lon="6.92038">
        <ele>1580.56035</ele>
        <time>2010-10-10T10:53:04Z</time>
      </trkpt>
      <trkpt lat="44.01615" lon="6.92043">
        <ele>1580.700809</ele>
        <time>2010-10-10T10:53:07Z</time>
      </trkpt>
      <trkpt lat="44.01604" lon="6.92049">
        <ele>1581.615768</ele>
        <time>2010-10-10T10:53:10Z</time>
      </trkpt>
      <trkpt lat="44.01593" lon="6.92056">
        <ele>1583.42589</ele>
        <time>2010-10-10T10:53:13Z</time>
      </trkpt>
      <trkpt lat="44.01583" lon="6.92062">
        <ele>1585.079061</ele>
        <time>2010-10-10T10:53:16Z</time>
      </trkpt>
      <trkpt lat="44.01576" lon="6.92064">
        <ele>1585.806448</ele>
        <time>2010-10-10T10:53:18Z</time>
      </trkpt>
      <trkpt lat="44.01569" lon="6.92064">
        <ele>1585.882395</ele>
        <time>2010-10-10T10:53:20Z</time>
      </trkpt>
      <trkpt lat="44.01559" lon="6.92062">
        <ele>1585.870429</ele>
        <time>2010-10-10T10:53:23Z</time>
      </trkpt>
      <trkpt lat="44.01549" lon="6.92059">
        <ele>1586.095772</ele>
        <time>2010-10-10T10:53:26Z</time>
      </trkpt>
      <trkpt lat="44.0154" lon="6.92063">
        <ele>1586.406809</ele>
        <time>2010-10-10T10:53:29Z</time>
      </trkpt>
      <trkpt lat="44.0153" lon="6.92065">
        <ele>1586.714666</ele>
        <time>2010-10-10T10:53:32Z</time>
      </trkpt>
      <trkpt lat="44.01523" lon="6.92067">
        <ele>1587.113519</ele>
        <time>2010-10-10T10:53:34Z</time>
      </trkpt>
      <trkpt lat="44.01513" lon="6.92069">
        <ele>1587.602074</ele>
        <time>2010-10-10T10:53:37Z</time>
      </trkpt>
      <trkpt lat="44.01501" lon="6.92069">
        <ele>1588.111785</ele>
        <time>2010-10-10T10:53:40Z</time>
      </trkpt>
      <trkpt lat="44.01489" lon="6.92066">
        <ele>1588.494043</ele>
        <time>2010-10-10T10:53:43Z</time>
      </trkpt>
      <trkpt lat="44.01478" lon="6.9206">
        <ele>1588.636265</ele>
        <time>2010-10-10T10:53:46Z</time>
      </trkpt>
      <trkpt lat="44.01466" lon="6.92052">
        <ele>1588.77246</ele>
        <time>2010-10-10T10:53:49Z</time>
      </trkpt>
      <trkpt lat="44.01451" lon="6.92041">
        <ele>1589.090306</ele>
        <time>2010-10-10T10:53:52Z</time>
      </trkpt>
      <trkpt lat="44.01435" lon="6.92026">
        <ele>1589.428669</ele>
        <time>2010-10-10T10:53:55Z</time>
      </trkpt>
      <trkpt lat="44.0142" lon="6.92006">
        <ele>1589.592546</ele>
        <time>2010-10-10T10:53:58Z</time>
      </trkpt>
      <trkpt lat="44.01408" lon="6.91985">
        <ele>1589.619362</ele>
        <time>2010-10-10T10:54:01Z</time>
      </trkpt>
      <trkpt lat="44.01395" lon="6.91966">
        <ele>1589.592822</ele>
        <time>2010-10-10T10:54:04Z</time>
      </trkpt>
      <trkpt lat="44.01382" lon="6.91948">
        <ele>1589.565212</ele>
        <time>2010-10-10T10:54:07Z</time>
      </trkpt>
      <trkpt lat="44.01364" lon="6.91936">
        <ele>1589.551989</ele>
        <time>2010-10-10T10:54:10Z</time>
      </trkpt>
      <trkpt lat="44.01351" lon="6.91938">
        <ele>1589.549881</ele>
        <time>2010-10-10T10:54:12Z</time>
      </trkpt>
      <trkpt lat="44.01332" lon="6.91933">
        <ele>1589.552024</ele>
        <time>2010-10-10T10:54:15Z</time>
      </trkpt>
      <trkpt lat="44.01321" lon="6.91926">
        <ele>1589.554191</ele>
        <time>2010-10-10T10:54:17Z</time>
      </trkpt>
      <trkpt lat="44.01304" lon="6.91919">
        <ele>1589.555179</ele>
        <time>2010-10-10T10:54:20Z</time>
      </trkpt>
      <trkpt lat="44.01285" lon="6.91918">
        <ele>1589.555287</ele>
        <time>2010-10-10T10:54:23Z</time>
      </trkpt>
      <trkpt lat="44.01267" lon="6.91921">
        <ele>1589.555075</ele>
        <time>2010-10-10T10:54:26Z</time>
      </trkpt>
      <trkpt lat="44.01248" lon="6.91923">
        <ele>1589.55487</ele>
        <time>2010-10-10T10:54:29Z</time>
      </trkpt>
      <trkpt lat="44.01234" lon="6.91936">
        <ele>1589.554753</ele>
        <time>2010-10-10T10:54:32Z</time>
      </trkpt>
      <trkpt lat="44.01225" lon="6.91947">
        <ele>1589.5547</ele>
        <time>2010-10-10T10:54:34Z</time>
      </trkpt>
      <trkpt lat="44.01212" lon="6.91965">
        <ele>1589.554683</ele>
        <time>2010-10-10T10:54:37Z</time>
      </trkpt>
      <trkpt lat="44.012" lon="6.91986">
        <ele>1589.554686</ele>
        <time>2010-10-10T10:54:40Z</time>
      </trkpt>
      <trkpt lat="44.01191" lon="6.9201">
        <ele>1589.554694</ele>
        <time>2010-10-10T10:54:43Z</time>
      </trkpt>
      <trkpt lat="44.01182" lon="6.92029">
        <ele>1589.554692</ele>
        <time>2010-10-10T10:54:46Z</time>
      </trkpt>
      <trkpt lat="44.01167" lon="6.92035">
        <ele>1589.554685</ele>
        <time>2010-10-10T10:54:49Z</time>
      </trkpt>
      <trkpt lat="44.01156" lon="6.92037">
        <ele>1589.554684</ele>
        <time>2010-10-10T10:54:51Z</time>
      </trkpt>
      <trkpt lat="44.01144" lon="6.92041">
        <ele>1589.554694</ele>
        <time>2010-10-10T10:54:53Z</time>
      </trkpt>
      <trkpt lat="44.01134" lon="6.92049">
        <ele>1589.554709</ele>
        <time>2010-10-10T10:54:55Z</time>
      </trkpt>
      <trkpt lat="44.01119" lon="6.92058">
        <ele>1589.41655</ele>
        <time>2010-10-10T10:54:58Z</time>
      </trkpt>
      <trkpt lat="44.01108" lon="6.92059">
        <ele>1589.194856</ele>
        <time>2010-10-10T10:55:01Z</time>
      </trkpt>
      <trkpt lat="44.01095" lon="6.92052">
        <ele>1589.185324</ele>
        <time>2010-10-10T10:55:04Z</time>
      </trkpt>
      <trkpt lat="44.01081" lon="6.92043">
        <ele>1589.379499</ele>
        <time>2010-10-10T10:55:07Z</time>
      </trkpt>
      <trkpt lat="44.01072" lon="6.92037">
        <ele>1589.66639</ele>
        <time>2010-10-10T10:55:09Z</time>
      </trkpt>
      <trkpt lat="44.01058" lon="6.92031">
        <ele>1590.082748</ele>
        <time>2010-10-10T10:55:12Z</time>
      </trkpt>
      <trkpt lat="44.01044" lon="6.92029">
        <ele>1590.452254</ele>
        <time>2010-10-10T10:55:15Z</time>
      </trkpt>
      <trkpt lat="44.01028" lon="6.92026">
        <ele>1590.611479</ele>
        <time>2010-10-10T10:55:18Z</time>
      </trkpt>
      <trkpt lat="44.01009" lon="6.92024">
        <ele>1590.625928</ele>
        <time>2010-10-10T10:55:21Z</time>
      </trkpt>
      <trkpt lat="44.00988" lon="6.92022">
        <ele>1590.591414</ele>
        <time>2010-10-10T10:55:24Z</time>
      </trkpt>
      <trkpt lat="44.00968" lon="6.92016">
        <ele>1590.561329</ele>
        <time>2010-10-10T10:55:27Z</time>
      </trkpt>
      <trkpt lat="44.00951" lon="6.91999">
        <ele>1590.548524</ele>
        <time>2010-10-10T10:55:30Z</time>
      </trkpt>
      <trkpt lat="44.00943" lon="6.91985">
        <ele>1590.54745</ele>
        <time>2010-10-10T10:55:32Z</time>
      </trkpt>
      <trkpt lat="44.00938" lon="6.91968">
        <ele>1590.550271</ele>
        <time>2010-10-10T10:55:34Z</time>
      </trkpt>
      <trkpt lat="44.00934" lon="6.91938">
        <ele>1590.552674</ele>
        <time>2010-10-10T10:55:37Z</time>
      </trkpt>
      <trkpt lat="44.00926" lon="6.91912">
        <ele>1590.55365</ele>
        <time>2010-10-10T10:55:40Z</time>
      </trkpt>
      <trkpt lat="44.00917" lon="6.91885">
        <ele>1590.553675</ele>
        <time>2010-10-10T10:55:43Z</time>
      </trkpt>
      <trkpt lat="44.00908" lon="6.91858">
        <ele>1590.415212</ele>
        <time>2010-10-10T10:55:46Z</time>
      </trkpt>
      <trkpt lat="44.009" lon="6.91831">
        <ele>1590.055067</ele>
        <time>2010-10-10T10:55:49Z</time>
      </trkpt>
      <trkpt lat="44.00885" lon="6.91809">
        <ele>1589.54731</ele>
        <time>2010-10-10T10:55:52Z</time>
      </trkpt>
      <trkpt lat="44.00867" lon="6.91792">
        <ele>1589.012084</ele>
        <time>2010-10-10T10:55:55Z</time>
      </trkpt>
      <trkpt lat="44.00845" lon="6.91786">
        <ele>1588.477894</ele>
        <time>2010-10-10T10:55:58Z</time>
      </trkpt>
      <trkpt lat="44.0083" lon="6.91784">
        <ele>1587.696319</ele>
        <time>2010-10-10T10:56:00Z</time>
      </trkpt>
      <trkpt lat="44.00809" lon="6.91781">
        <ele>1586.610616</ele>
        <time>2010-10-10T10:56:03Z</time>
      </trkpt>
      <trkpt lat="44.00788" lon="6.91781">
        <ele>1585.46415</ele>
        <time>2010-10-10T10:56:06Z</time>
      </trkpt>
      <trkpt lat="44.00767" lon="6.91778">
        <ele>1584.261211</ele>
        <time>2010-10-10T10:56:09Z</time>
      </trkpt>
      <trkpt lat="44.00747" lon="6.91771">
        <ele>1582.874579</ele>
        <time>2010-10-10T10:56:12Z</time>
      </trkpt>
      <trkpt lat="44.00727" lon="6.91764">
        <ele>1581.248096</ele>
        <time>2010-10-10T10:56:15Z</time>
      </trkpt>
      <trkpt lat="44.00713" lon="6.91759">
        <ele>1579.355414</ele>
        <time>2010-10-10T10:56:17Z</time>
      </trkpt>
      <trkpt lat="44.00692" lon="6.91751">
        <ele>1577.469074</ele>
        <time>2010-10-10T10:56:20Z</time>
      </trkpt>
      <trkpt lat="44.00673" lon="6.91743">
        <ele>1575.919334</ele>
        <time>2010-10-10T10:56:23Z</time>
      </trkpt>
      <trkpt lat="44.00661" lon="6.91738">
        <ele>1574.759078</ele>
        <time>2010-10-10T10:56:25Z</time>
      </trkpt>
      <trkpt lat="44.00646" lon="6.9173">
        <ele>1573.657617</ele>
        <time>2010-10-10T10:56:28Z</time>
      </trkpt>
      <trkpt lat="44.00635" lon="6.91725">
        <ele>1572.509765</ele>
        <time>2010-10-10T10:56:30Z</time>
      </trkpt>
      <trkpt lat="44.00616" lon="6.91724">
        <ele>1571.684071</ele>
        <time>2010-10-10T10:56:33Z</time>
      </trkpt>
      <trkpt lat="44.00604" lon="6.91723">
        <ele>1571.390208</ele>
        <time>2010-10-10T10:56:35Z</time>
      </trkpt>
      <trkpt lat="44.00593" lon="6.9172">
        <ele>1571.404464</ele>
        <time>2010-10-10T10:56:37Z</time>
      </trkpt>
      <trkpt lat="44.00584" lon="6.91703">
        <ele>1571.498872</ele>
        <time>2010-10-10T10:56:40Z</time>
      </trkpt>
      <trkpt lat="44.00576" lon="6.91682">
        <ele>1571.565769</ele>
        <time>2010-10-10T10:56:43Z</time>
      </trkpt>
      <trkpt lat="44.00569" lon="6.91659">
        <ele>1571.451001</ele>
        <time>2010-10-10T10:56:46Z</time>
      </trkpt>
      <trkpt lat="44.00566" lon="6.91631">
        <ele>1571.089685</ele>
        <time>2010-10-10T10:56:49Z</time>
      </trkpt>
      <trkpt lat="44.00566" lon="6.91602">
        <ele>1570.712523</ele>
        <time>2010-10-10T10:56:52Z</time>
      </trkpt>
      <trkpt lat="44.00569" lon="6.91587">
        <ele>1570.531823</ele>
        <time>2010-10-10T10:56:54Z</time>
      </trkpt>
      <trkpt lat="44.00573" lon="6.91563">
        <ele>1570.503347</ele>
        <time>2010-10-10T10:56:57Z</time>
      </trkpt>
      <trkpt lat="44.00563" lon="6.91538">
        <ele>1570.395184</ele>
        <time>2010-10-10T10:57:00Z</time>
      </trkpt>
      <trkpt lat="44.00545" lon="6.91518">
        <ele>1570.065925</ele>
        <time>2010-10-10T10:57:03Z</time>
      </trkpt>
      <trkpt lat="44.00523" lon="6.91505">
        <ele>1569.710921</ele>
        <time>2010-10-10T10:57:06Z</time>
      </trkpt>
      <trkpt lat="44.00502" lon="6.91493">
        <ele>1569.537743</ele>
        <time>2010-10-10T10:57:09Z</time>
      </trkpt>
      <trkpt lat="44.00487" lon="6.91489">
        <ele>1569.508667</ele>
        <time>2010-10-10T10:57:11Z</time>
      </trkpt>
      <trkpt lat="44.00466" lon="6.91485">
        <ele>1569.536177</ele>
        <time>2010-10-10T10:57:14Z</time>
      </trkpt>
      <trkpt lat="44.00454" lon="6.91479">
        <ele>1569.565148</ele>
        <time>2010-10-10T10:57:16Z</time>
      </trkpt>
      <trkpt lat="44.00441" lon="6.91468">
        <ele>1569.579045</ele>
        <time>2010-10-10T10:57:19Z</time>
      </trkpt>
      <trkpt lat="44.0044" lon="6.91464">
        <ele>1569.581191</ele>
        <time>2010-10-10T10:57:21Z</time>
      </trkpt>
      <trkpt lat="44.0044" lon="6.91464">
        <ele>1569.440645</ele>
        <time>2010-10-10T10:58:10Z</time>
      </trkpt>
      <trkpt lat="44.00425" lon="6.9143">
        <ele>1568.96747</ele>
        <time>2010-10-10T11:00:06Z</time>
      </trkpt>
      <trkpt lat="44.00421" lon="6.91431">
        <ele>1568.142621</ele>
        <time>2010-10-10T11:00:10Z</time>
      </trkpt>
      <trkpt lat="44.00417" lon="6.91433">
        <ele>1567.101555</ele>
        <time>2010-10-10T11:00:13Z</time>
      </trkpt>
      <trkpt lat="44.00407" lon="6.91441">
        <ele>1562.263262</ele>
        <time>2010-10-10T11:00:21Z</time>
      </trkpt>
      <trkpt lat="44.004" lon="6.91447">
        <ele>1551.615812</ele>
        <time>2010-10-10T11:00:23Z</time>
      </trkpt>
      <trkpt lat="44.00387" lon="6.91458">
        <ele>1541.118828</ele>
        <time>2010-10-10T11:00:26Z</time>
      </trkpt>
      <trkpt lat="44.00377" lon="6.91465">
        <ele>1536.120967</ele>
        <time>2010-10-10T11:00:28Z</time>
      </trkpt>
      <trkpt lat="44.00369" lon="6.9147">
        <ele>1534.959408</ele>
        <time>2010-10-10T11:00:30Z</time>
      </trkpt>
      <trkpt lat="44.00352" lon="6.91482">
        <ele>1534.977616</ele>
        <time>2010-10-10T11:00:33Z</time>
      </trkpt>
      <trkpt lat="44.00333" lon="6.9149">
        <ele>1534.789921</ele>
        <time>2010-10-10T11:00:36Z</time>
      </trkpt>
      <trkpt lat="44.00315" lon="6.91495">
        <ele>1533.973071</ele>
        <time>2010-10-10T11:00:39Z</time>
      </trkpt>
      <trkpt lat="44.003" lon="6.91497">
        <ele>1532.485796</ele>
        <time>2010-10-10T11:00:42Z</time>
      </trkpt>
      <trkpt lat="44.00291" lon="6.91493">
        <ele>1530.673642</ele>
        <time>2010-10-10T11:00:44Z</time>
      </trkpt>
      <trkpt lat="44.00278" lon="6.91485">
        <ele>1529.064195</ele>
        <time>2010-10-10T11:00:47Z</time>
      </trkpt>
      <trkpt lat="44.00269" lon="6.91477">
        <ele>1527.837916</ele>
        <time>2010-10-10T11:00:49Z</time>
      </trkpt>
      <trkpt lat="44.00262" lon="6.91469">
        <ele>1526.980189</ele>
        <time>2010-10-10T11:00:51Z</time>
      </trkpt>
      <trkpt lat="44.0025" lon="6.91459">
        <ele>1526.408232</ele>
        <time>2010-10-10T11:00:54Z</time>
      </trkpt>
      <trkpt lat="44.00241" lon="6.91449">
        <ele>1525.966523</ele>
        <time>2010-10-10T11:00:57Z</time>
      </trkpt>
      <trkpt lat="44.00233" lon="6.91439">
        <ele>1525.520964</ele>
        <time>2010-10-10T11:01:00Z</time>
      </trkpt>
      <trkpt lat="44.00226" lon="6.91428">
        <ele>1524.779412</ele>
        <time>2010-10-10T11:01:03Z</time>
      </trkpt>
      <trkpt lat="44.0022" lon="6.91418">
        <ele>1523.560391</ele>
        <time>2010-10-10T11:01:06Z</time>
      </trkpt>
      <trkpt lat="44.00212" lon="6.91407">
        <ele>1522.046296</ele>
        <time>2010-10-10T11:01:09Z</time>
      </trkpt>
      <trkpt lat="44.00207" lon="6.914">
        <ele>1520.466728</ele>
        <time>2010-10-10T11:01:11Z</time>
      </trkpt>
      <trkpt lat="44.00201" lon="6.91393">
        <ele>1519.039808</ele>
        <time>2010-10-10T11:01:13Z</time>
      </trkpt>
      <trkpt lat="44.00195" lon="6.91387">
        <ele>1517.746328</ele>
        <time>2010-10-10T11:01:15Z</time>
      </trkpt>
      <trkpt lat="44.00184" lon="6.91378">
        <ele>1516.391892</ele>
        <time>2010-10-10T11:01:18Z</time>
      </trkpt>
      <trkpt lat="44.00174" lon="6.91377">
        <ele>1515.071407</ele>
        <time>2010-10-10T11:01:21Z</time>
      </trkpt>
      <trkpt lat="44.00165" lon="6.91376">
        <ele>1513.932002</ele>
        <time>2010-10-10T11:01:24Z</time>
      </trkpt>
      <trkpt lat="44.00154" lon="6.91375">
        <ele>1513.057264</ele>
        <time>2010-10-10T11:01:27Z</time>
      </trkpt>
      <trkpt lat="44.00143" lon="6.91375">
        <ele>1512.447762</ele>
        <time>2010-10-10T11:01:30Z</time>
      </trkpt>
      <trkpt lat="44.00136" lon="6.91374">
        <ele>1511.844493</ele>
        <time>2010-10-10T11:01:32Z</time>
      </trkpt>
      <trkpt lat="44.00129" lon="6.91376">
        <ele>1511.032164</ele>
        <time>2010-10-10T11:01:34Z</time>
      </trkpt>
      <trkpt lat="44.00119" lon="6.91376">
        <ele>1510.060852</ele>
        <time>2010-10-10T11:01:37Z</time>
      </trkpt>
      <trkpt lat="44.00111" lon="6.91375">
        <ele>1509.167734</ele>
        <time>2010-10-10T11:01:40Z</time>
      </trkpt>
      <trkpt lat="44.00104" lon="6.91375">
        <ele>1508.634705</ele>
        <time>2010-10-10T11:01:43Z</time>
      </trkpt>
      <trkpt lat="44.00104" lon="6.91375">
        <ele>1508.350171</ele>
        <time>2010-10-10T11:01:44Z</time>
      </trkpt>
      <trkpt lat="44.0009" lon="6.91372">
        <ele>1507.928703</ele>
        <time>2010-10-10T11:01:48Z</time>
      </trkpt>
      <trkpt lat="44.00071" lon="6.91371">
        <ele>1507.328335</ele>
        <time>2010-10-10T11:01:51Z</time>
      </trkpt>
      <trkpt lat="44.00057" lon="6.91369">
        <ele>1506.690941</ele>
        <time>2010-10-10T11:01:53Z</time>
      </trkpt>
      <trkpt lat="44.00043" lon="6.91368">
        <ele>1506.091915</ele>
        <time>2010-10-10T11:01:55Z</time>
      </trkpt>
      <trkpt lat="44.00024" lon="6.91364">
        <ele>1505.546708</ele>
        <time>2010-10-10T11:01:58Z</time>
      </trkpt>
      <trkpt lat="44.00005" lon="6.91357">
        <ele>1504.913227</ele>
        <time>2010-10-10T11:02:01Z</time>
      </trkpt>
      <trkpt lat="43.99986" lon="6.91349">
        <ele>1504.059857</ele>
        <time>2010-10-10T11:02:04Z</time>
      </trkpt>
      <trkpt lat="43.99968" lon="6.91344">
        <ele>1503.204464</ele>
        <time>2010-10-10T11:02:07Z</time>
      </trkpt>
      <trkpt lat="43.99949" lon="6.91339">
        <ele>1502.389829</ele>
        <time>2010-10-10T11:02:10Z</time>
      </trkpt>
      <trkpt lat="43.99932" lon="6.91346">
        <ele>1501.370797</ele>
        <time>2010-10-10T11:02:13Z</time>
      </trkpt>
      <trkpt lat="43.99914" lon="6.91354">
        <ele>1500.027904</ele>
        <time>2010-10-10T11:02:16Z</time>
      </trkpt>
      <trkpt lat="43.99898" lon="6.91357">
        <ele>1498.38191</ele>
        <time>2010-10-10T11:02:19Z</time>
      </trkpt>
      <trkpt lat="43.99893" lon="6.91354">
        <ele>1496.462095</ele>
        <time>2010-10-10T11:02:23Z</time>
      </trkpt>
      <trkpt lat="43.99886" lon="6.91351">
        <ele>1494.422743</ele>
        <time>2010-10-10T11:02:25Z</time>
      </trkpt>
      <trkpt lat="43.99879" lon="6.91349">
        <ele>1492.509704</ele>
        <time>2010-10-10T11:02:28Z</time>
      </trkpt>
      <trkpt lat="43.99873" lon="6.91348">
        <ele>1490.843514</ele>
        <time>2010-10-10T11:02:31Z</time>
      </trkpt>
      <trkpt lat="43.99864" lon="6.91346">
        <ele>1489.347324</ele>
        <time>2010-10-10T11:02:34Z</time>
      </trkpt>
      <trkpt lat="43.99856" lon="6.91343">
        <ele>1488.026444</ele>
        <time>2010-10-10T11:02:37Z</time>
      </trkpt>
      <trkpt lat="43.9985" lon="6.91342">
        <ele>1487.065313</ele>
        <time>2010-10-10T11:02:39Z</time>
      </trkpt>
      <trkpt lat="43.9984" lon="6.91342">
        <ele>1486.442559</ele>
        <time>2010-10-10T11:02:42Z</time>
      </trkpt>
      <trkpt lat="43.99827" lon="6.91342">
        <ele>1485.992123</ele>
        <time>2010-10-10T11:02:45Z</time>
      </trkpt>
      <trkpt lat="43.99818" lon="6.91342">
        <ele>1485.69266</ele>
        <time>2010-10-10T11:02:47Z</time>
      </trkpt>
      <trkpt lat="43.99815" lon="6.91342">
        <ele>1485.595806</ele>
        <time>2010-10-10T11:02:49Z</time>
      </trkpt>
      <trkpt lat="43.99811" lon="6.91342">
        <ele>1485.60829</ele>
        <time>2010-10-10T11:02:50Z</time>
      </trkpt>
      <trkpt lat="43.99782" lon="6.91337">
        <ele>1485.645264</ele>
        <time>2010-10-10T11:03:06Z</time>
      </trkpt>
      <trkpt lat="43.99782" lon="6.91337">
        <ele>1485.669503</ele>
        <time>2010-10-10T11:03:09Z</time>
      </trkpt>
      <trkpt lat="43.99742" lon="6.91324">
        <ele>1485.677192</ele>
        <time>2010-10-10T11:04:02Z</time>
      </trkpt>
      <trkpt lat="43.99727" lon="6.91328">
        <ele>1485.676058</ele>
        <time>2010-10-10T11:04:10Z</time>
      </trkpt>
      <trkpt lat="43.99711" lon="6.91334">
        <ele>1485.432975</ele>
        <time>2010-10-10T11:04:23Z</time>
      </trkpt>
      <trkpt lat="43.99701" lon="6.91334">
        <ele>1483.802242</ele>
        <time>2010-10-10T11:04:28Z</time>
      </trkpt>
      <trkpt lat="43.99701" lon="6.91334">
        <ele>1480.545983</ele>
        <time>2010-10-10T11:04:42Z</time>
      </trkpt>
      <trkpt lat="43.99701" lon="6.91334">
        <ele>1477.558428</ele>
        <time>2010-10-10T11:04:59Z</time>
      </trkpt>
      <trkpt lat="43.99677" lon="6.91317">
        <ele>1475.548777</ele>
        <time>2010-10-10T11:05:02Z</time>
      </trkpt>
      <trkpt lat="43.99677" lon="6.91317">
        <ele>1473.60887</ele>
        <time>2010-10-10T11:05:14Z</time>
      </trkpt>
      <trkpt lat="43.99665" lon="6.91289">
        <ele>1471.20276</ele>
        <time>2010-10-10T11:05:36Z</time>
      </trkpt>
      <trkpt lat="43.99663" lon="6.91285">
        <ele>1467.85753</ele>
        <time>2010-10-10T11:05:39Z</time>
      </trkpt>
      <trkpt lat="43.99643" lon="6.91257">
        <ele>1462.516418</ele>
        <time>2010-10-10T11:05:47Z</time>
      </trkpt>
      <trkpt lat="43.9964" lon="6.91248">
        <ele>1455.137737</ele>
        <time>2010-10-10T11:05:49Z</time>
      </trkpt>
      <trkpt lat="43.99637" lon="6.9124">
        <ele>1448.03474</ele>
        <time>2010-10-10T11:05:51Z</time>
      </trkpt>
      <trkpt lat="43.99632" lon="6.91228">
        <ele>1443.434441</ele>
        <time>2010-10-10T11:05:54Z</time>
      </trkpt>
      <trkpt lat="43.99627" lon="6.91217">
        <ele>1440.954631</ele>
        <time>2010-10-10T11:05:57Z</time>
      </trkpt>
      <trkpt lat="43.99624" lon="6.91211">
        <ele>1439.591908</ele>
        <time>2010-10-10T11:06:00Z</time>
      </trkpt>
      <trkpt lat="43.99624" lon="6.91211">
        <ele>1438.770405</ele>
        <time>2010-10-10T11:06:01Z</time>
      </trkpt>
      <trkpt lat="43.99624" lon="6.91211">
        <ele>1438.087005</ele>
        <time>2010-10-10T11:06:29Z</time>
      </trkpt>
      <trkpt lat="43.99609" lon="6.91204">
        <ele>1437.295857</ele>
        <time>2010-10-10T11:08:34Z</time>
      </trkpt>
      <trkpt lat="43.99601" lon="6.91196">
        <ele>1436.150341</ele>
        <time>2010-10-10T11:08:37Z</time>
      </trkpt>
      <trkpt lat="43.99592" lon="6.91187">
        <ele>1434.534165</ele>
        <time>2010-10-10T11:08:40Z</time>
      </trkpt>
      <trkpt lat="43.99586" lon="6.91182">
        <ele>1424.704395</ele>
        <time>2010-10-10T11:08:42Z</time>
      </trkpt>
      <trkpt lat="43.99578" lon="6.91173">
        <ele>1402.393618</ele>
        <time>2010-10-10T11:08:45Z</time>
      </trkpt>
      <trkpt lat="43.99574" lon="6.91168">
        <ele>1380.264866</ele>
        <time>2010-10-10T11:08:47Z</time>
      </trkpt>
      <trkpt lat="43.99567" lon="6.91161">
        <ele>1369.981614</ele>
        <time>2010-10-10T11:08:50Z</time>
      </trkpt>
      <trkpt lat="43.9956" lon="6.91155">
        <ele>1368.415747</ele>
        <time>2010-10-10T11:08:53Z</time>
      </trkpt>
      <trkpt lat="43.99555" lon="6.91151">
        <ele>1369.9122</ele>
        <time>2010-10-10T11:08:55Z</time>
      </trkpt>
      <trkpt lat="43.9955" lon="6.91147">
        <ele>1371.207268</ele>
        <time>2010-10-10T11:08:57Z</time>
      </trkpt>
      <trkpt lat="43.99543" lon="6.91143">
        <ele>1371.498743</ele>
        <time>2010-10-10T11:09:00Z</time>
      </trkpt>
      <trkpt lat="43.99535" lon="6.91142">
        <ele>1371.072561</ele>
        <time>2010-10-10T11:09:03Z</time>
      </trkpt>
      <trkpt lat="43.99527" lon="6.91142">
        <ele>1370.413043</ele>
        <time>2010-10-10T11:09:06Z</time>
      </trkpt>
      <trkpt lat="43.99521" lon="6.91143">
        <ele>1369.623993</ele>
        <time>2010-10-10T11:09:08Z</time>
      </trkpt>
      <trkpt lat="43.99514" lon="6.91143">
        <ele>1368.568404</ele>
        <time>2010-10-10T11:09:11Z</time>
      </trkpt>
      <trkpt lat="43.99509" lon="6.91141">
        <ele>1367.328926</ele>
        <time>2010-10-10T11:09:13Z</time>
      </trkpt>
      <trkpt lat="43.99501" lon="6.91137">
        <ele>1366.303472</ele>
        <time>2010-10-10T11:09:16Z</time>
      </trkpt>
      <trkpt lat="43.99491" lon="6.91132">
        <ele>1365.60916</ele>
        <time>2010-10-10T11:09:19Z</time>
      </trkpt>
      <trkpt lat="43.99481" lon="6.91127">
        <ele>1364.985063</ele>
        <time>2010-10-10T11:09:22Z</time>
      </trkpt>
      <trkpt lat="43.99471" lon="6.91124">
        <ele>1364.319416</ele>
        <time>2010-10-10T11:09:25Z</time>
      </trkpt>
      <trkpt lat="43.99466" lon="6.91123">
        <ele>1363.720325</ele>
        <time>2010-10-10T11:09:27Z</time>
      </trkpt>
      <trkpt lat="43.99458" lon="6.9112">
        <ele>1363.203487</ele>
        <time>2010-10-10T11:09:30Z</time>
      </trkpt>
      <trkpt lat="43.9945" lon="6.91117">
        <ele>1362.847339</ele>
        <time>2010-10-10T11:09:33Z</time>
      </trkpt>
      <trkpt lat="43.99442" lon="6.91113">
        <ele>1362.726765</ele>
        <time>2010-10-10T11:09:36Z</time>
      </trkpt>
      <trkpt lat="43.99436" lon="6.91111">
        <ele>1362.737562</ele>
        <time>2010-10-10T11:09:39Z</time>
      </trkpt>
      <trkpt lat="43.99436" lon="6.91111">
        <ele>1362.641864</ele>
        <time>2010-10-10T11:09:40Z</time>
      </trkpt>
      <trkpt lat="43.99405" lon="6.91112">
        <ele>1362.31085</ele>
        <time>2010-10-10T11:10:04Z</time>
      </trkpt>
      <trkpt lat="43.994" lon="6.91114">
        <ele>1361.951028</ele>
        <time>2010-10-10T11:10:07Z</time>
      </trkpt>
      <trkpt lat="43.994" lon="6.91114">
        <ele>1361.685796</ele>
        <time>2010-10-10T11:10:08Z</time>
      </trkpt>
      <trkpt lat="43.99373" lon="6.91127">
        <ele>1361.315375</ele>
        <time>2010-10-10T11:10:33Z</time>
      </trkpt>
      <trkpt lat="43.99373" lon="6.91127">
        <ele>1360.73426</ele>
        <time>2010-10-10T11:10:43Z</time>
      </trkpt>
      <trkpt lat="43.99373" lon="6.91127">
        <ele>1360.051125</ele>
        <time>2010-10-10T11:10:59Z</time>
      </trkpt>
      <trkpt lat="43.99349" lon="6.91107">
        <ele>1359.003108</ele>
        <time>2010-10-10T11:11:29Z</time>
      </trkpt>
      <trkpt lat="43.99349" lon="6.91107">
        <ele>1357.695162</ele>
        <time>2010-10-10T11:11:39Z</time>
      </trkpt>
      <trkpt lat="43.99331" lon="6.91066">
        <ele>1356.96209</ele>
        <time>2010-10-10T11:11:55Z</time>
      </trkpt>
      <trkpt lat="43.99327" lon="6.91057">
        <ele>1354.849014</ele>
        <time>2010-10-10T11:11:59Z</time>
      </trkpt>
      <trkpt lat="43.99324" lon="6.91049">
        <ele>1347.397258</ele>
        <time>2010-10-10T11:12:04Z</time>
      </trkpt>
      <trkpt lat="43.99316" lon="6.91043">
        <ele>1335.706527</ele>
        <time>2010-10-10T11:12:16Z</time>
      </trkpt>
      <trkpt lat="43.9931" lon="6.91046">
        <ele>1325.54783</ele>
        <time>2010-10-10T11:12:25Z</time>
      </trkpt>
      <trkpt lat="43.99308" lon="6.9105">
        <ele>1320.154703</ele>
        <time>2010-10-10T11:12:31Z</time>
      </trkpt>
      <trkpt lat="43.99308" lon="6.9105">
        <ele>1318.599531</ele>
        <time>2010-10-10T11:12:39Z</time>
      </trkpt>
      <trkpt lat="43.99308" lon="6.9105">
        <ele>1318.82854</ele>
        <time>2010-10-10T11:13:02Z</time>
      </trkpt>
      <trkpt lat="43.99282" lon="6.91035">
        <ele>1319.443841</ele>
        <time>2010-10-10T11:13:17Z</time>
      </trkpt>
      <trkpt lat="43.99282" lon="6.91035">
        <ele>1319.671822</ele>
        <time>2010-10-10T11:13:25Z</time>
      </trkpt>
      <trkpt lat="43.99282" lon="6.91035">
        <ele>1319.287295</ele>
        <time>2010-10-10T11:13:48Z</time>
      </trkpt>
      <trkpt lat="43.99304" lon="6.91063">
        <ele>1318.608623</ele>
        <time>2010-10-10T11:17:27Z</time>
      </trkpt>
      <trkpt lat="43.99317" lon="6.91066">
        <ele>1317.966096</ele>
        <time>2010-10-10T11:17:39Z</time>
      </trkpt>
      <trkpt lat="43.99326" lon="6.91068">
        <ele>1317.122114</ele>
        <time>2010-10-10T11:17:53Z</time>
      </trkpt>
      <trkpt lat="43.99329" lon="6.9107">
        <ele>1309.906132</ele>
        <time>2010-10-10T11:17:57Z</time>
      </trkpt>
      <trkpt lat="43.99329" lon="6.9107">
        <ele>1293.150462</ele>
        <time>2010-10-10T11:18:08Z</time>
      </trkpt>
      <trkpt lat="43.99329" lon="6.9107">
        <ele>1276.526935</ele>
        <time>2010-10-10T11:19:37Z</time>
      </trkpt>
      <trkpt lat="43.99313" lon="6.91057">
        <ele>1267.971604</ele>
        <time>2010-10-10T11:20:38Z</time>
      </trkpt>
      <trkpt lat="43.9931" lon="6.91055">
        <ele>1264.462433</ele>
        <time>2010-10-10T11:20:41Z</time>
      </trkpt>
      <trkpt lat="43.9931" lon="6.91055">
        <ele>1262.920231</ele>
        <time>2010-10-10T11:20:50Z</time>
      </trkpt>
      <trkpt lat="43.99295" lon="6.91051">
        <ele>1262.069503</ele>
        <time>2010-10-10T11:21:03Z</time>
      </trkpt>
      <trkpt lat="43.99287" lon="6.91048">
        <ele>1260.410329</ele>
        <time>2010-10-10T11:21:05Z</time>
      </trkpt>
      <trkpt lat="43.9928" lon="6.91045">
        <ele>1257.710579</ele>
        <time>2010-10-10T11:21:07Z</time>
      </trkpt>
      <trkpt lat="43.99275" lon="6.91043">
        <ele>1255.324112</ele>
        <time>2010-10-10T11:21:10Z</time>
      </trkpt>
      <trkpt lat="43.9926" lon="6.91039">
        <ele>1254.180976</ele>
        <time>2010-10-10T11:21:43Z</time>
      </trkpt>
      <trkpt lat="43.99255" lon="6.91034">
        <ele>1254.119127</ele>
        <time>2010-10-10T11:21:45Z</time>
      </trkpt>
      <trkpt lat="43.99246" lon="6.91026">
        <ele>1254.53649</ele>
        <time>2010-10-10T11:21:48Z</time>
      </trkpt>
      <trkpt lat="43.99237" lon="6.91024">
        <ele>1254.86795</ele>
        <time>2010-10-10T11:21:51Z</time>
      </trkpt>
      <trkpt lat="43.99227" lon="6.91028">
        <ele>1254.998271</ele>
        <time>2010-10-10T11:21:54Z</time>
      </trkpt>
      <trkpt lat="43.9922" lon="6.91033">
        <ele>1255.001813</ele>
        <time>2010-10-10T11:21:57Z</time>
      </trkpt>
      <trkpt lat="43.99217" lon="6.91036">
        <ele>1254.967337</ele>
        <time>2010-10-10T11:21:59Z</time>
      </trkpt>
      <trkpt lat="43.99217" lon="6.91036">
        <ele>1254.940404</ele>
        <time>2010-10-10T11:22:00Z</time>
      </trkpt>
      <trkpt lat="43.99186" lon="6.91055">
        <ele>1254.791799</ele>
        <time>2010-10-10T11:22:38Z</time>
      </trkpt>
      <trkpt lat="43.99182" lon="6.91056">
        <ele>1254.431744</ele>
        <time>2010-10-10T11:22:41Z</time>
      </trkpt>
      <trkpt lat="43.99179" lon="6.91057">
        <ele>1254.203331</ele>
        <time>2010-10-10T11:22:44Z</time>
      </trkpt>
      <trkpt lat="43.99175" lon="6.91057">
        <ele>1254.390138</ele>
        <time>2010-10-10T11:22:47Z</time>
      </trkpt>
      <trkpt lat="43.9917" lon="6.91056">
        <ele>1254.733863</ele>
        <time>2010-10-10T11:22:53Z</time>
      </trkpt>
      <trkpt lat="43.99167" lon="6.91054">
        <ele>1254.939104</ele>
        <time>2010-10-10T11:22:57Z</time>
      </trkpt>
      <trkpt lat="43.99164" lon="6.91052">
        <ele>1254.995503</ele>
        <time>2010-10-10T11:23:00Z</time>
      </trkpt>
      <trkpt lat="43.99161" lon="6.9105">
        <ele>1254.979439</ele>
        <time>2010-10-10T11:23:03Z</time>
      </trkpt>
      <trkpt lat="43.99156" lon="6.91046">
        <ele>1255.089462</ele>
        <time>2010-10-10T11:23:08Z</time>
      </trkpt>
      <trkpt lat="43.99151" lon="6.91043">
        <ele>1255.432746</ele>
        <time>2010-10-10T11:23:10Z</time>
      </trkpt>
      <trkpt lat="43.99144" lon="6.91038">
        <ele>1255.797705</ele>
        <time>2010-10-10T11:23:13Z</time>
      </trkpt>
      <trkpt lat="43.99136" lon="6.91032">
        <ele>1255.974333</ele>
        <time>2010-10-10T11:23:16Z</time>
      </trkpt>
      <trkpt lat="43.99128" lon="6.91026">
        <ele>1256.003165</ele>
        <time>2010-10-10T11:23:19Z</time>
      </trkpt>
      <trkpt lat="43.9912" lon="6.91023">
        <ele>1255.974504</ele>
        <time>2010-10-10T11:23:22Z</time>
      </trkpt>
      <trkpt lat="43.99116" lon="6.91021">
        <ele>1255.944712</ele>
        <time>2010-10-10T11:23:24Z</time>
      </trkpt>
      <trkpt lat="43.9911" lon="6.91021">
        <ele>1255.930459</ele>
        <time>2010-10-10T11:23:27Z</time>
      </trkpt>
      <trkpt lat="43.99104" lon="6.91023">
        <ele>1255.928226</ele>
        <time>2010-10-10T11:23:30Z</time>
      </trkpt>
      <trkpt lat="43.991" lon="6.91024">
        <ele>1255.930605</ele>
        <time>2010-10-10T11:23:32Z</time>
      </trkpt>
      <trkpt lat="43.99095" lon="6.9103">
        <ele>1255.933029</ele>
        <time>2010-10-10T11:23:35Z</time>
      </trkpt>
      <trkpt lat="43.99093" lon="6.91038">
        <ele>1255.934174</ele>
        <time>2010-10-10T11:23:38Z</time>
      </trkpt>
      <trkpt lat="43.99093" lon="6.91038">
        <ele>1255.796165</ele>
        <time>2010-10-10T11:23:39Z</time>
      </trkpt>
      <trkpt lat="43.99083" lon="6.91003">
        <ele>1255.374378</ele>
        <time>2010-10-10T11:25:09Z</time>
      </trkpt>
      <trkpt lat="43.99089" lon="6.90989">
        <ele>1254.629398</ele>
        <time>2010-10-10T11:25:14Z</time>
      </trkpt>
      <trkpt lat="43.99093" lon="6.90981">
        <ele>1253.039114</ele>
        <time>2010-10-10T11:25:17Z</time>
      </trkpt>
      <trkpt lat="43.99095" lon="6.90977">
        <ele>1241.717543</ele>
        <time>2010-10-10T11:25:19Z</time>
      </trkpt>
      <trkpt lat="43.991" lon="6.90966">
        <ele>1216.444949</ele>
        <time>2010-10-10T11:25:29Z</time>
      </trkpt>
      <trkpt lat="43.99099" lon="6.90962">
        <ele>1191.567178</ele>
        <time>2010-10-10T11:25:32Z</time>
      </trkpt>
      <trkpt lat="43.99097" lon="6.90956">
        <ele>1179.646122</ele>
        <time>2010-10-10T11:25:35Z</time>
      </trkpt>
      <trkpt lat="43.99094" lon="6.90952">
        <ele>1177.25815</ele>
        <time>2010-10-10T11:25:38Z</time>
      </trkpt>
      <trkpt lat="43.99091" lon="6.90948">
        <ele>1178.582694</ele>
        <time>2010-10-10T11:25:40Z</time>
      </trkpt>
      <trkpt lat="43.99085" lon="6.90945">
        <ele>1180.120911</ele>
        <time>2010-10-10T11:25:43Z</time>
      </trkpt>
      <trkpt lat="43.9908" lon="6.90945">
        <ele>1180.644213</ele>
        <time>2010-10-10T11:25:46Z</time>
      </trkpt>
      <trkpt lat="43.99075" lon="6.90947">
        <ele>1180.323082</ele>
        <time>2010-10-10T11:25:49Z</time>
      </trkpt>
      <trkpt lat="43.99071" lon="6.90949">
        <ele>1179.676509</ele>
        <time>2010-10-10T11:25:52Z</time>
      </trkpt>
      <trkpt lat="43.9907" lon="6.90953">
        <ele>1179.005442</ele>
        <time>2010-10-10T11:26:04Z</time>
      </trkpt>
      <trkpt lat="43.9907" lon="6.90953">
        <ele>1178.377233</ele>
        <time>2010-10-10T11:26:06Z</time>
      </trkpt>
      <trkpt lat="43.99042" lon="6.90959">
        <ele>1177.775503</ele>
        <time>2010-10-10T11:26:49Z</time>
      </trkpt>
      <trkpt lat="43.99039" lon="6.90958">
        <ele>1177.15203</ele>
        <time>2010-10-10T11:26:53Z</time>
      </trkpt>
      <trkpt lat="43.99039" lon="6.90958">
        <ele>1176.480735</ele>
        <time>2010-10-10T11:27:00Z</time>
      </trkpt>
      <trkpt lat="43.99039" lon="6.90958">
        <ele>1175.864173</ele>
        <time>2010-10-10T11:27:41Z</time>
      </trkpt>
      <trkpt lat="43.99024" lon="6.90966">
        <ele>1174.821834</ele>
        <time>2010-10-10T11:36:11Z</time>
      </trkpt>
      <trkpt lat="43.99016" lon="6.90971">
        <ele>1171.136833</ele>
        <time>2010-10-10T11:36:13Z</time>
      </trkpt>
      <trkpt lat="43.99004" lon="6.90978">
        <ele>1164.097894</ele>
        <time>2010-10-10T11:36:16Z</time>
      </trkpt>
      <trkpt lat="43.98996" lon="6.90982">
        <ele>1153.006991</ele>
        <time>2010-10-10T11:36:18Z</time>
      </trkpt>
      <trkpt lat="43.98985" lon="6.90986">
        <ele>1138.302052</ele>
        <time>2010-10-10T11:36:21Z</time>
      </trkpt>
      <trkpt lat="43.98974" lon="6.90983">
        <ele>1125.470808</ele>
        <time>2010-10-10T11:36:24Z</time>
      </trkpt>
      <trkpt lat="43.98966" lon="6.9098">
        <ele>1119.085402</ele>
        <time>2010-10-10T11:36:27Z</time>
      </trkpt>
      <trkpt lat="43.98962" lon="6.90977">
        <ele>1117.269181</ele>
        <time>2010-10-10T11:36:29Z</time>
      </trkpt>
      <trkpt lat="43.98936" lon="6.90963">
        <ele>1117.190442</ele>
        <time>2010-10-10T11:36:44Z</time>
      </trkpt>
      <trkpt lat="43.98933" lon="6.90959">
        <ele>1117.254542</ele>
        <time>2010-10-10T11:36:46Z</time>
      </trkpt>
      <trkpt lat="43.98933" lon="6.90959">
        <ele>1117.186989</ele>
        <time>2010-10-10T11:36:47Z</time>
      </trkpt>
      <trkpt lat="43.98907" lon="6.90935">
        <ele>1117.117913</ele>
        <time>2010-10-10T11:37:05Z</time>
      </trkpt>
      <trkpt lat="43.98899" lon="6.9093">
        <ele>1117.085196</ele>
        <time>2010-10-10T11:37:09Z</time>
      </trkpt>
      <trkpt lat="43.98891" lon="6.90924">
        <ele>1116.924713</ele>
        <time>2010-10-10T11:37:12Z</time>
      </trkpt>
      <trkpt lat="43.9888" lon="6.90918">
        <ele>1116.12801</ele>
        <time>2010-10-10T11:37:15Z</time>
      </trkpt>
      <trkpt lat="43.98866" lon="6.90914">
        <ele>1114.54511</ele>
        <time>2010-10-10T11:37:18Z</time>
      </trkpt>
      <trkpt lat="43.98855" lon="6.90914">
        <ele>1112.790473</ele>
        <time>2010-10-10T11:37:20Z</time>
      </trkpt>
      <trkpt lat="43.9884" lon="6.90912">
        <ele>1111.52787</ele>
        <time>2010-10-10T11:37:23Z</time>
      </trkpt>
      <trkpt lat="43.98831" lon="6.90909">
        <ele>1110.940173</ele>
        <time>2010-10-10T11:37:25Z</time>
      </trkpt>
      <trkpt lat="43.9882" lon="6.90906">
        <ele>1110.857962</ele>
        <time>2010-10-10T11:37:28Z</time>
      </trkpt>
      <trkpt lat="43.98814" lon="6.90906">
        <ele>1110.963572</ele>
        <time>2010-10-10T11:37:31Z</time>
      </trkpt>
      <trkpt lat="43.98814" lon="6.90906">
        <ele>1111.066402</ele>
        <time>2010-10-10T11:37:33Z</time>
      </trkpt>
      <trkpt lat="43.98814" lon="6.90906">
        <ele>1111.113632</ele>
        <time>2010-10-10T11:38:02Z</time>
      </trkpt>
      <trkpt lat="43.98788" lon="6.90924">
        <ele>1111.119848</ele>
        <time>2010-10-10T11:45:29Z</time>
      </trkpt>
      <trkpt lat="43.9878" lon="6.9093">
        <ele>1111.111068</ele>
        <time>2010-10-10T11:45:32Z</time>
      </trkpt>
      <trkpt lat="43.98771" lon="6.90937">
        <ele>1111.102695</ele>
        <time>2010-10-10T11:45:35Z</time>
      </trkpt>
      <trkpt lat="43.98762" lon="6.90944">
        <ele>1114.000635</ele>
        <time>2010-10-10T11:45:38Z</time>
      </trkpt>
      <trkpt lat="43.98751" lon="6.90948">
        <ele>1121.557898</ele>
        <time>2010-10-10T11:45:41Z</time>
      </trkpt>
      <trkpt lat="43.98743" lon="6.90952">
        <ele>1129.45493</ele>
        <time>2010-10-10T11:45:43Z</time>
      </trkpt>
      <trkpt lat="43.98727" lon="6.9096">
        <ele>1133.495981</ele>
        <time>2010-10-10T11:45:46Z</time>
      </trkpt>
      <trkpt lat="43.98711" lon="6.90969">
        <ele>1134.422847</ele>
        <time>2010-10-10T11:45:49Z</time>
      </trkpt>
      <trkpt lat="43.98695" lon="6.90969">
        <ele>1133.830255</ele>
        <time>2010-10-10T11:45:52Z</time>
      </trkpt>
      <trkpt lat="43.98683" lon="6.90965">
        <ele>1132.864576</ele>
        <time>2010-10-10T11:45:55Z</time>
      </trkpt>
      <trkpt lat="43.98674" lon="6.90961">
        <ele>1132.169083</ele>
        <time>2010-10-10T11:45:58Z</time>
      </trkpt>
      <trkpt lat="43.98665" lon="6.90961">
        <ele>1131.92123</ele>
        <time>2010-10-10T11:46:01Z</time>
      </trkpt>
      <trkpt lat="43.98654" lon="6.90966">
        <ele>1131.794824</ele>
        <time>2010-10-10T11:46:04Z</time>
      </trkpt>
      <trkpt lat="43.98643" lon="6.90971">
        <ele>1131.376211</ele>
        <time>2010-10-10T11:46:07Z</time>
      </trkpt>
      <trkpt lat="43.98632" lon="6.90977">
        <ele>1130.703267</ele>
        <time>2010-10-10T11:46:10Z</time>
      </trkpt>
      <trkpt lat="43.98622" lon="6.90985">
        <ele>1130.040144</ele>
        <time>2010-10-10T11:46:13Z</time>
      </trkpt>
      <trkpt lat="43.98616" lon="6.90991">
        <ele>1129.477243</ele>
        <time>2010-10-10T11:46:15Z</time>
      </trkpt>
      <trkpt lat="43.98608" lon="6.91">
        <ele>1128.966541</ele>
        <time>2010-10-10T11:46:18Z</time>
      </trkpt>
      <trkpt lat="43.986" lon="6.91009">
        <ele>1128.486904</ele>
        <time>2010-10-10T11:46:21Z</time>
      </trkpt>
      <trkpt lat="43.98594" lon="6.91015">
        <ele>1127.995389</ele>
        <time>2010-10-10T11:46:23Z</time>
      </trkpt>
      <trkpt lat="43.98586" lon="6.91025">
        <ele>1127.506465</ele>
        <time>2010-10-10T11:46:26Z</time>
      </trkpt>
      <trkpt lat="43.9858" lon="6.91034">
        <ele>1127.140677</ele>
        <time>2010-10-10T11:46:28Z</time>
      </trkpt>
      <trkpt lat="43.98569" lon="6.91048">
        <ele>1127.00492</ele>
        <time>2010-10-10T11:46:31Z</time>
      </trkpt>
      <trkpt lat="43.98558" lon="6.91062">
        <ele>1127.007054</ele>
        <time>2010-10-10T11:46:34Z</time>
      </trkpt>
      <trkpt lat="43.98544" lon="6.91077">
        <ele>1126.909165</ele>
        <time>2010-10-10T11:46:37Z</time>
      </trkpt>
      <trkpt lat="43.98536" lon="6.91086">
        <ele>1126.440792</ele>
        <time>2010-10-10T11:46:39Z</time>
      </trkpt>
      <trkpt lat="43.98525" lon="6.91098">
        <ele>1125.722324</ele>
        <time>2010-10-10T11:46:42Z</time>
      </trkpt>
      <trkpt lat="43.98515" lon="6.91109">
        <ele>1125.039157</ele>
        <time>2010-10-10T11:46:45Z</time>
      </trkpt>
      <trkpt lat="43.98507" lon="6.91118">
        <ele>1124.335986</ele>
        <time>2010-10-10T11:46:48Z</time>
      </trkpt>
      <trkpt lat="43.98502" lon="6.91122">
        <ele>1123.469539</ele>
        <time>2010-10-10T11:46:50Z</time>
      </trkpt>
      <trkpt lat="43.98493" lon="6.91128">
        <ele>1122.62419</ele>
        <time>2010-10-10T11:46:53Z</time>
      </trkpt>
      <trkpt lat="43.98483" lon="6.91134">
        <ele>1122.097211</ele>
        <time>2010-10-10T11:46:56Z</time>
      </trkpt>
      <trkpt lat="43.98472" lon="6.91137">
        <ele>1121.941798</ele>
        <time>2010-10-10T11:46:59Z</time>
      </trkpt>
      <trkpt lat="43.98466" lon="6.91139">
        <ele>1121.975082</ele>
        <time>2010-10-10T11:47:01Z</time>
      </trkpt>
      <trkpt lat="43.98458" lon="6.91141">
        <ele>1122.182569</ele>
        <time>2010-10-10T11:47:04Z</time>
      </trkpt>
      <trkpt lat="43.98452" lon="6.91143">
        <ele>1122.723269</ele>
        <time>2010-10-10T11:47:06Z</time>
      </trkpt>
      <trkpt lat="43.98443" lon="6.91147">
        <ele>1123.464901</ele>
        <time>2010-10-10T11:47:09Z</time>
      </trkpt>
      <trkpt lat="43.98437" lon="6.91151">
        <ele>1124.006701</ele>
        <time>2010-10-10T11:47:11Z</time>
      </trkpt>
      <trkpt lat="43.98431" lon="6.91154">
        <ele>1124.20281</ele>
        <time>2010-10-10T11:47:13Z</time>
      </trkpt>
      <trkpt lat="43.98428" lon="6.91155">
        <ele>1124.057725</ele>
        <time>2010-10-10T11:47:15Z</time>
      </trkpt>
      <trkpt lat="43.98406" lon="6.91184">
        <ele>1123.49858</ele>
        <time>2010-10-10T11:47:35Z</time>
      </trkpt>
      <trkpt lat="43.98404" lon="6.91191">
        <ele>1122.587114</ele>
        <time>2010-10-10T11:47:37Z</time>
      </trkpt>
      <trkpt lat="43.98404" lon="6.91191">
        <ele>1121.666869</ele>
        <time>2010-10-10T11:47:39Z</time>
      </trkpt>
      <trkpt lat="43.98385" lon="6.91219">
        <ele>1121.096394</ele>
        <time>2010-10-10T11:47:45Z</time>
      </trkpt>
      <trkpt lat="43.98373" lon="6.91226">
        <ele>1118.856947</ele>
        <time>2010-10-10T11:47:48Z</time>
      </trkpt>
      <trkpt lat="43.98359" lon="6.91235">
        <ele>1113.357524</ele>
        <time>2010-10-10T11:47:51Z</time>
      </trkpt>
      <trkpt lat="43.98344" lon="6.91244">
        <ele>1107.11703</ele>
        <time>2010-10-10T11:47:54Z</time>
      </trkpt>
      <trkpt lat="43.98329" lon="6.91254">
        <ele>1102.670632</ele>
        <time>2010-10-10T11:47:57Z</time>
      </trkpt>
      <trkpt lat="43.98315" lon="6.91264">
        <ele>1099.646299</ele>
        <time>2010-10-10T11:48:00Z</time>
      </trkpt>
      <trkpt lat="43.98305" lon="6.91281">
        <ele>1097.297939</ele>
        <time>2010-10-10T11:48:03Z</time>
      </trkpt>
      <trkpt lat="43.98297" lon="6.9129">
        <ele>1094.9349</ele>
        <time>2010-10-10T11:48:05Z</time>
      </trkpt>
      <trkpt lat="43.98285" lon="6.91303">
        <ele>1092.368221</ele>
        <time>2010-10-10T11:48:08Z</time>
      </trkpt>
      <trkpt lat="43.98274" lon="6.91315">
        <ele>1089.908585</ele>
        <time>2010-10-10T11:48:11Z</time>
      </trkpt>
      <trkpt lat="43.98267" lon="6.91325">
        <ele>1087.863823</ele>
        <time>2010-10-10T11:48:13Z</time>
      </trkpt>
      <trkpt lat="43.98258" lon="6.91339">
        <ele>1086.080165</ele>
        <time>2010-10-10T11:48:16Z</time>
      </trkpt>
      <trkpt lat="43.98252" lon="6.91345">
        <ele>1084.139022</ele>
        <time>2010-10-10T11:48:18Z</time>
      </trkpt>
      <trkpt lat="43.98241" lon="6.91352">
        <ele>1081.984691</ele>
        <time>2010-10-10T11:48:21Z</time>
      </trkpt>
      <trkpt lat="43.98231" lon="6.91358">
        <ele>1079.853103</ele>
        <time>2010-10-10T11:48:24Z</time>
      </trkpt>
      <trkpt lat="43.98219" lon="6.91366">
        <ele>1077.937536</ele>
        <time>2010-10-10T11:48:27Z</time>
      </trkpt>
      <trkpt lat="43.98213" lon="6.9137">
        <ele>1076.295735</ele>
        <time>2010-10-10T11:48:30Z</time>
      </trkpt>
      <trkpt lat="43.98183" lon="6.91375">
        <ele>1074.542257</ele>
        <time>2010-10-10T11:48:51Z</time>
      </trkpt>
      <trkpt lat="43.98183" lon="6.91375">
        <ele>1072.647167</ele>
        <time>2010-10-10T11:48:54Z</time>
      </trkpt>
      <trkpt lat="43.98164" lon="6.91373">
        <ele>1071.169015</ele>
        <time>2010-10-10T11:48:58Z</time>
      </trkpt>
      <trkpt lat="43.98152" lon="6.91378">
        <ele>1070.065106</ele>
        <time>2010-10-10T11:49:01Z</time>
      </trkpt>
      <trkpt lat="43.98142" lon="6.91384">
        <ele>1067.34787</ele>
        <time>2010-10-10T11:49:04Z</time>
      </trkpt>
      <trkpt lat="43.98132" lon="6.91387">
        <ele>1061.85638</ele>
        <time>2010-10-10T11:49:07Z</time>
      </trkpt>
      <trkpt lat="43.98123" lon="6.91393">
        <ele>1055.798699</ele>
        <time>2010-10-10T11:49:10Z</time>
      </trkpt>
      <trkpt lat="43.98114" lon="6.91401">
        <ele>1051.743482</ele>
        <time>2010-10-10T11:49:12Z</time>
      </trkpt>
      <trkpt lat="43.98096" lon="6.91416">
        <ele>1049.611362</ele>
        <time>2010-10-10T11:49:15Z</time>
      </trkpt>
      <trkpt lat="43.98078" lon="6.91429">
        <ele>1048.375171</ele>
        <time>2010-10-10T11:49:18Z</time>
      </trkpt>
      <trkpt lat="43.9806" lon="6.91437">
        <ele>1047.382563</ele>
        <time>2010-10-10T11:49:21Z</time>
      </trkpt>
      <trkpt lat="43.98049" lon="6.91442">
        <ele>1046.179677</ele>
        <time>2010-10-10T11:49:23Z</time>
      </trkpt>
      <trkpt lat="43.98039" lon="6.91448">
        <ele>1044.513646</ele>
        <time>2010-10-10T11:49:25Z</time>
      </trkpt>
      <trkpt lat="43.98028" lon="6.9146">
        <ele>1042.794876</ele>
        <time>2010-10-10T11:49:28Z</time>
      </trkpt>
      <trkpt lat="43.9802" lon="6.91471">
        <ele>1041.444762</ele>
        <time>2010-10-10T11:49:31Z</time>
      </trkpt>
      <trkpt lat="43.98013" lon="6.91485">
        <ele>1040.248713</ele>
        <time>2010-10-10T11:49:34Z</time>
      </trkpt>
      <trkpt lat="43.98002" lon="6.91496">
        <ele>1038.669316</ele>
        <time>2010-10-10T11:49:37Z</time>
      </trkpt>
      <trkpt lat="43.97995" lon="6.91504">
        <ele>1036.639955</ele>
        <time>2010-10-10T11:49:39Z</time>
      </trkpt>
      <trkpt lat="43.97987" lon="6.91514">
        <ele>1034.893439</ele>
        <time>2010-10-10T11:49:42Z</time>
      </trkpt>
      <trkpt lat="43.97987" lon="6.91514">
        <ele>1034.020153</ele>
        <time>2010-10-10T11:49:43Z</time>
      </trkpt>
      <trkpt lat="43.97987" lon="6.91514">
        <ele>1033.86109</ele>
        <time>2010-10-10T11:50:14Z</time>
      </trkpt>
      <trkpt lat="43.9796" lon="6.91562">
        <ele>1033.923077</ele>
        <time>2010-10-10T11:52:06Z</time>
      </trkpt>
      <trkpt lat="43.97954" lon="6.91579">
        <ele>1033.819526</ele>
        <time>2010-10-10T11:52:09Z</time>
      </trkpt>
      <trkpt lat="43.97949" lon="6.91598">
        <ele>1033.475615</ele>
        <time>2010-10-10T11:52:12Z</time>
      </trkpt>
      <trkpt lat="43.97942" lon="6.91618">
        <ele>1029.402372</ele>
        <time>2010-10-10T11:52:15Z</time>
      </trkpt>
      <trkpt lat="43.97934" lon="6.91639">
        <ele>1019.429991</ele>
        <time>2010-10-10T11:52:18Z</time>
      </trkpt>
      <trkpt lat="43.97925" lon="6.91662">
        <ele>1009.016413</ele>
        <time>2010-10-10T11:52:21Z</time>
      </trkpt>
      <trkpt lat="43.97915" lon="6.91682">
        <ele>1003.356603</ele>
        <time>2010-10-10T11:52:24Z</time>
      </trkpt>
      <trkpt lat="43.97909" lon="6.91694">
        <ele>1001.279371</ele>
        <time>2010-10-10T11:52:26Z</time>
      </trkpt>
      <trkpt lat="43.97903" lon="6.91711">
        <ele>1000.797644</ele>
        <time>2010-10-10T11:52:29Z</time>
      </trkpt>
      <trkpt lat="43.97899" lon="6.91727">
        <ele>1000.750904</ele>
        <time>2010-10-10T11:52:32Z</time>
      </trkpt>
      <trkpt lat="43.97897" lon="6.91743">
        <ele>1000.458859</ele>
        <time>2010-10-10T11:52:35Z</time>
      </trkpt>
      <trkpt lat="43.97895" lon="6.91753">
        <ele>999.720241</ele>
        <time>2010-10-10T11:52:37Z</time>
      </trkpt>
      <trkpt lat="43.97894" lon="6.91764">
        <ele>998.577526</ele>
        <time>2010-10-10T11:52:39Z</time>
      </trkpt>
      <trkpt lat="43.97891" lon="6.91776">
        <ele>997.140374</ele>
        <time>2010-10-10T11:52:42Z</time>
      </trkpt>
      <trkpt lat="43.97887" lon="6.91788">
        <ele>995.714763</ele>
        <time>2010-10-10T11:52:45Z</time>
      </trkpt>
      <trkpt lat="43.9788" lon="6.91799">
        <ele>994.519897</ele>
        <time>2010-10-10T11:52:48Z</time>
      </trkpt>
      <trkpt lat="43.97873" lon="6.91809">
        <ele>993.495255</ele>
        <time>2010-10-10T11:52:51Z</time>
      </trkpt>
      <trkpt lat="43.97868" lon="6.91815">
        <ele>992.532871</ele>
        <time>2010-10-10T11:52:53Z</time>
      </trkpt>
      <trkpt lat="43.97862" lon="6.91825">
        <ele>991.706979</ele>
        <time>2010-10-10T11:52:56Z</time>
      </trkpt>
      <trkpt lat="43.97859" lon="6.91831">
        <ele>991.083788</ele>
        <time>2010-10-10T11:52:58Z</time>
      </trkpt>
      <trkpt lat="43.97856" lon="6.91836">
        <ele>990.318146</ele>
        <time>2010-10-10T11:53:00Z</time>
      </trkpt>
      <trkpt lat="43.97856" lon="6.91836">
        <ele>989.269827</ele>
        <time>2010-10-10T11:53:02Z</time>
      </trkpt>
      <trkpt lat="43.97855" lon="6.91883">
        <ele>988.423319</ele>
        <time>2010-10-10T11:53:24Z</time>
      </trkpt>
      <trkpt lat="43.97855" lon="6.91901">
        <ele>987.947286</ele>
        <time>2010-10-10T11:53:27Z</time>
      </trkpt>
      <trkpt lat="43.97855" lon="6.91911">
        <ele>987.574531</ele>
        <time>2010-10-10T11:53:29Z</time>
      </trkpt>
      <trkpt lat="43.97855" lon="6.91926">
        <ele>986.048101</ele>
        <time>2010-10-10T11:53:32Z</time>
      </trkpt>
      <trkpt lat="43.97855" lon="6.91937">
        <ele>982.564451</ele>
        <time>2010-10-10T11:53:34Z</time>
      </trkpt>
      <trkpt lat="43.97855" lon="6.91948">
        <ele>978.603857</ele>
        <time>2010-10-10T11:53:36Z</time>
      </trkpt>
      <trkpt lat="43.97855" lon="6.91964">
        <ele>975.829878</ele>
        <time>2010-10-10T11:53:39Z</time>
      </trkpt>
      <trkpt lat="43.97856" lon="6.91972">
        <ele>974.201895</ele>
        <time>2010-10-10T11:53:41Z</time>
      </trkpt>
      <trkpt lat="43.9786" lon="6.91982">
        <ele>973.097569</ele>
        <time>2010-10-10T11:53:44Z</time>
      </trkpt>
      <trkpt lat="43.97863" lon="6.91988">
        <ele>971.804507</ele>
        <time>2010-10-10T11:53:47Z</time>
      </trkpt>
      <trkpt lat="43.97886" lon="6.92009">
        <ele>970.220322</ele>
        <time>2010-10-10T11:54:14Z</time>
      </trkpt>
      <trkpt lat="43.97889" lon="6.92013">
        <ele>968.726982</ele>
        <time>2010-10-10T11:54:18Z</time>
      </trkpt>
      <trkpt lat="43.97882" lon="6.92051">
        <ele>967.523079</ele>
        <time>2010-10-10T11:54:39Z</time>
      </trkpt>
      <trkpt lat="43.97873" lon="6.92057">
        <ele>965.820058</ele>
        <time>2010-10-10T11:54:43Z</time>
      </trkpt>
      <trkpt lat="43.97868" lon="6.9206">
        <ele>963.208387</ele>
        <time>2010-10-10T11:54:45Z</time>
      </trkpt>
      <trkpt lat="43.97862" lon="6.92066">
        <ele>960.347967</ele>
        <time>2010-10-10T11:54:48Z</time>
      </trkpt>
      <trkpt lat="43.97854" lon="6.92075">
        <ele>957.640865</ele>
        <time>2010-10-10T11:54:51Z</time>
      </trkpt>
      <trkpt lat="43.97849" lon="6.92085">
        <ele>955.217359</ele>
        <time>2010-10-10T11:54:53Z</time>
      </trkpt>
      <trkpt lat="43.97839" lon="6.92109">
        <ele>953.495757</ele>
        <time>2010-10-10T11:54:56Z</time>
      </trkpt>
      <trkpt lat="43.97829" lon="6.92131">
        <ele>952.35934</ele>
        <time>2010-10-10T11:54:59Z</time>
      </trkpt>
      <trkpt lat="43.97825" lon="6.92137">
        <ele>951.462978</ele>
        <time>2010-10-10T11:55:01Z</time>
      </trkpt>
      <trkpt lat="43.97813" lon="6.92177">
        <ele>950.580401</ele>
        <time>2010-10-10T11:55:16Z</time>
      </trkpt>
      <trkpt lat="43.9781" lon="6.9219">
        <ele>949.639797</ele>
        <time>2010-10-10T11:55:20Z</time>
      </trkpt>
      <trkpt lat="43.97785" lon="6.92218">
        <ele>948.789809</ele>
        <time>2010-10-10T11:55:33Z</time>
      </trkpt>
      <trkpt lat="43.97776" lon="6.92225">
        <ele>947.589594</ele>
        <time>2010-10-10T11:55:37Z</time>
      </trkpt>
      <trkpt lat="43.9777" lon="6.92232">
        <ele>945.649338</ele>
        <time>2010-10-10T11:55:39Z</time>
      </trkpt>
      <trkpt lat="43.97766" lon="6.92238">
        <ele>942.735998</ele>
        <time>2010-10-10T11:55:41Z</time>
      </trkpt>
      <trkpt lat="43.97766" lon="6.92238">
        <ele>939.050197</ele>
        <time>2010-10-10T11:55:42Z</time>
      </trkpt>
      <trkpt lat="43.97766" lon="6.92238">
        <ele>936.003256</ele>
        <time>2010-10-10T11:56:18Z</time>
      </trkpt>
      <trkpt lat="43.97741" lon="6.92262">
        <ele>934.48587</ele>
        <time>2010-10-10T11:56:54Z</time>
      </trkpt>
      <trkpt lat="43.97734" lon="6.92264">
        <ele>933.424661</ele>
        <time>2010-10-10T11:56:56Z</time>
      </trkpt>
      <trkpt lat="43.97724" lon="6.92265">
        <ele>932.1325</ele>
        <time>2010-10-10T11:56:59Z</time>
      </trkpt>
      <trkpt lat="43.97717" lon="6.92265">
        <ele>928.029124</ele>
        <time>2010-10-10T11:57:01Z</time>
      </trkpt>
      <trkpt lat="43.9771" lon="6.92265">
        <ele>919.797785</ele>
        <time>2010-10-10T11:57:03Z</time>
      </trkpt>
      <trkpt lat="43.97701" lon="6.92265">
        <ele>911.737321</ele>
        <time>2010-10-10T11:57:06Z</time>
      </trkpt>
      <trkpt lat="43.97694" lon="6.92264">
        <ele>907.765423</ele>
        <time>2010-10-10T11:57:09Z</time>
      </trkpt>
      <trkpt lat="43.9769" lon="6.92255">
        <ele>906.798936</ele>
        <time>2010-10-10T11:57:12Z</time>
      </trkpt>
      <trkpt lat="43.97687" lon="6.92245">
        <ele>906.809683</ele>
        <time>2010-10-10T11:57:15Z</time>
      </trkpt>
      <trkpt lat="43.97687" lon="6.92245">
        <ele>906.620028</ele>
        <time>2010-10-10T11:57:16Z</time>
      </trkpt>
      <trkpt lat="43.97668" lon="6.92241">
        <ele>906.130685</ele>
        <time>2010-10-10T11:57:40Z</time>
      </trkpt>
      <trkpt lat="43.97668" lon="6.92241">
        <ele>905.593483</ele>
        <time>2010-10-10T11:57:44Z</time>
      </trkpt>
      <trkpt lat="43.97668" lon="6.92241">
        <ele>905.131411</ele>
        <time>2010-10-10T11:58:24Z</time>
      </trkpt>
      <trkpt lat="43.97665" lon="6.92221">
        <ele>904.597364</ele>
        <time>2010-10-10T11:58:30Z</time>
      </trkpt>
      <trkpt lat="43.97675" lon="6.92208">
        <ele>903.666452</ele>
        <time>2010-10-10T11:58:33Z</time>
      </trkpt>
      <trkpt lat="43.97676" lon="6.92203">
        <ele>901.471825</ele>
        <time>2010-10-10T11:58:35Z</time>
      </trkpt>
      <trkpt lat="43.97669" lon="6.92206">
        <ele>897.189424</ele>
        <time>2010-10-10T11:58:38Z</time>
      </trkpt>
      <trkpt lat="43.97661" lon="6.92214">
        <ele>891.953136</ele>
        <time>2010-10-10T11:58:40Z</time>
      </trkpt>
      <trkpt lat="43.97654" lon="6.92222">
        <ele>888.15071</ele>
        <time>2010-10-10T11:58:42Z</time>
      </trkpt>
      <trkpt lat="43.97645" lon="6.92225">
        <ele>886.645169</ele>
        <time>2010-10-10T11:58:45Z</time>
      </trkpt>
      <trkpt lat="43.97641" lon="6.92218">
        <ele>886.596446</ele>
        <time>2010-10-10T11:58:48Z</time>
      </trkpt>
      <trkpt lat="43.97642" lon="6.92207">
        <ele>886.988761</ele>
        <time>2010-10-10T11:58:51Z</time>
      </trkpt>
      <trkpt lat="43.97645" lon="6.92198">
        <ele>887.297642</ele>
        <time>2010-10-10T11:58:53Z</time>
      </trkpt>
      <trkpt lat="43.9765" lon="6.92185">
        <ele>887.418125</ele>
        <time>2010-10-10T11:58:56Z</time>
      </trkpt>
      <trkpt lat="43.97652" lon="6.92178">
        <ele>887.420715</ele>
        <time>2010-10-10T11:58:59Z</time>
      </trkpt>
      <trkpt lat="43.97652" lon="6.92178">
        <ele>887.388335</ele>
        <time>2010-10-10T11:59:00Z</time>
      </trkpt>
      <trkpt lat="43.97636" lon="6.9218">
        <ele>887.230589</ele>
        <time>2010-10-10T11:59:06Z</time>
      </trkpt>
      <trkpt lat="43.9763" lon="6.92174">
        <ele>886.869912</ele>
        <time>2010-10-10T11:59:09Z</time>
      </trkpt>
      <trkpt lat="43.97603" lon="6.92173">
        <ele>886.362572</ele>
        <time>2010-10-10T12:00:10Z</time>
      </trkpt>
      <trkpt lat="43.976" lon="6.92177">
        <ele>885.407787</ele>
        <time>2010-10-10T12:00:12Z</time>
      </trkpt>
      <trkpt lat="43.97595" lon="6.9218">
        <ele>883.790046</ele>
        <time>2010-10-10T12:00:14Z</time>
      </trkpt>
      <trkpt lat="43.9759" lon="6.92183">
        <ele>878.720615</ele>
        <time>2010-10-10T12:00:16Z</time>
      </trkpt>
      <trkpt lat="43.97585" lon="6.92186">
        <ele>868.693458</ele>
        <time>2010-10-10T12:00:19Z</time>
      </trkpt>
      <trkpt lat="43.97582" lon="6.92185">
        <ele>858.887327</ele>
        <time>2010-10-10T12:00:21Z</time>
      </trkpt>
      <trkpt lat="43.97579" lon="6.92183">
        <ele>854.094051</ele>
        <time>2010-10-10T12:00:24Z</time>
      </trkpt>
      <trkpt lat="43.97579" lon="6.92183">
        <ele>852.889493</ele>
        <time>2010-10-10T12:00:25Z</time>
      </trkpt>
      <trkpt lat="43.97567" lon="6.92169">
        <ele>852.915651</ele>
        <time>2010-10-10T12:00:37Z</time>
      </trkpt>
      <trkpt lat="43.97567" lon="6.92162">
        <ele>852.968405</ele>
        <time>2010-10-10T12:00:39Z</time>
      </trkpt>
      <trkpt lat="43.97572" lon="6.92151">
        <ele>852.778396</ele>
        <time>2010-10-10T12:00:42Z</time>
      </trkpt>
      <trkpt lat="43.9758" lon="6.92141">
        <ele>851.969187</ele>
        <time>2010-10-10T12:00:45Z</time>
      </trkpt>
      <trkpt lat="43.97582" lon="6.92134">
        <ele>850.252686</ele>
        <time>2010-10-10T12:00:47Z</time>
      </trkpt>
      <trkpt lat="43.97582" lon="6.92127">
        <ele>848.383787</ele>
        <time>2010-10-10T12:00:49Z</time>
      </trkpt>
      <trkpt lat="43.97581" lon="6.92123">
        <ele>847.329326</ele>
        <time>2010-10-10T12:00:51Z</time>
      </trkpt>
      <trkpt lat="43.97585" lon="6.92113">
        <ele>847.068895</ele>
        <time>2010-10-10T12:00:54Z</time>
      </trkpt>
      <trkpt lat="43.9759" lon="6.92102">
        <ele>847.173492</ele>
        <time>2010-10-10T12:00:57Z</time>
      </trkpt>
      <trkpt lat="43.97589" lon="6.92096">
        <ele>847.326342</ele>
        <time>2010-10-10T12:01:00Z</time>
      </trkpt>
      <trkpt lat="43.9758" lon="6.92096">
        <ele>847.27329</ele>
        <time>2010-10-10T12:01:03Z</time>
      </trkpt>
      <trkpt lat="43.97573" lon="6.92091">
        <ele>846.657496</ele>
        <time>2010-10-10T12:01:06Z</time>
      </trkpt>
      <trkpt lat="43.97572" lon="6.9208">
        <ele>845.421217</ele>
        <time>2010-10-10T12:01:09Z</time>
      </trkpt>
      <trkpt lat="43.97574" lon="6.92069">
        <ele>843.996503</ele>
        <time>2010-10-10T12:01:12Z</time>
      </trkpt>
      <trkpt lat="43.97577" lon="6.92059">
        <ele>842.883237</ele>
        <time>2010-10-10T12:01:15Z</time>
      </trkpt>
      <trkpt lat="43.97581" lon="6.92048">
        <ele>842.175664</ele>
        <time>2010-10-10T12:01:18Z</time>
      </trkpt>
      <trkpt lat="43.97586" lon="6.9204">
        <ele>841.566612</ele>
        <time>2010-10-10T12:01:21Z</time>
      </trkpt>
      <trkpt lat="43.97589" lon="6.92031">
        <ele>840.777874</ele>
        <time>2010-10-10T12:01:24Z</time>
      </trkpt>
      <trkpt lat="43.97593" lon="6.92024">
        <ele>839.964129</ele>
        <time>2010-10-10T12:01:27Z</time>
      </trkpt>
      <trkpt lat="43.97593" lon="6.92024">
        <ele>839.438763</ele>
        <time>2010-10-10T12:01:29Z</time>
      </trkpt>
      <trkpt lat="43.97582" lon="6.92012">
        <ele>839.218042</ele>
        <time>2010-10-10T12:01:41Z</time>
      </trkpt>
      <trkpt lat="43.97575" lon="6.92011">
        <ele>839.014538</ele>
        <time>2010-10-10T12:01:44Z</time>
      </trkpt>
      <trkpt lat="43.97568" lon="6.92009">
        <ele>838.717444</ele>
        <time>2010-10-10T12:01:47Z</time>
      </trkpt>
      <trkpt lat="43.97565" lon="6.92007">
        <ele>837.227747</ele>
        <time>2010-10-10T12:01:49Z</time>
      </trkpt>
      <trkpt lat="43.97562" lon="6.92005">
        <ele>833.611941</ele>
        <time>2010-10-10T12:01:52Z</time>
      </trkpt>
      <trkpt lat="43.97548" lon="6.92001">
        <ele>829.42366</ele>
        <time>2010-10-10T12:02:04Z</time>
      </trkpt>
      <trkpt lat="43.97542" lon="6.91999">
        <ele>826.633909</ele>
        <time>2010-10-10T12:02:06Z</time>
      </trkpt>
      <trkpt lat="43.97536" lon="6.91994">
        <ele>825.05892</ele>
        <time>2010-10-10T12:02:09Z</time>
      </trkpt>
      <trkpt lat="43.97537" lon="6.91985">
        <ele>823.05204</ele>
        <time>2010-10-10T12:02:12Z</time>
      </trkpt>
      <trkpt lat="43.97543" lon="6.91977">
        <ele>819.78523</ele>
        <time>2010-10-10T12:02:15Z</time>
      </trkpt>
      <trkpt lat="43.97543" lon="6.91977">
        <ele>816.677264</ele>
        <time>2010-10-10T12:02:16Z</time>
      </trkpt>
      <trkpt lat="43.97543" lon="6.91977">
        <ele>815.132786</ele>
        <time>2010-10-10T12:03:16Z</time>
      </trkpt>
      <trkpt lat="43.97532" lon="6.91966">
        <ele>814.71874</ele>
        <time>2010-10-10T12:03:25Z</time>
      </trkpt>
      <trkpt lat="43.97524" lon="6.91954">
        <ele>814.315097</ele>
        <time>2010-10-10T12:03:28Z</time>
      </trkpt>
      <trkpt lat="43.97517" lon="6.91945">
        <ele>813.203025</ele>
        <time>2010-10-10T12:03:30Z</time>
      </trkpt>
      <trkpt lat="43.97508" lon="6.91939">
        <ele>807.271757</ele>
        <time>2010-10-10T12:03:32Z</time>
      </trkpt>
      <trkpt lat="43.97501" lon="6.91931">
        <ele>794.522362</ele>
        <time>2010-10-10T12:03:35Z</time>
      </trkpt>
      <trkpt lat="43.97499" lon="6.91925">
        <ele>781.947496</ele>
        <time>2010-10-10T12:03:37Z</time>
      </trkpt>
      <trkpt lat="43.97498" lon="6.91919">
        <ele>775.986016</ele>
        <time>2010-10-10T12:03:39Z</time>
      </trkpt>
      <trkpt lat="43.97484" lon="6.91905">
        <ele>775.086033</ele>
        <time>2010-10-10T12:03:45Z</time>
      </trkpt>
      <trkpt lat="43.97479" lon="6.91896">
        <ele>776.107825</ele>
        <time>2010-10-10T12:03:47Z</time>
      </trkpt>
      <trkpt lat="43.97473" lon="6.91887">
        <ele>776.994417</ele>
        <time>2010-10-10T12:03:49Z</time>
      </trkpt>
      <trkpt lat="43.97465" lon="6.91875">
        <ele>776.975796</ele>
        <time>2010-10-10T12:03:52Z</time>
      </trkpt>
      <trkpt lat="43.9746" lon="6.91867">
        <ele>776.176822</ele>
        <time>2010-10-10T12:03:54Z</time>
      </trkpt>
      <trkpt lat="43.97453" lon="6.91858">
        <ele>775.187143</ele>
        <time>2010-10-10T12:03:57Z</time>
      </trkpt>
      <trkpt lat="43.97455" lon="6.91856">
        <ele>774.53239</ele>
        <time>2010-10-10T12:04:01Z</time>
      </trkpt>
      <trkpt lat="43.97413" lon="6.91879">
        <ele>774.183826</ele>
        <time>2010-10-10T12:04:41Z</time>
      </trkpt>
      <trkpt lat="43.97399" lon="6.91882">
        <ele>773.437734</ele>
        <time>2010-10-10T12:04:49Z</time>
      </trkpt>
      <trkpt lat="43.97385" lon="6.91885">
        <ele>771.517151</ele>
        <time>2010-10-10T12:05:04Z</time>
      </trkpt>
      <trkpt lat="43.97385" lon="6.91885">
        <ele>768.847029</ele>
        <time>2010-10-10T12:05:18Z</time>
      </trkpt>
      <trkpt lat="43.97385" lon="6.91885">
        <ele>766.833693</ele>
        <time>2010-10-10T12:05:35Z</time>
      </trkpt>
      <trkpt lat="43.97359" lon="6.919">
        <ele>765.804151</ele>
        <time>2010-10-10T12:05:57Z</time>
      </trkpt>
      <trkpt lat="43.97359" lon="6.919">
        <ele>765.091638</ele>
        <time>2010-10-10T12:06:05Z</time>
      </trkpt>
      <trkpt lat="43.97385" lon="6.91913">
        <ele>764.434658</ele>
        <time>2010-10-10T12:06:13Z</time>
      </trkpt>
      <trkpt lat="43.97385" lon="6.91913">
        <ele>763.895242</ele>
        <time>2010-10-10T12:06:29Z</time>
      </trkpt>
      <trkpt lat="43.97385" lon="6.91913">
        <ele>763.552676</ele>
        <time>2010-10-10T12:06:44Z</time>
      </trkpt>
      <trkpt lat="43.97399" lon="6.91934">
        <ele>763.44877</ele>
        <time>2010-10-10T12:14:14Z</time>
      </trkpt>
      <trkpt lat="43.97405" lon="6.91943">
        <ele>763.387242</ele>
        <time>2010-10-10T12:14:17Z</time>
      </trkpt>
      <trkpt lat="43.97408" lon="6.91945">
        <ele>763.23896</ele>
        <time>2010-10-10T12:14:19Z</time>
      </trkpt>
      <trkpt lat="43.97406" lon="6.91931">
        <ele>760.795973</ele>
        <time>2010-10-10T12:14:22Z</time>
      </trkpt>
      <trkpt lat="43.97402" lon="6.91919">
        <ele>754.773456</ele>
        <time>2010-10-10T12:14:24Z</time>
      </trkpt>
      <trkpt lat="43.97397" lon="6.91907">
        <ele>748.658725</ele>
        <time>2010-10-10T12:14:27Z</time>
      </trkpt>
      <trkpt lat="43.97394" lon="6.91902">
        <ele>745.776604</ele>
        <time>2010-10-10T12:14:29Z</time>
      </trkpt>
      <trkpt lat="43.97391" lon="6.91897">
        <ele>745.489745</ele>
        <time>2010-10-10T12:14:31Z</time>
      </trkpt>
      <trkpt lat="43.97388" lon="6.91889">
        <ele>746.489364</ele>
        <time>2010-10-10T12:14:34Z</time>
      </trkpt>
      <trkpt lat="43.97387" lon="6.91881">
        <ele>747.716916</ele>
        <time>2010-10-10T12:14:37Z</time>
      </trkpt>
      <trkpt lat="43.97399" lon="6.91896">
        <ele>748.493347</ele>
        <time>2010-10-10T12:15:06Z</time>
      </trkpt>
      <trkpt lat="43.97406" lon="6.91928">
        <ele>748.727442</ele>
        <time>2010-10-10T12:15:09Z</time>
      </trkpt>
      <trkpt lat="43.97403" lon="6.91963">
        <ele>748.682257</ele>
        <time>2010-10-10T12:15:12Z</time>
      </trkpt>
      <trkpt lat="43.97392" lon="6.91988">
        <ele>748.581584</ele>
        <time>2010-10-10T12:15:15Z</time>
      </trkpt>
      <trkpt lat="43.97389" lon="6.91992">
        <ele>748.795122</ele>
        <time>2010-10-10T12:15:17Z</time>
      </trkpt>
      <trkpt lat="43.97376" lon="6.91999">
        <ele>750.049096</ele>
        <time>2010-10-10T12:15:21Z</time>
      </trkpt>
      <trkpt lat="43.97367" lon="6.92004">
        <ele>752.646072</ele>
        <time>2010-10-10T12:15:24Z</time>
      </trkpt>
      <trkpt lat="43.97367" lon="6.92004">
        <ele>755.562316</ele>
        <time>2010-10-10T12:15:25Z</time>
      </trkpt>
      <trkpt lat="43.97338" lon="6.92004">
        <ele>757.706185</ele>
        <time>2010-10-10T12:15:54Z</time>
      </trkpt>
      <trkpt lat="43.97338" lon="6.92004">
        <ele>758.999359</ele>
        <time>2010-10-10T12:15:57Z</time>
      </trkpt>
      <trkpt lat="43.97314" lon="6.91979">
        <ele>759.637295</ele>
        <time>2010-10-10T12:16:09Z</time>
      </trkpt>
      <trkpt lat="43.97304" lon="6.91968">
        <ele>759.610357</ele>
        <time>2010-10-10T12:16:14Z</time>
      </trkpt>
      <trkpt lat="43.97292" lon="6.91956">
        <ele>759.152328</ele>
        <time>2010-10-10T12:16:19Z</time>
      </trkpt>
      <trkpt lat="43.97282" lon="6.91946">
        <ele>758.677391</ele>
        <time>2010-10-10T12:16:29Z</time>
      </trkpt>
      <trkpt lat="43.97273" lon="6.9194">
        <ele>758.588923</ele>
        <time>2010-10-10T12:16:36Z</time>
      </trkpt>
      <trkpt lat="43.97273" lon="6.9194">
        <ele>758.775518</ele>
        <time>2010-10-10T12:16:49Z</time>
      </trkpt>
      <trkpt lat="43.97273" lon="6.9194">
        <ele>758.823238</ele>
        <time>2010-10-10T12:17:07Z</time>
      </trkpt>
      <trkpt lat="43.97293" lon="6.9197">
        <ele>758.805957</ele>
        <time>2010-10-10T12:17:34Z</time>
      </trkpt>
      <trkpt lat="43.97288" lon="6.91988">
        <ele>759.173505</ele>
        <time>2010-10-10T12:17:44Z</time>
      </trkpt>
      <trkpt lat="43.97279" lon="6.91992">
        <ele>759.987131</ele>
        <time>2010-10-10T12:17:52Z</time>
      </trkpt>
      <trkpt lat="43.97275" lon="6.91993">
        <ele>762.822888</ele>
        <time>2010-10-10T12:17:56Z</time>
      </trkpt>
      <trkpt lat="43.97275" lon="6.91993">
        <ele>768.445484</ele>
        <time>2010-10-10T12:18:08Z</time>
      </trkpt>
      <trkpt lat="43.97248" lon="6.9198">
        <ele>773.938199</ele>
        <time>2010-10-10T12:18:42Z</time>
      </trkpt>
      <trkpt lat="43.97238" lon="6.91977">
        <ele>776.860695</ele>
        <time>2010-10-10T12:18:53Z</time>
      </trkpt>
      <trkpt lat="43.97229" lon="6.91975">
        <ele>778.025651</ele>
        <time>2010-10-10T12:19:04Z</time>
      </trkpt>
      <trkpt lat="43.97229" lon="6.91975">
        <ele>778.324954</ele>
        <time>2010-10-10T12:19:16Z</time>
      </trkpt>
      <trkpt lat="43.97202" lon="6.9196">
        <ele>778.238465</ele>
        <time>2010-10-10T12:19:35Z</time>
      </trkpt>
      <trkpt lat="43.97199" lon="6.91959">
        <ele>778.344124</ele>
        <time>2010-10-10T12:19:38Z</time>
      </trkpt>
      <trkpt lat="43.97196" lon="6.91959">
        <ele>778.842366</ele>
        <time>2010-10-10T12:19:41Z</time>
      </trkpt>
      <trkpt lat="43.97189" lon="6.91958">
        <ele>779.463265</ele>
        <time>2010-10-10T12:19:47Z</time>
      </trkpt>
      <trkpt lat="43.97187" lon="6.91958">
        <ele>780.182342</ele>
        <time>2010-10-10T12:19:50Z</time>
      </trkpt>
      <trkpt lat="43.97185" lon="6.91955">
        <ele>780.940308</ele>
        <time>2010-10-10T12:19:59Z</time>
      </trkpt>
      <trkpt lat="43.97185" lon="6.91955">
        <ele>781.443569</ele>
        <time>2010-10-10T12:20:01Z</time>
      </trkpt>
      <trkpt lat="43.97185" lon="6.91955">
        <ele>781.606042</ele>
        <time>2010-10-10T12:20:18Z</time>
      </trkpt>
      <trkpt lat="43.97207" lon="6.91976">
        <ele>781.723004</ele>
        <time>2010-10-10T12:20:49Z</time>
      </trkpt>
      <trkpt lat="43.97209" lon="6.91981">
        <ele>782.158824</ele>
        <time>2010-10-10T12:20:52Z</time>
      </trkpt>
      <trkpt lat="43.97214" lon="6.91991">
        <ele>782.847379</ele>
        <time>2010-10-10T12:21:01Z</time>
      </trkpt>
      <trkpt lat="43.97217" lon="6.91995">
        <ele>784.899117</ele>
        <time>2010-10-10T12:21:08Z</time>
      </trkpt>
      <trkpt lat="43.9722" lon="6.91998">
        <ele>789.061648</ele>
        <time>2010-10-10T12:21:15Z</time>
      </trkpt>
      <trkpt lat="43.97223" lon="6.91999">
        <ele>793.127121</ele>
        <time>2010-10-10T12:21:20Z</time>
      </trkpt>
      <trkpt lat="43.97223" lon="6.91999">
        <ele>794.998229</ele>
        <time>2010-10-10T12:21:25Z</time>
      </trkpt>
      <trkpt lat="43.97229" lon="6.92037">
        <ele>795.246903</ele>
        <time>2010-10-10T12:21:51Z</time>
      </trkpt>
      <trkpt lat="43.97228" lon="6.92044">
        <ele>795.03896</ele>
        <time>2010-10-10T12:21:58Z</time>
      </trkpt>
      <trkpt lat="43.97228" lon="6.92044">
        <ele>795.067727</ele>
        <time>2010-10-10T12:22:08Z</time>
      </trkpt>
      <trkpt lat="43.972" lon="6.92051">
        <ele>795.286785</ele>
        <time>2010-10-10T12:22:25Z</time>
      </trkpt>
      <trkpt lat="43.97189" lon="6.92044">
        <ele>795.443326</ele>
        <time>2010-10-10T12:22:34Z</time>
      </trkpt>
      <trkpt lat="43.97186" lon="6.92041">
        <ele>795.498652</ele>
        <time>2010-10-10T12:22:38Z</time>
      </trkpt>
      <trkpt lat="43.97183" lon="6.92038">
        <ele>796.048377</ele>
        <time>2010-10-10T12:22:41Z</time>
      </trkpt>
      <trkpt lat="43.97179" lon="6.92034">
        <ele>797.74628</ele>
        <time>2010-10-10T12:22:46Z</time>
      </trkpt>
      <trkpt lat="43.97177" lon="6.92032">
        <ele>800.069265</ele>
        <time>2010-10-10T12:22:50Z</time>
      </trkpt>
      <trkpt lat="43.97177" lon="6.92032">
        <ele>801.864635</ele>
        <time>2010-10-10T12:23:01Z</time>
      </trkpt>
      <trkpt lat="43.97153" lon="6.92057">
        <ele>802.691003</ele>
        <time>2010-10-10T12:23:27Z</time>
      </trkpt>
      <trkpt lat="43.97143" lon="6.92061">
        <ele>802.939041</ele>
        <time>2010-10-10T12:23:31Z</time>
      </trkpt>
      <trkpt lat="43.97132" lon="6.92061">
        <ele>803.146085</ele>
        <time>2010-10-10T12:23:38Z</time>
      </trkpt>
      <trkpt lat="43.97122" lon="6.92059">
        <ele>803.507456</ele>
        <time>2010-10-10T12:23:45Z</time>
      </trkpt>
      <trkpt lat="43.97113" lon="6.92059">
        <ele>803.976191</ele>
        <time>2010-10-10T12:23:54Z</time>
      </trkpt>
      <trkpt lat="43.97113" lon="6.92059">
        <ele>804.363877</ele>
        <time>2010-10-10T12:24:06Z</time>
      </trkpt>
      <trkpt lat="43.97085" lon="6.9205">
        <ele>804.936381</ele>
        <time>2010-10-10T12:24:33Z</time>
      </trkpt>
      <trkpt lat="43.97075" lon="6.92052">
        <ele>806.024378</ele>
        <time>2010-10-10T12:24:40Z</time>
      </trkpt>
      <trkpt lat="43.97071" lon="6.92053">
        <ele>807.232102</ele>
        <time>2010-10-10T12:24:43Z</time>
      </trkpt>
      <trkpt lat="43.97066" lon="6.92055">
        <ele>808.915316</ele>
        <time>2010-10-10T12:24:47Z</time>
      </trkpt>
      <trkpt lat="43.97063" lon="6.92056">
        <ele>811.787363</ele>
        <time>2010-10-10T12:24:49Z</time>
      </trkpt>
      <trkpt lat="43.97051" lon="6.92061">
        <ele>814.946668</ele>
        <time>2010-10-10T12:24:58Z</time>
      </trkpt>
      <trkpt lat="43.97048" lon="6.92062">
        <ele>817.174567</ele>
        <time>2010-10-10T12:25:01Z</time>
      </trkpt>
      <trkpt lat="43.97045" lon="6.92063">
        <ele>818.343878</ele>
        <time>2010-10-10T12:25:04Z</time>
      </trkpt>
      <trkpt lat="43.97039" lon="6.92064">
        <ele>818.864736</ele>
        <time>2010-10-10T12:25:10Z</time>
      </trkpt>
      <trkpt lat="43.97035" lon="6.92061">
        <ele>819.317402</ele>
        <time>2010-10-10T12:25:14Z</time>
      </trkpt>
      <trkpt lat="43.97032" lon="6.92059">
        <ele>819.903549</ele>
        <time>2010-10-10T12:25:17Z</time>
      </trkpt>
      <trkpt lat="43.97027" lon="6.92053">
        <ele>820.768048</ele>
        <time>2010-10-10T12:25:23Z</time>
      </trkpt>
      <trkpt lat="43.97024" lon="6.9205">
        <ele>822.295429</ele>
        <time>2010-10-10T12:25:26Z</time>
      </trkpt>
      <trkpt lat="43.97024" lon="6.9205">
        <ele>824.124155</ele>
        <time>2010-10-10T12:25:36Z</time>
      </trkpt>
      <trkpt lat="43.97006" lon="6.92021">
        <ele>825.61682</ele>
        <time>2010-10-10T12:25:57Z</time>
      </trkpt>
      <trkpt lat="43.96999" lon="6.92012">
        <ele>826.868355</ele>
        <time>2010-10-10T12:26:07Z</time>
      </trkpt>
      <trkpt lat="43.96992" lon="6.92008">
        <ele>828.192865</ele>
        <time>2010-10-10T12:26:18Z</time>
      </trkpt>
      <trkpt lat="43.96985" lon="6.92011">
        <ele>830.035104</ele>
        <time>2010-10-10T12:26:29Z</time>
      </trkpt>
      <trkpt lat="43.96982" lon="6.92013">
        <ele>832.3433</ele>
        <time>2010-10-10T12:26:33Z</time>
      </trkpt>
      <trkpt lat="43.96982" lon="6.92013">
        <ele>834.106795</ele>
        <time>2010-10-10T12:26:44Z</time>
      </trkpt>
      <trkpt lat="43.96953" lon="6.92002">
        <ele>835.327935</ele>
        <time>2010-10-10T12:27:10Z</time>
      </trkpt>
      <trkpt lat="43.96946" lon="6.91994">
        <ele>836.905844</ele>
        <time>2010-10-10T12:27:19Z</time>
      </trkpt>
      <trkpt lat="43.96938" lon="6.91988">
        <ele>838.55314</ele>
        <time>2010-10-10T12:27:28Z</time>
      </trkpt>
      <trkpt lat="43.9693" lon="6.9198">
        <ele>840.171327</ele>
        <time>2010-10-10T12:27:39Z</time>
      </trkpt>
      <trkpt lat="43.96929" lon="6.91967">
        <ele>842.475064</ele>
        <time>2010-10-10T12:27:50Z</time>
      </trkpt>
      <trkpt lat="43.9693" lon="6.91955">
        <ele>844.949183</ele>
        <time>2010-10-10T12:27:57Z</time>
      </trkpt>
      <trkpt lat="43.9693" lon="6.91941">
        <ele>846.567778</ele>
        <time>2010-10-10T12:28:06Z</time>
      </trkpt>
      <trkpt lat="43.96927" lon="6.91924">
        <ele>847.612292</ele>
        <time>2010-10-10T12:28:17Z</time>
      </trkpt>
      <trkpt lat="43.96923" lon="6.91913">
        <ele>848.586676</ele>
        <time>2010-10-10T12:28:23Z</time>
      </trkpt>
      <trkpt lat="43.96919" lon="6.919">
        <ele>849.298128</ele>
        <time>2010-10-10T12:28:31Z</time>
      </trkpt>
      <trkpt lat="43.96916" lon="6.91888">
        <ele>849.555507</ele>
        <time>2010-10-10T12:28:39Z</time>
      </trkpt>
      <trkpt lat="43.9691" lon="6.91877">
        <ele>849.684506</ele>
        <time>2010-10-10T12:28:51Z</time>
      </trkpt>
      <trkpt lat="43.96903" lon="6.91869">
        <ele>849.964132</ele>
        <time>2010-10-10T12:29:03Z</time>
      </trkpt>
      <trkpt lat="43.96903" lon="6.91869">
        <ele>850.27581</ele>
        <time>2010-10-10T12:29:14Z</time>
      </trkpt>
      <trkpt lat="43.96907" lon="6.91819">
        <ele>850.568681</ele>
        <time>2010-10-10T12:29:47Z</time>
      </trkpt>
      <trkpt lat="43.96908" lon="6.91815">
        <ele>850.956074</ele>
        <time>2010-10-10T12:29:50Z</time>
      </trkpt>
      <trkpt lat="43.96908" lon="6.91815">
        <ele>851.302109</ele>
        <time>2010-10-10T12:30:03Z</time>
      </trkpt>
      <trkpt lat="43.96908" lon="6.91815">
        <ele>851.451938</ele>
        <time>2010-10-10T12:30:37Z</time>
      </trkpt>
      <trkpt lat="43.96894" lon="6.91771">
        <ele>851.604179</ele>
        <time>2010-10-10T12:31:08Z</time>
      </trkpt>
      <trkpt lat="43.96894" lon="6.91771">
        <ele>851.686707</ele>
        <time>2010-10-10T12:31:20Z</time>
      </trkpt>
      <trkpt lat="43.96894" lon="6.91771">
        <ele>851.400644</ele>
        <time>2010-10-10T12:31:39Z</time>
      </trkpt>
      <trkpt lat="43.96868" lon="6.91757">
        <ele>850.937909</ele>
        <time>2010-10-10T12:32:05Z</time>
      </trkpt>
      <trkpt lat="43.96868" lon="6.91757">
        <ele>850.671454</ele>
        <time>2010-10-10T12:32:17Z</time>
      </trkpt>
      <trkpt lat="43.96842" lon="6.91739">
        <ele>850.59321</ele>
        <time>2010-10-10T12:32:37Z</time>
      </trkpt>
      <trkpt lat="43.96836" lon="6.91728">
        <ele>854.446444</ele>
        <time>2010-10-10T12:32:49Z</time>
      </trkpt>
      <trkpt lat="43.96836" lon="6.91728">
        <ele>861.021354</ele>
        <time>2010-10-10T12:33:01Z</time>
      </trkpt>
      <trkpt lat="43.96836" lon="6.91728">
        <ele>863.220184</ele>
        <time>2010-10-10T12:33:48Z</time>
      </trkpt>
      <trkpt lat="43.96801" lon="6.91697">
        <ele>865.156642</ele>
        <time>2010-10-10T12:33:52Z</time>
      </trkpt>
      <trkpt lat="43.96801" lon="6.91697">
        <ele>870.806961</ele>
        <time>2010-10-10T12:34:09Z</time>
      </trkpt>
      <trkpt lat="43.96779" lon="6.91672">
        <ele>876.259729</ele>
        <time>2010-10-10T12:34:20Z</time>
      </trkpt>
      <trkpt lat="43.96779" lon="6.91672">
        <ele>880.379982</ele>
        <time>2010-10-10T12:34:34Z</time>
      </trkpt>
      <trkpt lat="43.96758" lon="6.91649">
        <ele>881.324295</ele>
        <time>2010-10-10T12:34:42Z</time>
      </trkpt>
      <trkpt lat="43.96758" lon="6.91649">
        <ele>879.056618</ele>
        <time>2010-10-10T12:34:57Z</time>
      </trkpt>
      <trkpt lat="43.96741" lon="6.91619">
        <ele>880.873494</ele>
        <time>2010-10-10T12:35:02Z</time>
      </trkpt>
      <trkpt lat="43.96741" lon="6.91619">
        <ele>885.712592</ele>
        <time>2010-10-10T12:35:18Z</time>
      </trkpt>
      <trkpt lat="43.96732" lon="6.91582">
        <ele>890.030564</ele>
        <time>2010-10-10T12:35:23Z</time>
      </trkpt>
      <trkpt lat="43.96732" lon="6.91582">
        <ele>893.440882</ele>
        <time>2010-10-10T12:35:39Z</time>
      </trkpt>
      <trkpt lat="43.96716" lon="6.91553">
        <ele>896.567015</ele>
        <time>2010-10-10T12:35:48Z</time>
      </trkpt>
      <trkpt lat="43.96716" lon="6.91553">
        <ele>898.772269</ele>
        <time>2010-10-10T12:36:02Z</time>
      </trkpt>
      <trkpt lat="43.96706" lon="6.91515">
        <ele>901.354125</ele>
        <time>2010-10-10T12:36:12Z</time>
      </trkpt>
      <trkpt lat="43.96706" lon="6.91515">
        <ele>903.697563</ele>
        <time>2010-10-10T12:36:26Z</time>
      </trkpt>
      <trkpt lat="43.96697" lon="6.91474">
        <ele>905.748295</ele>
        <time>2010-10-10T12:36:40Z</time>
      </trkpt>
      <trkpt lat="43.96694" lon="6.91478">
        <ele>908.17736</ele>
        <time>2010-10-10T12:36:51Z</time>
      </trkpt>
      <trkpt lat="43.96695" lon="6.91516">
        <ele>911.633773</ele>
        <time>2010-10-10T12:37:26Z</time>
      </trkpt>
      <trkpt lat="43.96694" lon="6.91519">
        <ele>916.499187</ele>
        <time>2010-10-10T12:37:32Z</time>
      </trkpt>
      <trkpt lat="43.96693" lon="6.91524">
        <ele>923.86221</ele>
        <time>2010-10-10T12:37:36Z</time>
      </trkpt>
      <trkpt lat="43.96693" lon="6.91524">
        <ele>930.971119</ele>
        <time>2010-10-10T12:37:45Z</time>
      </trkpt>
      <trkpt lat="43.96693" lon="6.91524">
        <ele>934.771601</ele>
        <time>2010-10-10T12:38:07Z</time>
      </trkpt>
      <trkpt lat="43.96675" lon="6.91465">
        <ele>937.952982</ele>
        <time>2010-10-10T13:02:27Z</time>
      </trkpt>
      <trkpt lat="43.96677" lon="6.9143">
        <ele>944.028764</ele>
        <time>2010-10-10T13:02:30Z</time>
      </trkpt>
      <trkpt lat="43.96679" lon="6.91392">
        <ele>951.222634</ele>
        <time>2010-10-10T13:02:33Z</time>
      </trkpt>
      <trkpt lat="43.96678" lon="6.91363">
        <ele>956.083552</ele>
        <time>2010-10-10T13:02:36Z</time>
      </trkpt>
      <trkpt lat="43.96672" lon="6.91328">
        <ele>957.965412</ele>
        <time>2010-10-10T13:02:39Z</time>
      </trkpt>
      <trkpt lat="43.96665" lon="6.91297">
        <ele>957.739445</ele>
        <time>2010-10-10T13:02:42Z</time>
      </trkpt>
      <trkpt lat="43.9666" lon="6.91282">
        <ele>956.895113</ele>
        <time>2010-10-10T13:02:44Z</time>
      </trkpt>
      <trkpt lat="43.96655" lon="6.91257">
        <ele>956.186399</ele>
        <time>2010-10-10T13:02:47Z</time>
      </trkpt>
      <trkpt lat="43.9665" lon="6.91236">
        <ele>955.223489</ele>
        <time>2010-10-10T13:02:49Z</time>
      </trkpt>
      <trkpt lat="43.96647" lon="6.91214">
        <ele>953.656991</ele>
        <time>2010-10-10T13:02:51Z</time>
      </trkpt>
      <trkpt lat="43.9664" lon="6.91181">
        <ele>951.806487</ele>
        <time>2010-10-10T13:02:54Z</time>
      </trkpt>
      <trkpt lat="43.96636" lon="6.91165">
        <ele>949.65841</ele>
        <time>2010-10-10T13:02:56Z</time>
      </trkpt>
      <trkpt lat="43.96634" lon="6.91149">
        <ele>946.855514</ele>
        <time>2010-10-10T13:02:58Z</time>
      </trkpt>
      <trkpt lat="43.96635" lon="6.91128">
        <ele>943.486449</ele>
        <time>2010-10-10T13:03:01Z</time>
      </trkpt>
      <trkpt lat="43.96637" lon="6.91114">
        <ele>940.036765</ele>
        <time>2010-10-10T13:03:03Z</time>
      </trkpt>
      <trkpt lat="43.96641" lon="6.91074">
        <ele>937.337929</ele>
        <time>2010-10-10T13:03:25Z</time>
      </trkpt>
      <trkpt lat="43.96642" lon="6.91058">
        <ele>935.738656</ele>
        <time>2010-10-10T13:03:28Z</time>
      </trkpt>
      <trkpt lat="43.96642" lon="6.91053">
        <ele>934.654845</ele>
        <time>2010-10-10T13:03:29Z</time>
      </trkpt>
      <trkpt lat="43.96642" lon="6.91033">
        <ele>930.861424</ele>
        <time>2010-10-10T13:03:34Z</time>
      </trkpt>
      <trkpt lat="43.96641" lon="6.91024">
        <ele>922.665589</ele>
        <time>2010-10-10T13:03:36Z</time>
      </trkpt>
      <trkpt lat="43.96639" lon="6.91015">
        <ele>914.425682</ele>
        <time>2010-10-10T13:03:39Z</time>
      </trkpt>
      <trkpt lat="43.96635" lon="6.90994">
        <ele>909.597469</ele>
        <time>2010-10-10T13:03:43Z</time>
      </trkpt>
      <trkpt lat="43.96633" lon="6.9098">
        <ele>906.502259</ele>
        <time>2010-10-10T13:03:46Z</time>
      </trkpt>
      <trkpt lat="43.96631" lon="6.90964">
        <ele>903.93302</ele>
        <time>2010-10-10T13:03:49Z</time>
      </trkpt>
      <trkpt lat="43.96627" lon="6.90943">
        <ele>901.127345</ele>
        <time>2010-10-10T13:03:52Z</time>
      </trkpt>
      <trkpt lat="43.96625" lon="6.9093">
        <ele>897.266788</ele>
        <time>2010-10-10T13:03:54Z</time>
      </trkpt>
      <trkpt lat="43.96623" lon="6.90917">
        <ele>893.013417</ele>
        <time>2010-10-10T13:03:56Z</time>
      </trkpt>
      <trkpt lat="43.96619" lon="6.90896">
        <ele>889.317937</ele>
        <time>2010-10-10T13:03:59Z</time>
      </trkpt>
      <trkpt lat="43.96615" lon="6.90883">
        <ele>886.430246</ele>
        <time>2010-10-10T13:04:01Z</time>
      </trkpt>
      <trkpt lat="43.96611" lon="6.90864">
        <ele>884.364831</ele>
        <time>2010-10-10T13:04:04Z</time>
      </trkpt>
      <trkpt lat="43.96609" lon="6.90853">
        <ele>882.569773</ele>
        <time>2010-10-10T13:04:06Z</time>
      </trkpt>
      <trkpt lat="43.96608" lon="6.90843">
        <ele>880.487741</ele>
        <time>2010-10-10T13:04:08Z</time>
      </trkpt>
      <trkpt lat="43.96607" lon="6.9083">
        <ele>878.092511</ele>
        <time>2010-10-10T13:04:11Z</time>
      </trkpt>
      <trkpt lat="43.96609" lon="6.90814">
        <ele>875.563903</ele>
        <time>2010-10-10T13:04:13Z</time>
      </trkpt>
      <trkpt lat="43.96611" lon="6.90792">
        <ele>873.003873</ele>
        <time>2010-10-10T13:04:16Z</time>
      </trkpt>
      <trkpt lat="43.96612" lon="6.90781">
        <ele>870.202233</ele>
        <time>2010-10-10T13:04:18Z</time>
      </trkpt>
      <trkpt lat="43.96612" lon="6.90781">
        <ele>867.386413</ele>
        <time>2010-10-10T13:04:19Z</time>
      </trkpt>
      <trkpt lat="43.96616" lon="6.90761">
        <ele>865.100009</ele>
        <time>2010-10-10T13:04:22Z</time>
      </trkpt>
      <trkpt lat="43.9661" lon="6.90734">
        <ele>862.585957</ele>
        <time>2010-10-10T13:04:24Z</time>
      </trkpt>
      <trkpt lat="43.96599" lon="6.90708">
        <ele>859.120092</ele>
        <time>2010-10-10T13:04:27Z</time>
      </trkpt>
      <trkpt lat="43.9659" lon="6.90695">
        <ele>855.060062</ele>
        <time>2010-10-10T13:04:30Z</time>
      </trkpt>
      <trkpt lat="43.96584" lon="6.90687">
        <ele>850.62955</ele>
        <time>2010-10-10T13:04:33Z</time>
      </trkpt>
      <trkpt lat="43.96576" lon="6.9068">
        <ele>845.772634</ele>
        <time>2010-10-10T13:04:36Z</time>
      </trkpt>
      <trkpt lat="43.96571" lon="6.90676">
        <ele>841.017728</ele>
        <time>2010-10-10T13:04:38Z</time>
      </trkpt>
      <trkpt lat="43.9656" lon="6.90672">
        <ele>837.48497</ele>
        <time>2010-10-10T13:04:41Z</time>
      </trkpt>
      <trkpt lat="43.96554" lon="6.9067">
        <ele>835.906855</ele>
        <time>2010-10-10T13:04:43Z</time>
      </trkpt>
      <trkpt lat="43.96547" lon="6.90668">
        <ele>835.726719</ele>
        <time>2010-10-10T13:04:45Z</time>
      </trkpt>
      <trkpt lat="43.96537" lon="6.90659">
        <ele>836.040904</ele>
        <time>2010-10-10T13:04:48Z</time>
      </trkpt>
      <trkpt lat="43.96527" lon="6.90645">
        <ele>836.466646</ele>
        <time>2010-10-10T13:04:51Z</time>
      </trkpt>
      <trkpt lat="43.96521" lon="6.9063">
        <ele>836.953224</ele>
        <time>2010-10-10T13:04:53Z</time>
      </trkpt>
      <trkpt lat="43.96513" lon="6.90602">
        <ele>837.335972</ele>
        <time>2010-10-10T13:04:56Z</time>
      </trkpt>
      <trkpt lat="43.96507" lon="6.90579">
        <ele>837.485148</ele>
        <time>2010-10-10T13:04:59Z</time>
      </trkpt>
      <trkpt lat="43.96503" lon="6.90558">
        <ele>837.350087</ele>
        <time>2010-10-10T13:05:02Z</time>
      </trkpt>
      <trkpt lat="43.96498" lon="6.90541">
        <ele>836.950001</ele>
        <time>2010-10-10T13:05:05Z</time>
      </trkpt>
      <trkpt lat="43.96493" lon="6.90526">
        <ele>836.41124</ele>
        <time>2010-10-10T13:05:08Z</time>
      </trkpt>
      <trkpt lat="43.96489" lon="6.90512">
        <ele>835.864099</ele>
        <time>2010-10-10T13:05:11Z</time>
      </trkpt>
      <trkpt lat="43.96483" lon="6.90498">
        <ele>835.329808</ele>
        <time>2010-10-10T13:05:14Z</time>
      </trkpt>
      <trkpt lat="43.96475" lon="6.9048">
        <ele>834.827929</ele>
        <time>2010-10-10T13:05:17Z</time>
      </trkpt>
      <trkpt lat="43.96468" lon="6.90464">
        <ele>834.050028</ele>
        <time>2010-10-10T13:05:20Z</time>
      </trkpt>
      <trkpt lat="43.96462" lon="6.90449">
        <ele>832.563719</ele>
        <time>2010-10-10T13:05:23Z</time>
      </trkpt>
      <trkpt lat="43.96458" lon="6.90438">
        <ele>830.326644</ele>
        <time>2010-10-10T13:05:25Z</time>
      </trkpt>
      <trkpt lat="43.96454" lon="6.90421">
        <ele>827.47087</ele>
        <time>2010-10-10T13:05:28Z</time>
      </trkpt>
      <trkpt lat="43.96453" lon="6.90403">
        <ele>824.245956</ele>
        <time>2010-10-10T13:05:31Z</time>
      </trkpt>
      <trkpt lat="43.96454" lon="6.90391">
        <ele>821.293539</ele>
        <time>2010-10-10T13:05:33Z</time>
      </trkpt>
      <trkpt lat="43.96454" lon="6.90372">
        <ele>818.927568</ele>
        <time>2010-10-10T13:05:36Z</time>
      </trkpt>
      <trkpt lat="43.96454" lon="6.90359">
        <ele>816.648586</ele>
        <time>2010-10-10T13:05:38Z</time>
      </trkpt>
      <trkpt lat="43.96454" lon="6.90339">
        <ele>814.170488</ele>
        <time>2010-10-10T13:05:41Z</time>
      </trkpt>
      <trkpt lat="43.96455" lon="6.9032">
        <ele>811.871303</ele>
        <time>2010-10-10T13:05:44Z</time>
      </trkpt>
      <trkpt lat="43.96455" lon="6.90308">
        <ele>809.921935</ele>
        <time>2010-10-10T13:05:46Z</time>
      </trkpt>
      <trkpt lat="43.96456" lon="6.90295">
        <ele>808.046462</ele>
        <time>2010-10-10T13:05:48Z</time>
      </trkpt>
      <trkpt lat="43.96456" lon="6.90277">
        <ele>805.988707</ele>
        <time>2010-10-10T13:05:51Z</time>
      </trkpt>
      <trkpt lat="43.96457" lon="6.9026">
        <ele>803.655018</ele>
        <time>2010-10-10T13:05:54Z</time>
      </trkpt>
      <trkpt lat="43.96454" lon="6.90243">
        <ele>801.283585</ele>
        <time>2010-10-10T13:05:57Z</time>
      </trkpt>
      <trkpt lat="43.96446" lon="6.90228">
        <ele>799.100567</ele>
        <time>2010-10-10T13:06:00Z</time>
      </trkpt>
      <trkpt lat="43.96435" lon="6.90213">
        <ele>797.069983</ele>
        <time>2010-10-10T13:06:03Z</time>
      </trkpt>
      <trkpt lat="43.9642" lon="6.902">
        <ele>794.962159</ele>
        <time>2010-10-10T13:06:06Z</time>
      </trkpt>
      <trkpt lat="43.96407" lon="6.90191">
        <ele>792.496833</ele>
        <time>2010-10-10T13:06:09Z</time>
      </trkpt>
      <trkpt lat="43.96395" lon="6.9018">
        <ele>789.784684</ele>
        <time>2010-10-10T13:06:12Z</time>
      </trkpt>
      <trkpt lat="43.96386" lon="6.90167">
        <ele>787.244779</ele>
        <time>2010-10-10T13:06:15Z</time>
      </trkpt>
      <trkpt lat="43.96378" lon="6.90154">
        <ele>785.042897</ele>
        <time>2010-10-10T13:06:18Z</time>
      </trkpt>
      <trkpt lat="43.96376" lon="6.90148">
        <ele>783.184301</ele>
        <time>2010-10-10T13:06:21Z</time>
      </trkpt>
      <trkpt lat="43.96361" lon="6.90142">
        <ele>781.467168</ele>
        <time>2010-10-10T13:06:31Z</time>
      </trkpt>
      <trkpt lat="43.96351" lon="6.90139">
        <ele>779.384803</ele>
        <time>2010-10-10T13:06:33Z</time>
      </trkpt>
      <trkpt lat="43.9634" lon="6.90137">
        <ele>776.987488</ele>
        <time>2010-10-10T13:06:35Z</time>
      </trkpt>
      <trkpt lat="43.96325" lon="6.9013">
        <ele>774.969381</ele>
        <time>2010-10-10T13:06:38Z</time>
      </trkpt>
      <trkpt lat="43.96317" lon="6.90119">
        <ele>773.740702</ele>
        <time>2010-10-10T13:06:40Z</time>
      </trkpt>
      <trkpt lat="43.9631" lon="6.90106">
        <ele>773.115426</ele>
        <time>2010-10-10T13:06:43Z</time>
      </trkpt>
      <trkpt lat="43.96308" lon="6.90103">
        <ele>772.601155</ele>
        <time>2010-10-10T13:06:45Z</time>
      </trkpt>
      <trkpt lat="43.96308" lon="6.90103">
        <ele>771.998411</ele>
        <time>2010-10-10T13:07:16Z</time>
      </trkpt>
      <trkpt lat="43.96301" lon="6.90065">
        <ele>771.415319</ele>
        <time>2010-10-10T13:07:31Z</time>
      </trkpt>
      <trkpt lat="43.96302" lon="6.90052">
        <ele>770.616231</ele>
        <time>2010-10-10T13:07:42Z</time>
      </trkpt>
      <trkpt lat="43.96302" lon="6.90052">
        <ele>768.66681</ele>
        <time>2010-10-10T13:07:58Z</time>
      </trkpt>
      <trkpt lat="43.96281" lon="6.90076">
        <ele>768.18767</ele>
        <time>2010-10-10T13:09:28Z</time>
      </trkpt>
      <trkpt lat="43.96276" lon="6.90076">
        <ele>765.74502</ele>
        <time>2010-10-10T13:09:30Z</time>
      </trkpt>
      <trkpt lat="43.96269" lon="6.9007">
        <ele>758.823135</ele>
        <time>2010-10-10T13:09:33Z</time>
      </trkpt>
      <trkpt lat="43.96265" lon="6.90064">
        <ele>746.897588</ele>
        <time>2010-10-10T13:09:35Z</time>
      </trkpt>
      <trkpt lat="43.96262" lon="6.90056">
        <ele>733.026851</ele>
        <time>2010-10-10T13:09:38Z</time>
      </trkpt>
      <trkpt lat="43.96261" lon="6.90046">
        <ele>722.816286</ele>
        <time>2010-10-10T13:09:41Z</time>
      </trkpt>
      <trkpt lat="43.9626" lon="6.90032">
        <ele>718.834392</ele>
        <time>2010-10-10T13:09:44Z</time>
      </trkpt>
      <trkpt lat="43.96258" lon="6.9002">
        <ele>718.611182</ele>
        <time>2010-10-10T13:09:46Z</time>
      </trkpt>
      <trkpt lat="43.96256" lon="6.90009">
        <ele>719.301493</ele>
        <time>2010-10-10T13:09:48Z</time>
      </trkpt>
      <trkpt lat="43.96253" lon="6.89996">
        <ele>719.372193</ele>
        <time>2010-10-10T13:09:51Z</time>
      </trkpt>
      <trkpt lat="43.96251" lon="6.89989">
        <ele>718.952314</ele>
        <time>2010-10-10T13:09:54Z</time>
      </trkpt>
      <trkpt lat="43.96244" lon="6.89984">
        <ele>718.616434</ele>
        <time>2010-10-10T13:09:57Z</time>
      </trkpt>
      <trkpt lat="43.96233" lon="6.89976">
        <ele>718.621659</ele>
        <time>2010-10-10T13:10:00Z</time>
      </trkpt>
      <trkpt lat="43.96233" lon="6.89976">
        <ele>718.977247</ele>
        <time>2010-10-10T13:10:01Z</time>
      </trkpt>
      <trkpt lat="43.96217" lon="6.89969">
        <ele>719.381311</ele>
        <time>2010-10-10T13:10:07Z</time>
      </trkpt>
      <trkpt lat="43.96211" lon="6.89967">
        <ele>719.583839</ele>
        <time>2010-10-10T13:10:09Z</time>
      </trkpt>
      <trkpt lat="43.96204" lon="6.89963">
        <ele>719.482812</ele>
        <time>2010-10-10T13:10:12Z</time>
      </trkpt>
      <trkpt lat="43.962" lon="6.89957">
        <ele>718.989155</ele>
        <time>2010-10-10T13:10:14Z</time>
      </trkpt>
      <trkpt lat="43.96195" lon="6.89947">
        <ele>718.281712</ele>
        <time>2010-10-10T13:10:17Z</time>
      </trkpt>
      <trkpt lat="43.96192" lon="6.89934">
        <ele>717.584863</ele>
        <time>2010-10-10T13:10:20Z</time>
      </trkpt>
      <trkpt lat="43.96189" lon="6.89922">
        <ele>716.834036</ele>
        <time>2010-10-10T13:10:23Z</time>
      </trkpt>
      <trkpt lat="43.96186" lon="6.89912">
        <ele>715.935634</ele>
        <time>2010-10-10T13:10:26Z</time>
      </trkpt>
      <trkpt lat="43.96184" lon="6.89904">
        <ele>714.803458</ele>
        <time>2010-10-10T13:10:29Z</time>
      </trkpt>
      <trkpt lat="43.96184" lon="6.89904">
        <ele>713.557911</ele>
        <time>2010-10-10T13:10:30Z</time>
      </trkpt>
      <trkpt lat="43.96167" lon="6.89872">
        <ele>712.391164</ele>
        <time>2010-10-10T13:10:57Z</time>
      </trkpt>
      <trkpt lat="43.96162" lon="6.89867">
        <ele>711.080353</ele>
        <time>2010-10-10T13:11:06Z</time>
      </trkpt>
      <trkpt lat="43.96159" lon="6.89866">
        <ele>709.362401</ele>
        <time>2010-10-10T13:11:09Z</time>
      </trkpt>
      <trkpt lat="43.96156" lon="6.89863">
        <ele>705.444839</ele>
        <time>2010-10-10T13:11:11Z</time>
      </trkpt>
      <trkpt lat="43.9615" lon="6.89859">
        <ele>698.06356</ele>
        <time>2010-10-10T13:11:14Z</time>
      </trkpt>
      <trkpt lat="43.96144" lon="6.89852">
        <ele>690.118118</ele>
        <time>2010-10-10T13:11:17Z</time>
      </trkpt>
      <trkpt lat="43.96141" lon="6.89846">
        <ele>685.043636</ele>
        <time>2010-10-10T13:11:19Z</time>
      </trkpt>
      <trkpt lat="43.96136" lon="6.8984">
        <ele>682.682927</ele>
        <time>2010-10-10T13:11:22Z</time>
      </trkpt>
      <trkpt lat="43.96136" lon="6.8984">
        <ele>681.703431</ele>
        <time>2010-10-10T13:11:23Z</time>
      </trkpt>
      <trkpt lat="43.96148" lon="6.89881">
        <ele>681.086785</ele>
        <time>2010-10-10T13:11:44Z</time>
      </trkpt>
      <trkpt lat="43.96148" lon="6.89885">
        <ele>680.113831</ele>
        <time>2010-10-10T13:11:47Z</time>
      </trkpt>
      <trkpt lat="43.96148" lon="6.89885">
        <ele>678.76956</ele>
        <time>2010-10-10T13:11:48Z</time>
      </trkpt>
      <trkpt lat="43.96129" lon="6.89913">
        <ele>677.621391</ele>
        <time>2010-10-10T13:11:55Z</time>
      </trkpt>
      <trkpt lat="43.96123" lon="6.89914">
        <ele>676.332329</ele>
        <time>2010-10-10T13:11:57Z</time>
      </trkpt>
      <trkpt lat="43.96116" lon="6.89915">
        <ele>674.389858</ele>
        <time>2010-10-10T13:12:00Z</time>
      </trkpt>
      <trkpt lat="43.9611" lon="6.89916">
        <ele>671.244186</ele>
        <time>2010-10-10T13:12:03Z</time>
      </trkpt>
      <trkpt lat="43.96105" lon="6.8993">
        <ele>666.85197</ele>
        <time>2010-10-10T13:12:14Z</time>
      </trkpt>
      <trkpt lat="43.96103" lon="6.89933">
        <ele>662.669499</ele>
        <time>2010-10-10T13:12:18Z</time>
      </trkpt>
      <trkpt lat="43.961" lon="6.89932">
        <ele>659.711172</ele>
        <time>2010-10-10T13:12:21Z</time>
      </trkpt>
      <trkpt lat="43.96095" lon="6.89928">
        <ele>656.804906</ele>
        <time>2010-10-10T13:12:24Z</time>
      </trkpt>
      <trkpt lat="43.96092" lon="6.89924">
        <ele>652.959223</ele>
        <time>2010-10-10T13:12:26Z</time>
      </trkpt>
      <trkpt lat="43.96088" lon="6.89915">
        <ele>648.627912</ele>
        <time>2010-10-10T13:12:29Z</time>
      </trkpt>
      <trkpt lat="43.96085" lon="6.8991">
        <ele>644.869601</ele>
        <time>2010-10-10T13:12:31Z</time>
      </trkpt>
      <trkpt lat="43.96082" lon="6.89906">
        <ele>642.212873</ele>
        <time>2010-10-10T13:12:33Z</time>
      </trkpt>
      <trkpt lat="43.9608" lon="6.89903">
        <ele>640.753578</ele>
        <time>2010-10-10T13:12:36Z</time>
      </trkpt>
      <trkpt lat="43.96077" lon="6.89902">
        <ele>640.136834</ele>
        <time>2010-10-10T13:12:40Z</time>
      </trkpt>
      <trkpt lat="43.96073" lon="6.89901">
        <ele>639.832855</ele>
        <time>2010-10-10T13:12:46Z</time>
      </trkpt>
      <trkpt lat="43.96069" lon="6.89898">
        <ele>639.641813</ele>
        <time>2010-10-10T13:12:50Z</time>
      </trkpt>
      <trkpt lat="43.96067" lon="6.89895">
        <ele>639.446583</ele>
        <time>2010-10-10T13:12:53Z</time>
      </trkpt>
      <trkpt lat="43.96062" lon="6.89889">
        <ele>639.098216</ele>
        <time>2010-10-10T13:12:56Z</time>
      </trkpt>
      <trkpt lat="43.96055" lon="6.89878">
        <ele>638.753699</ele>
        <time>2010-10-10T13:12:59Z</time>
      </trkpt>
      <trkpt lat="43.9605" lon="6.89874">
        <ele>638.179354</ele>
        <time>2010-10-10T13:13:01Z</time>
      </trkpt>
      <trkpt lat="43.96045" lon="6.89871">
        <ele>636.939479</ele>
        <time>2010-10-10T13:13:03Z</time>
      </trkpt>
      <trkpt lat="43.96038" lon="6.8987">
        <ele>635.500247</ele>
        <time>2010-10-10T13:13:06Z</time>
      </trkpt>
      <trkpt lat="43.96034" lon="6.89868">
        <ele>634.494892</ele>
        <time>2010-10-10T13:13:08Z</time>
      </trkpt>
      <trkpt lat="43.96029" lon="6.89864">
        <ele>633.892972</ele>
        <time>2010-10-10T13:13:11Z</time>
      </trkpt>
      <trkpt lat="43.96023" lon="6.89863">
        <ele>633.588611</ele>
        <time>2010-10-10T13:13:14Z</time>
      </trkpt>
      <trkpt lat="43.96018" lon="6.89865">
        <ele>633.531234</ele>
        <time>2010-10-10T13:13:17Z</time>
      </trkpt>
      <trkpt lat="43.96015" lon="6.8987">
        <ele>633.574801</ele>
        <time>2010-10-10T13:13:20Z</time>
      </trkpt>
      <trkpt lat="43.96013" lon="6.89873">
        <ele>633.485725</ele>
        <time>2010-10-10T13:13:22Z</time>
      </trkpt>
      <trkpt lat="43.96012" lon="6.89882">
        <ele>633.150338</ele>
        <time>2010-10-10T13:13:25Z</time>
      </trkpt>
      <trkpt lat="43.9601" lon="6.89889">
        <ele>632.647165</ele>
        <time>2010-10-10T13:13:27Z</time>
      </trkpt>
      <trkpt lat="43.96008" lon="6.89899">
        <ele>632.108376</ele>
        <time>2010-10-10T13:13:30Z</time>
      </trkpt>
      <trkpt lat="43.96005" lon="6.89905">
        <ele>631.708412</ele>
        <time>2010-10-10T13:13:33Z</time>
      </trkpt>
      <trkpt lat="43.96005" lon="6.89905">
        <ele>631.561158</ele>
        <time>2010-10-10T13:13:34Z</time>
      </trkpt>
      <trkpt lat="43.95992" lon="6.89926">
        <ele>631.472474</ele>
        <time>2010-10-10T13:14:27Z</time>
      </trkpt>
      <trkpt lat="43.95992" lon="6.89926">
        <ele>631.244872</ele>
        <time>2010-10-10T13:14:31Z</time>
      </trkpt>
      <trkpt lat="43.95992" lon="6.89926">
        <ele>630.933025</ele>
        <time>2010-10-10T13:14:34Z</time>
      </trkpt>
      <trkpt lat="43.96018" lon="6.89957">
        <ele>630.705467</ele>
        <time>2010-10-10T13:15:10Z</time>
      </trkpt>
      <trkpt lat="43.96021" lon="6.89969">
        <ele>630.591753</ele>
        <time>2010-10-10T13:15:15Z</time>
      </trkpt>
      <trkpt lat="43.9602" lon="6.89973">
        <ele>627.516003</ele>
        <time>2010-10-10T13:15:22Z</time>
      </trkpt>
      <trkpt lat="43.9602" lon="6.89973">
        <ele>619.619</ele>
        <time>2010-10-10T13:15:30Z</time>
      </trkpt>
      <trkpt lat="43.9602" lon="6.89973">
        <ele>612.950629</ele>
        <time>2010-10-10T13:15:46Z</time>
      </trkpt>
      <trkpt lat="43.96027" lon="6.89859">
        <ele>674</ele>
        <time>2010-10-10T13:14:53Z</time>
      </trkpt>
      <trkpt lat="43.96023" lon="6.89861">
        <ele>673</ele>
        <time>2010-10-10T13:14:55Z</time>
      </trkpt>
      <trkpt lat="43.96019" lon="6.89867">
        <ele>673</ele>
        <time>2010-10-10T13:14:57Z</time>
      </trkpt>
      <trkpt lat="43.96016" lon="6.89875">
        <ele>672</ele>
        <time>2010-10-10T13:14:59Z</time>
      </trkpt>
      <trkpt lat="43.96013" lon="6.89884">
        <ele>671</ele>
        <time>2010-10-10T13:15:01Z</time>
      </trkpt>
      <trkpt lat="43.96011" lon="6.8989">
        <ele>670</ele>
        <time>2010-10-10T13:15:03Z</time>
      </trkpt>
      <trkpt lat="43.96009" lon="6.89895">
        <ele>669</ele>
        <time>2010-10-10T13:15:06Z</time>
      </trkpt>
      <trkpt lat="43.96004" lon="6.89902">
        <ele>669</ele>
        <time>2010-10-10T13:15:10Z</time>
      </trkpt>
      <trkpt lat="43.95999" lon="6.89908">
        <ele>668</ele>
        <time>2010-10-10T13:15:14Z</time>
      </trkpt>
      <trkpt lat="43.95993" lon="6.89911">
        <ele>666</ele>
        <time>2010-10-10T13:15:21Z</time>
      </trkpt>
      <trkpt lat="43.9599" lon="6.89916">
        <ele>664</ele>
        <time>2010-10-10T13:15:29Z</time>
      </trkpt>
      <trkpt lat="43.95992" lon="6.89922">
        <ele>663</ele>
        <time>2010-10-10T13:15:34Z</time>
      </trkpt>
      <trkpt lat="43.95995" lon="6.89927">
        <ele>661</ele>
        <time>2010-10-10T13:15:37Z</time>
      </trkpt>
      <trkpt lat="43.96002" lon="6.89934">
        <ele>660</ele>
        <time>2010-10-10T13:15:40Z</time>
      </trkpt>
      <trkpt lat="43.96005" lon="6.89939">
        <ele>660</ele>
        <time>2010-10-10T13:15:42Z</time>
      </trkpt>
      <trkpt lat="43.9601" lon="6.89942">
        <ele>659</ele>
        <time>2010-10-10T13:15:47Z</time>
      </trkpt>
      <trkpt lat="43.96011" lon="6.89944">
        <ele>658</ele>
        <time>2010-10-10T13:15:49Z</time>
      </trkpt>
      <trkpt lat="43.96013" lon="6.89946">
        <ele>658</ele>
        <time>2010-10-10T13:15:53Z</time>
      </trkpt>
      <trkpt lat="43.96014" lon="6.89949">
        <ele>658</ele>
        <time>2010-10-10T13:15:54Z</time>
      </trkpt>
      <trkpt lat="43.96017" lon="6.89955">
        <ele>657</ele>
        <time>2010-10-10T13:15:58Z</time>
      </trkpt>
      <trkpt lat="43.96019" lon="6.89962">
        <ele>656</ele>
        <time>2010-10-10T13:16:02Z</time>
      </trkpt>
      <trkpt lat="43.9602" lon="6.89968">
        <ele>656</ele>
        <time>2010-10-10T13:16:07Z</time>
      </trkpt>
      <trkpt lat="43.96021" lon="6.89971">
        <ele>653</ele>
        <time>2010-10-10T13:16:15Z</time>
      </trkpt>
      <trkpt lat="43.96022" lon="6.89977">
        <ele>647</ele>
        <time>2010-10-10T13:17:10Z</time>
      </trkpt>
      <trkpt lat="43.96023" lon="6.89977">
        <ele>646</ele>
        <time>2010-10-10T13:17:11Z</time>
      </trkpt>
      <trkpt lat="43.96023" lon="6.89977">
        <ele>645</ele>
        <time>2010-10-10T13:17:14Z</time>
      </trkpt>
      <trkpt lat="43.96025" lon="6.89978">
        <ele>636</ele>
        <time>2010-10-10T13:29:53Z</time>
      </trkpt>
      <trkpt lat="43.96028" lon="6.89991">
        <ele>636</ele>
        <time>2010-10-10T13:29:54Z</time>
      </trkpt>
      <trkpt lat="43.96026" lon="6.89997">
        <ele>636</ele>
        <time>2010-10-10T13:29:57Z</time>
      </trkpt>
      <trkpt lat="43.96027" lon="6.90004">
        <ele>636</ele>
        <time>2010-10-10T13:30:02Z</time>
      </trkpt>
      <trkpt lat="43.96028" lon="6.90006">
        <ele>637</ele>
        <time>2010-10-10T13:30:06Z</time>
      </trkpt>
      <trkpt lat="43.96024" lon="6.9001">
        <ele>636</ele>
        <time>2010-10-10T13:30:23Z</time>
      </trkpt>
      <trkpt lat="43.96024" lon="6.9001">
        <ele>636</ele>
        <time>2010-10-10T13:30:24Z</time>
      </trkpt>
      <trkpt lat="43.96022" lon="6.9001">
        <ele>636</ele>
        <time>2010-10-10T13:30:27Z</time>
      </trkpt>
      <trkpt lat="43.9602" lon="6.90011">
        <ele>636</ele>
        <time>2010-10-10T13:38:11Z</time>
      </trkpt>
      <trkpt lat="43.9602" lon="6.90023">
        <ele>636</ele>
        <time>2010-10-10T13:38:14Z</time>
      </trkpt>
      <trkpt lat="43.96015" lon="6.90026">
        <ele>636</ele>
        <time>2010-10-10T13:38:17Z</time>
      </trkpt>
      <trkpt lat="43.96011" lon="6.90029">
        <ele>636</ele>
        <time>2010-10-10T13:38:19Z</time>
      </trkpt>
      <trkpt lat="43.96006" lon="6.90035">
        <ele>636</ele>
        <time>2010-10-10T13:38:21Z</time>
      </trkpt>
      <trkpt lat="43.96001" lon="6.9004">
        <ele>636</ele>
        <time>2010-10-10T13:38:23Z</time>
      </trkpt>
      <trkpt lat="43.95993" lon="6.90048">
        <ele>635</ele>
        <time>2010-10-10T13:38:27Z</time>
      </trkpt>
      <trkpt lat="43.95991" lon="6.90055">
        <ele>635</ele>
        <time>2010-10-10T13:38:30Z</time>
      </trkpt>
      <trkpt lat="43.9599" lon="6.90062">
        <ele>634</ele>
        <time>2010-10-10T13:38:32Z</time>
      </trkpt>
      <trkpt lat="43.95987" lon="6.90069">
        <ele>635</ele>
        <time>2010-10-10T13:38:34Z</time>
      </trkpt>
      <trkpt lat="43.95983" lon="6.90073">
        <ele>635</ele>
        <time>2010-10-10T13:38:36Z</time>
      </trkpt>
      <trkpt lat="43.95977" lon="6.9008">
        <ele>634</ele>
        <time>2010-10-10T13:38:40Z</time>
      </trkpt>
      <trkpt lat="43.95971" lon="6.90084">
        <ele>633</ele>
        <time>2010-10-10T13:38:43Z</time>
      </trkpt>
      <trkpt lat="43.95964" lon="6.90086">
        <ele>632</ele>
        <time>2010-10-10T13:38:45Z</time>
      </trkpt>
      <trkpt lat="43.95957" lon="6.90086">
        <ele>631</ele>
        <time>2010-10-10T13:38:47Z</time>
      </trkpt>
      <trkpt lat="43.9595" lon="6.90086">
        <ele>630</ele>
        <time>2010-10-10T13:38:49Z</time>
      </trkpt>
      <trkpt lat="43.95945" lon="6.90086">
        <ele>630</ele>
        <time>2010-10-10T13:38:53Z</time>
      </trkpt>
      <trkpt lat="43.95945" lon="6.90086">
        <ele>630</ele>
        <time>2010-10-10T13:38:53Z</time>
      </trkpt>
      <trkpt lat="43.95944" lon="6.90087">
        <ele>628</ele>
        <time>2010-10-10T13:38:59Z</time>
      </trkpt>
      <trkpt lat="43.9594" lon="6.90089">
        <ele>627</ele>
        <time>2010-10-10T13:39:01Z</time>
      </trkpt>
      <trkpt lat="43.95936" lon="6.90093">
        <ele>626</ele>
        <time>2010-10-10T13:39:03Z</time>
      </trkpt>
      <trkpt lat="43.9593" lon="6.90096">
        <ele>626</ele>
        <time>2010-10-10T13:39:06Z</time>
      </trkpt>
      <trkpt lat="43.95923" lon="6.901">
        <ele>626</ele>
        <time>2010-10-10T13:39:08Z</time>
      </trkpt>
      <trkpt lat="43.95919" lon="6.90102">
        <ele>625</ele>
        <time>2010-10-10T13:39:09Z</time>
      </trkpt>
      <trkpt lat="43.95913" lon="6.90107">
        <ele>624</ele>
        <time>2010-10-10T13:39:11Z</time>
      </trkpt>
      <trkpt lat="43.95903" lon="6.90114">
        <ele>623</ele>
        <time>2010-10-10T13:39:14Z</time>
      </trkpt>
      <trkpt lat="43.95895" lon="6.90118">
        <ele>622</ele>
        <time>2010-10-10T13:39:16Z</time>
      </trkpt>
      <trkpt lat="43.9589" lon="6.9012">
        <ele>621</ele>
        <time>2010-10-10T13:39:17Z</time>
      </trkpt>
      <trkpt lat="43.95885" lon="6.90122">
        <ele>621</ele>
        <time>2010-10-10T13:39:18Z</time>
      </trkpt>
      <trkpt lat="43.9588" lon="6.90125">
        <ele>621</ele>
        <time>2010-10-10T13:39:19Z</time>
      </trkpt>
      <trkpt lat="43.95876" lon="6.90128">
        <ele>620</ele>
        <time>2010-10-10T13:39:20Z</time>
      </trkpt>
      <trkpt lat="43.95868" lon="6.90131">
        <ele>619</ele>
        <time>2010-10-10T13:39:22Z</time>
      </trkpt>
      <trkpt lat="43.95862" lon="6.90133">
        <ele>619</ele>
        <time>2010-10-10T13:39:24Z</time>
      </trkpt>
      <trkpt lat="43.95854" lon="6.90137">
        <ele>618</ele>
        <time>2010-10-10T13:39:27Z</time>
      </trkpt>
      <trkpt lat="43.95847" lon="6.90138">
        <ele>618</ele>
        <time>2010-10-10T13:39:29Z</time>
      </trkpt>
      <trkpt lat="43.95841" lon="6.9014">
        <ele>618</ele>
        <time>2010-10-10T13:39:31Z</time>
      </trkpt>
      <trkpt lat="43.95836" lon="6.90143">
        <ele>616</ele>
        <time>2010-10-10T13:39:33Z</time>
      </trkpt>
      <trkpt lat="43.9583" lon="6.90146">
        <ele>615</ele>
        <time>2010-10-10T13:39:36Z</time>
      </trkpt>
      <trkpt lat="43.9582" lon="6.90149">
        <ele>613</ele>
        <time>2010-10-10T13:39:40Z</time>
      </trkpt>
      <trkpt lat="43.95814" lon="6.9015">
        <ele>612</ele>
        <time>2010-10-10T13:39:42Z</time>
      </trkpt>
      <trkpt lat="43.95809" lon="6.90151">
        <ele>612</ele>
        <time>2010-10-10T13:39:44Z</time>
      </trkpt>
      <trkpt lat="43.95804" lon="6.90154">
        <ele>610</ele>
        <time>2010-10-10T13:39:46Z</time>
      </trkpt>
      <trkpt lat="43.95799" lon="6.90157">
        <ele>610</ele>
        <time>2010-10-10T13:39:48Z</time>
      </trkpt>
      <trkpt lat="43.95791" lon="6.90159">
        <ele>608</ele>
        <time>2010-10-10T13:39:53Z</time>
      </trkpt>
      <trkpt lat="43.95786" lon="6.9016">
        <ele>607</ele>
        <time>2010-10-10T13:39:56Z</time>
      </trkpt>
      <trkpt lat="43.9578" lon="6.90159">
        <ele>605</ele>
        <time>2010-10-10T13:39:59Z</time>
      </trkpt>
      <trkpt lat="43.95774" lon="6.90163">
        <ele>604</ele>
        <time>2010-10-10T13:40:02Z</time>
      </trkpt>
      <trkpt lat="43.9577" lon="6.90169">
        <ele>603</ele>
        <time>2010-10-10T13:40:04Z</time>
      </trkpt>
      <trkpt lat="43.95766" lon="6.90174">
        <ele>602</ele>
        <time>2010-10-10T13:40:06Z</time>
      </trkpt>
      <trkpt lat="43.9576" lon="6.90178">
        <ele>602</ele>
        <time>2010-10-10T13:40:09Z</time>
      </trkpt>
      <trkpt lat="43.95754" lon="6.9018">
        <ele>600</ele>
        <time>2010-10-10T13:40:14Z</time>
      </trkpt>
      <trkpt lat="43.95747" lon="6.90182">
        <ele>599</ele>
        <time>2010-10-10T13:40:19Z</time>
      </trkpt>
      <trkpt lat="43.95745" lon="6.90184">
        <ele>597</ele>
        <time>2010-10-10T13:40:29Z</time>
      </trkpt>
      <trkpt lat="43.95743" lon="6.90189">
        <ele>595</ele>
        <time>2010-10-10T13:40:43Z</time>
      </trkpt>
      <trkpt lat="43.95743" lon="6.9019">
        <ele>595</ele>
        <time>2010-10-10T13:40:44Z</time>
      </trkpt>
      <trkpt lat="43.95741" lon="6.90191">
        <ele>595</ele>
        <time>2010-10-10T13:40:47Z</time>
      </trkpt>
      <trkpt lat="43.95741" lon="6.90192">
        <ele>592</ele>
        <time>2010-10-10T13:41:08Z</time>
      </trkpt>
      <trkpt lat="43.95733" lon="6.90197">
        <ele>592</ele>
        <time>2010-10-10T13:41:09Z</time>
      </trkpt>
      <trkpt lat="43.95729" lon="6.902">
        <ele>591</ele>
        <time>2010-10-10T13:41:15Z</time>
      </trkpt>
      <trkpt lat="43.95724" lon="6.90205">
        <ele>589</ele>
        <time>2010-10-10T13:41:21Z</time>
      </trkpt>
      <trkpt lat="43.9572" lon="6.9021">
        <ele>588</ele>
        <time>2010-10-10T13:41:23Z</time>
      </trkpt>
      <trkpt lat="43.95716" lon="6.9022">
        <ele>588</ele>
        <time>2010-10-10T13:41:27Z</time>
      </trkpt>
      <trkpt lat="43.95714" lon="6.90227">
        <ele>587</ele>
        <time>2010-10-10T13:41:30Z</time>
      </trkpt>
      <trkpt lat="43.95715" lon="6.90233">
        <ele>584</ele>
        <time>2010-10-10T13:41:35Z</time>
      </trkpt>
      <trkpt lat="43.95715" lon="6.90235">
        <ele>582</ele>
        <time>2010-10-10T13:41:40Z</time>
      </trkpt>
      <trkpt lat="43.95713" lon="6.90238">
        <ele>581</ele>
        <time>2010-10-10T13:41:47Z</time>
      </trkpt>
      <trkpt lat="43.95712" lon="6.9024">
        <ele>582</ele>
        <time>2010-10-10T13:41:48Z</time>
      </trkpt>
      <trkpt lat="43.95708" lon="6.90249">
        <ele>581</ele>
        <time>2010-10-10T13:41:53Z</time>
      </trkpt>
      <trkpt lat="43.95704" lon="6.90254">
        <ele>581</ele>
        <time>2010-10-10T13:41:57Z</time>
      </trkpt>
      <trkpt lat="43.95702" lon="6.90259">
        <ele>578</ele>
        <time>2010-10-10T13:42:04Z</time>
      </trkpt>
      <trkpt lat="43.957" lon="6.9026">
        <ele>577</ele>
        <time>2010-10-10T13:42:10Z</time>
      </trkpt>
      <trkpt lat="43.95699" lon="6.90265">
        <ele>573</ele>
        <time>2010-10-10T13:42:18Z</time>
      </trkpt>
      <trkpt lat="43.95699" lon="6.90267">
        <ele>573</ele>
        <time>2010-10-10T13:42:19Z</time>
      </trkpt>
      <trkpt lat="43.95695" lon="6.9028">
        <ele>572</ele>
        <time>2010-10-10T13:42:27Z</time>
      </trkpt>
      <trkpt lat="43.95694" lon="6.90287">
        <ele>571</ele>
        <time>2010-10-10T13:42:31Z</time>
      </trkpt>
      <trkpt lat="43.95692" lon="6.90291">
        <ele>570</ele>
        <time>2010-10-10T13:42:34Z</time>
      </trkpt>
      <trkpt lat="43.95691" lon="6.90285">
        <ele>568</ele>
        <time>2010-10-10T13:42:42Z</time>
      </trkpt>
      <trkpt lat="43.9569" lon="6.90285">
        <ele>568</ele>
        <time>2010-10-10T13:42:43Z</time>
      </trkpt>
      <trkpt lat="43.95691" lon="6.90284">
        <ele>568</ele>
        <time>2010-10-10T13:42:44Z</time>
      </trkpt>
      <trkpt lat="43.95693" lon="6.90284">
        <ele>564</ele>
        <time>2010-10-10T13:43:19Z</time>
      </trkpt>
      <trkpt lat="43.95689" lon="6.90271">
        <ele>563</ele>
        <time>2010-10-10T13:43:20Z</time>
      </trkpt>
      <trkpt lat="43.95687" lon="6.90267">
        <ele>562</ele>
        <time>2010-10-10T13:43:27Z</time>
      </trkpt>
      <trkpt lat="43.95683" lon="6.90264">
        <ele>560</ele>
        <time>2010-10-10T13:43:33Z</time>
      </trkpt>
      <trkpt lat="43.95682" lon="6.90264">
        <ele>560</ele>
        <time>2010-10-10T13:43:34Z</time>
      </trkpt>
      <trkpt lat="43.95679" lon="6.90259">
        <ele>560</ele>
        <time>2010-10-10T13:43:40Z</time>
      </trkpt>
      <trkpt lat="43.95678" lon="6.90258">
        <ele>560</ele>
        <time>2010-10-10T13:43:41Z</time>
      </trkpt>
      <trkpt lat="43.95675" lon="6.90254">
        <ele>560</ele>
        <time>2010-10-10T13:43:48Z</time>
      </trkpt>
      <trkpt lat="43.95675" lon="6.90253">
        <ele>560</ele>
        <time>2010-10-10T13:43:49Z</time>
      </trkpt>
      <trkpt lat="43.9567" lon="6.90254">
        <ele>558</ele>
        <time>2010-10-10T13:43:58Z</time>
      </trkpt>
      <trkpt lat="43.95667" lon="6.90261">
        <ele>557</ele>
        <time>2010-10-10T13:44:01Z</time>
      </trkpt>
      <trkpt lat="43.95669" lon="6.90267">
        <ele>551</ele>
        <time>2010-10-10T13:44:16Z</time>
      </trkpt>
      <trkpt lat="43.95669" lon="6.90268">
        <ele>550</ele>
        <time>2010-10-10T13:44:17Z</time>
      </trkpt>
      <trkpt lat="43.95666" lon="6.90264">
        <ele>549</ele>
        <time>2010-10-10T13:44:50Z</time>
      </trkpt>
      <trkpt lat="43.95669" lon="6.90249">
        <ele>549</ele>
        <time>2010-10-10T13:44:53Z</time>
      </trkpt>
      <trkpt lat="43.95671" lon="6.90248">
        <ele>549</ele>
        <time>2010-10-10T13:44:56Z</time>
      </trkpt>
      <trkpt lat="43.95672" lon="6.90242">
        <ele>549</ele>
        <time>2010-10-10T13:45:24Z</time>
      </trkpt>
      <trkpt lat="43.95684" lon="6.9022">
        <ele>550</ele>
        <time>2010-10-10T13:45:27Z</time>
      </trkpt>
      <trkpt lat="43.95687" lon="6.90213">
        <ele>549</ele>
        <time>2010-10-10T13:45:29Z</time>
      </trkpt>
      <trkpt lat="43.95692" lon="6.90206">
        <ele>549</ele>
        <time>2010-10-10T13:45:31Z</time>
      </trkpt>
      <trkpt lat="43.95697" lon="6.90198">
        <ele>548</ele>
        <time>2010-10-10T13:45:33Z</time>
      </trkpt>
      <trkpt lat="43.95702" lon="6.9019">
        <ele>549</ele>
        <time>2010-10-10T13:45:35Z</time>
      </trkpt>
      <trkpt lat="43.95707" lon="6.90184">
        <ele>550</ele>
        <time>2010-10-10T13:45:37Z</time>
      </trkpt>
      <trkpt lat="43.95713" lon="6.90171">
        <ele>550</ele>
        <time>2010-10-10T13:45:40Z</time>
      </trkpt>
      <trkpt lat="43.95717" lon="6.90161">
        <ele>550</ele>
        <time>2010-10-10T13:45:42Z</time>
      </trkpt>
      <trkpt lat="43.95719" lon="6.90153">
        <ele>551</ele>
        <time>2010-10-10T13:45:44Z</time>
      </trkpt>
      <trkpt lat="43.95722" lon="6.90146">
        <ele>550</ele>
        <time>2010-10-10T13:45:47Z</time>
      </trkpt>
      <trkpt lat="43.95724" lon="6.9014">
        <ele>551</ele>
        <time>2010-10-10T13:45:50Z</time>
      </trkpt>
      <trkpt lat="43.95726" lon="6.90134">
        <ele>551</ele>
        <time>2010-10-10T13:45:54Z</time>
      </trkpt>
      <trkpt lat="43.95725" lon="6.90125">
        <ele>551</ele>
        <time>2010-10-10T13:45:57Z</time>
      </trkpt>
      <trkpt lat="43.95723" lon="6.9012">
        <ele>552</ele>
        <time>2010-10-10T13:45:59Z</time>
      </trkpt>
      <trkpt lat="43.95718" lon="6.90113">
        <ele>552</ele>
        <time>2010-10-10T13:46:02Z</time>
      </trkpt>
      <trkpt lat="43.95714" lon="6.90108">
        <ele>553</ele>
        <time>2010-10-10T13:46:05Z</time>
      </trkpt>
      <trkpt lat="43.9571" lon="6.90102">
        <ele>553</ele>
        <time>2010-10-10T13:46:07Z</time>
      </trkpt>
      <trkpt lat="43.95705" lon="6.90096">
        <ele>554</ele>
        <time>2010-10-10T13:46:09Z</time>
      </trkpt>
      <trkpt lat="43.957" lon="6.90093">
        <ele>554</ele>
        <time>2010-10-10T13:46:11Z</time>
      </trkpt>
      <trkpt lat="43.95692" lon="6.90083">
        <ele>553</ele>
        <time>2010-10-10T13:46:14Z</time>
      </trkpt>
      <trkpt lat="43.95688" lon="6.90078">
        <ele>552</ele>
        <time>2010-10-10T13:46:16Z</time>
      </trkpt>
      <trkpt lat="43.95686" lon="6.90067">
        <ele>553</ele>
        <time>2010-10-10T13:46:19Z</time>
      </trkpt>
      <trkpt lat="43.95685" lon="6.90057">
        <ele>551</ele>
        <time>2010-10-10T13:46:21Z</time>
      </trkpt>
      <trkpt lat="43.95682" lon="6.90045">
        <ele>550</ele>
        <time>2010-10-10T13:46:23Z</time>
      </trkpt>
      <trkpt lat="43.95681" lon="6.90039">
        <ele>550</ele>
        <time>2010-10-10T13:46:24Z</time>
      </trkpt>
      <trkpt lat="43.95678" lon="6.90019">
        <ele>547</ele>
        <time>2010-10-10T13:46:27Z</time>
      </trkpt>
      <trkpt lat="43.95676" lon="6.90012">
        <ele>546</ele>
        <time>2010-10-10T13:46:28Z</time>
      </trkpt>
      <trkpt lat="43.95675" lon="6.90004">
        <ele>546</ele>
        <time>2010-10-10T13:46:29Z</time>
      </trkpt>
      <trkpt lat="43.95673" lon="6.89996">
        <ele>546</ele>
        <time>2010-10-10T13:46:30Z</time>
      </trkpt>
      <trkpt lat="43.95672" lon="6.89988">
        <ele>546</ele>
        <time>2010-10-10T13:46:31Z</time>
      </trkpt>
      <trkpt lat="43.95672" lon="6.89979">
        <ele>545</ele>
        <time>2010-10-10T13:46:32Z</time>
      </trkpt>
      <trkpt lat="43.95672" lon="6.8997">
        <ele>545</ele>
        <time>2010-10-10T13:46:33Z</time>
      </trkpt>
      <trkpt lat="43.95671" lon="6.89962">
        <ele>545</ele>
        <time>2010-10-10T13:46:34Z</time>
      </trkpt>
      <trkpt lat="43.95669" lon="6.89952">
        <ele>545</ele>
        <time>2010-10-10T13:46:36Z</time>
      </trkpt>
      <trkpt lat="43.95666" lon="6.89941">
        <ele>543</ele>
        <time>2010-10-10T13:46:40Z</time>
      </trkpt>
      <trkpt lat="43.95669" lon="6.89934">
        <ele>542</ele>
        <time>2010-10-10T13:46:42Z</time>
      </trkpt>
      <trkpt lat="43.95671" lon="6.89927">
        <ele>542</ele>
        <time>2010-10-10T13:46:44Z</time>
      </trkpt>
      <trkpt lat="43.95674" lon="6.89919">
        <ele>542</ele>
        <time>2010-10-10T13:46:46Z</time>
      </trkpt>
      <trkpt lat="43.95677" lon="6.89909">
        <ele>542</ele>
        <time>2010-10-10T13:46:48Z</time>
      </trkpt>
      <trkpt lat="43.95678" lon="6.89902">
        <ele>541</ele>
        <time>2010-10-10T13:46:49Z</time>
      </trkpt>
      <trkpt lat="43.95675" lon="6.89875">
        <ele>539</ele>
        <time>2010-10-10T13:46:53Z</time>
      </trkpt>
      <trkpt lat="43.95674" lon="6.89869">
        <ele>539</ele>
        <time>2010-10-10T13:46:54Z</time>
      </trkpt>
      <trkpt lat="43.95674" lon="6.89859">
        <ele>538</ele>
        <time>2010-10-10T13:46:56Z</time>
      </trkpt>
      <trkpt lat="43.95676" lon="6.89853">
        <ele>538</ele>
        <time>2010-10-10T13:46:58Z</time>
      </trkpt>
      <trkpt lat="43.9568" lon="6.89839">
        <ele>538</ele>
        <time>2010-10-10T13:47:01Z</time>
      </trkpt>
      <trkpt lat="43.95681" lon="6.89833">
        <ele>538</ele>
        <time>2010-10-10T13:47:02Z</time>
      </trkpt>
      <trkpt lat="43.95682" lon="6.89823">
        <ele>537</ele>
        <time>2010-10-10T13:47:03Z</time>
      </trkpt>
      <trkpt lat="43.95685" lon="6.89816">
        <ele>537</ele>
        <time>2010-10-10T13:47:04Z</time>
      </trkpt>
      <trkpt lat="43.95685" lon="6.89807">
        <ele>537</ele>
        <time>2010-10-10T13:47:05Z</time>
      </trkpt>
      <trkpt lat="43.95686" lon="6.89799">
        <ele>537</ele>
        <time>2010-10-10T13:47:06Z</time>
      </trkpt>
      <trkpt lat="43.95686" lon="6.89791">
        <ele>537</ele>
        <time>2010-10-10T13:47:07Z</time>
      </trkpt>
      <trkpt lat="43.95687" lon="6.89781">
        <ele>536</ele>
        <time>2010-10-10T13:47:08Z</time>
      </trkpt>
      <trkpt lat="43.95688" lon="6.89771">
        <ele>537</ele>
        <time>2010-10-10T13:47:09Z</time>
      </trkpt>
      <trkpt lat="43.95691" lon="6.89762">
        <ele>537</ele>
        <time>2010-10-10T13:47:10Z</time>
      </trkpt>
      <trkpt lat="43.95696" lon="6.89757">
        <ele>537</ele>
        <time>2010-10-10T13:47:11Z</time>
      </trkpt>
      <trkpt lat="43.9571" lon="6.89746">
        <ele>537</ele>
        <time>2010-10-10T13:47:14Z</time>
      </trkpt>
      <trkpt lat="43.95713" lon="6.8974">
        <ele>537</ele>
        <time>2010-10-10T13:47:15Z</time>
      </trkpt>
      <trkpt lat="43.95717" lon="6.89731">
        <ele>535</ele>
        <time>2010-10-10T13:47:16Z</time>
      </trkpt>
      <trkpt lat="43.95721" lon="6.8972">
        <ele>533</ele>
        <time>2010-10-10T13:47:17Z</time>
      </trkpt>
      <trkpt lat="43.95723" lon="6.89712">
        <ele>532</ele>
        <time>2010-10-10T13:47:18Z</time>
      </trkpt>
      <trkpt lat="43.95725" lon="6.89704">
        <ele>530</ele>
        <time>2010-10-10T13:47:19Z</time>
      </trkpt>
      <trkpt lat="43.95725" lon="6.89696">
        <ele>529</ele>
        <time>2010-10-10T13:47:20Z</time>
      </trkpt>
      <trkpt lat="43.95725" lon="6.89689">
        <ele>527</ele>
        <time>2010-10-10T13:47:21Z</time>
      </trkpt>
      <trkpt lat="43.95725" lon="6.8968">
        <ele>525</ele>
        <time>2010-10-10T13:47:23Z</time>
      </trkpt>
      <trkpt lat="43.95722" lon="6.89664">
        <ele>520</ele>
        <time>2010-10-10T13:47:27Z</time>
      </trkpt>
      <trkpt lat="43.95718" lon="6.89655">
        <ele>518</ele>
        <time>2010-10-10T13:47:29Z</time>
      </trkpt>
      <trkpt lat="43.95715" lon="6.89651">
        <ele>516</ele>
        <time>2010-10-10T13:47:30Z</time>
      </trkpt>
      <trkpt lat="43.95707" lon="6.89645">
        <ele>514</ele>
        <time>2010-10-10T13:47:32Z</time>
      </trkpt>
      <trkpt lat="43.95702" lon="6.89639">
        <ele>512</ele>
        <time>2010-10-10T13:47:34Z</time>
      </trkpt>
      <trkpt lat="43.95699" lon="6.89634">
        <ele>512</ele>
        <time>2010-10-10T13:47:35Z</time>
      </trkpt>
      <trkpt lat="43.95693" lon="6.89623">
        <ele>512</ele>
        <time>2010-10-10T13:47:37Z</time>
      </trkpt>
      <trkpt lat="43.95686" lon="6.89612">
        <ele>510</ele>
        <time>2010-10-10T13:47:40Z</time>
      </trkpt>
      <trkpt lat="43.95681" lon="6.89606">
        <ele>504</ele>
        <time>2010-10-10T13:47:44Z</time>
      </trkpt>
      <trkpt lat="43.95675" lon="6.89602">
        <ele>503</ele>
        <time>2010-10-10T13:47:47Z</time>
      </trkpt>
      <trkpt lat="43.95672" lon="6.89596">
        <ele>501</ele>
        <time>2010-10-10T13:47:50Z</time>
      </trkpt>
      <trkpt lat="43.95669" lon="6.8959">
        <ele>498</ele>
        <time>2010-10-10T13:47:53Z</time>
      </trkpt>
      <trkpt lat="43.95665" lon="6.89584">
        <ele>497</ele>
        <time>2010-10-10T13:47:55Z</time>
      </trkpt>
      <trkpt lat="43.9566" lon="6.89578">
        <ele>496</ele>
        <time>2010-10-10T13:47:57Z</time>
      </trkpt>
      <trkpt lat="43.95653" lon="6.89576">
        <ele>495</ele>
        <time>2010-10-10T13:47:59Z</time>
      </trkpt>
      <trkpt lat="43.95649" lon="6.8958">
        <ele>494</ele>
        <time>2010-10-10T13:48:02Z</time>
      </trkpt>
      <trkpt lat="43.95644" lon="6.89585">
        <ele>493</ele>
        <time>2010-10-10T13:48:06Z</time>
      </trkpt>
      <trkpt lat="43.95648" lon="6.89591">
        <ele>491</ele>
        <time>2010-10-10T13:48:09Z</time>
      </trkpt>
      <trkpt lat="43.95643" lon="6.89581">
        <ele>490</ele>
        <time>2010-10-10T13:48:14Z</time>
      </trkpt>
      <trkpt lat="43.9564" lon="6.89572">
        <ele>489</ele>
        <time>2010-10-10T13:48:16Z</time>
      </trkpt>
      <trkpt lat="43.95635" lon="6.89568">
        <ele>489</ele>
        <time>2010-10-10T13:48:17Z</time>
      </trkpt>
      <trkpt lat="43.9563" lon="6.89566">
        <ele>488</ele>
        <time>2010-10-10T13:48:18Z</time>
      </trkpt>
      <trkpt lat="43.95625" lon="6.89564">
        <ele>488</ele>
        <time>2010-10-10T13:48:19Z</time>
      </trkpt>
      <trkpt lat="43.9562" lon="6.89561">
        <ele>488</ele>
        <time>2010-10-10T13:48:21Z</time>
      </trkpt>
      <trkpt lat="43.95612" lon="6.89561">
        <ele>488</ele>
        <time>2010-10-10T13:48:24Z</time>
      </trkpt>
      <trkpt lat="43.95603" lon="6.89558">
        <ele>488</ele>
        <time>2010-10-10T13:48:27Z</time>
      </trkpt>
      <trkpt lat="43.95598" lon="6.89558">
        <ele>483</ele>
        <time>2010-10-10T13:48:35Z</time>
      </trkpt>
      <trkpt lat="43.95592" lon="6.8955">
        <ele>482</ele>
        <time>2010-10-10T13:48:37Z</time>
      </trkpt>
      <trkpt lat="43.95582" lon="6.89546">
        <ele>482</ele>
        <time>2010-10-10T13:48:40Z</time>
      </trkpt>
      <trkpt lat="43.95579" lon="6.89541">
        <ele>483</ele>
        <time>2010-10-10T13:48:43Z</time>
      </trkpt>
      <trkpt lat="43.95575" lon="6.89536">
        <ele>483</ele>
        <time>2010-10-10T13:48:44Z</time>
      </trkpt>
      <trkpt lat="43.9557" lon="6.89532">
        <ele>484</ele>
        <time>2010-10-10T13:48:46Z</time>
      </trkpt>
      <trkpt lat="43.95566" lon="6.89525">
        <ele>485</ele>
        <time>2010-10-10T13:48:48Z</time>
      </trkpt>
      <trkpt lat="43.9556" lon="6.89516">
        <ele>485</ele>
        <time>2010-10-10T13:48:50Z</time>
      </trkpt>
      <trkpt lat="43.9557" lon="6.89488">
        <ele>478</ele>
        <time>2010-10-10T13:48:53Z</time>
      </trkpt>
      <trkpt lat="43.9557" lon="6.89482">
        <ele>477</ele>
        <time>2010-10-10T13:48:55Z</time>
      </trkpt>
      <trkpt lat="43.95593" lon="6.89481">
        <ele>477</ele>
        <time>2010-10-10T13:48:56Z</time>
      </trkpt>
      <trkpt lat="43.95599" lon="6.8948">
        <ele>477</ele>
        <time>2010-10-10T13:48:57Z</time>
      </trkpt>
      <trkpt lat="43.95603" lon="6.89473">
        <ele>479</ele>
        <time>2010-10-10T13:48:59Z</time>
      </trkpt>
      <trkpt lat="43.95602" lon="6.89461">
        <ele>481</ele>
        <time>2010-10-10T13:49:01Z</time>
      </trkpt>
      <trkpt lat="43.956" lon="6.89454">
        <ele>482</ele>
        <time>2010-10-10T13:49:02Z</time>
      </trkpt>
      <trkpt lat="43.95597" lon="6.89448">
        <ele>482</ele>
        <time>2010-10-10T13:49:03Z</time>
      </trkpt>
      <trkpt lat="43.95593" lon="6.89439">
        <ele>484</ele>
        <time>2010-10-10T13:49:05Z</time>
      </trkpt>
      <trkpt lat="43.95586" lon="6.89432">
        <ele>484</ele>
        <time>2010-10-10T13:49:07Z</time>
      </trkpt>
      <trkpt lat="43.95582" lon="6.89429">
        <ele>484</ele>
        <time>2010-10-10T13:49:08Z</time>
      </trkpt>
      <trkpt lat="43.95578" lon="6.89421">
        <ele>482</ele>
        <time>2010-10-10T13:49:09Z</time>
      </trkpt>
      <trkpt lat="43.95574" lon="6.89416">
        <ele>481</ele>
        <time>2010-10-10T13:49:10Z</time>
      </trkpt>
      <trkpt lat="43.95562" lon="6.89405">
        <ele>478</ele>
        <time>2010-10-10T13:49:14Z</time>
      </trkpt>
      <trkpt lat="43.95556" lon="6.89401">
        <ele>476</ele>
        <time>2010-10-10T13:49:16Z</time>
      </trkpt>
      <trkpt lat="43.95552" lon="6.89399">
        <ele>475</ele>
        <time>2010-10-10T13:49:20Z</time>
      </trkpt>
      <trkpt lat="43.95548" lon="6.89396">
        <ele>474</ele>
        <time>2010-10-10T13:49:30Z</time>
      </trkpt>
      <trkpt lat="43.95545" lon="6.89395">
        <ele>473</ele>
        <time>2010-10-10T13:49:43Z</time>
      </trkpt>
      <trkpt lat="43.95543" lon="6.89394">
        <ele>473</ele>
        <time>2010-10-10T13:49:44Z</time>
      </trkpt>
      <trkpt lat="43.95537" lon="6.89389">
        <ele>472</ele>
        <time>2010-10-10T13:49:47Z</time>
      </trkpt>
      <trkpt lat="43.95535" lon="6.89383">
        <ele>471</ele>
        <time>2010-10-10T13:49:49Z</time>
      </trkpt>
      <trkpt lat="43.95538" lon="6.89374">
        <ele>470</ele>
        <time>2010-10-10T13:49:53Z</time>
      </trkpt>
      <trkpt lat="43.95537" lon="6.89372">
        <ele>470</ele>
        <time>2010-10-10T13:49:58Z</time>
      </trkpt>
      <trkpt lat="43.9554" lon="6.89377">
        <ele>470</ele>
        <time>2010-10-10T13:50:29Z</time>
      </trkpt>
      <trkpt lat="43.9554" lon="6.89378">
        <ele>470</ele>
        <time>2010-10-10T13:50:30Z</time>
      </trkpt>
      <trkpt lat="43.9554" lon="6.89379">
        <ele>470</ele>
        <time>2010-10-10T13:50:33Z</time>
      </trkpt>
    </trkseg>
  </trk>
</gpx>